Site Date LOGGERID PROGID AIRTEMP_MEAN_150_0_04 AIRTEMP_MEAN_250_0_03 AIRTEMP_MEAN_350_0_02 AIRTEMP_MEAN_450_0_01 AIRTEMP_MEAN_350_0_08 RELHUM_MEAN_150_0_04 RELHUM_MEAN_450_0_01 DEWPT_MEAN_150_0_04 DEWPT_MEAN_450_0_01 SOILTEMP_MEAN_0_10_01 SOILTEMP_MEAN_0_20_02 SOILTEMP_MEAN_0_50_03 SOILTEMP_MEAN_0_100_04 SOILWC_MEAN_0_10_01 SOILWC_MEAN_0_20_02 SOILWC_MEAN_0_50_03 SOILWC_MEAN_0_100_04 SOLAR_MEAN_850_0_01 SNOWDEP_MED_0_0_01 SWE_MED_0_0_01 WSPD_PRO_MEAN_1000_0_01 WDIR_PRO_MEAN_1000_0_01 WDIR_PRO_STDDEV_1000_0_01 AIRTEMP_MAX_150_0_04 AIRTEMP_MAX_250_0_03 AIRTEMP_MAX_350_0_02 AIRTEMP_MAX_350_0_08 AIRTEMP_MAX_450_0_01 DEWPT_MAX_150_0_04 DEWPT_MAX_450_0_01 AIRTEMP_MIN_150_0_04 AIRTEMP_MIN_250_0_03 AIRTEMP_MIN_350_0_02 AIRTEMP_MIN_350_0_08 AIRTEMP_MIN_450_0_01 DEWPT_MIN_150_0_04 DEWPT_MIN_450_0_01 WSPD_PRO_MAX_1000_0_01 SATVP_MEAN_150_0_04 VAP_MEAN_150_0_04 VPD_MEAN_150_0_04 SATVP_MEAN_450_0_01 VAP_MEAN_450_0_01 VPD_MEAN_450_0_01
VANMET_231 2018-07-19 12:15:00 231 11739.0 22.720 22.360 22.020 21.620 21.730 40.870 42.980 8.740 8.500 17.940 17.330 13.090 9.540 0.123 0.171 0.271 0.569 984.00 0.00 0.00 1.0040 207.50 47.74 23.060 22.870 22.490 22.500 21.980 10.370 9.950 22.450 21.930 21.620 20.850 21.340 6.996 7.112 1.8230 27.619 11.280 16.331 25.830 11.098 14.728
VANMET_231 2018-07-19 12:10:00 231 11739.0 22.670 22.280 21.920 21.560 21.270 41.610 43.160 8.960 8.520 17.910 17.340 13.090 9.540 0.123 0.171 0.271 0.569 980.00 0.00 0.00 1.1060 179.90 24.49 22.860 22.620 22.200 21.760 21.670 10.390 10.190 22.430 21.830 21.540 20.880 21.330 7.853 7.795 1.5160 27.535 11.449 16.078 25.736 11.113 14.628
VANMET_231 2018-07-19 12:05:00 231 11739.0 22.180 22.020 21.780 21.320 21.220 41.390 43.280 8.450 8.340 17.880 17.350 13.090 9.540 0.123 0.171 0.271 0.569 981.00 0.00 0.00 0.8230 157.50 48.06 22.550 22.410 22.080 21.610 21.640 9.320 9.270 21.750 21.560 21.370 20.630 21.010 7.622 7.510 1.3000 26.728 11.060 15.665 25.360 10.978 14.384
VANMET_231 2018-07-19 12:00:00 231 11739.0 21.640 21.170 20.930 20.730 20.710 40.730 43.410 7.693 7.833 17.850 17.360 13.090 9.540 0.123 0.171 0.271 0.569 984.00 0.00 0.00 1.2910 216.60 46.45 21.820 21.480 21.270 21.300 20.980 9.920 9.540 21.480 20.880 20.650 20.230 20.600 4.673 5.493 2.5810 25.862 10.505 15.328 24.458 10.606 13.841
VANMET_231 2018-07-19 11:55:00 231 11739.0 22.240 21.560 21.140 21.030 20.920 36.190 38.730 6.449 6.378 17.820 17.360 13.090 9.540 0.123 0.171 0.271 0.569 986.00 0.00 0.00 1.7010 238.40 19.93 22.400 21.890 21.600 21.460 21.270 9.870 9.520 21.860 21.130 20.680 20.300 20.670 3.290 2.072 3.5670 26.825 9.645 17.117 24.913 9.598 15.264
VANMET_231 2018-07-19 11:50:00 231 11739.0 22.380 21.650 21.350 21.040 20.830 39.980 42.170 8.110 7.694 17.800 17.370 13.090 9.540 0.123 0.171 0.271 0.569 981.00 0.00 0.00 1.0390 227.80 36.59 22.540 21.790 21.590 21.510 21.160 10.010 9.290 22.300 21.530 21.200 20.460 20.960 6.709 5.906 2.0320 27.055 10.808 16.238 24.928 10.505 14.416
VANMET_231 2018-07-19 11:45:00 231 11739.0 22.440 21.720 21.480 21.150 20.760 41.850 43.670 8.810 8.300 17.780 17.380 13.090 9.540 0.123 0.171 0.271 0.569 979.00 0.00 0.00 0.8490 175.30 51.82 22.520 21.860 21.630 21.110 21.250 10.580 9.270 22.290 21.630 21.360 20.360 21.070 5.228 5.916 1.5680 27.154 11.333 15.790 25.097 10.948 14.137
VANMET_231 2018-07-19 11:40:00 231 11739.0 22.120 21.530 21.360 21.120 20.820 38.320 38.880 7.131 6.495 17.750 17.390 13.090 9.540 0.123 0.171 0.271 0.569 972.00 0.00 0.00 1.0340 192.00 30.85 22.300 21.710 21.480 21.160 21.260 9.990 9.780 21.960 21.340 21.200 20.200 20.990 2.139 2.537 1.7250 26.630 10.108 16.425 25.051 9.676 15.311
VANMET_231 2018-07-19 11:35:00 231 11739.0 22.160 21.730 21.500 21.200 21.140 40.150 42.270 7.939 7.848 17.730 17.400 13.090 9.540 0.123 0.171 0.271 0.569 974.00 0.00 0.00 1.4280 222.40 26.19 22.260 21.870 21.670 21.400 21.320 10.440 9.340 22.050 21.520 21.280 20.790 20.970 4.081 4.390 2.1820 26.695 10.683 15.977 25.174 10.616 14.533
VANMET_231 2018-07-19 11:30:00 231 11739.0 22.020 21.330 21.120 20.870 20.250 38.740 41.140 7.312 7.193 17.720 17.410 13.090 9.540 0.123 0.171 0.271 0.569 964.00 0.00 0.00 1.0100 182.70 45.07 22.120 21.510 21.350 20.720 21.090 10.410 8.470 21.910 21.190 20.980 19.690 20.770 5.513 5.864 1.6330 26.468 10.235 16.215 24.669 10.152 14.520
VANMET_231 2018-07-19 11:25:00 231 11739.0 22.160 21.470 21.280 21.010 20.370 41.430 43.820 8.450 8.250 17.700 17.420 13.090 9.540 0.123 0.171 0.271 0.569 959.00 0.00 0.00 0.7720 182.80 48.13 22.280 21.610 21.410 20.690 21.120 9.880 9.200 22.070 21.280 21.090 20.070 20.910 7.365 7.304 1.3520 26.695 11.060 15.635 24.882 10.911 13.979
VANMET_231 2018-07-19 11:20:00 231 11739.0 22.120 21.490 21.260 20.910 20.720 43.370 45.510 9.070 8.700 17.680 17.430 13.090 9.540 0.123 0.171 0.271 0.569 951.00 0.00 0.00 0.8470 174.50 38.29 22.340 21.680 21.390 21.000 21.040 10.480 9.950 21.880 21.250 21.020 20.320 20.630 7.454 7.718 1.2670 26.630 11.534 15.081 24.730 11.249 13.475
VANMET_231 2018-07-19 11:15:00 231 11739.0 21.700 21.030 20.770 20.430 20.160 45.060 46.420 9.270 8.570 17.670 17.440 13.090 9.540 0.123 0.171 0.271 0.569 952.00 0.00 0.00 0.7630 200.70 47.10 21.820 21.250 20.980 20.650 20.600 10.590 9.170 21.620 20.810 20.640 19.790 20.300 7.740 8.150 1.3590 25.957 11.691 14.261 24.010 11.151 12.864
VANMET_231 2018-07-19 11:10:00 231 11739.0 21.570 20.990 20.730 20.380 20.180 44.420 46.900 8.940 8.670 17.660 17.450 13.090 9.540 0.123 0.171 0.271 0.569 949.00 0.00 0.00 0.9390 192.00 40.66 21.700 21.090 20.890 20.400 20.460 10.960 9.650 21.430 20.820 20.500 20.010 20.330 7.622 7.847 1.8750 25.751 11.433 14.313 23.936 11.226 12.710
VANMET_231 2018-07-19 11:05:00 231 11739.0 21.420 21.100 20.870 20.440 20.540 45.700 47.470 9.180 8.900 17.650 17.460 13.090 9.540 0.123 0.172 0.271 0.569 942.00 0.00 0.00 1.0030 191.60 35.36 21.610 21.270 21.020 21.040 20.500 11.860 10.190 21.280 20.960 20.750 20.270 20.310 6.084 7.358 1.6990 25.516 11.620 13.855 24.025 11.402 12.620
VANMET_231 2018-07-19 11:00:00 231 11739.0 20.890 20.700 20.450 20.100 20.260 43.810 44.250 8.090 7.516 17.640 17.470 13.090 9.540 0.123 0.172 0.271 0.569 940.00 0.00 0.00 1.2260 263.20 50.18 21.220 20.890 20.670 20.570 20.270 10.850 9.710 20.640 20.430 20.180 19.690 19.970 5.946 5.368 1.9080 24.700 10.793 13.879 23.525 10.378 13.115
VANMET_231 2018-07-19 10:55:00 231 11739.0 20.500 20.270 20.040 19.650 19.960 45.340 45.470 8.230 7.506 17.630 17.480 13.090 9.540 0.123 0.172 0.271 0.569 936.00 0.00 0.00 1.1470 240.30 45.88 20.790 20.750 20.500 20.590 20.120 11.060 10.820 20.260 19.740 19.520 19.000 19.250 4.781 5.508 2.7960 24.114 10.896 13.181 22.878 10.371 12.476
VANMET_231 2018-07-19 10:50:00 231 11739.0 20.510 20.000 19.740 19.610 19.310 43.630 46.090 7.613 7.638 17.620 17.490 13.090 9.540 0.123 0.172 0.271 0.570 933.00 0.00 0.00 2.0020 223.60 40.50 20.900 20.530 20.290 19.930 20.000 11.190 10.870 20.300 19.700 19.420 18.760 19.230 3.645 4.047 3.1030 24.129 10.448 13.601 22.822 10.465 12.303
VANMET_231 2018-07-19 10:45:00 231 11739.0 20.640 20.380 20.090 19.750 19.580 49.820 51.630 9.770 9.500 17.620 17.500 13.090 9.540 0.123 0.172 0.271 0.570 918.00 0.00 0.00 0.8390 181.10 37.95 20.900 20.530 20.230 20.050 19.930 11.620 10.940 20.210 19.980 19.730 19.040 19.420 7.355 8.090 1.6200 24.323 12.091 12.205 23.021 11.873 11.135
VANMET_231 2018-07-19 10:40:00 231 11739.0 19.980 19.590 19.300 19.100 19.120 50.740 53.120 9.450 9.330 17.620 17.510 13.090 9.540 0.123 0.172 0.271 0.570 913.00 0.00 0.00 1.2420 243.10 34.40 20.180 19.930 19.690 19.730 19.380 11.190 10.730 19.820 19.160 18.870 18.510 18.910 7.331 7.439 2.3650 23.351 11.833 11.503 22.109 11.738 10.365
VANMET_231 2018-07-19 10:35:00 231 11739.0 20.360 19.720 19.420 19.380 19.150 48.000 50.540 8.970 8.850 17.620 17.520 13.090 9.540 0.123 0.172 0.272 0.570 905.00 0.00 0.00 1.7300 228.00 20.70 20.650 20.090 19.760 19.520 19.710 10.830 10.120 20.130 19.400 19.060 18.580 19.010 7.458 7.829 2.6200 23.906 11.457 12.431 22.498 11.364 11.127
VANMET_231 2018-07-19 10:30:00 231 11739.0 20.630 20.190 19.910 19.680 19.590 51.330 54.330 10.240 10.210 17.620 17.530 13.090 9.540 0.123 0.172 0.272 0.570 895.00 0.00 0.00 0.9930 249.30 31.89 20.750 20.440 20.160 20.290 19.760 12.180 12.240 20.520 19.960 19.730 19.240 19.550 8.740 8.980 1.7570 24.308 12.478 11.831 22.921 12.453 10.468
VANMET_231 2018-07-19 10:25:00 231 11739.0 20.390 19.760 19.530 19.410 19.250 51.700 54.350 10.120 9.970 17.620 17.540 13.090 9.540 0.123 0.172 0.272 0.570 885.00 0.00 0.00 1.0360 255.10 37.55 20.530 19.940 19.720 19.500 19.570 11.320 11.060 20.230 19.490 19.280 18.900 19.290 9.010 9.020 2.0780 23.951 12.378 11.568 22.540 12.254 10.289
VANMET_231 2018-07-19 10:20:00 231 11739.0 20.550 19.940 19.720 19.350 19.310 50.090 52.510 9.790 9.390 17.620 17.560 13.090 9.540 0.123 0.172 0.272 0.570 877.00 0.00 0.00 1.0730 232.40 49.08 20.640 20.030 19.830 19.700 19.390 11.420 11.030 20.500 19.850 19.580 19.060 19.330 8.270 8.330 2.3910 24.188 12.107 12.072 22.456 11.786 10.664
VANMET_231 2018-07-19 10:15:00 231 11739.0 20.280 19.930 19.670 19.420 19.520 54.430 55.440 10.790 10.270 17.630 17.570 13.090 9.540 0.123 0.172 0.272 0.570 866.00 0.00 0.00 1.1040 287.00 29.25 20.480 20.110 19.790 19.900 19.480 12.250 11.470 20.050 19.760 19.560 19.310 19.340 9.720 9.510 1.8750 23.789 12.944 10.840 22.554 12.503 10.050
VANMET_231 2018-07-19 10:10:00 231 11739.0 20.040 19.520 19.280 19.170 18.810 54.050 57.080 10.470 10.490 17.630 17.580 13.100 9.540 0.123 0.172 0.272 0.570 859.00 0.00 0.00 1.0180 258.30 28.74 20.110 19.660 19.450 18.970 19.300 12.210 10.890 19.990 19.460 19.180 18.610 19.100 9.590 9.760 1.9080 23.438 12.671 10.770 22.206 12.688 9.531
VANMET_231 2018-07-19 10:05:00 231 11739.0 20.200 19.620 19.270 19.030 18.680 56.150 58.960 11.180 10.830 17.640 17.590 13.100 9.540 0.123 0.172 0.272 0.570 848.00 0.00 0.00 0.9090 209.20 35.99 20.300 19.830 19.460 18.840 19.140 12.640 12.300 20.110 19.540 19.200 18.420 18.880 9.110 9.100 1.5160 23.671 13.284 10.380 22.013 12.979 9.034
VANMET_231 2018-07-19 10:00:00 231 11739.0 20.050 19.520 19.210 18.930 18.520 56.750 58.710 11.210 10.680 17.650 17.600 13.100 9.540 0.123 0.172 0.272 0.570 841.00 0.00 0.00 0.6550 178.20 29.51 20.240 19.800 19.430 18.960 19.100 12.310 12.010 19.830 19.310 19.060 18.190 18.800 10.160 9.740 1.3590 23.453 13.310 10.143 21.876 12.850 9.033
VANMET_231 2018-07-19 09:55:00 231 11739.0 19.660 19.180 18.930 18.650 18.300 57.220 60.380 10.960 10.840 17.660 17.610 13.100 9.540 0.123 0.172 0.272 0.570 831.00 0.00 0.00 0.9360 171.90 40.11 19.810 19.330 19.060 18.580 18.790 12.200 11.870 19.480 18.950 18.720 18.050 18.540 9.680 10.010 1.9140 22.893 13.091 9.793 21.496 12.987 8.517
VANMET_231 2018-07-19 09:50:00 231 11739.0 19.450 18.910 18.710 18.460 18.020 59.340 61.430 11.320 10.910 17.670 17.620 13.100 9.540 0.123 0.172 0.272 0.570 821.00 0.00 0.00 0.8910 194.30 27.92 19.520 18.990 18.770 18.250 18.550 12.080 12.140 19.300 18.810 18.630 17.850 18.340 10.420 10.360 1.8290 22.596 13.408 9.188 21.242 13.048 8.193
VANMET_231 2018-07-19 09:45:00 231 11739.0 19.320 18.740 18.550 18.250 17.830 59.100 63.100 11.140 11.130 17.680 17.630 13.100 9.540 0.123 0.172 0.272 0.570 810.00 0.00 0.00 0.7270 149.70 37.47 19.440 18.890 18.780 18.130 18.390 12.200 12.010 19.170 18.560 18.260 17.650 18.100 10.600 10.260 1.1890 22.414 13.249 9.167 20.964 13.240 7.736
VANMET_231 2018-07-19 09:40:00 231 11739.0 19.300 18.850 18.560 18.320 17.880 61.880 64.350 11.820 11.490 17.690 17.640 13.100 9.540 0.124 0.172 0.272 0.570 799.70 0.00 0.00 1.2140 210.90 27.42 19.410 19.020 18.830 18.060 18.400 12.760 12.040 19.150 18.550 18.180 17.660 18.140 10.710 10.770 1.9530 22.386 13.859 8.534 21.057 13.560 7.507
VANMET_231 2018-07-19 09:35:00 231 11739.0 18.940 18.640 18.500 18.110 17.630 62.130 65.220 11.550 11.490 17.700 17.660 13.100 9.540 0.124 0.172 0.272 0.570 786.80 0.00 0.00 0.7640 163.40 48.89 19.200 18.880 18.710 17.990 18.270 12.210 12.400 18.700 18.340 18.170 17.340 17.960 10.900 10.980 1.3650 21.889 13.614 8.290 20.781 13.560 7.228
VANMET_231 2018-07-19 09:30:00 231 11739.0 18.800 18.450 18.250 17.980 17.590 63.760 66.870 11.790 11.740 17.720 17.670 13.100 9.540 0.124 0.172 0.272 0.570 775.90 0.00 0.00 1.1750 221.20 35.58 18.930 18.580 18.390 17.950 18.040 13.030 12.510 18.710 18.310 18.120 17.280 17.890 11.120 11.150 1.8820 21.699 13.831 7.864 20.612 13.786 6.829
VANMET_231 2018-07-19 09:25:00 231 11739.0 18.500 18.210 18.050 17.840 17.350 65.190 67.250 11.850 11.700 17.730 17.680 13.100 9.540 0.124 0.172 0.272 0.570 763.60 0.00 0.00 0.7030 182.00 31.30 18.680 18.310 18.180 17.750 17.880 12.830 12.230 18.370 18.140 17.950 17.180 17.810 11.190 11.110 1.1890 21.296 13.886 7.413 20.431 13.749 6.691
VANMET_231 2018-07-19 09:20:00 231 11739.0 18.360 18.000 17.810 17.630 17.360 65.800 68.660 11.860 11.810 17.750 17.690 13.100 9.540 0.124 0.172 0.272 0.570 752.00 0.00 0.00 1.0100 225.10 34.00 18.420 18.140 17.950 17.800 17.810 12.450 12.380 18.210 17.850 17.710 17.190 17.420 11.170 11.360 1.5480 21.110 13.896 7.219 20.163 13.850 6.319
VANMET_231 2018-07-19 09:15:00 231 11739.0 18.190 17.690 17.480 17.380 17.040 65.030 68.690 11.520 11.580 17.760 17.700 13.090 9.540 0.124 0.172 0.272 0.570 740.80 0.00 0.00 1.1640 211.00 25.71 18.390 17.820 17.660 17.390 17.540 12.050 12.080 18.000 17.480 17.290 16.890 17.260 11.060 11.230 1.8690 20.886 13.587 7.304 19.847 13.641 6.214
VANMET_231 2018-07-19 09:10:00 231 11739.0 18.300 17.860 17.680 17.380 17.110 66.150 68.790 11.890 11.600 17.780 17.710 13.090 9.540 0.124 0.172 0.272 0.570 728.60 0.00 0.00 0.8310 185.10 36.44 18.490 18.060 17.920 17.340 17.600 12.890 12.160 18.050 17.620 17.410 16.930 17.110 11.180 11.320 1.7510 21.030 13.923 7.119 19.847 13.659 6.194
VANMET_231 2018-07-19 09:05:00 231 11739.0 17.890 17.470 17.330 17.030 16.900 67.850 70.210 11.870 11.580 17.790 17.720 13.090 9.540 0.124 0.172 0.272 0.571 716.80 0.00 0.00 1.3060 175.20 62.60 18.040 17.640 17.460 17.160 17.090 12.880 12.150 17.720 17.390 17.250 16.750 16.950 11.120 11.240 2.3450 20.495 13.905 6.589 19.412 13.641 5.783
VANMET_231 2018-07-19 09:00:00 231 11739.0 17.620 17.330 17.190 17.060 16.820 68.120 69.920 11.680 11.540 17.810 17.730 13.090 9.540 0.124 0.173 0.272 0.571 703.80 0.00 0.00 1.2690 217.70 31.74 17.720 17.440 17.300 17.050 17.160 12.290 12.310 17.520 17.230 17.070 16.610 16.980 11.100 11.130 2.1560 20.150 13.731 6.424 19.449 13.605 5.850
VANMET_231 2018-07-19 08:55:00 231 11739.0 17.510 17.260 17.110 16.950 16.690 68.910 70.660 11.750 11.590 17.830 17.740 13.090 9.540 0.124 0.173 0.272 0.571 689.60 0.00 0.00 1.0110 229.50 18.51 17.630 17.430 17.290 17.050 17.120 12.430 11.940 17.310 16.970 16.860 16.390 16.790 11.020 11.080 1.6140 20.010 13.795 6.221 19.314 13.650 5.667
VANMET_231 2018-07-19 08:50:00 231 11739.0 17.510 17.200 17.050 16.900 16.540 66.810 69.660 11.290 11.340 17.850 17.750 13.090 9.540 0.124 0.173 0.272 0.571 676.90 0.00 0.00 1.1640 226.00 35.52 17.690 17.390 17.240 16.840 16.960 11.940 11.820 17.310 16.930 16.830 16.240 16.810 10.760 10.980 1.9400 20.010 13.381 6.641 19.253 13.426 5.841
VANMET_231 2018-07-19 08:45:00 231 11739.0 17.640 17.350 17.170 16.810 16.580 67.330 70.820 11.530 11.500 17.860 17.760 13.090 9.540 0.124 0.173 0.272 0.571 663.10 0.00 0.00 1.3370 232.80 33.43 17.750 17.450 17.270 16.780 16.910 12.000 11.990 17.390 17.140 17.050 16.290 16.650 11.180 11.110 2.1760 20.175 13.596 6.591 19.143 13.569 5.586
VANMET_231 2018-07-19 08:40:00 231 11739.0 17.210 16.890 16.700 16.420 16.050 68.550 71.550 11.390 11.280 17.880 17.770 13.090 9.540 0.124 0.173 0.272 0.571 651.10 0.00 0.00 0.9380 203.10 39.80 17.390 17.150 16.980 16.280 16.630 12.020 11.660 17.080 16.660 16.460 15.780 16.300 10.940 10.920 1.5550 19.635 13.470 6.175 18.675 13.372 5.313
VANMET_231 2018-07-19 08:35:00 231 11739.0 17.160 16.970 16.780 16.600 16.110 68.950 70.400 11.420 11.210 17.900 17.780 13.090 9.540 0.124 0.173 0.272 0.571 636.70 0.00 0.00 1.1690 206.60 26.64 17.290 17.170 16.960 16.220 16.700 12.810 11.500 17.050 16.720 16.530 15.840 16.410 10.650 10.760 2.2470 19.573 13.497 6.077 18.890 13.310 5.591
VANMET_231 2018-07-19 08:30:00 231 11739.0 16.940 16.680 16.540 16.390 16.130 69.250 71.960 11.280 11.330 17.920 17.790 13.090 9.540 0.124 0.173 0.272 0.571 622.80 0.00 0.00 1.1350 225.80 21.95 17.030 16.840 16.690 16.280 16.540 11.920 11.720 16.850 16.540 16.400 16.020 16.290 10.970 10.900 1.9080 19.302 13.372 5.935 18.639 13.417 5.226
VANMET_231 2018-07-19 08:25:00 231 11739.0 16.930 16.790 16.650 16.440 15.990 70.100 71.510 11.460 11.290 17.940 17.800 13.090 9.540 0.124 0.173 0.272 0.571 606.90 0.00 0.00 0.7280 212.20 21.63 17.040 16.890 16.700 16.090 16.500 11.960 11.660 16.760 16.610 16.510 15.850 16.290 10.730 10.970 1.2220 19.290 13.533 5.768 18.698 13.381 5.327
VANMET_231 2018-07-19 08:20:00 231 11739.0 16.590 16.420 16.250 16.160 15.770 71.900 72.840 11.510 11.300 17.960 17.820 13.090 9.540 0.124 0.173 0.272 0.571 593.40 0.00 0.00 0.8860 198.40 32.70 16.770 16.540 16.440 16.020 16.250 12.320 11.930 16.460 16.360 16.190 15.600 16.140 10.900 10.960 1.5880 18.878 13.578 5.305 18.368 13.390 4.989
VANMET_231 2018-07-19 08:15:00 231 11739.0 16.300 16.320 16.170 16.070 15.840 74.150 73.750 11.700 11.390 17.980 17.830 13.090 9.540 0.124 0.173 0.272 0.571 577.60 0.00 0.00 0.8480 219.10 23.21 16.450 16.430 16.260 16.030 16.180 12.250 12.020 16.000 15.980 15.880 15.510 15.860 10.990 11.050 1.5030 18.532 13.749 4.791 18.263 13.470 4.794
VANMET_231 2018-07-19 08:10:00 231 11739.0 15.770 15.750 15.730 15.690 15.560 75.990 75.250 11.560 11.340 17.990 17.840 13.090 9.540 0.124 0.173 0.272 0.571 562.50 0.00 0.00 0.8690 206.90 24.76 15.940 15.970 15.870 15.650 15.850 12.240 11.640 15.620 15.620 15.630 15.510 15.570 11.050 11.140 1.4110 17.916 13.623 4.302 17.824 13.426 4.412
VANMET_231 2018-07-19 08:05:00 231 11739.0 15.480 15.460 15.470 15.440 15.410 78.360 76.450 11.750 11.340 18.010 17.850 13.090 9.540 0.124 0.173 0.272 0.571 546.40 0.00 0.00 0.9590 215.30 18.60 15.590 15.600 15.590 15.540 15.560 12.200 11.520 15.360 15.330 15.390 15.330 15.340 11.500 11.030 1.2350 17.586 13.795 3.806 17.541 13.426 4.131
VANMET_231 2018-07-19 08:00:00 231 11739.0 15.210 15.200 15.290 15.220 15.230 77.990 76.560 11.410 11.140 18.030 17.860 13.090 9.540 0.124 0.173 0.272 0.571 422.80 0.00 0.00 0.7690 203.10 28.63 15.350 15.290 15.380 15.430 15.300 11.730 11.610 15.110 15.060 15.220 15.120 15.150 11.150 10.930 1.1890 17.284 13.488 3.804 17.295 13.249 4.054
VANMET_231 2018-07-19 07:55:00 231 11739.0 15.070 14.900 15.100 15.080 14.780 77.090 76.920 11.100 11.080 18.050 17.870 13.090 9.530 0.124 0.173 0.272 0.571 298.10 0.00 0.00 0.3710 196.10 19.16 15.090 15.030 15.190 15.080 15.140 11.280 11.300 15.050 14.820 15.010 14.640 15.000 10.960 10.810 1.1110 17.129 13.214 3.924 17.140 13.196 3.956
VANMET_231 2018-07-19 07:50:00 231 11739.0 15.100 14.900 15.030 15.050 14.550 77.030 77.530 11.110 11.170 18.070 17.870 13.090 9.530 0.124 0.173 0.272 0.571 259.50 0.00 0.00 0.3440 160.80 15.63 15.140 15.000 15.100 14.730 15.100 11.240 11.280 15.060 14.790 14.950 14.400 14.980 10.930 10.990 0.7510 17.162 13.222 3.942 17.107 13.275 3.844
VANMET_231 2018-07-19 07:45:00 231 11739.0 15.030 15.010 15.160 15.120 14.610 78.020 77.470 11.240 11.220 18.090 17.880 13.090 9.530 0.124 0.173 0.272 0.571 342.10 0.00 0.00 0.3700 169.00 18.62 15.060 15.090 15.320 14.660 15.210 11.590 11.570 15.000 14.980 15.090 14.540 15.060 11.060 11.050 0.8890 17.085 13.337 3.755 17.184 13.319 3.872
VANMET_231 2018-07-19 07:40:00 231 11739.0 14.930 14.960 15.280 15.120 14.450 79.670 78.910 11.460 11.510 18.110 17.890 13.090 9.530 0.124 0.173 0.272 0.571 459.80 0.00 0.00 0.3680 179.80 21.26 15.040 15.110 15.390 14.570 15.200 11.790 11.700 14.860 14.860 15.120 14.310 15.050 11.330 11.370 0.6470 16.975 13.533 3.451 17.184 13.578 3.624
VANMET_231 2018-07-19 07:35:00 231 11739.0 14.980 15.010 15.210 15.220 14.540 78.320 78.050 11.250 11.430 18.130 17.900 13.090 9.530 0.124 0.173 0.272 0.571 452.70 0.00 0.00 0.6560 197.70 20.63 15.160 15.280 15.360 14.600 15.300 11.540 11.600 14.880 14.860 15.100 14.480 15.110 10.990 11.140 1.0390 17.030 13.346 3.692 17.295 13.506 3.796
VANMET_231 2018-07-19 07:30:00 231 11739.0 15.180 15.740 15.760 15.470 14.380 76.750 76.210 11.140 11.310 18.150 17.910 13.090 9.530 0.124 0.173 0.272 0.571 436.90 0.00 0.00 0.8240 210.40 15.70 15.300 15.920 15.960 14.520 15.550 11.550 11.450 14.940 15.330 15.390 14.290 15.350 10.880 11.160 1.3390 17.250 13.249 4.011 17.575 13.399 4.181
VANMET_231 2018-07-19 07:25:00 231 11739.0 14.470 15.080 15.200 15.030 14.230 81.600 78.570 11.370 11.350 18.170 17.930 13.090 9.530 0.124 0.173 0.272 0.571 421.90 0.00 0.00 0.4080 183.10 21.95 14.910 15.770 15.730 14.310 15.360 11.640 11.500 14.170 14.630 14.870 14.130 14.890 11.080 11.040 0.9600 16.479 13.452 3.032 17.085 13.435 3.661
VANMET_231 2018-07-19 07:20:00 231 11739.0 13.970 14.460 14.710 14.880 14.090 83.500 79.020 11.240 11.280 18.190 17.940 13.090 9.540 0.124 0.173 0.272 0.571 407.40 0.00 0.00 0.5910 209.00 13.00 14.150 14.620 14.860 14.240 14.940 11.330 11.450 13.830 14.300 14.580 13.930 14.820 11.140 11.200 1.2150 15.954 13.337 2.632 16.921 13.372 3.550
VANMET_231 2018-07-19 07:15:00 231 11739.0 13.720 14.160 14.460 14.760 14.050 84.200 80.100 11.120 11.380 18.220 17.950 13.090 9.540 0.124 0.173 0.272 0.571 392.50 0.00 0.00 0.4650 209.70 11.96 13.820 14.280 14.570 14.190 14.850 11.220 11.500 13.610 14.080 14.380 13.980 14.680 11.000 11.190 0.8300 15.697 13.231 2.480 16.790 13.461 3.341
VANMET_231 2018-07-19 07:10:00 231 11739.0 13.530 13.880 14.210 14.540 13.950 84.900 80.700 11.040 11.270 18.240 17.960 13.090 9.540 0.124 0.173 0.272 0.571 376.80 0.00 0.00 0.5120 219.80 15.27 13.610 14.070 14.370 14.040 14.660 11.110 11.370 13.480 13.670 14.020 13.880 14.370 10.930 11.100 0.8040 15.504 13.161 2.341 16.553 13.364 3.195
VANMET_231 2018-07-19 07:05:00 231 11739.0 13.410 13.620 13.890 14.000 13.990 84.600 83.300 10.880 11.230 18.260 17.960 13.090 9.540 0.124 0.173 0.272 0.571 352.50 0.00 0.00 0.2890 186.80 23.04 13.460 13.660 14.010 14.160 14.360 10.970 11.560 13.330 13.570 13.760 13.870 13.750 10.740 10.900 0.6270 15.383 13.022 2.369 15.985 13.328 2.669
VANMET_231 2018-07-19 07:00:00 231 11739.0 13.190 13.410 13.570 13.570 13.940 85.300 83.700 10.790 10.880 18.280 17.970 13.090 9.530 0.124 0.173 0.272 0.571 188.50 0.00 0.00 0.7400 213.20 8.75 13.320 13.560 13.740 14.160 13.720 10.860 11.050 13.110 13.350 13.460 13.710 13.490 10.670 10.730 1.0520 15.164 12.944 2.229 15.544 13.022 2.534
VANMET_231 2018-07-19 06:55:00 231 11739.0 13.100 13.380 13.480 13.460 13.840 86.100 84.700 10.840 10.950 18.300 17.980 13.080 9.530 0.124 0.173 0.272 0.571 116.00 0.00 0.00 0.4680 198.30 24.56 13.130 13.400 13.500 13.940 13.500 10.900 10.990 13.080 13.370 13.470 13.760 13.420 10.780 10.820 0.8950 15.075 12.987 2.095 15.433 13.083 2.361
VANMET_231 2018-07-19 06:50:00 231 11739.0 12.980 13.360 13.460 13.390 13.930 86.400 84.600 10.780 10.860 18.320 17.990 13.080 9.530 0.124 0.173 0.272 0.571 79.42 0.00 0.00 0.1520 180.70 8.20 13.080 13.390 13.490 13.990 13.430 10.870 10.900 12.810 13.280 13.400 13.850 13.310 10.660 10.800 0.4900 14.957 12.935 2.034 15.363 13.004 2.366
VANMET_231 2018-07-19 06:45:00 231 11739.0 12.570 13.040 13.260 13.250 13.920 88.700 85.000 10.770 10.800 18.340 18.000 13.080 9.530 0.124 0.173 0.272 0.571 50.43 0.00 0.00 0.3320 183.20 27.03 12.780 13.250 13.390 13.970 13.310 10.980 10.830 12.390 12.890 13.190 13.840 13.220 10.630 10.780 0.6340 14.560 12.927 1.645 15.223 12.953 2.283
VANMET_231 2018-07-19 06:40:00 231 11739.0 12.260 12.720 13.060 13.140 13.660 91.200 86.200 10.880 10.900 18.360 18.010 13.080 9.530 0.124 0.173 0.272 0.571 34.13 0.00 0.00 0.0590 186.70 2.34 12.350 12.880 13.180 13.950 13.200 10.970 11.080 12.190 12.600 12.950 13.270 13.060 10.680 10.770 0.4050 14.267 13.022 1.255 15.114 13.039 2.086
VANMET_231 2018-07-19 06:35:00 231 11739.0 12.170 12.590 12.910 13.000 13.400 91.700 87.200 10.870 10.940 18.380 18.020 13.080 9.530 0.124 0.173 0.272 0.571 36.23 0.00 0.00 0.0000 0.00 0.00 12.200 12.650 12.970 13.680 13.060 10.930 11.080 12.130 12.520 12.860 13.060 12.920 10.810 10.840 0.0000 14.182 13.013 1.177 14.976 13.074 1.917
VANMET_231 2018-07-19 06:30:00 231 11739.0 12.060 12.410 12.690 12.780 13.430 92.300 88.300 10.860 10.910 18.410 18.030 13.080 9.530 0.124 0.173 0.272 0.571 31.92 0.00 0.00 0.0420 227.80 3.87 12.150 12.590 12.880 13.610 12.900 10.900 10.980 11.960 12.200 12.500 13.140 12.680 10.830 10.830 0.3400 14.080 13.004 1.084 14.762 13.048 1.727
VANMET_231 2018-07-19 06:25:00 231 11739.0 11.910 12.110 12.390 12.530 12.910 92.700 90.800 10.790 11.070 18.430 18.040 13.080 9.530 0.124 0.173 0.272 0.571 30.07 0.00 0.00 0.0000 0.00 0.00 11.950 12.170 12.470 13.040 12.660 10.820 11.110 11.880 12.060 12.320 12.850 12.380 10.720 11.000 0.0000 13.941 12.944 1.018 14.522 13.187 1.336
VANMET_231 2018-07-19 06:20:00 231 11739.0 11.890 12.020 12.230 12.240 12.570 92.600 92.700 10.750 11.100 18.450 18.050 13.080 9.530 0.124 0.173 0.272 0.571 28.40 0.00 0.00 0.0000 0.00 0.00 11.900 12.050 12.310 12.830 12.350 10.800 11.130 11.870 12.010 12.190 12.400 12.160 10.700 11.080 0.0000 13.923 12.910 1.030 14.248 13.214 1.040
VANMET_231 2018-07-19 06:15:00 231 11739.0 11.850 11.970 12.110 12.040 12.310 92.900 93.700 10.760 11.060 18.470 18.060 13.080 9.530 0.124 0.173 0.272 0.571 27.23 0.00 0.00 0.0000 0.00 0.00 11.890 12.010 12.200 12.480 12.140 10.820 11.170 11.810 11.920 12.040 12.170 11.990 10.700 10.990 0.0000 13.886 12.918 0.986 14.062 13.179 0.886
VANMET_231 2018-07-19 06:10:00 231 11739.0 11.800 11.900 12.040 11.960 12.180 92.900 93.700 10.700 10.990 18.490 18.070 13.080 9.530 0.124 0.173 0.272 0.571 26.27 0.00 0.00 0.0000 0.00 0.00 11.830 11.930 12.050 12.200 11.990 10.750 11.010 11.770 11.850 12.020 12.170 11.920 10.660 10.960 0.0000 13.841 12.867 0.983 13.988 13.117 0.881
VANMET_231 2018-07-19 06:05:00 231 11739.0 11.730 11.790 11.970 11.890 12.130 92.700 93.800 10.600 10.930 18.520 18.070 13.080 9.530 0.124 0.173 0.272 0.571 25.11 0.00 0.00 0.0120 11.68 0.03 11.760 11.840 12.010 12.200 11.930 10.690 10.970 11.700 11.760 11.950 12.090 11.850 10.550 10.900 0.1050 13.777 12.781 1.006 13.923 13.065 0.863
VANMET_231 2018-07-19 06:00:00 231 11739.0 11.690 11.750 11.910 11.830 12.110 92.700 93.900 10.560 10.890 18.540 18.080 13.080 9.530 0.124 0.173 0.272 0.571 23.83 0.00 0.00 0.2880 7.45 2.95 11.720 11.800 11.950 12.150 11.870 10.630 10.930 11.650 11.690 11.850 12.070 11.800 10.480 10.830 0.5230 13.740 12.747 1.003 13.868 13.030 0.846
VANMET_231 2018-07-19 05:55:00 231 11739.0 11.660 11.680 11.830 11.770 12.110 92.600 93.800 10.510 10.810 18.560 18.090 13.080 9.530 0.124 0.173 0.272 0.571 22.43 0.00 0.00 0.3710 333.70 16.95 11.690 11.700 11.850 12.160 11.800 10.570 10.850 11.620 11.650 11.810 12.030 11.730 10.440 10.770 0.6010 13.713 12.705 1.015 13.813 12.961 0.856
VANMET_231 2018-07-19 05:50:00 231 11739.0 11.620 11.610 11.770 11.710 12.050 92.500 93.800 10.460 10.750 18.580 18.100 13.080 9.530 0.124 0.173 0.272 0.571 20.96 0.00 0.00 0.4970 356.60 6.23 11.650 11.650 11.800 12.110 11.750 10.520 10.800 11.580 11.570 11.750 11.930 11.670 10.350 10.690 0.6210 13.677 12.662 1.026 13.759 12.910 0.853
VANMET_231 2018-07-19 05:45:00 231 11739.0 11.600 11.560 11.730 11.670 11.930 92.000 93.400 10.350 10.650 18.610 18.110 13.080 9.530 0.124 0.173 0.272 0.571 19.22 0.00 0.00 0.5070 0.09 0.00 11.610 11.570 11.750 11.960 11.680 10.370 10.710 11.560 11.550 11.730 11.910 11.640 10.320 10.610 0.5810 13.659 12.570 1.093 13.722 12.824 0.906
VANMET_231 2018-07-19 05:40:00 231 11739.0 11.610 11.540 11.730 11.670 11.890 91.900 93.200 10.350 10.620 18.630 18.120 13.080 9.530 0.124 0.173 0.272 0.571 17.46 0.00 0.00 0.5670 3.71 5.08 11.640 11.550 11.750 11.970 11.690 10.410 10.650 11.590 11.530 11.720 11.850 11.660 10.310 10.590 0.7580 13.668 12.570 1.107 13.722 12.798 0.933
VANMET_231 2018-07-19 05:35:00 231 11739.0 11.610 11.550 11.740 11.680 11.860 91.700 93.100 10.320 10.600 18.650 18.130 13.080 9.530 0.124 0.173 0.272 0.571 15.98 0.00 0.00 0.6300 3.07 0.03 11.640 11.570 11.750 11.870 11.700 10.370 10.630 11.600 11.550 11.730 11.850 11.660 10.290 10.570 0.7450 13.668 12.545 1.134 13.731 12.781 0.947
VANMET_231 2018-07-19 05:30:00 231 11739.0 11.630 11.580 11.750 11.680 11.860 91.400 92.700 10.280 10.540 18.670 18.140 13.070 9.530 0.124 0.173 0.272 0.571 14.58 0.00 0.00 0.6280 0.93 1.52 11.660 11.630 11.780 11.880 11.700 10.330 10.570 11.600 11.550 11.730 11.850 11.660 10.260 10.510 0.7380 13.686 12.511 1.177 13.731 12.730 1.002
VANMET_231 2018-07-19 05:25:00 231 11739.0 11.660 11.640 11.780 11.700 11.880 91.300 92.700 10.300 10.570 18.700 18.140 13.070 9.530 0.124 0.173 0.272 0.571 13.13 0.00 0.00 0.6440 5.87 0.67 11.680 11.680 11.790 11.940 11.720 10.360 10.580 11.640 11.620 11.770 11.850 11.680 10.260 10.540 0.7910 13.713 12.528 1.193 13.749 12.756 1.004
VANMET_231 2018-07-19 05:20:00 231 11739.0 11.640 11.650 11.780 11.690 11.920 91.500 92.700 10.310 10.550 18.720 18.150 13.070 9.530 0.124 0.173 0.272 0.571 11.68 0.00 0.00 0.6380 6.20 0.08 11.680 11.670 11.790 11.950 11.720 10.370 10.590 11.620 11.630 11.770 11.890 11.670 10.270 10.520 0.7510 13.695 12.536 1.164 13.740 12.739 1.003
VANMET_231 2018-07-19 05:15:00 231 11739.0 11.600 11.590 11.740 11.660 11.900 91.300 92.700 10.240 10.530 18.740 18.160 13.070 9.530 0.124 0.173 0.272 0.571 10.17 0.00 0.00 0.7500 9.87 2.90 11.620 11.630 11.760 11.930 11.680 10.310 10.550 11.570 11.570 11.710 11.890 11.630 10.170 10.490 0.9020 13.659 12.478 1.188 13.713 12.722 1.001
VANMET_231 2018-07-19 05:10:00 231 11739.0 11.600 11.560 11.700 11.630 11.840 90.800 92.300 10.160 10.440 18.770 18.170 13.070 9.530 0.123 0.173 0.272 0.570 8.45 0.00 0.00 0.7300 4.01 2.16 11.630 11.610 11.730 11.880 11.660 10.190 10.480 11.570 11.530 11.680 11.810 11.610 10.120 10.390 0.9020 13.659 12.411 1.257 13.686 12.645 1.054
VANMET_231 2018-07-19 05:05:00 231 11739.0 11.600 11.590 11.710 11.630 11.860 91.100 92.400 10.220 10.440 18.790 18.180 13.070 9.530 0.123 0.173 0.272 0.570 6.73 0.00 0.00 0.7550 4.68 0.88 11.640 11.610 11.730 11.870 11.660 10.250 10.480 11.560 11.550 11.680 11.850 11.590 10.150 10.400 0.9210 13.659 12.461 1.216 13.686 12.645 1.040
VANMET_231 2018-07-19 05:00:00 231 11739.0 11.540 11.490 11.660 11.590 11.780 90.900 92.100 10.120 10.360 18.810 18.190 13.070 9.530 0.123 0.173 0.272 0.570 4.99 0.00 0.00 0.7790 5.52 0.60 11.580 11.540 11.680 11.840 11.610 10.200 10.430 11.530 11.470 11.650 11.740 11.580 10.060 10.320 0.9280 13.605 12.378 1.238 13.650 12.578 1.078
VANMET_231 2018-07-19 04:55:00 231 11739.0 11.550 11.520 11.660 11.600 11.790 90.700 91.900 10.090 10.330 18.840 18.190 13.070 9.530 0.123 0.173 0.272 0.570 3.45 0.00 0.00 0.7590 4.33 0.85 11.560 11.530 11.670 11.810 11.610 10.130 10.360 11.530 11.490 11.650 11.750 11.580 10.050 10.290 0.8560 13.614 12.353 1.266 13.659 12.553 1.106
VANMET_231 2018-07-19 04:50:00 231 11739.0 11.580 11.540 11.670 11.610 11.780 90.300 91.600 10.060 10.290 18.860 18.200 13.070 9.530 0.123 0.173 0.272 0.570 1.87 0.00 0.00 0.6990 3.61 1.88 11.610 11.580 11.690 11.820 11.630 10.120 10.310 11.550 11.510 11.650 11.730 11.580 10.020 10.260 0.9800 13.641 12.328 1.323 13.668 12.519 1.148
VANMET_231 2018-07-19 04:45:00 231 11739.0 11.600 11.580 11.700 11.640 11.820 90.500 91.300 10.110 10.270 18.880 18.210 13.070 9.530 0.123 0.173 0.272 0.570 0.40 0.00 0.00 0.9130 9.44 0.86 11.620 11.580 11.720 11.830 11.670 10.130 10.290 11.570 11.570 11.690 11.800 11.610 10.060 10.250 1.0190 13.659 12.370 1.298 13.695 12.503 1.191
VANMET_231 2018-07-19 04:40:00 231 11739.0 11.600 11.590 11.740 11.680 11.860 90.200 91.000 10.060 10.280 18.910 18.220 13.070 9.530 0.123 0.173 0.272 0.570 0.00 0.00 0.00 0.8240 10.05 0.45 11.610 11.600 11.750 11.900 11.700 10.100 10.300 11.580 11.570 11.730 11.830 11.660 10.020 10.260 0.9600 13.659 12.328 1.339 13.731 12.511 1.236
VANMET_231 2018-07-19 04:35:00 231 11739.0 11.600 11.570 11.740 11.690 11.890 90.100 90.900 10.040 10.260 18.930 18.230 13.070 9.530 0.123 0.173 0.272 0.570 0.00 0.00 0.00 0.8040 7.56 2.40 11.620 11.590 11.750 11.900 11.700 10.090 10.280 11.580 11.550 11.740 11.880 11.660 9.990 10.230 0.9410 13.659 12.312 1.352 13.740 12.494 1.250
VANMET_231 2018-07-19 04:30:00 231 11739.0 11.580 11.550 11.720 11.680 11.910 90.100 90.800 10.020 10.240 18.950 18.230 13.070 9.520 0.123 0.173 0.272 0.570 0.00 0.00 0.00 0.6750 4.31 1.83 11.600 11.570 11.740 11.930 11.700 10.070 10.280 11.560 11.520 11.700 11.890 11.660 9.950 10.210 0.8040 13.641 12.295 1.350 13.731 12.478 1.263
VANMET_231 2018-07-19 04:25:00 231 11739.0 11.600 11.540 11.710 11.700 11.920 89.800 90.300 9.990 10.180 18.980 18.240 13.070 9.520 0.123 0.173 0.272 0.570 0.00 0.00 0.00 0.6830 3.38 1.47 11.620 11.550 11.740 11.970 11.730 10.030 10.230 11.570 11.530 11.690 11.870 11.680 9.930 10.150 0.8040 13.659 12.271 1.393 13.749 12.428 1.334
VANMET_231 2018-07-19 04:20:00 231 11739.0 11.630 11.600 11.790 11.750 11.900 89.300 89.900 9.940 10.170 19.000 18.250 13.070 9.520 0.123 0.173 0.272 0.570 0.00 0.00 0.00 0.5470 357.50 3.14 11.650 11.640 11.820 11.960 11.780 9.960 10.180 11.600 11.560 11.750 11.870 11.720 9.910 10.150 0.6530 13.686 12.229 1.464 13.795 12.419 1.393
VANMET_231 2018-07-19 04:15:00 231 11739.0 11.650 11.640 11.820 11.790 11.970 89.200 89.700 9.940 10.160 19.030 18.260 13.070 9.520 0.123 0.173 0.272 0.570 0.00 0.00 0.00 0.6790 356.60 11.17 11.680 11.650 11.830 11.980 11.820 10.010 10.190 11.630 11.640 11.820 11.960 11.770 9.910 10.130 0.8560 13.704 12.229 1.480 13.831 12.411 1.425
VANMET_231 2018-07-19 04:10:00 231 11739.0 11.650 11.640 11.820 11.800 12.010 89.000 89.300 9.910 10.110 19.050 18.260 13.070 9.520 0.123 0.173 0.272 0.570 0.00 0.00 0.00 0.7070 2.64 4.77 11.670 11.670 11.830 12.040 11.820 9.970 10.160 11.630 11.620 11.810 11.960 11.790 9.850 10.040 0.9470 13.704 12.205 1.507 13.841 12.370 1.481
VANMET_231 2018-07-19 04:05:00 231 11739.0 11.650 11.660 11.830 11.820 12.080 88.600 88.700 9.840 10.030 19.070 18.270 13.070 9.520 0.123 0.173 0.272 0.570 0.00 0.00 0.00 0.5940 354.20 4.60 11.680 11.680 11.840 12.130 11.840 9.910 10.070 11.630 11.640 11.820 12.010 11.800 9.780 9.960 0.7190 13.704 12.148 1.562 13.859 12.303 1.566
VANMET_231 2018-07-19 04:00:00 231 11739.0 11.640 11.670 11.800 11.810 12.050 88.200 88.300 9.760 9.960 19.100 18.280 13.070 9.520 0.123 0.173 0.272 0.570 0.00 0.00 0.00 0.6780 2.29 7.59 11.670 11.690 11.830 12.140 11.830 9.790 9.990 11.620 11.640 11.790 11.970 11.790 9.720 9.930 0.8490 13.695 12.083 1.616 13.850 12.246 1.620
VANMET_231 2018-07-19 03:55:00 231 11739.0 11.660 11.680 11.800 11.780 12.140 88.100 88.500 9.770 9.960 19.120 18.290 13.070 9.520 0.123 0.173 0.272 0.570 0.00 0.00 0.00 0.5940 332.90 25.17 11.680 11.700 11.810 12.210 11.820 9.790 10.020 11.630 11.640 11.790 12.050 11.750 9.750 9.910 0.7970 13.713 12.091 1.632 13.822 12.246 1.590
VANMET_231 2018-07-19 03:50:00 231 11739.0 11.630 11.600 11.780 11.720 11.980 88.000 88.400 9.720 9.880 19.150 18.290 13.070 9.520 0.123 0.173 0.272 0.570 0.00 0.00 0.00 0.7030 356.00 15.09 11.640 11.620 11.800 12.050 11.750 9.760 9.930 11.620 11.570 11.740 11.950 11.700 9.680 9.840 0.9670 13.686 12.050 1.642 13.768 12.180 1.597
VANMET_231 2018-07-19 03:45:00 231 11739.0 11.650 11.600 11.770 11.750 11.970 87.800 88.100 9.720 9.850 19.170 18.300 13.060 9.520 0.123 0.173 0.272 0.570 0.00 0.00 0.00 0.6950 5.60 6.07 11.680 11.620 11.800 12.010 11.780 9.730 9.860 11.630 11.570 11.750 11.930 11.710 9.690 9.830 0.8300 13.704 12.050 1.672 13.795 12.156 1.642
VANMET_231 2018-07-19 03:40:00 231 11739.0 11.680 11.670 11.840 11.800 11.980 87.600 87.800 9.710 9.850 19.190 18.310 13.060 9.520 0.123 0.173 0.272 0.570 0.00 0.00 0.00 0.6890 4.85 1.63 11.710 11.700 11.870 12.030 11.820 9.740 9.870 11.650 11.630 11.810 11.950 11.770 9.670 9.820 0.7970 13.731 12.042 1.703 13.841 12.156 1.689
VANMET_231 2018-07-19 03:35:00 231 11739.0 11.660 11.660 11.840 11.770 12.020 87.800 88.000 9.710 9.860 19.220 18.310 13.060 9.520 0.123 0.173 0.272 0.570 0.00 0.00 0.00 0.6510 0.37 8.07 11.690 11.690 11.870 12.070 11.800 9.750 9.890 11.650 11.590 11.780 11.980 11.730 9.700 9.840 0.8750 13.713 12.042 1.673 13.813 12.164 1.658
VANMET_231 2018-07-19 03:30:00 231 11739.0 11.680 11.590 11.780 11.730 11.970 87.500 88.100 9.690 9.830 19.240 18.320 13.060 9.520 0.123 0.173 0.272 0.570 0.00 0.00 0.00 0.6410 0.28 6.37 11.710 11.600 11.790 11.990 11.750 9.710 9.850 11.650 11.580 11.770 11.950 11.710 9.670 9.820 0.8690 13.731 12.026 1.716 13.777 12.140 1.639
VANMET_231 2018-07-19 03:25:00 231 11739.0 11.700 11.580 11.780 11.730 11.990 87.600 88.100 9.720 9.840 19.270 18.330 13.060 9.520 0.123 0.173 0.272 0.570 0.00 0.00 0.00 0.6530 1.34 1.72 11.730 11.600 11.790 12.060 11.750 9.750 9.860 11.690 11.570 11.770 11.950 11.720 9.690 9.810 0.7640 13.749 12.050 1.705 13.777 12.148 1.639
VANMET_231 2018-07-19 03:20:00 231 11739.0 11.740 11.610 11.810 11.770 11.960 87.500 88.000 9.750 9.860 19.290 18.330 13.060 9.520 0.123 0.173 0.272 0.570 0.00 0.00 0.00 0.6120 4.53 0.71 11.780 11.640 11.850 11.990 11.800 9.780 9.880 11.720 11.580 11.780 11.940 11.730 9.730 9.840 0.7380 13.786 12.075 1.723 13.813 12.164 1.658
VANMET_231 2018-07-19 03:15:00 231 11739.0 11.780 11.660 11.860 11.820 11.980 87.400 87.900 9.770 9.900 19.320 18.340 13.060 9.520 0.123 0.173 0.272 0.570 0.00 0.00 0.00 0.7230 5.06 0.17 11.810 11.690 11.890 12.000 11.860 9.790 9.920 11.750 11.640 11.840 11.970 11.800 9.730 9.870 0.8620 13.822 12.091 1.742 13.859 12.197 1.677
VANMET_231 2018-07-19 03:10:00 231 11739.0 11.820 11.730 11.920 11.880 12.050 87.300 87.700 9.790 9.910 19.340 18.340 13.060 9.520 0.123 0.173 0.272 0.570 0.00 0.00 0.00 0.6960 5.02 0.10 11.840 11.760 11.950 12.100 11.910 9.810 9.930 11.800 11.690 11.890 12.000 11.840 9.770 9.890 0.8820 13.859 12.107 1.760 13.914 12.205 1.711
VANMET_231 2018-07-19 03:05:00 231 11739.0 11.840 11.770 11.950 11.920 12.100 87.300 87.700 9.800 9.950 19.370 18.350 13.060 9.520 0.123 0.173 0.272 0.570 0.00 0.00 0.00 0.7540 5.02 0.33 11.850 11.800 11.960 12.150 11.930 9.820 9.970 11.820 11.760 11.950 12.080 11.900 9.780 9.930 0.9080 13.877 12.115 1.762 13.951 12.238 1.716
VANMET_231 2018-07-19 03:00:00 231 11739.0 11.860 11.780 11.950 11.920 12.130 87.400 87.700 9.840 9.970 19.390 18.360 13.060 9.520 0.123 0.173 0.272 0.570 0.00 0.00 0.00 0.6800 0.90 6.02 11.880 11.810 11.970 12.160 11.950 9.860 10.000 11.840 11.760 11.930 12.100 11.890 9.810 9.940 0.8820 13.896 12.148 1.751 13.951 12.254 1.716
VANMET_231 2018-07-19 02:55:00 231 11739.0 11.900 11.830 12.020 11.990 12.140 87.000 87.300 9.810 9.960 19.420 18.360 13.060 9.520 0.123 0.173 0.272 0.570 0.00 0.00 0.00 0.7040 4.13 4.28 11.930 11.870 12.040 12.160 12.010 9.850 9.980 11.880 11.790 11.980 12.100 11.970 9.780 9.940 0.9340 13.932 12.123 1.811 14.015 12.246 1.780
VANMET_231 2018-07-19 02:50:00 231 11739.0 11.920 11.920 12.080 12.030 12.210 86.600 87.000 9.770 9.950 19.440 18.370 13.060 9.520 0.123 0.173 0.272 0.570 0.00 0.00 0.00 0.7350 5.80 0.05 11.940 11.940 12.090 12.260 12.040 9.820 9.970 11.890 11.880 12.050 12.160 11.990 9.730 9.920 0.9080 13.951 12.091 1.869 14.052 12.238 1.827
VANMET_231 2018-07-19 02:45:00 231 11739.0 11.870 11.880 12.070 12.020 12.230 86.600 86.900 9.720 9.920 19.470 18.370 13.060 9.520 0.123 0.173 0.272 0.570 0.00 0.00 0.00 0.8210 5.24 0.47 11.910 11.930 12.090 12.250 12.050 9.790 9.970 11.840 11.830 12.040 12.190 11.980 9.630 9.820 0.9210 13.905 12.050 1.863 14.043 12.213 1.840
VANMET_231 2018-07-19 02:40:00 231 11739.0 11.850 11.830 12.030 11.990 12.180 86.000 86.200 9.610 9.770 19.500 18.380 13.060 9.520 0.123 0.173 0.272 0.570 0.00 0.00 0.00 0.6720 3.31 0.43 11.870 11.840 12.030 12.190 12.020 9.640 9.840 11.830 11.830 12.020 12.170 11.970 9.570 9.730 0.8820 13.886 11.962 1.944 14.015 12.091 1.934
VANMET_231 2018-07-19 02:35:00 231 11739.0 11.860 11.830 12.030 11.990 12.190 85.700 85.800 9.560 9.690 19.520 18.380 13.060 9.520 0.123 0.173 0.272 0.570 0.00 0.00 0.00 0.6200 3.15 1.80 11.880 11.850 12.040 12.220 12.020 9.600 9.760 11.850 11.820 12.020 12.180 11.970 9.530 9.660 0.8300 13.896 11.921 1.987 14.015 12.026 1.990
VANMET_231 2018-07-19 02:30:00 231 11739.0 11.870 11.830 12.030 11.990 12.270 85.500 85.600 9.530 9.660 19.550 18.390 13.060 9.520 0.123 0.173 0.272 0.570 0.00 0.00 0.00 0.5480 359.50 8.56 11.890 11.840 12.040 12.370 12.000 9.550 9.710 11.840 11.820 12.010 12.210 11.970 9.500 9.630 0.6930 13.905 11.897 2.016 14.015 12.002 2.018
VANMET_231 2018-07-19 02:25:00 231 11739.0 11.860 11.850 12.030 11.970 12.200 85.400 85.400 9.510 9.610 19.570 18.390 13.060 9.520 0.123 0.173 0.272 0.570 0.00 0.00 0.00 0.6550 2.42 3.75 11.880 11.870 12.040 12.250 11.990 9.530 9.630 11.840 11.820 12.010 12.180 11.960 9.490 9.590 0.8040 13.896 11.881 2.029 13.997 11.962 2.044
VANMET_231 2018-07-19 02:20:00 231 11739.0 11.880 11.840 12.000 11.960 12.220 85.300 85.400 9.510 9.600 19.600 18.400 13.060 9.520 0.123 0.173 0.272 0.570 0.00 0.00 0.00 0.6440 2.36 5.98 11.900 11.870 12.040 12.250 11.970 9.530 9.620 11.850 11.820 11.970 12.200 11.950 9.480 9.590 0.9020 13.914 11.881 2.045 13.988 11.953 2.042
VANMET_231 2018-07-19 02:15:00 231 11739.0 11.930 11.810 11.960 11.960 12.210 85.000 85.300 9.510 9.580 19.620 18.400 13.060 9.520 0.123 0.173 0.272 0.570 0.00 0.00 0.00 0.6700 0.36 12.05 11.950 11.840 11.990 12.250 11.980 9.520 9.600 11.890 11.800 11.940 12.170 11.930 9.490 9.560 0.7580 13.960 11.881 2.094 13.988 11.937 2.056
VANMET_231 2018-07-19 02:10:00 231 11739.0 11.980 11.900 12.040 12.010 12.210 84.700 85.000 9.500 9.580 19.650 18.410 13.060 9.520 0.123 0.173 0.272 0.570 0.00 0.00 0.00 0.7540 358.00 10.08 12.000 11.940 12.080 12.260 12.050 9.510 9.610 11.950 11.850 12.000 12.180 11.970 9.480 9.560 0.9600 14.006 11.873 2.143 14.034 11.937 2.105
VANMET_231 2018-07-19 02:05:00 231 11739.0 11.980 11.900 12.070 12.040 12.220 84.800 84.900 9.510 9.590 19.670 18.410 13.060 9.520 0.123 0.173 0.272 0.570 0.00 0.00 0.00 0.7640 7.92 3.20 12.000 11.930 12.100 12.260 12.060 9.520 9.630 11.940 11.870 12.060 12.180 12.020 9.480 9.560 0.9600 14.006 11.881 2.129 14.062 11.945 2.123
VANMET_231 2018-07-19 02:00:00 231 11739.0 12.010 11.970 12.130 12.080 12.290 84.700 84.700 9.520 9.590 19.700 18.420 13.060 9.520 0.123 0.173 0.272 0.570 0.00 0.00 0.00 0.7050 6.05 0.98 12.030 11.980 12.140 12.320 12.100 9.540 9.620 11.980 11.930 12.100 12.230 12.060 9.490 9.580 0.9020 14.034 11.889 2.147 14.099 11.945 2.157
VANMET_231 2018-07-19 01:55:00 231 11739.0 12.030 11.970 12.140 12.100 12.300 84.500 84.600 9.510 9.590 19.730 18.420 13.060 9.510 0.123 0.173 0.272 0.570 0.00 0.00 0.00 0.5880 359.70 10.15 12.050 11.990 12.160 12.330 12.110 9.540 9.620 12.000 11.950 12.130 12.260 12.080 9.490 9.560 0.7970 14.052 11.881 2.178 14.117 11.945 2.174
VANMET_231 2018-07-19 01:50:00 231 11739.0 12.050 11.960 12.150 12.120 12.320 84.400 84.400 9.510 9.590 19.750 18.420 13.060 9.510 0.123 0.173 0.272 0.570 0.00 0.00 0.00 0.5720 3.09 3.55 12.060 11.980 12.160 12.340 12.140 9.530 9.610 12.030 11.950 12.140 12.290 12.100 9.490 9.560 0.7450 14.071 11.881 2.195 14.136 11.945 2.205
VANMET_231 2018-07-19 01:45:00 231 11739.0 12.100 12.010 12.190 12.160 12.340 84.100 84.200 9.510 9.590 19.780 18.430 13.050 9.510 0.123 0.173 0.272 0.570 0.00 0.00 0.00 0.6510 4.86 3.63 12.120 12.030 12.210 12.360 12.180 9.530 9.610 12.080 11.980 12.170 12.310 12.150 9.500 9.570 0.8360 14.117 11.881 2.245 14.173 11.945 2.239
VANMET_231 2018-07-19 01:40:00 231 11739.0 12.140 12.050 12.240 12.200 12.390 83.800 83.900 9.500 9.570 19.810 18.430 13.050 9.510 0.123 0.173 0.272 0.570 0.00 0.00 0.00 0.7760 6.86 2.28 12.160 12.070 12.250 12.420 12.220 9.520 9.590 12.120 12.030 12.220 12.360 12.180 9.480 9.550 0.9540 14.154 11.873 2.293 14.211 11.929 2.288
VANMET_231 2018-07-19 01:35:00 231 11739.0 12.160 12.070 12.260 12.220 12.410 83.700 83.700 9.490 9.550 19.830 18.430 13.050 9.510 0.123 0.173 0.272 0.570 0.00 0.00 0.00 0.6460 4.56 3.74 12.190 12.110 12.290 12.430 12.260 9.510 9.590 12.130 12.050 12.240 12.390 12.200 9.460 9.530 0.8230 14.173 11.865 2.310 14.229 11.913 2.319
VANMET_231 2018-07-19 01:30:00 231 11739.0 12.190 12.120 12.290 12.250 12.460 83.400 83.400 9.460 9.530 19.860 18.440 13.050 9.510 0.123 0.173 0.272 0.570 0.00 0.00 0.00 0.6670 360.00 3.03 12.200 12.130 12.300 12.490 12.270 9.490 9.560 12.170 12.110 12.280 12.440 12.230 9.450 9.510 0.7770 14.201 11.841 2.357 14.257 11.897 2.367
VANMET_231 2018-07-19 01:25:00 231 11739.0 12.200 12.120 12.300 12.280 12.470 83.200 83.200 9.440 9.510 19.880 18.440 13.050 9.510 0.123 0.173 0.272 0.570 0.00 0.00 0.00 0.7540 6.22 1.87 12.220 12.130 12.310 12.480 12.290 9.490 9.550 12.180 12.110 12.290 12.460 12.240 9.420 9.480 0.9470 14.211 11.826 2.387 14.286 11.881 2.400
VANMET_231 2018-07-19 01:20:00 231 11739.0 12.250 12.150 12.340 12.320 12.470 82.900 82.700 9.430 9.470 19.910 18.440 13.050 9.510 0.123 0.173 0.272 0.570 0.00 0.00 0.00 0.7050 5.12 0.97 12.270 12.180 12.360 12.500 12.350 9.450 9.490 12.210 12.120 12.310 12.460 12.290 9.420 9.460 0.9280 14.257 11.818 2.438 14.323 11.849 2.478
VANMET_231 2018-07-19 01:15:00 231 11739.0 12.300 12.220 12.390 12.370 12.510 82.500 82.300 9.420 9.460 19.940 18.450 13.050 9.510 0.123 0.173 0.272 0.570 0.00 0.00 0.00 0.6840 4.40 0.27 12.330 12.260 12.430 12.540 12.400 9.440 9.490 12.260 12.180 12.360 12.490 12.330 9.410 9.430 0.8820 14.304 11.810 2.503 14.370 11.841 2.544
VANMET_231 2018-07-19 01:10:00 231 11739.0 12.350 12.300 12.460 12.430 12.590 82.100 81.800 9.390 9.420 19.960 18.450 13.050 9.510 0.123 0.173 0.272 0.570 0.00 0.00 0.00 0.7080 6.65 0.45 12.380 12.350 12.490 12.650 12.460 9.410 9.450 12.330 12.270 12.430 12.550 12.400 9.370 9.400 0.8560 14.351 11.786 2.569 14.427 11.810 2.626
VANMET_231 2018-07-19 01:05:00 231 11739.0 12.360 12.320 12.490 12.470 12.650 81.800 81.600 9.360 9.410 19.990 18.450 13.050 9.510 0.123 0.173 0.272 0.570 0.00 0.00 0.00 0.7680 6.06 1.59 12.380 12.350 12.490 12.680 12.480 9.380 9.430 12.350 12.290 12.490 12.620 12.450 9.340 9.390 0.9020 14.361 11.762 2.614 14.465 11.802 2.662
VANMET_231 2018-07-19 01:00:00 231 11739.0 12.390 12.330 12.520 12.510 12.650 81.600 81.100 9.350 9.380 20.020 18.450 13.050 9.510 0.123 0.173 0.272 0.570 0.00 0.00 0.00 0.6260 2.88 0.41 12.430 12.380 12.560 12.700 12.540 9.380 9.410 12.360 12.290 12.490 12.620 12.480 9.320 9.350 0.7120 14.389 11.754 2.648 14.503 11.778 2.741
VANMET_231 2018-07-19 00:55:00 231 11739.0 12.440 12.430 12.600 12.570 12.740 81.100 80.700 9.300 9.350 20.040 18.460 13.050 9.510 0.123 0.173 0.272 0.570 0.00 0.00 0.00 0.5610 2.15 4.18 12.460 12.450 12.630 12.780 12.600 9.340 9.370 12.410 12.390 12.570 12.700 12.540 9.250 9.320 0.7250 14.437 11.715 2.729 14.560 11.754 2.810
VANMET_231 2018-07-19 00:50:00 231 11739.0 12.470 12.470 12.640 12.620 12.800 80.600 80.100 9.230 9.280 20.070 18.460 13.050 9.510 0.123 0.173 0.272 0.570 0.00 0.00 0.00 0.6020 3.54 4.84 12.500 12.500 12.660 12.840 12.650 9.270 9.320 12.450 12.440 12.630 12.760 12.590 9.170 9.240 0.7840 14.465 11.659 2.806 14.608 11.699 2.907
VANMET_231 2018-07-19 00:45:00 231 11739.0 12.500 12.520 12.680 12.660 12.880 80.100 79.460 9.180 9.220 20.100 18.460 13.050 9.510 0.123 0.173 0.272 0.570 0.00 0.00 0.00 0.5350 3.58 8.41 12.510 12.540 12.690 12.910 12.700 9.210 9.260 12.470 12.500 12.660 12.840 12.650 9.140 9.180 0.8490 14.494 11.620 2.884 14.647 11.652 3.008
VANMET_231 2018-07-19 00:40:00 231 11739.0 12.510 12.530 12.700 12.680 12.940 80.100 79.260 9.170 9.190 20.120 18.460 13.050 9.510 0.123 0.173 0.272 0.570 0.00 0.00 0.00 0.6110 338.00 22.01 12.530 12.550 12.710 12.990 12.700 9.200 9.210 12.490 12.510 12.690 12.900 12.660 9.130 9.160 0.7910 14.503 11.612 2.886 14.666 11.628 3.042
VANMET_231 2018-07-19 00:35:00 231 11739.0 12.550 12.540 12.700 12.670 12.940 79.850 79.140 9.180 9.160 20.150 18.460 13.050 9.510 0.123 0.173 0.272 0.570 0.00 0.00 0.00 0.4920 352.00 17.71 12.580 12.560 12.700 12.970 12.690 9.200 9.180 12.510 12.520 12.690 12.920 12.650 9.140 9.130 0.7190 14.541 11.620 2.930 14.656 11.604 3.057
VANMET_231 2018-07-19 00:30:00 231 11739.0 12.570 12.550 12.720 12.700 13.000 79.610 78.970 9.150 9.160 20.180 18.460 13.050 9.510 0.123 0.173 0.272 0.570 0.00 0.00 0.00 0.6410 2.93 10.02 12.580 12.570 12.750 13.040 12.730 9.170 9.190 12.540 12.530 12.690 12.940 12.660 9.100 9.120 0.7380 14.560 11.597 2.969 14.685 11.604 3.088
VANMET_231 2018-07-19 00:25:00 231 11739.0 12.590 12.580 12.770 12.740 12.940 79.780 78.730 9.200 9.160 20.200 18.460 13.050 9.510 0.123 0.173 0.272 0.570 0.00 0.00 0.00 0.7480 0.22 6.16 12.620 12.590 12.780 12.960 12.770 9.240 9.180 12.570 12.570 12.750 12.920 12.720 9.150 9.140 0.9150 14.579 11.636 2.948 14.724 11.604 3.132
VANMET_231 2018-07-19 00:20:00 231 11739.0 12.630 12.570 12.770 12.750 12.910 79.530 78.660 9.190 9.150 20.230 18.460 13.050 9.510 0.123 0.173 0.272 0.570 0.00 0.00 0.00 0.8370 5.48 2.85 12.650 12.590 12.780 12.940 12.770 9.280 9.170 12.600 12.550 12.760 12.890 12.740 9.150 9.130 0.9670 14.618 11.628 2.992 14.733 11.597 3.144
VANMET_231 2018-07-19 00:15:00 231 11739.0 12.690 12.620 12.830 12.810 12.910 79.250 78.300 9.200 9.140 20.250 18.460 13.050 9.510 0.123 0.173 0.272 0.570 0.00 0.00 0.00 0.7160 5.52 1.07 12.720 12.660 12.870 12.950 12.850 9.220 9.160 12.670 12.570 12.780 12.890 12.760 9.180 9.120 0.8300 14.675 11.636 3.045 14.791 11.589 3.210
VANMET_231 2018-07-19 00:10:00 231 11739.0 12.720 12.670 12.890 12.860 12.990 78.950 78.070 9.180 9.140 20.280 18.460 13.050 9.510 0.123 0.173 0.272 0.570 0.00 0.00 0.00 0.8280 6.09 0.55 12.750 12.680 12.900 13.000 12.870 9.230 9.170 12.700 12.670 12.870 12.960 12.840 9.130 9.120 0.9150 14.704 11.620 3.095 14.840 11.589 3.254
VANMET_231 2018-07-19 00:05:00 231 11739.0 12.740 12.690 12.900 12.880 13.000 79.060 77.990 9.210 9.150 20.310 18.460 13.050 9.510 0.123 0.173 0.272 0.570 0.00 0.00 0.00 0.7430 5.09 0.14 12.760 12.700 12.910 13.020 12.900 9.250 9.190 12.720 12.670 12.890 12.980 12.860 9.150 9.110 0.8360 14.724 11.644 3.083 14.859 11.597 3.271
VANMET_231 2018-07-19 00:00:00 231 11739.0 12.750 12.710 12.920 12.910 13.050 78.760 77.570 9.160 9.100 20.330 18.460 13.050 9.510 0.123 0.173 0.272 0.570 0.00 0.00 0.00 0.7490 5.41 0.66 12.760 12.720 12.940 13.080 12.940 9.200 9.130 12.720 12.700 12.910 13.020 12.890 9.090 9.070 0.8750 14.733 11.604 3.129 14.889 11.558 3.339
VANMET_231 2018-07-18 23:55:00 231 11739.0 12.770 12.720 12.930 12.940 13.090 78.650 77.390 9.170 9.090 20.360 18.460 13.050 9.510 0.123 0.173 0.272 0.570 0.00 0.00 0.00 0.8080 5.47 0.61 12.800 12.720 12.940 13.110 12.970 9.210 9.120 12.750 12.720 12.920 13.070 12.920 9.120 9.070 0.9410 14.753 11.612 3.150 14.918 11.550 3.373
VANMET_231 2018-07-18 23:50:00 231 11739.0 12.840 12.790 12.990 13.010 13.120 78.460 77.540 9.200 9.190 20.390 18.460 13.050 9.510 0.123 0.173 0.272 0.570 0.00 0.00 0.00 0.5870 1.80 0.92 12.880 12.860 13.060 13.140 13.060 9.230 9.230 12.800 12.730 12.930 13.070 12.970 9.170 9.140 0.6600 14.820 11.636 3.192 14.986 11.628 3.366
VANMET_231 2018-07-18 23:45:00 231 11739.0 12.900 12.920 13.110 13.080 13.220 77.810 76.500 9.130 9.060 20.410 18.460 13.050 9.510 0.123 0.172 0.272 0.570 0.00 0.00 0.00 0.6730 4.45 0.58 12.940 12.950 13.130 13.290 13.120 9.190 9.140 12.860 12.870 13.070 13.140 13.060 9.060 9.030 0.8100 14.879 11.581 3.302 15.055 11.526 3.538
VANMET_231 2018-07-18 23:40:00 231 11739.0 12.950 12.970 13.150 13.120 13.310 77.340 76.270 9.090 9.050 20.440 18.460 13.050 9.510 0.123 0.172 0.272 0.570 0.00 0.00 0.00 0.6410 3.17 1.36 12.960 12.990 13.160 13.410 13.150 9.170 9.070 12.920 12.940 13.130 13.260 13.090 9.040 9.030 0.8750 14.928 11.550 3.383 15.094 11.519 3.582
VANMET_231 2018-07-18 23:35:00 231 11739.0 12.950 12.950 13.140 13.130 13.360 77.440 76.300 9.110 9.070 20.460 18.460 13.050 9.510 0.123 0.172 0.272 0.570 0.00 0.00 0.00 0.6040 351.80 17.95 12.970 12.990 13.170 13.390 13.150 9.170 9.100 12.930 12.930 13.130 13.330 13.120 9.050 9.040 0.8300 14.928 11.565 3.368 15.104 11.534 3.580
VANMET_231 2018-07-18 23:30:00 231 11739.0 12.940 12.930 13.130 13.140 13.390 77.600 76.410 9.130 9.100 20.490 18.460 13.050 9.510 0.123 0.172 0.272 0.570 0.00 0.00 0.00 0.5730 358.10 2.63 12.970 12.940 13.150 13.410 13.160 9.190 9.120 12.920 12.910 13.120 13.370 13.120 9.070 9.070 0.6860 14.918 11.581 3.342 15.114 11.558 3.565
VANMET_231 2018-07-18 23:25:00 231 11739.0 12.980 12.930 13.110 13.130 13.410 77.440 76.470 9.140 9.100 20.520 18.460 13.040 9.510 0.123 0.172 0.272 0.570 0.00 0.00 0.00 0.4590 341.10 13.01 13.020 12.940 13.130 13.500 13.160 9.170 9.150 12.950 12.920 13.090 13.280 13.100 9.050 9.050 0.5950 14.957 11.589 3.374 15.104 11.558 3.554
VANMET_231 2018-07-18 23:20:00 231 11739.0 13.050 12.970 13.130 13.170 13.320 77.270 76.470 9.180 9.140 20.540 18.450 13.040 9.510 0.123 0.172 0.272 0.570 0.00 0.00 0.00 0.6080 356.90 18.39 13.090 13.020 13.160 13.390 13.200 9.220 9.190 13.020 12.940 13.110 13.290 13.130 9.120 9.110 0.8490 15.025 11.620 3.415 15.144 11.589 3.563
VANMET_231 2018-07-18 23:15:00 231 11739.0 13.100 13.010 13.160 13.200 13.400 76.940 76.050 9.160 9.080 20.570 18.450 13.040 9.510 0.123 0.172 0.272 0.570 0.00 0.00 0.00 0.6140 353.00 15.87 13.130 13.040 13.200 13.430 13.230 9.270 9.120 13.060 12.990 13.140 13.370 13.180 9.060 9.040 0.8560 15.075 11.604 3.476 15.173 11.542 3.634
VANMET_231 2018-07-18 23:10:00 231 11739.0 13.110 13.040 13.200 13.230 13.390 76.630 75.880 9.110 9.080 20.590 18.450 13.040 9.500 0.123 0.172 0.272 0.570 0.00 0.00 0.00 0.5590 358.20 10.28 13.140 13.060 13.220 13.440 13.270 9.270 9.160 13.090 13.020 13.180 13.320 13.220 9.010 9.020 0.9080 15.085 11.565 3.525 15.203 11.542 3.667
VANMET_231 2018-07-18 23:05:00 231 11739.0 13.160 13.130 13.300 13.340 13.410 77.300 76.040 9.290 9.220 20.620 18.440 13.040 9.500 0.123 0.172 0.272 0.570 0.00 0.00 0.00 0.7430 11.42 4.24 13.200 13.200 13.370 13.530 13.410 9.370 9.350 13.120 13.070 13.230 13.330 13.280 9.230 9.130 0.9020 15.134 11.707 3.435 15.313 11.652 3.669
VANMET_231 2018-07-18 23:00:00 231 11739.0 13.190 13.190 13.360 13.440 13.540 76.850 74.630 9.230 9.030 20.640 18.440 13.040 9.500 0.123 0.172 0.272 0.570 0.00 0.00 0.00 0.4830 24.03 10.46 13.210 13.200 13.380 13.570 13.480 9.390 9.180 13.170 13.170 13.350 13.490 13.400 9.120 8.990 0.7190 15.164 11.659 3.510 15.413 11.503 3.910
VANMET_231 2018-07-18 22:55:00 231 11739.0 13.170 13.210 13.400 13.480 13.700 77.300 74.810 9.300 9.110 20.670 18.440 13.040 9.500 0.123 0.172 0.272 0.570 0.00 0.00 0.00 0.4400 14.48 34.88 13.210 13.240 13.430 13.990 13.520 9.420 9.290 13.140 13.140 13.340 13.560 13.370 9.050 8.890 0.8360 15.144 11.715 3.438 15.453 11.565 3.893
VANMET_231 2018-07-18 22:50:00 231 11739.0 13.110 13.090 13.250 13.340 13.490 77.780 75.670 9.330 9.140 20.690 18.430 13.040 9.500 0.123 0.172 0.272 0.570 0.00 0.00 0.00 0.6410 34.91 33.02 13.160 13.120 13.300 13.740 13.360 9.540 9.380 13.090 13.080 13.230 13.400 13.320 9.140 8.910 0.9020 15.085 11.738 3.352 15.313 11.589 3.726
VANMET_231 2018-07-18 22:45:00 231 11739.0 13.130 13.090 13.270 13.380 13.450 77.890 76.070 9.370 9.260 20.720 18.430 13.040 9.500 0.123 0.172 0.272 0.570 0.00 0.00 0.00 0.7090 44.94 31.86 13.150 13.120 13.290 13.570 13.410 9.540 9.490 13.110 13.070 13.250 13.400 13.340 9.220 9.060 0.8750 15.104 11.770 3.340 15.353 11.683 3.674
VANMET_231 2018-07-18 22:40:00 231 11739.0 13.160 13.120 13.290 13.340 13.470 77.500 75.670 9.330 9.150 20.740 18.420 13.040 9.500 0.123 0.172 0.272 0.570 0.00 0.00 0.00 0.3350 47.26 17.93 13.200 13.140 13.330 13.640 13.390 9.420 9.360 13.120 13.110 13.260 13.370 13.300 9.240 9.030 0.6930 15.134 11.738 3.405 15.313 11.597 3.726
VANMET_231 2018-07-18 22:35:00 231 11739.0 13.270 13.190 13.330 13.360 13.430 77.600 76.540 9.450 9.330 20.770 18.420 13.040 9.500 0.123 0.172 0.272 0.570 0.00 0.00 0.00 0.4250 21.39 20.60 13.330 13.260 13.400 13.490 13.420 9.550 9.490 13.210 13.130 13.260 13.390 13.310 9.340 9.140 0.9800 15.243 11.833 3.414 15.333 11.738 3.597
VANMET_231 2018-07-18 22:30:00 231 11739.0 13.380 13.330 13.480 13.490 13.620 76.970 76.160 9.440 9.380 20.790 18.420 13.040 9.500 0.123 0.172 0.272 0.570 0.00 0.00 0.00 0.6580 21.23 9.62 13.400 13.380 13.530 13.730 13.530 9.560 9.520 13.360 13.280 13.420 13.520 13.420 9.240 9.190 0.8750 15.353 11.826 3.536 15.463 11.778 3.686
VANMET_231 2018-07-18 22:25:00 231 11739.0 13.410 13.350 13.500 13.500 13.690 76.280 74.730 9.330 9.110 20.820 18.410 13.040 9.500 0.123 0.172 0.272 0.570 0.00 0.00 0.00 0.6030 20.94 12.77 13.440 13.370 13.520 13.740 13.520 9.490 9.240 13.380 13.330 13.480 13.650 13.480 9.150 9.060 0.8560 15.383 11.738 3.649 15.473 11.565 3.910
VANMET_231 2018-07-18 22:20:00 231 11739.0 13.450 13.340 13.480 13.520 13.700 76.540 75.420 9.430 9.270 20.840 18.410 13.040 9.500 0.123 0.172 0.272 0.570 0.00 0.00 0.00 0.6530 11.27 16.30 13.490 13.360 13.500 13.760 13.550 9.530 9.420 13.420 13.330 13.450 13.660 13.500 9.290 9.120 1.0060 15.423 11.818 3.618 15.494 11.691 3.808
VANMET_231 2018-07-18 22:15:00 231 11739.0 13.490 13.330 13.450 13.550 13.740 76.320 75.430 9.420 9.300 20.860 18.400 13.040 9.500 0.123 0.172 0.272 0.570 0.00 0.00 0.00 0.4780 4.27 10.14 13.530 13.370 13.500 13.820 13.600 9.550 9.430 13.450 13.310 13.440 13.650 13.520 9.270 9.220 0.6600 15.463 11.810 3.662 15.524 11.715 3.814
VANMET_231 2018-07-18 22:10:00 231 11739.0 13.560 13.420 13.550 13.670 13.740 76.810 75.680 9.580 9.460 20.890 18.390 13.040 9.500 0.123 0.172 0.272 0.570 0.00 0.00 0.00 0.5630 11.22 13.97 13.620 13.490 13.620 13.760 13.750 9.740 9.620 13.510 13.370 13.500 13.710 13.590 9.360 9.370 0.6860 15.534 11.937 3.602 15.646 11.841 3.805
VANMET_231 2018-07-18 22:05:00 231 11739.0 13.660 13.590 13.720 13.840 13.870 76.810 75.150 9.680 9.530 20.910 18.390 13.040 9.500 0.123 0.172 0.272 0.570 0.00 0.00 0.00 0.4930 18.40 16.09 13.710 13.650 13.790 13.910 13.940 9.810 9.660 13.620 13.500 13.630 13.780 13.760 9.510 9.390 0.7710 15.635 12.018 3.626 15.819 11.897 3.931
VANMET_231 2018-07-18 22:00:00 231 11739.0 13.750 13.740 13.870 14.050 14.040 76.560 74.680 9.720 9.630 20.930 18.380 13.040 9.500 0.123 0.172 0.272 0.570 0.00 0.00 0.00 0.5110 18.99 5.20 13.790 13.790 13.900 14.160 14.140 9.790 9.790 13.700 13.650 13.800 13.880 13.930 9.640 9.560 0.6530 15.727 12.050 3.686 16.037 11.978 4.060
VANMET_231 2018-07-18 21:55:00 231 11739.0 13.820 13.810 13.910 14.220 14.230 76.070 73.480 9.690 9.560 20.960 18.370 13.040 9.500 0.123 0.172 0.272 0.570 0.00 0.00 0.00 0.4830 349.50 25.22 13.860 13.860 13.960 14.320 14.260 9.770 9.690 13.760 13.780 13.890 14.120 14.130 9.610 9.460 0.7910 15.799 12.026 3.781 16.214 11.921 4.300
VANMET_231 2018-07-18 21:50:00 231 11739.0 13.880 13.840 13.980 14.230 14.370 75.410 73.160 9.610 9.510 20.980 18.370 13.040 9.500 0.123 0.172 0.272 0.570 0.00 0.00 0.00 0.4580 305.80 15.25 13.890 13.860 14.000 14.490 14.270 9.740 9.600 13.850 13.820 13.950 14.300 14.190 9.540 9.370 0.8620 15.861 11.962 3.900 16.225 11.881 4.355
VANMET_231 2018-07-18 21:45:00 231 11739.0 13.880 13.860 14.040 14.190 14.360 75.910 74.000 9.720 9.640 21.000 18.360 13.040 9.500 0.123 0.172 0.272 0.570 0.00 0.00 0.00 0.2760 318.80 13.60 13.910 13.880 14.080 14.420 14.230 9.800 9.730 13.870 13.840 14.000 14.270 14.170 9.610 9.560 0.3790 15.861 12.050 3.821 16.183 11.986 4.208
VANMET_231 2018-07-18 21:40:00 231 11739.0 13.930 13.930 14.120 14.230 14.290 76.190 74.370 9.820 9.750 21.020 18.350 13.040 9.500 0.123 0.172 0.272 0.570 0.00 0.00 0.00 0.2870 334.20 29.86 13.970 13.990 14.190 14.350 14.270 9.900 9.850 13.910 13.890 14.080 14.230 14.200 9.750 9.620 0.5750 15.912 12.131 3.789 16.225 12.075 4.158
VANMET_231 2018-07-18 21:35:00 231 11739.0 13.970 14.000 14.190 14.240 14.430 76.160 74.440 9.850 9.770 21.040 18.340 13.040 9.500 0.123 0.172 0.272 0.570 0.00 0.00 0.00 0.3200 356.30 30.45 13.980 14.020 14.220 14.530 14.320 9.940 9.960 13.940 13.990 14.150 14.360 14.180 9.720 9.670 0.5160 15.954 12.156 3.803 16.235 12.091 4.150
VANMET_231 2018-07-18 21:30:00 231 11739.0 13.990 13.990 14.140 14.180 14.380 76.130 74.980 9.870 9.820 21.060 18.330 13.040 9.500 0.123 0.172 0.272 0.570 0.00 0.00 0.00 0.1830 324.30 22.98 14.010 14.010 14.160 14.420 14.200 9.920 9.880 13.970 13.970 14.120 14.320 14.160 9.820 9.770 0.4310 15.974 12.172 3.813 16.172 12.131 4.046
VANMET_231 2018-07-18 21:25:00 231 11739.0 14.070 14.050 14.210 14.260 14.380 76.100 75.020 9.930 9.910 21.080 18.330 13.040 9.500 0.123 0.172 0.272 0.570 0.00 0.00 0.00 0.4530 333.40 20.34 14.100 14.080 14.230 14.460 14.290 9.990 9.940 14.020 14.010 14.160 14.310 14.220 9.880 9.880 0.6010 16.057 12.221 3.838 16.256 12.205 4.061
VANMET_231 2018-07-18 21:20:00 231 11739.0 14.110 14.090 14.230 14.320 14.420 75.890 74.970 9.940 9.950 21.100 18.320 13.030 9.500 0.123 0.172 0.272 0.570 0.00 0.00 0.00 0.4260 359.90 6.05 14.150 14.120 14.260 14.480 14.380 9.980 9.990 14.070 14.070 14.210 14.370 14.270 9.870 9.890 0.6600 16.099 12.229 3.881 16.320 12.238 4.085
VANMET_231 2018-07-18 21:15:00 231 11739.0 14.170 14.160 14.290 14.450 14.530 75.730 74.480 9.960 9.990 21.120 18.310 13.030 9.500 0.123 0.172 0.272 0.570 0.00 0.00 0.00 0.4730 336.40 20.48 14.210 14.210 14.330 14.620 14.530 10.010 10.020 14.130 14.110 14.260 14.470 14.390 9.920 9.960 0.8040 16.162 12.246 3.922 16.457 12.271 4.200
VANMET_231 2018-07-18 21:10:00 231 11739.0 14.240 14.250 14.350 14.540 14.710 75.780 74.410 10.040 10.060 21.140 18.300 13.030 9.500 0.123 0.172 0.272 0.570 0.00 0.00 0.00 0.2720 308.30 11.24 14.270 14.290 14.390 15.040 14.580 10.110 10.130 14.190 14.230 14.330 14.590 14.460 9.940 9.990 0.7510 16.235 12.312 3.932 16.553 12.328 4.236
VANMET_231 2018-07-18 21:05:00 231 11739.0 14.270 14.210 14.320 14.420 14.580 75.840 75.420 10.080 10.140 21.160 18.290 13.030 9.500 0.123 0.172 0.272 0.569 0.00 0.00 0.00 0.3270 314.90 15.76 14.290 14.220 14.330 14.660 14.460 10.150 10.200 14.250 14.190 14.310 14.550 14.360 10.030 10.080 0.8230 16.267 12.345 3.930 16.426 12.394 4.037
VANMET_231 2018-07-18 21:00:00 231 11739.0 14.310 14.210 14.320 14.390 14.590 75.580 75.220 10.070 10.070 21.180 18.280 13.030 9.500 0.123 0.172 0.272 0.569 0.00 0.00 0.00 0.6410 339.40 18.65 14.360 14.240 14.350 14.620 14.430 10.130 10.100 14.280 14.200 14.300 14.560 14.360 10.040 10.050 0.9280 16.309 12.336 3.983 16.394 12.336 4.062
VANMET_231 2018-07-18 20:55:00 231 11739.0 14.410 14.280 14.400 14.470 14.630 75.070 74.880 10.060 10.080 21.200 18.270 13.030 9.490 0.123 0.172 0.272 0.569 0.00 0.00 0.00 0.6730 353.10 13.91 14.460 14.330 14.450 14.690 14.500 10.100 10.130 14.350 14.240 14.350 14.580 14.430 10.030 10.050 0.8170 16.415 12.328 4.092 16.479 12.345 4.139
VANMET_231 2018-07-18 20:50:00 231 11739.0 14.520 14.370 14.500 14.550 14.680 74.720 74.480 10.100 10.080 21.210 18.260 13.030 9.490 0.123 0.172 0.272 0.569 0.00 0.00 0.00 0.6180 347.20 22.88 14.590 14.430 14.540 14.720 14.630 10.140 10.120 14.460 14.340 14.460 14.660 14.500 10.070 10.050 0.7450 16.532 12.361 4.179 16.564 12.345 4.227
VANMET_231 2018-07-18 20:45:00 231 11739.0 14.670 14.480 14.580 14.690 14.790 73.920 73.950 10.080 10.110 21.230 18.250 13.030 9.490 0.123 0.172 0.272 0.569 0.00 0.00 0.00 0.5660 347.80 20.44 14.750 14.540 14.620 14.880 14.750 10.120 10.120 14.590 14.430 14.550 14.720 14.620 10.030 10.080 0.7910 16.693 12.345 4.354 16.715 12.370 4.354
VANMET_231 2018-07-18 20:40:00 231 11739.0 14.780 14.630 14.720 14.830 14.930 73.680 73.680 10.140 10.190 21.240 18.240 13.030 9.490 0.123 0.172 0.272 0.569 0.00 0.00 0.00 0.5690 337.30 12.66 14.840 14.690 14.790 15.000 14.910 10.250 10.280 14.720 14.550 14.630 14.870 14.770 10.040 10.110 0.8820 16.812 12.394 4.425 16.866 12.436 4.439
VANMET_231 2018-07-18 20:35:00 231 11739.0 14.920 14.760 14.870 14.960 15.080 73.770 73.620 10.300 10.300 21.260 18.220 13.030 9.490 0.123 0.172 0.272 0.569 0.00 0.00 0.00 0.4650 325.00 16.58 14.970 14.830 14.930 15.150 15.030 10.340 10.400 14.860 14.700 14.800 15.000 14.900 10.260 10.250 0.6930 16.964 12.528 4.450 17.008 12.528 4.487
VANMET_231 2018-07-18 20:30:00 231 11739.0 15.040 14.910 15.010 15.090 15.170 73.450 73.230 10.350 10.350 21.270 18.210 13.030 9.490 0.123 0.172 0.272 0.569 0.00 0.00 0.00 0.1540 32.33 29.40 15.110 14.980 15.080 15.230 15.170 10.440 10.390 14.980 14.840 14.940 15.130 15.020 10.300 10.300 0.5160 17.096 12.570 4.539 17.151 12.570 4.591
VANMET_231 2018-07-18 20:25:00 231 11739.0 15.190 15.060 15.160 15.280 15.290 73.160 72.290 10.430 10.340 21.290 18.200 13.030 9.490 0.123 0.172 0.272 0.569 0.00 0.00 0.00 0.5240 11.98 13.32 15.290 15.120 15.240 15.400 15.370 10.560 10.480 15.110 14.990 15.090 15.240 15.170 10.260 10.240 0.8430 17.262 12.637 4.633 17.362 12.561 4.811
VANMET_231 2018-07-18 20:20:00 231 11739.0 15.420 15.230 15.360 15.520 15.460 71.710 71.280 10.350 10.350 21.300 18.190 13.030 9.490 0.123 0.172 0.272 0.569 0.00 0.00 0.00 0.4880 23.12 26.28 15.570 15.360 15.480 15.590 15.650 10.430 10.470 15.290 15.130 15.250 15.370 15.390 10.250 10.260 0.9020 17.518 12.570 4.956 17.631 12.570 5.064
VANMET_231 2018-07-18 20:15:00 231 11739.0 15.700 15.500 15.630 15.850 15.720 70.550 69.980 10.370 10.400 21.310 18.180 13.030 9.490 0.123 0.172 0.272 0.569 0.00 0.00 0.00 0.4970 9.00 16.12 15.790 15.620 15.770 15.910 16.020 10.490 10.520 15.570 15.370 15.490 15.580 15.680 10.240 10.320 0.7710 17.836 12.586 5.253 18.008 12.612 5.406
VANMET_231 2018-07-18 20:10:00 231 11739.0 15.930 15.770 15.930 16.180 16.000 69.870 68.750 10.450 10.440 21.320 18.160 13.030 9.490 0.123 0.172 0.272 0.569 0.00 0.00 0.00 0.5530 316.10 16.06 16.030 15.900 16.080 16.160 16.320 10.620 10.570 15.810 15.630 15.780 15.870 16.040 10.260 10.340 0.7910 18.100 12.654 5.454 18.391 12.645 5.747
VANMET_231 2018-07-18 20:05:00 231 11739.0 16.160 16.040 16.210 16.450 16.290 69.760 67.980 10.650 10.540 21.330 18.150 13.030 9.490 0.123 0.172 0.272 0.569 0.00 0.00 0.00 0.4270 309.00 23.19 16.290 16.170 16.360 16.380 16.580 10.730 10.650 16.050 15.920 16.100 16.190 16.330 10.550 10.440 0.9410 18.368 12.824 5.554 18.710 12.730 5.991
VANMET_231 2018-07-18 20:00:00 231 11739.0 16.440 16.370 16.560 16.740 16.510 68.670 67.280 10.670 10.660 21.340 18.140 13.030 9.490 0.123 0.172 0.272 0.569 0.00 0.00 0.00 0.2380 21.78 19.73 16.560 16.580 16.760 16.900 16.890 10.790 10.760 16.310 16.190 16.380 16.380 16.580 10.550 10.530 0.6340 18.698 12.841 5.858 19.058 12.832 6.236
VANMET_231 2018-07-18 19:55:00 231 11739.0 16.540 16.610 16.770 16.890 17.110 67.540 66.060 10.530 10.530 21.350 18.120 13.030 9.490 0.123 0.172 0.272 0.569 0.00 0.00 0.00 0.4430 83.50 36.07 16.590 16.680 16.810 17.310 16.930 10.690 10.600 16.480 16.520 16.710 16.920 16.860 10.380 10.460 0.7250 18.818 12.722 6.108 19.241 12.722 6.530
VANMET_231 2018-07-18 19:50:00 231 11739.0 16.470 16.500 16.710 16.890 17.020 67.560 65.790 10.470 10.470 21.360 18.110 13.020 9.490 0.123 0.172 0.272 0.569 0.00 0.00 0.00 0.3020 116.70 45.09 16.520 16.590 16.770 17.320 16.920 10.720 10.700 16.430 16.380 16.610 16.670 16.850 10.300 10.260 0.5950 18.734 12.671 6.077 19.241 12.671 6.582
VANMET_231 2018-07-18 19:45:00 231 11739.0 16.540 16.520 16.740 16.910 16.990 66.830 64.750 10.370 10.250 21.370 18.100 13.020 9.490 0.123 0.172 0.272 0.569 0.33 0.00 0.00 0.3580 160.00 80.30 16.570 16.580 16.800 17.290 16.950 10.630 10.520 16.520 16.460 16.690 16.830 16.880 10.080 10.070 0.9930 18.818 12.586 6.242 19.265 12.486 6.791
VANMET_231 2018-07-18 19:40:00 231 11739.0 16.710 16.630 16.820 17.020 16.950 67.180 65.130 10.610 10.430 21.370 18.080 13.020 9.490 0.123 0.172 0.272 0.569 1.93 0.00 0.00 0.2760 68.91 42.90 16.860 16.770 16.940 17.060 17.130 10.760 10.580 16.560 16.490 16.720 16.800 16.930 10.280 10.110 0.6470 19.022 12.790 6.243 19.400 12.637 6.765
VANMET_231 2018-07-18 19:35:00 231 11739.0 16.950 16.920 17.070 17.240 17.240 66.030 64.160 10.580 10.420 21.380 18.070 13.020 9.490 0.123 0.172 0.272 0.569 3.64 0.00 0.00 0.2620 233.80 55.44 17.050 17.040 17.200 17.490 17.320 10.670 10.560 16.850 16.800 16.960 17.040 17.150 10.360 10.220 0.7640 19.314 12.764 6.561 19.672 12.629 7.050
VANMET_231 2018-07-18 19:30:00 231 11739.0 17.130 17.080 17.230 17.400 17.410 65.970 63.900 10.730 10.510 21.380 18.050 13.020 9.490 0.123 0.172 0.272 0.569 5.09 0.00 0.00 0.4450 308.50 61.92 17.210 17.160 17.290 17.660 17.480 11.020 10.940 17.030 17.010 17.170 17.250 17.320 10.250 10.090 1.1370 19.536 12.892 6.648 19.872 12.705 7.174
VANMET_231 2018-07-18 19:25:00 231 11739.0 17.330 17.270 17.420 17.620 17.490 65.630 63.750 10.850 10.690 21.380 18.040 13.020 9.490 0.123 0.172 0.272 0.569 6.52 0.00 0.00 0.2140 285.20 66.15 17.460 17.420 17.570 17.660 17.730 11.050 11.020 17.220 17.100 17.260 17.330 17.480 10.630 10.290 0.7120 19.784 12.996 6.800 20.150 12.858 7.304
VANMET_231 2018-07-18 19:20:00 231 11739.0 17.560 17.540 17.690 17.810 17.780 63.620 62.120 10.600 10.480 21.390 18.030 13.020 9.490 0.123 0.172 0.272 0.569 8.43 0.00 0.00 0.3390 300.30 44.65 17.680 17.620 17.760 17.940 17.850 10.840 10.650 17.470 17.430 17.580 17.650 17.730 10.300 10.120 0.8950 20.074 12.781 7.303 20.393 12.679 7.725
VANMET_231 2018-07-18 19:15:00 231 11739.0 17.690 17.650 17.780 17.840 17.970 63.010 62.020 10.580 10.480 21.380 18.010 13.020 9.490 0.123 0.172 0.272 0.569 10.01 0.00 0.00 0.6130 290.30 26.33 17.720 17.760 17.900 18.260 17.900 10.940 10.730 17.650 17.550 17.650 17.760 17.770 10.030 10.070 1.4900 20.239 12.764 7.486 20.431 12.679 7.760
VANMET_231 2018-07-18 19:10:00 231 11739.0 17.800 17.680 17.790 17.910 17.920 62.960 62.230 10.670 10.600 21.380 18.000 13.020 9.490 0.123 0.172 0.272 0.569 11.45 0.00 0.00 0.4800 340.70 53.08 17.860 17.750 17.860 18.120 17.980 11.010 11.110 17.740 17.610 17.710 17.740 17.830 10.170 10.170 1.0060 20.380 12.841 7.549 20.521 12.781 7.751
VANMET_231 2018-07-18 19:05:00 231 11739.0 18.030 17.910 18.030 18.190 18.070 63.370 62.330 10.980 10.890 21.380 17.980 13.020 9.480 0.123 0.172 0.272 0.569 12.71 0.00 0.00 0.5240 2.51 57.19 18.150 18.010 18.160 18.390 18.340 11.200 11.310 17.890 17.690 17.820 17.770 17.990 10.590 10.370 0.9340 20.677 13.109 7.574 20.886 13.030 7.868
VANMET_231 2018-07-18 19:00:00 231 11739.0 18.300 18.190 18.350 18.520 18.380 61.690 60.490 10.830 10.750 21.380 17.970 13.020 9.480 0.123 0.172 0.272 0.569 14.20 0.00 0.00 0.3560 311.60 60.32 18.420 18.340 18.520 18.560 18.660 11.110 10.990 18.180 18.020 18.180 18.170 18.360 10.600 10.550 0.7060 21.030 12.979 8.057 21.322 12.910 8.424
VANMET_231 2018-07-18 18:55:00 231 11739.0 18.490 18.460 18.610 18.740 18.700 60.460 59.190 10.710 10.630 21.370 17.950 13.020 9.480 0.123 0.172 0.272 0.569 15.94 0.00 0.00 0.2850 247.90 66.00 18.580 18.520 18.670 19.040 18.810 11.110 11.010 18.410 18.360 18.520 18.470 18.660 10.240 10.300 0.6930 21.282 12.875 8.415 21.618 12.807 8.822
VANMET_231 2018-07-18 18:50:00 231 11739.0 18.720 18.690 18.850 18.990 18.840 60.240 58.570 10.870 10.700 21.370 17.940 13.020 9.480 0.123 0.172 0.272 0.569 17.73 0.00 0.00 0.4800 316.20 38.59 18.860 18.860 18.980 19.150 19.080 11.150 11.020 18.590 18.530 18.680 18.520 18.850 10.400 10.320 1.3330 21.591 13.013 8.584 21.958 12.867 9.097
VANMET_231 2018-07-18 18:45:00 231 11739.0 18.860 18.840 18.970 19.080 19.270 59.310 58.190 10.770 10.690 21.360 17.920 13.020 9.480 0.123 0.172 0.272 0.569 19.05 0.00 0.00 0.4070 291.60 62.31 18.940 18.920 19.040 19.440 19.110 11.150 11.120 18.810 18.780 18.910 19.050 19.050 10.200 10.330 0.9600 21.780 12.927 8.862 22.081 12.858 9.232
VANMET_231 2018-07-18 18:40:00 231 11739.0 19.030 18.930 19.040 19.180 19.140 59.300 58.290 10.930 10.810 21.350 17.910 13.020 9.480 0.123 0.172 0.272 0.569 20.62 0.00 0.00 0.2590 354.00 81.80 19.110 19.050 19.160 19.410 19.280 11.180 11.310 18.920 18.820 18.920 18.910 19.060 10.470 10.500 0.7250 22.013 13.065 8.959 22.220 12.961 9.268
VANMET_231 2018-07-18 18:35:00 231 11739.0 19.230 19.140 19.280 19.440 19.180 60.250 58.840 11.350 11.190 21.340 17.890 13.010 9.480 0.123 0.172 0.272 0.569 22.11 0.00 0.00 0.3640 336.60 50.33 19.390 19.380 19.500 19.500 19.620 11.910 11.860 19.080 18.960 19.110 18.910 19.250 10.330 10.390 0.8690 22.289 13.435 8.860 22.582 13.293 9.295
VANMET_231 2018-07-18 18:30:00 231 11739.0 19.420 19.440 19.560 19.660 19.720 57.910 56.670 10.940 10.840 21.320 17.880 13.010 9.480 0.123 0.172 0.272 0.569 23.81 0.00 0.00 0.3720 305.10 69.59 19.470 19.470 19.590 19.870 19.690 11.450 11.270 19.390 19.390 19.510 19.470 19.620 10.390 10.500 0.6990 22.554 13.074 9.493 22.893 12.987 9.919
VANMET_231 2018-07-18 18:25:00 231 11739.0 19.570 19.540 19.660 19.750 19.820 58.590 57.290 11.250 11.080 21.310 17.860 13.010 9.480 0.123 0.172 0.272 0.569 25.00 0.00 0.00 0.3670 194.60 81.70 19.610 19.620 19.720 20.000 19.790 11.840 11.400 19.490 19.450 19.580 19.670 19.710 10.770 10.820 0.7580 22.765 13.346 9.427 23.021 13.196 9.832
VANMET_231 2018-07-18 18:20:00 231 11739.0 19.640 19.580 19.710 19.820 19.760 59.280 57.840 11.500 11.290 21.290 17.850 13.010 9.480 0.123 0.172 0.272 0.569 26.20 0.00 0.00 0.7520 33.46 91.40 19.750 19.670 19.800 19.940 19.940 12.150 11.920 19.570 19.520 19.650 19.630 19.770 10.660 10.770 2.9660 22.864 13.569 9.310 23.121 13.381 9.748
VANMET_231 2018-07-18 18:15:00 231 11739.0 19.800 19.770 19.920 20.020 20.080 58.350 57.400 11.400 11.370 21.280 17.830 13.010 9.480 0.123 0.172 0.272 0.569 26.80 0.00 0.00 0.5730 215.60 67.71 19.850 19.820 20.000 20.300 20.100 11.890 12.120 19.740 19.690 19.820 19.820 19.940 10.730 10.800 1.2670 23.092 13.479 9.618 23.409 13.452 9.972
VANMET_231 2018-07-18 18:10:00 231 11739.0 19.980 19.860 20.020 20.120 20.100 58.200 56.970 11.530 11.340 21.260 17.820 13.010 9.480 0.123 0.172 0.272 0.569 27.83 0.00 0.00 0.3340 84.30 90.20 20.140 20.000 20.120 20.310 20.220 11.990 11.970 19.850 19.800 19.970 19.960 20.070 10.950 10.850 0.7320 23.351 13.596 9.761 23.554 13.426 10.135
VANMET_231 2018-07-18 18:05:00 231 11739.0 20.150 20.090 20.180 20.270 20.320 56.230 55.940 11.170 11.200 21.230 17.810 13.010 9.480 0.123 0.172 0.272 0.569 52.95 0.00 0.00 0.4320 194.00 75.86 20.190 20.150 20.230 20.470 20.310 11.790 11.730 20.110 20.030 20.160 20.150 20.240 10.720 10.770 1.3330 23.598 13.275 10.329 23.774 13.302 10.475
VANMET_231 2018-07-18 18:00:00 231 11739.0 20.170 20.160 20.280 20.370 20.470 55.820 55.510 11.090 11.180 21.210 17.790 13.010 9.480 0.123 0.172 0.272 0.569 69.62 0.00 0.00 0.5720 242.80 34.80 20.210 20.200 20.310 20.630 20.410 11.270 11.440 20.140 20.130 20.240 20.310 20.330 10.870 10.990 1.2150 23.627 13.205 10.439 23.921 13.284 10.642
VANMET_231 2018-07-18 17:55:00 231 11739.0 20.210 20.160 20.320 20.460 20.430 56.360 55.220 11.260 11.190 21.190 17.780 13.010 9.480 0.123 0.172 0.272 0.569 71.34 0.00 0.00 1.1060 236.50 29.42 20.310 20.230 20.380 20.530 20.540 11.680 11.590 20.140 20.100 20.270 20.340 20.400 10.800 10.830 1.9010 23.686 13.355 10.337 24.054 13.293 10.772
VANMET_231 2018-07-18 17:50:00 231 11739.0 20.490 20.320 20.480 20.670 20.470 57.490 55.930 11.830 11.580 21.160 17.760 13.010 9.480 0.123 0.172 0.272 0.569 65.09 0.00 0.00 1.0520 228.50 47.95 20.680 20.460 20.610 20.540 20.800 12.340 11.960 20.320 20.200 20.350 20.420 20.560 11.260 11.030 2.0510 24.099 13.868 10.244 24.368 13.641 10.739
VANMET_231 2018-07-18 17:45:00 231 11739.0 20.870 20.680 20.830 21.010 20.690 54.410 54.270 11.350 11.440 21.130 17.750 13.010 9.480 0.123 0.172 0.272 0.569 129.60 0.00 0.00 0.8220 246.80 56.06 21.090 20.860 21.040 20.840 21.210 11.760 11.730 20.680 20.480 20.620 20.480 20.830 10.840 11.000 1.4700 24.669 13.435 11.247 24.882 13.515 11.379
VANMET_231 2018-07-18 17:40:00 231 11739.0 21.440 21.280 21.560 21.590 20.840 52.530 51.650 11.340 11.230 21.100 17.730 13.010 9.480 0.123 0.172 0.272 0.569 182.60 0.00 0.00 1.3220 227.90 38.09 21.880 21.810 22.100 21.000 22.000 11.940 11.610 21.100 20.900 21.100 20.780 21.270 10.850 10.910 2.2340 25.547 13.426 12.127 25.783 13.328 12.466
VANMET_231 2018-07-18 17:35:00 231 11739.0 22.160 22.450 22.500 22.130 21.150 51.790 51.470 11.790 11.670 21.070 17.720 13.010 9.480 0.123 0.172 0.272 0.569 350.20 0.00 0.00 0.8480 224.90 47.53 22.340 22.680 22.580 21.300 22.180 12.300 12.160 21.910 21.950 22.240 21.000 22.070 10.840 10.900 2.6530 26.695 13.831 12.870 26.646 13.722 12.931
VANMET_231 2018-07-18 17:30:00 231 11739.0 22.440 22.600 22.540 22.110 21.400 51.110 51.680 11.860 11.720 21.040 17.710 13.010 9.480 0.123 0.172 0.272 0.569 372.50 0.00 0.00 0.4410 325.00 65.57 22.520 22.730 22.680 21.600 22.210 12.320 12.110 22.350 22.500 22.420 21.190 22.030 11.320 11.230 1.4310 27.154 13.896 13.275 26.614 13.768 12.860
VANMET_231 2018-07-18 17:25:00 231 11739.0 22.470 22.520 22.510 22.190 21.460 51.140 51.300 11.890 11.680 21.010 17.690 13.010 9.480 0.123 0.172 0.272 0.569 388.60 0.00 0.00 0.5200 173.40 73.05 22.530 22.630 22.660 21.550 22.370 12.400 12.070 22.400 22.390 22.280 21.320 22.070 11.400 11.220 1.1430 27.203 13.923 13.291 26.744 13.731 13.024
VANMET_231 2018-07-18 17:20:00 231 11739.0 22.290 22.350 22.410 22.280 21.610 51.280 51.210 11.760 11.730 20.970 17.680 13.010 9.480 0.123 0.172 0.272 0.569 406.00 0.00 0.00 0.9210 238.90 36.50 22.400 22.540 22.590 21.780 22.380 12.310 12.240 22.210 22.250 22.280 21.470 22.210 11.240 11.290 1.7050 26.907 13.804 13.109 26.891 13.777 13.120
VANMET_231 2018-07-18 17:15:00 231 11739.0 22.660 22.830 22.850 22.540 21.820 49.500 49.490 11.580 11.460 20.940 17.670 13.000 9.480 0.123 0.172 0.272 0.569 420.70 0.00 0.00 0.9510 190.90 47.90 22.770 22.990 23.010 22.080 22.640 12.190 12.050 22.420 22.470 22.500 21.670 22.380 11.090 10.970 2.4430 27.518 13.641 13.897 27.319 13.533 13.799
VANMET_231 2018-07-18 17:10:00 231 11739.0 22.690 23.110 23.180 22.770 22.160 50.170 49.930 11.800 11.800 20.900 17.650 13.000 9.470 0.123 0.172 0.272 0.569 437.10 0.00 0.00 0.6680 323.40 59.80 22.800 23.260 23.310 22.300 22.820 12.380 12.440 22.570 22.990 23.070 22.020 22.690 11.000 10.860 1.7970 27.569 13.841 13.737 27.703 13.841 13.871
VANMET_231 2018-07-18 17:05:00 231 11739.0 22.500 22.860 23.050 22.700 22.130 51.360 50.470 11.980 11.900 20.860 17.640 13.000 9.470 0.123 0.172 0.272 0.569 452.30 0.00 0.00 0.7290 210.40 79.47 22.610 23.080 23.200 22.310 22.800 12.260 12.250 22.400 22.700 22.920 21.940 22.630 11.620 11.460 1.9470 27.253 14.006 13.256 27.585 13.932 13.663
VANMET_231 2018-07-18 17:00:00 231 11739.0 22.370 22.610 22.860 22.680 22.070 51.050 49.710 11.770 11.650 20.830 17.630 13.000 9.470 0.123 0.172 0.272 0.569 469.40 0.00 0.00 0.7170 218.70 76.21 22.500 22.680 23.000 22.130 22.790 12.710 12.150 22.210 22.480 22.710 21.990 22.590 11.220 11.160 1.6010 27.038 13.813 13.235 27.552 13.704 13.856
VANMET_231 2018-07-18 16:55:00 231 11739.0 22.330 22.490 22.880 22.810 22.260 51.300 49.910 11.810 11.830 20.790 17.620 13.000 9.470 0.123 0.172 0.272 0.569 485.80 0.00 0.00 1.3130 236.10 15.95 22.440 22.660 22.990 22.400 22.870 12.410 12.410 22.200 22.420 22.680 22.080 22.700 11.480 11.360 2.7370 26.973 13.850 13.136 27.770 13.868 13.910
VANMET_231 2018-07-18 16:50:00 231 11739.0 22.470 22.450 22.690 22.850 22.400 51.110 49.200 11.880 11.650 20.750 17.600 13.000 9.470 0.123 0.172 0.272 0.569 501.50 0.00 0.00 1.7120 235.60 39.93 22.600 22.620 22.930 22.640 23.010 12.740 12.290 22.390 22.330 22.520 22.210 22.690 11.220 11.250 3.0050 27.203 13.914 13.300 27.837 13.704 14.141
VANMET_231 2018-07-18 16:45:00 231 11739.0 22.760 22.840 23.220 23.040 22.630 50.350 49.190 11.920 11.830 20.710 17.590 13.000 9.470 0.123 0.172 0.272 0.569 514.10 0.00 0.00 0.8610 144.90 72.05 22.850 23.070 23.520 22.850 23.190 12.710 12.610 22.620 22.680 23.020 22.430 22.950 11.370 11.320 2.8350 27.686 13.951 13.746 28.159 13.868 14.308
VANMET_231 2018-07-18 16:40:00 231 11739.0 23.090 23.080 23.440 23.180 22.570 48.700 48.180 11.720 11.630 20.660 17.580 13.000 9.470 0.123 0.172 0.272 0.569 528.70 0.00 0.00 0.9070 204.50 86.00 23.300 23.380 23.780 22.800 23.430 12.680 12.180 22.840 22.920 23.270 22.340 23.050 11.170 11.060 1.4900 28.244 13.768 14.489 28.398 13.686 14.716
VANMET_231 2018-07-18 16:35:00 231 11739.0 23.400 23.350 23.430 23.160 22.760 49.320 49.380 12.190 11.990 20.620 17.570 13.000 9.470 0.123 0.172 0.272 0.569 544.40 0.00 0.00 0.6040 319.20 83.60 23.510 23.460 23.790 22.890 23.410 13.260 12.560 23.300 23.230 23.180 22.620 23.010 11.390 11.430 1.5220 28.778 14.201 14.585 28.364 14.015 14.358
VANMET_231 2018-07-18 16:30:00 231 11739.0 23.610 23.570 23.480 23.220 22.750 47.570 48.490 11.840 11.770 20.580 17.560 13.000 9.470 0.123 0.172 0.272 0.569 558.00 0.00 0.00 1.0780 211.70 51.42 23.750 23.730 23.630 22.880 23.330 12.430 12.440 23.490 23.470 23.400 22.540 23.130 11.170 11.440 3.3520 29.144 13.877 15.280 28.467 13.813 14.663
VANMET_231 2018-07-18 16:25:00 231 11739.0 24.100 23.990 23.910 23.700 22.950 45.980 47.200 11.770 11.800 20.540 17.550 13.000 9.470 0.123 0.172 0.272 0.569 572.90 0.00 0.00 1.1620 304.30 77.18 24.360 24.550 24.570 23.320 24.090 12.700 12.570 23.760 23.420 23.340 22.580 23.190 11.200 11.370 3.1290 30.015 13.813 16.214 29.302 13.841 15.472
VANMET_231 2018-07-18 16:20:00 231 11739.0 24.220 24.310 24.280 23.890 23.210 47.130 47.790 12.260 12.160 20.490 17.540 13.000 9.470 0.123 0.172 0.272 0.569 587.50 0.00 0.00 0.6240 223.90 57.15 24.370 24.520 24.520 23.290 24.050 13.380 12.600 24.090 24.080 24.000 23.120 23.650 11.580 11.820 1.0980 30.232 14.267 15.983 29.639 14.173 15.475
VANMET_231 2018-07-18 16:15:00 231 11739.0 24.540 24.380 24.110 23.810 23.290 46.000 48.030 12.170 12.170 20.450 17.530 13.000 9.470 0.123 0.172 0.272 0.569 602.90 0.00 0.00 0.8060 306.70 46.60 24.650 24.570 24.260 23.570 23.960 12.990 12.930 24.320 24.110 23.870 22.930 23.620 11.490 11.560 1.5750 30.816 14.182 16.641 29.497 14.182 15.330
VANMET_231 2018-07-18 16:10:00 231 11739.0 24.630 24.500 24.210 23.850 23.320 47.070 48.890 12.600 12.480 20.400 17.520 13.000 9.470 0.123 0.172 0.272 0.569 616.10 0.00 0.00 1.1060 208.00 57.59 24.700 24.570 24.270 23.650 23.940 13.800 13.350 24.530 24.420 24.120 23.040 23.750 11.590 11.700 2.7700 30.982 14.589 16.399 29.568 14.475 15.112
VANMET_231 2018-07-18 16:05:00 231 11739.0 24.770 24.490 24.210 23.880 23.500 46.730 48.010 12.600 12.220 20.350 17.510 13.000 9.470 0.123 0.172 0.272 0.569 630.20 0.00 0.00 0.9370 245.70 53.76 24.830 24.620 24.370 23.820 23.990 14.370 12.860 24.680 24.290 24.000 22.830 23.720 11.050 11.370 2.0120 31.242 14.589 16.643 29.621 14.229 15.400
VANMET_231 2018-07-18 16:00:00 231 11739.0 24.700 24.370 24.110 23.810 23.530 46.430 48.570 12.460 12.340 20.310 17.500 13.000 9.470 0.123 0.172 0.272 0.569 644.80 0.00 0.00 1.5580 207.10 41.14 24.730 24.550 24.340 23.720 24.000 13.230 13.100 24.660 24.280 24.000 23.430 23.700 11.750 11.820 3.2800 31.112 14.456 16.667 29.497 14.342 15.170
VANMET_231 2018-07-18 15:55:00 231 11739.0 24.910 24.620 24.400 24.060 23.420 44.690 46.860 12.070 12.020 20.260 17.500 13.000 9.470 0.123 0.173 0.272 0.569 660.20 0.00 0.00 1.4700 237.30 57.00 25.120 25.010 24.740 23.790 24.220 13.220 12.830 24.670 24.300 24.110 23.080 23.920 10.840 11.060 3.1820 31.504 14.089 17.425 29.943 14.043 15.912
VANMET_231 2018-07-18 15:50:00 231 11739.0 24.760 24.470 24.310 23.940 23.600 46.000 47.710 12.360 12.180 20.210 17.490 13.000 9.470 0.123 0.173 0.272 0.569 668.70 0.00 0.00 0.9440 173.70 64.92 24.930 24.680 24.520 23.940 24.080 14.020 13.450 24.680 24.350 24.200 23.370 23.770 11.440 11.470 2.9010 31.224 14.361 16.861 29.728 14.192 15.545
VANMET_231 2018-07-18 15:45:00 231 11739.0 24.610 24.190 23.920 23.660 23.430 46.600 48.530 12.430 12.180 20.160 17.480 13.000 9.470 0.123 0.173 0.272 0.570 689.50 0.00 0.00 1.8780 235.70 20.17 24.820 24.410 24.160 23.590 23.890 14.010 13.170 24.470 23.960 23.690 23.150 23.530 11.300 11.550 3.4690 30.945 14.427 16.525 29.232 14.192 15.046
VANMET_231 2018-07-18 15:40:00 231 11739.0 24.810 24.490 24.220 23.940 23.480 45.440 47.650 12.240 12.160 20.110 17.470 13.000 9.470 0.123 0.173 0.272 0.570 696.40 0.00 0.00 1.0400 227.20 40.44 24.890 24.760 24.570 23.850 24.100 13.130 13.030 24.750 24.270 23.960 23.110 23.820 11.320 11.270 4.1620 31.317 14.248 17.087 29.728 14.173 15.563
VANMET_231 2018-07-18 15:35:00 231 11739.0 25.000 24.590 24.320 24.130 23.720 46.150 47.490 12.630 12.290 20.060 17.470 13.000 9.470 0.123 0.173 0.272 0.570 708.80 0.00 0.00 1.4070 226.50 56.46 25.060 24.820 24.570 24.070 24.260 14.030 13.110 24.840 24.300 24.020 23.340 24.010 11.350 11.570 2.8030 31.674 14.618 17.056 30.069 14.295 15.789
VANMET_231 2018-07-18 15:30:00 231 11739.0 25.060 24.810 24.540 24.230 23.920 45.070 46.990 12.340 12.220 20.010 17.460 13.000 9.470 0.123 0.173 0.272 0.570 719.90 0.00 0.00 1.1420 221.80 62.02 25.150 25.000 24.730 24.020 24.320 13.100 12.930 24.950 24.650 24.390 23.760 24.140 11.610 11.690 2.4170 31.787 14.342 17.461 30.250 14.229 16.035
VANMET_231 2018-07-18 15:25:00 231 11739.0 25.040 24.800 24.550 24.280 23.890 44.880 46.900 12.250 12.230 19.960 17.450 13.000 9.470 0.123 0.173 0.272 0.570 732.50 0.00 0.00 0.9470 228.40 56.06 25.110 24.880 24.630 24.120 24.350 13.620 13.240 24.950 24.640 24.400 23.690 24.160 11.260 11.630 2.0380 31.749 14.257 17.500 30.341 14.239 16.111
VANMET_231 2018-07-18 15:20:00 231 11739.0 25.110 24.870 24.620 24.260 23.970 45.770 47.400 12.600 12.370 19.910 17.450 13.000 9.470 0.123 0.173 0.272 0.570 753.60 0.00 0.00 0.8420 140.50 85.80 25.200 25.100 24.830 24.420 24.390 13.980 14.220 25.040 24.700 24.430 23.570 24.140 11.240 11.350 2.0510 31.882 14.589 17.290 30.304 14.370 15.940
VANMET_231 2018-07-18 15:15:00 231 11739.0 24.880 24.490 24.290 24.060 23.880 43.810 45.940 11.740 11.720 19.860 17.440 13.000 9.470 0.123 0.173 0.272 0.570 761.70 0.00 0.00 1.3830 232.30 64.93 25.000 24.820 24.560 24.210 24.220 12.990 13.130 24.810 24.300 24.120 23.600 23.920 10.570 10.970 3.5870 31.448 13.786 17.671 29.943 13.768 16.187
VANMET_231 2018-07-18 15:10:00 231 11739.0 24.880 24.590 24.410 24.170 23.830 40.800 42.050 10.640 10.470 19.810 17.440 13.000 9.470 0.123 0.173 0.272 0.570 768.60 0.00 0.00 1.2130 230.00 34.09 25.030 24.860 24.640 24.140 24.280 13.080 11.680 24.710 24.350 24.240 23.510 24.080 8.480 8.850 1.9990 31.448 12.815 18.617 30.141 12.671 17.467
VANMET_231 2018-07-18 15:05:00 231 11739.0 24.820 24.300 24.120 23.890 23.610 39.370 41.370 10.040 9.980 19.760 17.430 13.000 9.470 0.123 0.173 0.272 0.570 777.70 0.00 0.00 1.2590 281.90 93.20 25.100 24.610 24.430 24.290 24.130 12.010 11.860 24.570 23.900 23.700 23.090 23.610 8.820 9.030 2.6790 31.336 12.312 18.999 29.639 12.262 17.377
VANMET_231 2018-07-18 15:00:00 231 11739.0 25.220 24.790 24.580 24.220 23.820 38.440 40.130 10.060 9.830 19.710 17.430 13.000 9.470 0.123 0.173 0.273 0.570 790.00 0.00 0.00 0.9390 346.70 74.74 25.380 25.140 24.880 24.270 24.420 12.450 11.450 25.100 24.530 24.340 23.530 24.080 8.840 9.240 1.5090 32.091 12.328 19.755 30.232 12.140 18.100
VANMET_231 2018-07-18 14:55:00 231 11739.0 24.870 24.700 24.390 24.010 23.910 40.460 41.060 10.520 9.970 19.650 17.420 13.000 9.470 0.123 0.173 0.273 0.570 798.70 0.00 0.00 0.8200 232.20 74.64 25.210 25.050 24.780 24.250 24.310 12.350 11.280 24.500 24.150 23.880 23.520 23.720 8.660 8.820 2.4830 31.429 12.713 18.713 29.853 12.254 17.596
VANMET_231 2018-07-18 14:50:00 231 11739.0 24.820 24.360 24.130 24.010 23.580 36.900 38.660 9.100 9.080 19.600 17.420 13.000 9.470 0.123 0.173 0.273 0.570 812.00 0.00 0.00 1.5170 215.00 32.76 25.000 24.700 24.510 24.140 24.260 10.790 11.440 24.470 23.970 23.750 23.240 23.710 7.944 8.060 2.8420 31.336 11.558 19.773 29.853 11.542 18.312
VANMET_231 2018-07-18 14:45:00 231 11739.0 25.280 24.990 24.780 24.460 23.930 37.210 39.450 9.640 9.780 19.550 17.420 13.000 9.470 0.123 0.173 0.273 0.570 820.00 0.00 0.00 1.3090 271.60 92.30 25.500 25.430 25.070 24.440 24.600 10.940 11.050 24.970 24.590 24.400 23.570 24.290 8.470 8.790 2.7700 32.206 11.986 20.222 30.669 12.099 18.570
VANMET_231 2018-07-18 14:40:00 231 11739.0 25.100 24.910 24.630 24.310 24.190 38.940 39.340 10.140 9.620 19.500 17.410 13.000 9.470 0.123 0.173 0.273 0.570 829.00 0.00 0.00 1.6300 236.40 35.96 25.340 25.170 24.870 24.620 24.460 11.800 10.490 24.940 24.510 24.340 23.730 24.200 8.810 8.890 3.4370 31.863 12.394 19.455 30.395 11.970 18.438
VANMET_231 2018-07-18 14:35:00 231 11739.0 25.330 25.150 24.880 24.520 24.440 38.300 39.770 10.090 9.950 19.440 17.410 13.000 9.470 0.123 0.173 0.273 0.570 842.00 0.00 0.00 1.0360 278.70 69.70 25.540 25.560 25.230 24.820 24.730 12.340 11.420 25.090 24.550 24.380 23.780 24.230 8.370 8.710 2.8940 32.302 12.353 19.930 30.779 12.238 18.538
VANMET_231 2018-07-18 14:30:00 231 11739.0 24.900 24.630 24.340 24.010 23.820 40.130 41.400 10.420 10.090 19.390 17.410 13.000 9.470 0.123 0.173 0.273 0.570 847.00 0.00 0.00 0.7550 239.30 62.42 25.050 24.900 24.620 24.320 24.150 11.520 11.850 24.580 24.250 24.000 23.370 23.800 8.610 8.770 1.8950 31.486 12.629 18.850 29.853 12.353 17.494
VANMET_231 2018-07-18 14:25:00 231 11739.0 24.490 23.980 23.800 23.840 23.430 39.420 41.090 9.790 9.830 19.340 17.410 13.000 9.460 0.123 0.173 0.273 0.570 858.00 0.00 0.00 1.2790 260.50 81.50 24.830 24.190 23.940 23.670 24.140 10.960 11.630 24.370 23.690 23.600 23.110 23.750 8.430 9.060 3.0120 30.724 12.107 18.613 29.550 12.140 17.408
VANMET_231 2018-07-18 14:20:00 231 11739.0 25.150 24.490 24.230 24.160 23.760 38.880 41.740 10.160 10.350 19.290 17.410 13.000 9.460 0.123 0.173 0.273 0.570 864.00 0.00 0.00 0.9290 223.80 45.74 25.370 24.740 24.550 24.200 24.310 11.940 11.600 24.920 24.190 23.850 23.220 23.990 7.896 9.260 1.9530 31.958 12.411 19.533 30.123 12.570 17.550
VANMET_231 2018-07-18 14:15:00 231 11739.0 25.980 25.240 24.910 24.850 24.190 38.140 39.460 10.620 10.130 19.240 17.410 13.000 9.460 0.123 0.173 0.273 0.570 872.00 0.00 0.00 1.1090 249.10 40.26 26.210 25.600 25.310 24.610 25.040 12.290 11.250 25.410 24.450 23.980 23.260 24.190 8.510 8.960 2.6130 33.570 12.798 20.767 31.392 12.386 19.005
VANMET_231 2018-07-18 14:10:00 231 11739.0 26.340 25.870 25.580 25.250 24.750 39.650 41.450 11.520 11.210 19.190 17.410 13.000 9.460 0.123 0.173 0.273 0.570 880.00 0.00 0.00 0.9990 261.30 40.42 26.430 26.050 25.740 25.090 25.300 13.560 13.530 26.260 25.530 25.270 24.400 25.110 9.320 9.460 1.5350 34.291 13.587 20.695 32.148 13.310 18.823
VANMET_231 2018-07-18 14:05:00 231 11739.0 26.140 25.710 25.350 25.040 24.890 40.690 43.330 11.740 11.710 19.140 17.410 13.000 9.460 0.123 0.173 0.273 0.570 885.00 0.00 0.00 0.6480 256.70 64.82 26.260 25.830 25.510 25.310 25.150 13.460 12.970 25.980 25.370 25.010 24.400 24.810 10.490 10.760 1.3390 33.889 13.786 20.100 31.749 13.759 17.992
VANMET_231 2018-07-18 14:00:00 231 11739.0 26.140 25.540 25.150 24.960 24.860 39.040 41.550 11.100 11.010 19.090 17.410 13.000 9.460 0.123 0.173 0.273 0.570 896.00 0.00 0.00 1.3390 238.80 51.00 26.350 25.950 25.650 25.550 25.230 13.320 12.370 25.960 25.240 24.810 24.310 24.760 9.260 9.230 4.0960 33.889 13.214 20.659 31.598 13.135 18.469
VANMET_231 2018-07-18 13:55:00 231 11739.0 26.070 25.600 25.170 24.960 25.040 39.790 40.890 11.320 10.760 19.040 17.410 13.000 9.460 0.124 0.173 0.273 0.570 905.00 0.00 0.00 1.7260 247.50 45.21 26.180 25.870 25.410 25.380 25.080 13.060 12.150 25.970 25.340 24.960 24.710 24.870 8.670 8.940 4.9520 33.749 13.408 20.320 31.598 12.918 18.678
VANMET_231 2018-07-18 13:50:00 231 11739.0 26.000 25.520 25.180 24.980 24.910 41.140 41.540 11.760 11.020 18.990 17.410 13.000 9.460 0.124 0.173 0.273 0.570 910.00 0.00 0.00 1.4720 240.40 33.80 26.180 25.740 25.350 25.170 25.100 13.850 12.890 25.640 25.220 24.950 24.570 24.760 9.450 9.770 2.8880 33.610 13.804 19.783 31.636 13.144 18.494
VANMET_231 2018-07-18 13:45:00 231 11739.0 25.670 25.210 24.940 24.720 24.640 39.830 41.400 11.000 10.740 18.940 17.410 13.000 9.460 0.124 0.173 0.273 0.570 916.00 0.00 0.00 1.4700 250.70 42.55 25.750 25.350 25.090 24.860 24.800 12.930 11.820 25.580 25.050 24.800 24.360 24.610 9.200 9.550 2.7510 32.960 13.126 19.832 31.149 12.901 18.253
VANMET_231 2018-07-18 13:40:00 231 11739.0 25.560 25.260 25.020 24.830 24.440 38.870 39.490 10.530 10.120 18.890 17.410 13.000 9.460 0.124 0.174 0.273 0.570 918.00 0.00 0.00 1.0260 256.80 55.87 25.750 25.470 25.280 24.770 25.000 12.510 12.180 25.310 25.100 24.840 23.960 24.590 8.740 9.290 1.9400 32.746 12.722 20.017 31.354 12.378 18.973
VANMET_231 2018-07-18 13:35:00 231 11739.0 25.150 24.830 24.700 24.480 24.220 36.950 38.090 9.400 9.270 18.840 17.420 13.000 9.460 0.124 0.174 0.273 0.570 926.00 0.00 0.00 0.7490 240.10 78.32 25.240 25.120 25.040 24.910 24.790 11.640 11.320 25.070 24.640 24.450 23.580 24.300 7.661 8.140 1.7310 31.958 11.794 20.149 30.706 11.691 19.010
VANMET_231 2018-07-18 13:30:00 231 11739.0 25.350 24.940 24.690 24.560 24.140 35.210 36.090 8.850 8.550 18.790 17.420 13.000 9.460 0.124 0.174 0.273 0.571 934.00 0.00 0.00 1.3960 251.20 61.28 25.580 25.560 25.350 24.980 24.960 11.620 10.390 25.070 24.530 24.360 23.210 24.300 7.415 7.745 2.6260 32.340 11.364 20.953 30.853 11.135 19.718
VANMET_231 2018-07-18 13:25:00 231 11739.0 25.010 24.910 24.700 24.340 24.580 36.190 37.910 8.980 9.060 18.750 17.420 13.000 9.460 0.124 0.174 0.273 0.571 938.00 0.00 0.00 1.2740 212.80 36.21 25.450 25.500 25.320 25.430 24.810 11.130 10.960 24.720 24.520 24.400 24.020 24.110 7.351 7.296 2.6850 31.693 11.464 20.223 30.450 11.526 18.906
VANMET_231 2018-07-18 13:20:00 231 11739.0 24.690 24.310 24.150 23.880 23.750 34.540 36.100 8.000 7.930 18.700 17.430 13.000 9.460 0.124 0.174 0.273 0.571 943.00 0.00 0.00 1.0390 257.90 69.60 24.830 24.550 24.530 24.400 24.060 10.520 10.320 24.580 23.990 23.880 23.000 23.680 6.779 6.978 1.7640 31.094 10.727 20.354 29.621 10.676 18.928
VANMET_231 2018-07-18 13:15:00 231 11739.0 24.450 23.820 23.570 23.620 23.450 33.520 34.640 7.325 7.093 18.660 17.430 13.000 9.460 0.124 0.174 0.273 0.571 949.00 0.00 0.00 1.4080 239.20 41.86 24.830 24.300 23.970 24.000 23.800 10.440 8.780 24.290 23.440 23.230 23.000 23.510 5.189 5.327 2.3320 30.651 10.244 20.377 29.162 10.082 19.060
VANMET_231 2018-07-18 13:10:00 231 11739.0 25.750 25.190 24.920 24.670 24.400 30.230 31.500 6.937 6.629 18.610 17.430 13.000 9.460 0.124 0.174 0.273 0.571 955.00 0.00 0.00 1.5110 256.10 43.37 26.070 25.850 25.540 25.320 24.970 10.870 9.840 25.020 23.800 23.580 23.160 23.870 4.840 5.144 2.9530 33.116 9.975 23.105 31.056 9.766 21.274
VANMET_231 2018-07-18 13:05:00 231 11739.0 25.530 25.280 25.010 24.680 24.780 34.200 33.970 8.580 7.733 18.570 17.440 13.000 9.460 0.124 0.174 0.273 0.571 958.00 0.00 0.00 1.1660 245.90 66.27 25.760 25.590 25.360 25.560 24.840 11.480 11.170 25.300 25.160 24.870 24.460 24.610 6.500 6.462 2.9330 32.687 11.158 21.508 31.075 10.533 20.519
VANMET_231 2018-07-18 13:00:00 231 11739.0 24.710 24.780 24.600 24.130 24.650 36.880 36.560 8.980 8.350 18.530 17.440 13.000 9.460 0.124 0.174 0.273 0.571 958.00 0.00 0.00 1.0640 255.70 36.27 25.240 25.270 25.050 24.960 24.610 10.980 9.660 24.050 23.870 23.770 24.040 23.480 6.810 7.419 2.3720 31.131 11.464 19.650 30.069 10.985 19.076
VANMET_231 2018-07-18 12:55:00 231 11739.0 24.330 23.760 23.540 23.440 23.360 32.560 34.340 6.815 6.822 18.480 17.450 13.010 9.460 0.124 0.174 0.273 0.571 961.00 0.00 0.00 0.9990 294.60 92.10 24.780 24.510 24.080 24.200 23.810 9.320 8.780 24.000 23.330 23.230 22.810 23.220 5.820 5.829 2.5810 30.432 9.891 20.523 28.847 9.896 18.941
VANMET_231 2018-07-18 12:50:00 231 11739.0 24.460 24.140 23.750 23.540 23.730 35.520 37.020 8.220 8.030 18.440 17.450 13.010 9.460 0.124 0.174 0.273 0.571 965.00 0.00 0.00 1.2310 256.80 37.43 24.680 24.350 24.020 24.000 23.720 9.470 8.970 24.250 23.710 23.410 23.290 23.380 6.822 6.883 2.2210 30.669 10.889 19.775 29.022 10.749 18.278
VANMET_231 2018-07-18 12:45:00 231 11739.0 24.710 24.010 23.720 23.720 23.300 31.700 32.530 6.763 6.292 18.400 17.460 13.010 9.460 0.124 0.174 0.273 0.571 972.00 0.00 0.00 1.5750 226.40 43.95 25.010 24.370 24.090 23.850 23.990 8.720 7.221 24.270 23.610 23.290 22.690 23.360 4.723 4.973 2.7180 31.131 9.856 21.262 29.338 9.541 19.794
VANMET_231 2018-07-18 12:40:00 231 11739.0 25.320 24.870 24.580 24.370 24.440 35.630 36.580 8.900 8.500 18.370 17.470 13.010 9.460 0.124 0.174 0.274 0.571 975.00 0.00 0.00 1.9530 222.70 32.66 25.600 25.470 25.200 25.310 24.710 12.820 11.570 25.040 24.280 24.000 23.490 23.980 6.050 5.646 3.1560 32.282 11.402 20.780 30.504 11.098 19.346
VANMET_231 2018-07-18 12:35:00 231 11739.0 24.760 24.650 24.390 24.030 24.200 37.900 39.150 9.370 9.250 18.330 17.470 13.010 9.460 0.124 0.174 0.274 0.571 965.00 0.00 0.00 1.0250 245.90 41.08 25.090 25.090 24.830 24.810 24.350 13.330 11.320 24.590 24.440 24.190 23.790 23.800 6.546 6.970 1.9930 31.224 11.770 19.390 29.889 11.675 18.188
VANMET_231 2018-07-18 12:30:00 231 11739.0 24.510 24.020 23.660 23.540 23.560 39.420 41.180 9.770 9.580 18.290 17.480 13.010 9.460 0.124 0.174 0.274 0.571 965.00 0.00 0.00 1.2670 268.30 65.91 24.720 24.500 24.190 24.660 23.780 12.440 11.570 24.310 23.710 23.330 22.910 23.360 7.028 7.393 2.5150 30.761 12.091 18.635 29.022 11.937 17.071
VANMET_231 2018-07-18 12:25:00 231 11739.0 24.850 24.630 24.360 24.010 23.920 39.560 41.200 10.150 10.020 18.260 17.490 13.010 9.460 0.124 0.174 0.274 0.571 966.00 0.00 0.00 1.5080 220.30 22.91 24.950 24.870 24.650 24.310 24.180 11.850 11.640 24.610 24.040 23.650 23.170 23.790 7.951 8.370 3.0840 31.392 12.403 18.973 29.853 12.295 17.554
VANMET_231 2018-07-18 12:20:00 231 11739.0 24.520 24.290 24.030 23.640 23.580 38.550 40.990 9.480 9.610 18.230 17.500 13.010 9.460 0.124 0.174 0.274 0.571 970.00 0.00 0.00 1.0040 254.20 22.08 24.600 24.480 24.240 23.870 23.760 11.380 10.490 24.440 24.090 23.900 23.170 23.500 7.944 8.110 1.8880 30.779 11.857 18.914 29.197 11.962 17.229
VANMET_231 2018-07-18 12:15:00 231 11739.0 24.420 24.090 23.720 23.310 23.670 39.170 41.990 9.630 9.680 18.190 17.500 13.010 9.460 0.124 0.174 0.274 0.571 967.00 0.00 0.00 1.0610 286.50 31.88 24.520 24.250 23.930 23.890 23.480 11.800 11.070 24.260 23.750 23.310 23.310 22.960 8.160 8.570 2.2610 30.596 11.978 18.611 28.622 12.018 16.604
VANMET_231 2018-07-18 12:10:00 231 11739.0 24.370 23.960 23.520 23.220 23.350 39.350 41.170 9.590 9.220 18.160 17.510 13.010 9.460 0.124 0.174 0.274 0.571 968.00 0.00 0.00 1.5970 218.90 37.37 24.490 24.350 23.930 24.000 23.470 12.790 11.670 24.260 23.580 23.130 22.890 22.900 6.651 6.294 3.4040 30.504 11.945 18.501 28.467 11.652 16.747
VANMET_231 2018-07-18 12:05:00 231 11739.0 24.310 23.780 23.330 23.140 23.060 40.940 43.560 10.190 10.070 18.130 17.520 13.010 9.460 0.124 0.174 0.274 0.571 968.00 0.00 0.00 1.3490 257.00 35.80 24.690 24.020 23.650 23.700 23.290 11.680 11.990 24.190 23.560 23.000 22.390 23.010 8.490 8.940 1.9210 30.395 12.436 17.951 28.330 12.336 15.989
VANMET_231 2018-07-18 12:00:00 231 11739.0 24.920 24.560 24.060 23.850 23.580 38.600 40.730 9.860 9.700 18.110 17.530 13.010 9.460 0.124 0.174 0.274 0.571 966.00 0.00 0.00 1.7050 233.40 26.15 25.110 25.010 24.670 23.960 24.140 11.250 11.850 24.750 24.080 23.440 22.680 23.380 8.120 8.570 3.4950 31.523 12.164 19.355 29.568 12.034 17.525
VANMET_231 2018-07-18 11:55:00 231 11739.0 24.760 24.700 24.290 23.800 23.750 39.850 41.540 10.190 9.970 18.080 17.540 13.010 9.460 0.124 0.174 0.274 0.571 960.00 0.00 0.00 0.7720 235.80 64.39 25.100 25.030 24.660 24.100 24.070 11.880 11.100 24.390 24.350 23.970 23.410 23.550 8.920 9.180 1.6920 31.224 12.436 18.781 29.479 12.254 17.234
VANMET_231 2018-07-18 11:50:00 231 11739.0 24.070 23.920 23.510 23.200 23.430 42.150 43.350 10.420 10.060 18.050 17.550 13.010 9.460 0.124 0.175 0.274 0.571 962.00 0.00 0.00 0.7430 276.00 48.41 24.390 24.370 23.960 23.850 23.520 12.520 11.770 23.850 23.420 23.070 22.460 22.930 9.360 9.080 1.3790 29.961 12.629 17.332 28.433 12.328 16.107
VANMET_231 2018-07-18 11:45:00 231 11739.0 23.920 23.560 23.330 23.140 22.860 39.600 41.370 9.290 9.260 18.030 17.560 13.010 9.460 0.124 0.175 0.274 0.571 960.00 0.00 0.00 1.0580 248.00 54.25 24.020 23.790 23.590 23.410 23.290 12.380 11.670 23.830 23.340 23.100 22.380 22.950 7.079 7.545 1.7440 29.693 11.707 17.934 28.330 11.683 16.610
VANMET_231 2018-07-18 11:40:00 231 11739.0 23.990 23.640 23.330 23.090 22.700 42.320 44.380 10.390 10.310 18.010 17.570 13.010 9.460 0.124 0.175 0.274 0.572 956.00 0.00 0.00 1.1270 238.30 48.51 24.140 23.850 23.440 23.090 23.150 12.690 11.790 23.770 23.380 23.230 22.010 22.980 8.640 9.210 2.0780 29.818 12.603 17.199 28.244 12.536 15.709
VANMET_231 2018-07-18 11:35:00 231 11739.0 23.900 23.710 23.360 23.110 22.960 44.370 46.530 11.040 11.020 17.990 17.580 13.010 9.460 0.125 0.175 0.274 0.572 947.00 0.00 0.00 1.0400 233.40 54.08 24.060 24.130 23.830 23.610 23.380 12.250 12.500 23.780 23.430 23.040 22.520 22.940 9.450 9.490 2.6130 29.657 13.161 16.498 28.278 13.144 15.120
VANMET_231 2018-07-18 11:30:00 231 11739.0 23.270 23.210 22.950 22.650 22.760 45.380 47.000 10.810 10.770 17.970 17.590 13.010 9.460 0.125 0.175 0.274 0.572 947.00 0.00 0.00 0.8470 227.20 63.13 23.780 23.900 23.600 23.290 23.130 12.140 11.830 22.910 22.740 22.460 22.130 22.280 9.220 9.320 2.1890 28.553 12.961 15.596 27.502 12.927 14.576
VANMET_231 2018-07-18 11:25:00 231 11739.0 23.160 22.720 22.440 22.380 22.020 42.970 45.290 9.870 9.960 17.950 17.600 13.010 9.460 0.125 0.175 0.274 0.572 942.00 0.00 0.00 1.1140 252.30 39.36 23.610 23.080 22.760 22.410 22.620 11.500 11.380 22.890 22.500 22.250 21.660 22.230 7.354 7.760 1.7640 28.364 12.172 16.176 27.055 12.246 14.802
VANMET_231 2018-07-18 11:20:00 231 11739.0 23.520 23.150 22.870 22.700 22.430 44.840 46.210 10.840 10.560 17.940 17.610 13.010 9.460 0.125 0.175 0.274 0.572 941.00 0.00 0.00 1.2420 212.10 43.86 23.640 23.360 23.140 22.890 22.880 12.170 11.890 23.410 22.960 22.680 22.000 22.500 9.420 9.430 2.1560 28.987 12.987 15.989 27.585 12.747 14.838
VANMET_231 2018-07-18 11:15:00 231 11739.0 23.260 23.050 22.810 22.540 22.340 44.150 46.710 10.380 10.580 17.920 17.620 13.010 9.460 0.125 0.175 0.274 0.572 933.00 0.00 0.00 0.7960 260.40 30.29 23.390 23.240 23.000 22.710 22.740 11.810 12.050 23.130 22.820 22.630 21.800 22.400 9.110 9.580 1.6660 28.536 12.595 15.937 27.319 12.764 14.558
VANMET_231 2018-07-18 11:10:00 231 11739.0 22.750 22.530 22.300 22.080 22.030 44.770 45.760 10.140 9.850 17.910 17.630 13.010 9.460 0.125 0.175 0.274 0.572 930.00 0.00 0.00 1.0580 187.00 45.96 23.130 23.000 22.770 22.580 22.420 10.940 11.380 22.440 22.170 21.910 21.710 21.860 8.720 8.920 2.4170 27.669 12.394 15.282 26.565 12.156 14.409
VANMET_231 2018-07-18 11:05:00 231 11739.0 22.550 22.250 22.070 21.860 21.410 41.810 43.470 8.940 8.890 17.900 17.640 13.010 9.460 0.125 0.175 0.274 0.572 931.00 0.00 0.00 1.0770 221.90 95.10 22.820 22.420 22.280 21.680 21.990 9.880 9.970 22.410 22.150 21.970 21.250 21.790 8.030 7.876 2.0910 27.335 11.433 15.907 26.211 11.395 14.817
VANMET_231 2018-07-18 11:00:00 231 11739.0 22.680 22.460 22.230 21.980 21.890 44.720 46.910 10.040 10.130 17.890 17.650 13.010 9.460 0.125 0.175 0.274 0.572 920.00 0.00 0.00 0.5210 173.90 100.40 22.860 22.820 22.590 22.440 22.160 11.540 11.540 22.580 22.290 22.030 21.520 21.890 8.200 8.440 2.2740 27.552 12.312 15.231 26.404 12.386 14.018
VANMET_231 2018-07-18 10:55:00 231 11739.0 22.590 22.240 21.990 21.670 21.620 44.980 47.160 10.050 9.930 17.890 17.660 13.010 9.460 0.125 0.175 0.274 0.572 918.00 0.00 0.00 1.0040 208.60 40.04 22.740 22.640 22.370 22.220 21.990 11.790 11.070 22.480 21.990 21.710 21.180 21.460 8.240 8.500 1.7900 27.402 12.320 15.077 25.909 12.221 13.690
VANMET_231 2018-07-18 10:50:00 231 11739.0 22.580 22.160 21.910 21.670 21.400 45.660 48.000 10.270 10.200 17.880 17.670 13.010 9.460 0.125 0.175 0.274 0.572 909.00 0.00 0.00 1.2070 226.10 47.62 22.740 22.520 22.250 21.980 21.880 12.020 11.400 22.420 21.910 21.630 21.040 21.460 9.230 9.460 2.3910 27.385 12.503 14.881 25.909 12.444 13.473
VANMET_231 2018-07-18 10:45:00 231 11739.0 22.440 22.150 21.950 21.700 21.240 46.750 48.340 10.500 10.340 17.880 17.680 13.010 9.460 0.125 0.175 0.274 0.572 903.00 0.00 0.00 0.7400 243.80 71.32 22.590 22.280 22.050 21.390 21.850 11.540 11.270 22.330 22.010 21.820 21.110 21.610 9.220 9.640 1.3850 27.154 12.696 14.459 25.957 12.561 13.409
VANMET_231 2018-07-18 10:40:00 231 11739.0 22.270 22.110 21.970 21.590 21.570 48.120 49.280 10.770 10.510 17.870 17.690 13.010 9.460 0.125 0.175 0.274 0.572 895.00 0.00 0.00 0.5670 171.80 43.14 22.620 22.530 22.310 22.050 21.880 12.050 11.660 21.820 21.510 21.500 20.930 21.320 9.290 9.450 1.4050 26.874 12.927 13.942 25.783 12.705 13.077
VANMET_231 2018-07-18 10:35:00 231 11739.0 22.000 21.740 21.650 21.490 20.820 46.140 47.590 9.910 9.900 17.870 17.710 13.010 9.460 0.125 0.175 0.274 0.572 888.00 0.00 0.00 0.6020 227.40 71.73 22.310 22.210 22.050 21.190 21.690 11.110 10.880 21.780 21.380 21.340 20.550 21.300 9.200 9.370 1.2740 26.436 12.205 14.239 25.626 12.197 13.430
VANMET_231 2018-07-18 10:30:00 231 11739.0 21.780 21.730 21.680 21.350 21.070 51.400 51.760 11.320 11.040 17.880 17.720 13.010 9.460 0.125 0.175 0.274 0.572 881.00 0.00 0.00 0.2800 199.10 36.97 22.220 22.160 21.970 21.380 21.580 13.240 11.980 21.440 21.120 21.180 20.470 21.070 9.640 9.950 0.5620 26.084 13.408 12.677 25.407 13.161 12.256
VANMET_231 2018-07-18 10:25:00 231 11739.0 21.860 21.440 21.280 20.930 20.400 46.020 48.910 9.740 9.810 17.880 17.730 13.010 9.460 0.125 0.175 0.274 0.572 873.00 0.00 0.00 0.4630 120.40 85.80 22.200 21.700 21.530 20.690 21.060 10.710 10.440 21.500 21.150 21.070 20.090 20.860 8.980 9.060 0.8820 26.211 12.066 14.149 24.761 12.123 12.650
VANMET_231 2018-07-18 10:20:00 231 11739.0 21.620 21.250 21.080 20.650 20.460 49.820 51.840 10.700 10.400 17.880 17.740 13.010 9.460 0.125 0.175 0.274 0.572 866.00 0.00 0.00 0.7980 180.00 32.85 22.020 21.620 21.400 20.820 20.840 11.910 11.780 21.240 20.910 20.780 20.030 20.480 9.550 9.530 1.2940 25.830 12.867 12.962 24.338 12.612 11.721
VANMET_231 2018-07-18 10:15:00 231 11739.0 21.010 20.700 20.510 20.280 20.280 52.210 53.790 10.840 10.620 17.890 17.750 13.010 9.460 0.125 0.175 0.275 0.572 859.00 0.00 0.00 1.0490 249.00 36.94 21.220 20.850 20.720 20.570 20.470 12.530 11.810 20.820 20.490 20.270 19.810 20.120 9.620 9.680 1.9600 24.882 12.987 11.891 23.789 12.798 10.993
VANMET_231 2018-07-18 10:10:00 231 11739.0 20.760 20.440 20.150 19.990 19.780 50.860 53.420 10.220 10.250 17.890 17.760 13.010 9.460 0.125 0.175 0.275 0.572 851.00 0.00 0.00 1.1430 220.20 18.84 20.930 20.710 20.370 20.050 20.130 11.560 11.220 20.610 20.130 19.830 19.300 19.860 9.430 9.620 2.1950 24.503 12.461 12.041 23.366 12.486 10.884
VANMET_231 2018-07-18 10:05:00 231 11739.0 20.950 20.620 20.360 20.160 20.000 51.680 53.110 10.620 10.320 17.900 17.770 13.010 9.460 0.125 0.175 0.275 0.572 842.00 0.00 0.00 1.1530 216.00 25.50 21.130 20.880 20.510 20.380 20.270 12.060 11.690 20.770 20.370 20.150 19.600 20.080 9.190 9.640 2.6660 24.791 12.798 11.979 23.613 12.545 11.072
VANMET_231 2018-07-18 10:00:00 231 11739.0 20.830 20.530 20.310 19.910 19.690 53.180 54.670 10.950 10.520 17.910 17.790 13.010 9.460 0.125 0.175 0.275 0.572 830.00 0.00 0.00 0.7240 189.60 37.07 21.180 20.950 20.680 20.140 20.220 12.530 11.570 20.410 20.050 19.870 19.160 19.560 9.810 9.780 2.1560 24.609 13.083 11.522 23.250 12.713 10.539
VANMET_231 2018-07-18 09:55:00 231 11739.0 20.330 19.920 19.700 19.410 19.070 52.150 54.580 10.200 10.040 17.920 17.800 13.010 9.460 0.125 0.175 0.275 0.572 824.00 0.00 0.00 0.8500 76.46 80.90 20.400 20.070 19.810 19.500 19.500 11.190 11.030 20.250 19.830 19.520 18.800 19.360 9.530 9.470 1.5030 23.862 12.444 11.418 22.540 12.312 10.238
VANMET_231 2018-07-18 09:50:00 231 11739.0 20.240 19.970 19.770 19.610 19.430 55.900 56.270 11.170 10.680 17.930 17.810 13.010 9.460 0.125 0.176 0.275 0.573 811.00 0.00 0.00 1.2820 237.20 20.34 20.280 20.110 19.920 19.650 19.720 12.320 11.220 20.170 19.780 19.470 19.000 19.420 10.320 10.060 2.5740 23.730 13.275 10.465 22.822 12.850 9.980
VANMET_231 2018-07-18 09:45:00 231 11739.0 19.750 19.490 19.290 19.080 19.090 55.440 58.020 10.580 10.640 17.950 17.820 13.010 9.460 0.125 0.176 0.275 0.573 801.00 0.00 0.00 0.8100 305.00 62.90 20.120 19.990 19.840 19.820 19.490 11.620 11.670 19.470 18.980 18.720 18.370 18.800 9.640 9.940 1.9670 23.021 12.764 10.258 22.081 12.815 9.270
VANMET_231 2018-07-18 09:40:00 231 11739.0 19.820 19.270 18.970 19.090 18.710 54.840 56.610 10.480 10.290 17.960 17.830 13.010 9.460 0.125 0.176 0.275 0.573 791.80 0.00 0.00 1.5020 246.00 23.24 20.040 19.690 19.410 19.160 19.430 11.750 11.100 19.510 18.940 18.670 18.400 18.810 9.620 9.880 2.8290 23.121 12.679 10.441 22.095 12.519 9.587
VANMET_231 2018-07-18 09:35:00 231 11739.0 20.020 19.720 19.510 19.490 19.060 56.970 57.650 11.240 10.930 17.970 17.840 13.010 9.460 0.125 0.176 0.275 0.573 778.50 0.00 0.00 1.0340 227.50 27.12 20.100 19.890 19.710 19.230 19.600 12.330 11.600 19.900 19.530 19.310 18.920 19.390 10.440 10.370 1.6070 23.409 13.337 10.073 22.652 13.065 9.593
VANMET_231 2018-07-18 09:30:00 231 11739.0 19.640 19.330 19.200 19.180 18.880 57.320 59.020 10.980 11.000 17.990 17.850 13.010 9.460 0.125 0.176 0.275 0.573 768.60 0.00 0.00 0.7170 210.70 36.73 19.890 19.680 19.590 19.200 19.460 11.850 12.040 19.490 19.090 18.930 18.620 19.010 10.280 10.530 1.2480 22.864 13.109 9.758 22.220 13.126 9.106
VANMET_231 2018-07-18 09:25:00 231 11739.0 19.510 19.170 18.980 18.980 18.770 57.590 58.520 10.930 10.680 18.000 17.870 13.010 9.460 0.125 0.176 0.275 0.573 757.80 0.00 0.00 1.4380 240.00 22.39 19.560 19.260 19.060 18.890 19.020 11.950 11.360 19.460 19.020 18.840 18.590 18.950 9.990 10.170 2.4700 22.680 13.065 9.619 21.944 12.850 9.102
VANMET_231 2018-07-18 09:20:00 231 11739.0 19.570 19.170 19.010 18.940 18.630 57.750 59.850 11.030 10.980 18.020 17.880 13.010 9.450 0.125 0.176 0.275 0.573 744.20 0.00 0.00 0.7100 262.30 39.94 19.660 19.320 19.120 19.000 19.030 12.210 11.680 19.460 18.940 18.830 18.360 18.760 10.070 10.390 1.8420 22.765 13.152 9.618 21.889 13.109 8.789
VANMET_231 2018-07-18 09:15:00 231 11739.0 19.480 19.040 18.820 18.750 18.300 59.540 59.260 11.390 10.650 18.040 17.890 13.010 9.460 0.125 0.176 0.275 0.573 734.70 0.00 0.00 1.0560 218.90 24.13 19.560 19.130 18.920 18.470 18.800 12.650 11.310 19.400 18.940 18.790 18.150 18.690 9.820 9.950 1.7510 22.638 13.470 9.159 21.631 12.824 8.813
VANMET_231 2018-07-18 09:10:00 231 11739.0 19.210 18.950 18.650 18.490 18.240 60.780 60.790 11.460 10.800 18.050 17.900 13.010 9.450 0.125 0.176 0.275 0.573 721.20 0.00 0.00 1.0930 206.70 17.80 19.390 19.100 18.810 18.350 18.680 12.220 11.500 19.070 18.720 18.470 18.040 18.360 10.030 10.110 1.7050 22.261 13.533 8.731 21.282 12.953 8.345
VANMET_231 2018-07-18 09:05:00 231 11739.0 19.010 18.750 18.460 18.290 17.940 58.990 61.120 10.820 10.680 18.070 17.910 13.010 9.450 0.125 0.176 0.275 0.573 708.50 0.00 0.00 0.8140 219.70 33.08 19.150 18.910 18.600 18.130 18.390 12.060 11.540 18.800 18.560 18.310 17.710 18.200 9.900 10.150 1.3850 21.985 12.970 9.016 21.017 12.850 8.171
VANMET_231 2018-07-18 09:00:00 231 11739.0 18.820 18.550 18.390 18.230 17.700 57.470 59.810 10.260 10.300 18.090 17.920 13.010 9.450 0.125 0.176 0.275 0.573 695.60 0.00 0.00 0.7930 207.00 39.25 18.890 18.670 18.490 17.810 18.310 11.380 10.840 18.770 18.470 18.300 17.560 18.140 9.690 9.810 1.5090 21.726 12.494 9.240 20.938 12.528 8.415
VANMET_231 2018-07-18 08:55:00 231 11739.0 18.670 18.390 18.280 18.000 17.670 58.170 60.770 10.300 10.320 18.110 17.930 13.010 9.450 0.126 0.176 0.275 0.573 681.90 0.00 0.00 0.6550 195.30 73.92 18.800 18.580 18.480 17.850 18.180 11.130 11.060 18.410 18.020 17.920 17.470 17.710 9.830 9.980 1.6660 21.523 12.528 9.003 20.638 12.545 8.096
VANMET_231 2018-07-18 08:50:00 231 11739.0 18.310 17.930 17.910 17.760 17.320 58.900 60.640 10.140 10.070 18.130 17.950 13.010 9.450 0.125 0.176 0.275 0.573 669.90 0.00 0.00 1.0860 221.30 23.86 18.470 18.110 18.050 17.440 17.860 11.130 10.750 18.180 17.750 17.760 17.190 17.670 9.470 9.760 1.8490 21.043 12.394 8.649 20.328 12.336 8.001
VANMET_231 2018-07-18 08:45:00 231 11739.0 18.250 18.060 17.950 17.740 17.390 60.830 61.460 10.570 10.250 18.140 17.960 13.010 9.450 0.126 0.176 0.275 0.573 655.40 0.00 0.00 0.8020 212.20 35.70 18.450 18.210 18.090 17.690 17.810 11.500 10.910 18.030 17.840 17.750 17.170 17.610 9.710 9.710 1.4050 20.964 12.756 8.212 20.303 12.486 7.825
VANMET_231 2018-07-18 08:40:00 231 11739.0 18.030 17.830 17.800 17.700 17.010 59.180 60.360 9.960 9.940 18.160 17.970 13.010 9.450 0.126 0.176 0.275 0.573 643.00 0.00 0.00 1.0390 220.90 19.82 18.110 17.940 17.970 17.140 17.800 10.690 10.340 17.940 17.710 17.660 16.840 17.610 9.500 9.700 1.7180 20.677 12.246 8.440 20.252 12.229 8.028
VANMET_231 2018-07-18 08:35:00 231 11739.0 18.000 17.850 17.850 17.620 16.720 58.620 60.030 9.790 9.790 18.180 17.980 13.000 9.450 0.126 0.176 0.275 0.573 625.90 0.00 0.00 0.3960 172.60 36.59 18.110 18.000 18.120 16.860 17.820 10.390 10.090 17.900 17.720 17.610 16.600 17.500 9.500 9.600 1.2280 20.638 12.107 8.540 20.150 12.107 8.054
VANMET_231 2018-07-18 08:30:00 231 11739.0 18.190 18.090 17.960 17.650 16.810 59.990 61.250 10.300 10.120 18.200 17.990 13.000 9.450 0.126 0.176 0.275 0.573 612.10 0.00 0.00 0.7460 212.90 31.84 18.260 18.210 18.110 17.150 17.710 11.240 10.980 18.030 17.830 17.600 16.610 17.530 9.400 9.640 1.4700 20.886 12.528 8.356 20.188 12.378 7.823
VANMET_231 2018-07-18 08:25:00 231 11739.0 17.730 17.620 17.630 17.400 16.600 60.660 61.990 10.040 10.060 18.220 18.000 13.000 9.450 0.126 0.176 0.275 0.573 597.70 0.00 0.00 0.3490 202.70 35.29 18.000 17.860 17.830 16.870 17.500 10.750 10.600 17.570 17.460 17.510 16.360 17.280 9.340 9.620 0.6730 20.290 12.312 7.982 19.872 12.328 7.553
VANMET_231 2018-07-18 08:20:00 231 11739.0 17.250 17.170 17.230 17.070 16.340 63.070 63.310 10.170 10.060 18.240 18.010 13.000 9.450 0.126 0.176 0.275 0.573 584.10 0.00 0.00 0.3590 192.30 25.23 17.630 17.540 17.540 16.600 17.260 10.870 10.670 17.010 16.880 16.890 16.060 16.890 9.350 9.610 0.7250 19.684 12.419 7.269 19.461 12.328 7.140
VANMET_231 2018-07-18 08:15:00 231 11739.0 16.820 16.830 16.850 16.800 16.230 64.540 64.070 10.110 9.980 18.260 18.020 13.000 9.460 0.126 0.176 0.275 0.573 569.10 0.00 0.00 0.5830 198.60 30.59 17.090 17.020 17.020 16.470 16.960 11.060 10.730 16.490 16.500 16.520 15.980 16.550 9.610 9.620 1.0580 19.155 12.370 6.793 19.131 12.262 6.874
VANMET_231 2018-07-18 08:10:00 231 11739.0 16.340 16.350 16.370 16.390 16.010 66.880 65.910 10.180 10.020 18.280 18.030 13.000 9.450 0.126 0.176 0.275 0.573 555.30 0.00 0.00 0.2380 179.20 8.19 16.450 16.500 16.510 16.160 16.550 11.360 10.920 16.240 16.250 16.300 15.890 16.280 9.510 9.660 0.6270 18.580 12.428 6.154 18.639 12.295 6.354
VANMET_231 2018-07-18 08:05:00 231 11739.0 16.090 16.000 16.080 16.150 15.840 69.090 67.830 10.430 10.220 18.300 18.040 13.000 9.450 0.126 0.176 0.275 0.573 542.30 0.00 0.00 0.5700 193.20 23.52 16.220 16.210 16.250 16.040 16.230 10.880 10.860 16.010 15.870 16.000 15.710 16.090 9.760 9.800 1.2410 18.286 12.637 5.652 18.356 12.461 5.905
VANMET_231 2018-07-18 08:00:00 231 11739.0 15.970 15.830 16.050 16.210 15.440 69.690 68.900 10.450 10.510 18.320 18.050 13.000 9.450 0.126 0.176 0.275 0.573 461.70 0.00 0.00 0.2050 202.20 10.39 16.050 15.880 16.080 15.770 16.270 11.040 10.760 15.930 15.780 16.020 15.250 16.140 10.200 10.340 0.8890 18.146 12.654 5.500 18.426 12.705 5.731
VANMET_231 2018-07-18 07:55:00 231 11739.0 15.990 15.740 16.180 16.370 15.470 69.600 66.740 10.450 10.180 18.340 18.060 13.000 9.450 0.126 0.176 0.275 0.573 353.40 0.00 0.00 0.4400 208.70 16.24 16.060 15.770 16.230 15.620 16.410 10.820 10.410 15.940 15.710 16.070 15.320 16.280 10.170 9.910 0.8490 18.170 12.654 5.524 18.615 12.428 6.191
VANMET_231 2018-07-18 07:50:00 231 11739.0 16.180 15.800 16.250 16.500 15.340 68.570 66.860 10.410 10.340 18.360 18.070 13.000 9.450 0.126 0.176 0.275 0.573 280.40 0.00 0.00 0.1830 162.30 13.05 16.360 16.010 16.550 15.520 16.950 10.730 10.700 16.080 15.720 16.160 15.120 16.370 10.170 10.060 0.4120 18.391 12.620 5.780 18.770 12.561 6.220
VANMET_231 2018-07-18 07:45:00 231 11739.0 16.540 16.250 17.090 17.160 15.220 66.200 63.870 10.230 10.270 18.380 18.080 13.000 9.450 0.126 0.176 0.275 0.573 416.70 0.00 0.00 0.4650 186.30 25.39 16.630 16.490 17.550 15.410 17.240 10.600 10.650 16.390 16.020 16.600 15.040 17.010 9.830 9.950 1.3330 18.818 12.469 6.360 19.573 12.503 7.072
VANMET_231 2018-07-18 07:40:00 231 11739.0 16.550 16.700 17.960 17.500 15.130 66.360 62.240 10.270 10.210 18.410 18.090 13.000 9.450 0.126 0.176 0.275 0.573 445.10 0.00 0.00 0.2660 205.40 23.67 16.630 16.850 18.230 15.240 17.650 11.010 10.470 16.390 16.490 17.560 15.060 17.270 9.860 10.010 0.6140 18.830 12.503 6.334 19.998 12.453 7.551
VANMET_231 2018-07-18 07:35:00 231 11739.0 16.140 16.780 17.930 17.670 14.990 67.120 61.880 10.050 10.290 18.430 18.100 13.000 9.450 0.126 0.176 0.275 0.573 448.90 0.00 0.00 0.1530 216.80 4.39 16.370 16.850 18.060 15.130 17.730 10.240 10.500 15.900 16.690 17.760 14.890 17.580 9.740 10.000 0.5030 18.344 12.320 6.032 20.213 12.519 7.705
VANMET_231 2018-07-18 07:30:00 231 11739.0 15.680 16.690 17.650 17.720 14.850 69.540 61.710 10.140 10.290 18.450 18.110 13.000 9.450 0.126 0.176 0.275 0.573 434.40 0.00 0.00 0.4290 208.10 14.04 15.880 16.790 18.010 14.940 17.990 10.280 10.500 15.510 16.580 17.430 14.790 17.500 9.770 10.000 0.7970 17.813 12.394 5.426 20.277 12.519 7.764
VANMET_231 2018-07-18 07:25:00 231 11739.0 14.970 16.250 17.580 17.430 15.000 72.240 62.340 10.020 10.170 18.470 18.120 13.000 9.450 0.126 0.176 0.275 0.573 418.80 0.00 0.00 0.3730 172.70 11.20 15.470 16.750 17.950 15.100 17.880 10.220 10.470 14.500 15.680 17.030 14.890 16.960 9.790 10.050 0.5620 17.019 12.295 4.724 19.910 12.419 7.498
VANMET_231 2018-07-18 07:20:00 231 11739.0 14.230 15.300 16.320 16.260 14.870 74.590 66.430 9.790 10.010 18.500 18.140 13.000 9.450 0.126 0.176 0.275 0.573 404.10 0.00 0.00 0.1040 177.90 5.35 14.480 15.620 16.970 15.010 16.890 10.010 10.350 14.020 15.010 15.730 14.830 15.810 9.630 9.810 0.4250 16.225 12.107 4.123 18.485 12.287 6.205
VANMET_231 2018-07-18 07:15:00 231 11739.0 13.800 14.800 15.420 15.620 14.810 75.830 67.660 9.620 9.680 18.520 18.150 13.000 9.450 0.126 0.176 0.275 0.573 389.50 0.00 0.00 0.3340 203.30 19.21 14.010 14.980 15.690 14.890 15.780 9.840 9.890 13.560 14.600 15.220 14.620 15.470 9.450 9.450 0.8170 15.778 11.970 3.814 17.745 12.018 5.739
VANMET_231 2018-07-18 07:10:00 231 11739.0 13.340 14.280 14.880 15.250 14.630 77.570 68.380 9.510 9.480 18.540 18.160 13.000 9.450 0.126 0.176 0.275 0.573 373.40 0.00 0.00 0.3960 209.90 13.22 13.510 14.560 15.180 14.840 15.410 9.810 9.750 13.220 14.030 14.570 14.380 15.010 9.240 9.330 0.6990 15.313 11.881 3.435 17.328 11.857 5.479
VANMET_231 2018-07-18 07:05:00 231 11739.0 13.120 13.890 14.330 14.570 14.630 79.530 70.210 9.670 9.220 18.560 18.170 13.000 9.450 0.125 0.176 0.275 0.573 348.70 0.00 0.00 0.0280 218.00 0.01 13.220 14.010 14.550 14.730 14.980 9.900 9.420 13.040 13.760 14.080 14.360 14.140 9.490 9.040 0.4180 15.094 12.010 3.090 16.586 11.652 4.941
VANMET_231 2018-07-18 07:00:00 231 11739.0 12.990 13.680 13.960 13.970 14.540 80.700 72.670 9.770 9.150 18.590 18.180 12.990 9.450 0.125 0.176 0.275 0.573 218.60 0.00 0.00 0.0000 0.00 0.00 13.050 13.760 14.060 14.630 14.130 9.880 9.300 12.930 13.570 13.830 14.350 13.830 9.550 9.070 0.0000 14.967 12.091 2.889 15.954 11.597 4.360
VANMET_231 2018-07-18 06:55:00 231 11739.0 12.800 13.400 13.640 13.680 14.320 81.300 74.470 9.690 9.230 18.610 18.190 12.990 9.450 0.125 0.176 0.275 0.573 137.90 0.00 0.00 0.0000 0.00 0.00 12.930 13.560 13.810 14.580 13.820 9.850 9.450 12.650 13.290 13.530 14.030 13.600 9.480 9.000 0.0000 14.782 12.026 2.764 15.656 11.659 3.997
VANMET_231 2018-07-18 06:50:00 231 11739.0 12.610 13.230 13.460 13.530 14.000 81.900 75.980 9.610 9.390 18.630 18.200 12.990 9.450 0.125 0.176 0.275 0.573 104.00 0.00 0.00 0.1230 210.50 0.04 12.650 13.280 13.520 14.070 13.590 9.740 9.440 12.550 13.180 13.400 13.940 13.470 9.490 9.360 0.3790 14.599 11.962 2.642 15.504 11.786 3.724
VANMET_231 2018-07-18 06:45:00 231 11739.0 12.500 13.050 13.330 13.450 13.950 81.100 76.250 9.360 9.360 18.650 18.200 12.990 9.450 0.125 0.176 0.275 0.573 64.68 0.00 0.00 0.0000 0.00 0.00 12.560 13.160 13.380 14.070 13.490 9.500 9.390 12.450 12.950 13.290 13.820 13.400 9.210 9.330 0.0000 14.494 11.762 2.739 15.423 11.762 3.663
VANMET_231 2018-07-18 06:40:00 231 11739.0 12.420 12.890 13.220 13.340 13.740 81.000 76.290 9.270 9.270 18.680 18.210 12.990 9.450 0.125 0.176 0.275 0.573 38.09 0.00 0.00 0.0000 0.00 0.00 12.450 12.930 13.280 13.900 13.410 9.390 9.360 12.390 12.810 13.130 13.590 13.260 9.200 9.130 0.0000 14.418 11.691 2.739 15.313 11.691 3.631
VANMET_231 2018-07-18 06:35:00 231 11739.0 12.400 12.770 13.070 13.200 13.550 81.600 77.230 9.350 9.310 18.700 18.220 12.990 9.450 0.125 0.176 0.275 0.573 38.19 0.00 0.00 0.0000 0.00 0.00 12.420 12.820 13.130 13.650 13.260 9.430 9.450 12.380 12.700 13.010 13.380 13.130 9.270 9.240 0.0000 14.399 11.754 2.649 15.173 11.722 3.455
VANMET_231 2018-07-18 06:30:00 231 11739.0 12.360 12.720 13.010 13.080 13.350 81.500 78.150 9.300 9.370 18.720 18.230 12.990 9.450 0.125 0.176 0.275 0.573 35.87 0.00 0.00 0.0000 0.00 0.00 12.390 12.740 13.030 13.710 13.140 9.380 9.510 12.320 12.700 12.980 13.210 12.970 9.180 8.980 0.0000 14.361 11.715 2.657 15.055 11.770 3.290
VANMET_231 2018-07-18 06:25:00 231 11739.0 12.250 12.530 12.790 12.850 13.370 81.200 78.070 9.130 9.130 18.750 18.240 12.990 9.450 0.125 0.176 0.275 0.573 32.43 0.00 0.00 0.0000 0.00 0.00 12.320 12.720 12.970 13.810 12.980 9.170 9.240 12.210 12.380 12.630 12.840 12.750 9.090 9.010 0.0000 14.257 11.581 2.680 14.830 11.581 3.252
VANMET_231 2018-07-18 06:20:00 231 11739.0 12.200 12.370 12.600 12.670 12.900 81.300 79.000 9.110 9.140 18.770 18.250 12.990 9.450 0.125 0.176 0.275 0.573 30.58 0.00 0.00 0.0000 0.00 0.00 12.240 12.400 12.640 12.980 12.740 9.190 9.200 12.160 12.330 12.530 12.800 12.550 9.050 9.090 0.0000 14.211 11.565 2.657 14.656 11.589 3.078
VANMET_231 2018-07-18 06:15:00 231 11739.0 12.150 12.330 12.530 12.500 12.720 81.500 79.340 9.100 9.040 18.790 18.260 12.990 9.450 0.125 0.176 0.275 0.573 29.32 0.00 0.00 0.0000 0.00 0.00 12.180 12.360 12.550 12.790 12.530 9.160 9.130 12.140 12.320 12.510 12.640 12.460 9.020 8.980 0.0000 14.164 11.558 2.620 14.494 11.511 2.994
VANMET_231 2018-07-18 06:10:00 231 11739.0 12.150 12.320 12.480 12.420 12.620 81.900 79.510 9.150 8.980 18.820 18.270 12.990 9.450 0.125 0.176 0.275 0.573 28.54 0.00 0.00 0.0390 339.80 2.19 12.170 12.340 12.510 12.670 12.460 9.250 9.020 12.110 12.260 12.430 12.550 12.370 9.040 8.950 0.2940 14.164 11.597 2.564 14.418 11.464 2.954
VANMET_231 2018-07-18 06:05:00 231 11739.0 12.090 12.220 12.390 12.350 12.600 82.200 80.100 9.160 9.040 18.840 18.280 12.990 9.450 0.125 0.176 0.275 0.573 27.20 0.00 0.00 0.3460 348.00 5.37 12.130 12.270 12.430 12.640 12.380 9.230 9.080 12.050 12.170 12.350 12.550 12.320 9.080 8.970 0.8040 14.108 11.604 2.511 14.351 11.511 2.856
VANMET_231 2018-07-18 06:00:00 231 11739.0 12.060 12.140 12.350 12.320 12.520 82.700 80.800 9.220 9.130 18.860 18.290 12.990 9.450 0.125 0.176 0.275 0.573 25.95 0.00 0.00 0.2330 353.30 5.28 12.070 12.170 12.360 12.540 12.340 9.250 9.140 12.040 12.100 12.340 12.500 12.290 9.200 9.100 0.6140 14.080 11.652 2.436 14.323 11.581 2.750
VANMET_231 2018-07-18 05:55:00 231 11739.0 12.050 12.130 12.340 12.280 12.540 82.400 80.700 9.150 9.070 18.890 18.300 12.980 9.450 0.125 0.176 0.275 0.573 24.57 0.00 0.00 0.6770 356.60 3.45 12.080 12.140 12.350 12.600 12.310 9.220 9.130 12.040 12.110 12.330 12.490 12.270 9.130 9.050 0.7970 14.071 11.597 2.476 14.286 11.534 2.757
VANMET_231 2018-07-18 05:50:00 231 11739.0 12.030 12.130 12.310 12.240 12.490 82.000 80.400 9.060 8.990 18.910 18.310 12.980 9.450 0.125 0.176 0.275 0.573 22.86 0.00 0.00 0.6180 0.22 7.61 12.060 12.140 12.330 12.540 12.280 9.160 9.060 12.000 12.130 12.300 12.440 12.220 8.970 8.940 0.8170 14.052 11.526 2.529 14.248 11.472 2.793
VANMET_231 2018-07-18 05:45:00 231 11739.0 12.020 12.110 12.280 12.200 12.410 82.100 80.400 9.070 8.940 18.940 18.320 12.980 9.450 0.125 0.176 0.275 0.573 21.06 0.00 0.00 0.7360 3.93 8.87 12.040 12.130 12.300 12.430 12.230 9.110 8.970 11.990 12.090 12.270 12.390 12.180 8.990 8.900 0.9150 14.043 11.534 2.514 14.211 11.433 2.785
VANMET_231 2018-07-18 05:40:00 231 11739.0 12.010 12.060 12.250 12.170 12.370 81.400 80.300 8.940 8.890 18.960 18.330 12.980 9.450 0.125 0.176 0.275 0.573 19.27 0.00 0.00 0.7530 6.61 0.81 12.050 12.090 12.270 12.400 12.190 9.030 8.920 11.990 12.020 12.230 12.340 12.150 8.870 8.830 0.9670 14.034 11.433 2.610 14.182 11.395 2.794
VANMET_231 2018-07-18 05:35:00 231 11739.0 12.030 12.010 12.210 12.150 12.320 80.900 79.830 8.860 8.780 18.990 18.330 12.980 9.450 0.125 0.176 0.275 0.573 17.56 0.00 0.00 0.7770 5.60 0.20 12.060 12.020 12.230 12.350 12.170 8.990 8.840 12.010 12.000 12.200 12.300 12.130 8.780 8.740 0.9410 14.052 11.372 2.684 14.164 11.310 2.857
VANMET_231 2018-07-18 05:30:00 231 11739.0 12.090 12.070 12.230 12.180 12.310 80.200 79.300 8.790 8.710 19.010 18.340 12.980 9.450 0.125 0.176 0.275 0.573 15.95 0.00 0.00 0.8040 6.35 0.63 12.120 12.130 12.260 12.350 12.200 8.820 8.730 12.050 12.010 12.200 12.280 12.140 8.740 8.690 0.9020 14.108 11.318 2.793 14.192 11.257 2.938
VANMET_231 2018-07-18 05:25:00 231 11739.0 12.130 12.160 12.270 12.210 12.400 79.270 78.950 8.660 8.670 19.030 18.350 12.980 9.450 0.125 0.176 0.275 0.573 14.37 0.00 0.00 0.8380 7.24 0.05 12.150 12.170 12.280 12.410 12.220 8.740 8.700 12.100 12.140 12.260 12.360 12.190 8.600 8.630 0.8750 14.145 11.219 2.932 14.220 11.226 2.993
VANMET_231 2018-07-18 05:20:00 231 11739.0 12.050 12.130 12.250 12.190 12.390 79.210 78.700 8.570 8.610 19.060 18.360 12.980 9.450 0.125 0.176 0.275 0.573 12.73 0.00 0.00 0.8580 7.18 0.05 12.110 12.160 12.270 12.400 12.200 8.610 8.630 11.980 12.100 12.240 12.380 12.160 8.540 8.570 0.9210 14.071 11.151 2.925 14.201 11.181 3.025
VANMET_231 2018-07-18 05:15:00 231 11739.0 11.970 12.050 12.210 12.160 12.340 79.850 78.670 8.620 8.570 19.080 18.370 12.980 9.450 0.125 0.176 0.275 0.573 11.03 0.00 0.00 0.7670 5.17 0.89 12.000 12.090 12.230 12.380 12.170 8.720 8.590 11.940 12.030 12.200 12.300 12.140 8.540 8.550 0.9340 13.997 11.188 2.820 14.173 11.151 3.023
VANMET_231 2018-07-18 05:10:00 231 11739.0 11.980 12.030 12.200 12.140 12.340 79.960 78.490 8.640 8.520 19.110 18.380 12.980 9.450 0.125 0.176 0.275 0.573 9.32 0.00 0.00 0.7240 6.16 0.09 12.010 12.040 12.210 12.370 12.160 8.730 8.570 11.960 12.030 12.200 12.330 12.110 8.560 8.480 0.8950 14.006 11.204 2.807 14.154 11.113 3.045
VANMET_231 2018-07-18 05:05:00 231 11739.0 11.980 12.000 12.190 12.120 12.320 79.400 78.360 8.540 8.480 19.130 18.390 12.980 9.450 0.125 0.176 0.275 0.573 7.42 0.00 0.00 0.8080 5.11 1.14 12.000 12.030 12.200 12.340 12.140 8.620 8.510 11.960 11.980 12.180 12.290 12.100 8.460 8.460 0.9020 14.006 11.128 2.885 14.136 11.083 3.059
VANMET_231 2018-07-18 05:00:00 231 11739.0 12.000 11.990 12.190 12.120 12.310 79.960 78.360 8.660 8.480 19.160 18.390 12.980 9.440 0.125 0.176 0.275 0.573 5.69 0.00 0.00 0.7010 3.42 0.89 12.030 12.000 12.190 12.340 12.140 8.710 8.590 11.980 11.980 12.180 12.280 12.110 8.610 8.440 0.8360 14.025 11.219 2.811 14.136 11.083 3.059
VANMET_231 2018-07-18 04:55:00 231 11739.0 12.010 12.000 12.200 12.140 12.350 80.200 79.130 8.730 8.640 19.180 18.400 12.980 9.440 0.125 0.176 0.275 0.573 3.90 0.00 0.00 0.7990 6.14 0.24 12.040 12.010 12.200 12.370 12.150 8.790 8.670 12.000 11.990 12.190 12.330 12.120 8.650 8.580 0.9410 14.034 11.272 2.779 14.154 11.204 2.954
VANMET_231 2018-07-18 04:50:00 231 11739.0 12.030 11.980 12.190 12.140 12.300 80.100 79.380 8.710 8.690 19.210 18.410 12.980 9.440 0.125 0.176 0.275 0.573 2.18 0.00 0.00 0.7590 6.00 0.54 12.040 12.000 12.200 12.330 12.160 8.770 8.700 12.010 11.960 12.180 12.270 12.120 8.670 8.660 0.9020 14.052 11.257 2.796 14.154 11.242 2.919
VANMET_231 2018-07-18 04:45:00 231 11739.0 12.040 12.040 12.220 12.170 12.330 79.910 79.060 8.690 8.660 19.240 18.420 12.970 9.440 0.125 0.176 0.275 0.573 0.57 0.00 0.00 0.8020 6.77 0.38 12.050 12.090 12.240 12.360 12.200 8.710 8.700 12.020 12.000 12.200 12.300 12.150 8.650 8.640 0.8690 14.062 11.242 2.825 14.182 11.219 2.970
VANMET_231 2018-07-18 04:40:00 231 11739.0 12.030 12.100 12.240 12.190 12.370 79.690 78.960 8.640 8.660 19.260 18.430 12.970 9.440 0.125 0.176 0.275 0.573 0.00 0.00 0.00 0.9140 7.10 0.06 12.060 12.100 12.240 12.380 12.210 8.710 8.700 12.010 12.080 12.240 12.360 12.180 8.610 8.640 0.9670 14.052 11.204 2.854 14.201 11.219 2.988
VANMET_231 2018-07-18 04:35:00 231 11739.0 12.010 12.050 12.240 12.210 12.360 80.200 78.960 8.710 8.680 19.290 18.430 12.970 9.440 0.125 0.176 0.275 0.573 0.00 0.00 0.00 0.8310 6.44 0.26 12.030 12.080 12.240 12.380 12.220 8.770 8.710 11.990 12.040 12.230 12.340 12.190 8.630 8.640 0.9410 14.034 11.257 2.779 14.220 11.234 2.992
VANMET_231 2018-07-18 04:30:00 231 11739.0 12.050 12.080 12.250 12.220 12.390 80.100 78.790 8.730 8.650 19.310 18.440 12.970 9.440 0.125 0.176 0.275 0.573 0.00 0.00 0.00 0.7880 6.48 0.35 12.080 12.090 12.260 12.420 12.230 8.830 8.670 12.010 12.070 12.240 12.370 12.200 8.680 8.640 0.9340 14.071 11.272 2.800 14.229 11.211 3.018
VANMET_231 2018-07-18 04:25:00 231 11739.0 12.090 12.080 12.270 12.220 12.420 80.200 78.900 8.780 8.670 19.340 18.450 12.970 9.440 0.125 0.176 0.275 0.573 0.00 0.00 0.00 0.7630 6.14 0.49 12.110 12.100 12.270 12.430 12.230 8.850 8.690 12.060 12.060 12.260 12.380 12.200 8.740 8.650 0.8560 14.108 11.310 2.793 14.229 11.226 3.002
VANMET_231 2018-07-18 04:20:00 231 11739.0 12.110 12.060 12.250 12.220 12.400 80.100 79.150 8.800 8.720 19.360 18.460 12.970 9.440 0.125 0.176 0.275 0.573 0.00 0.00 0.00 0.7990 4.86 1.36 12.150 12.070 12.270 12.430 12.230 8.860 8.800 12.080 12.050 12.240 12.380 12.200 8.750 8.660 0.9670 14.127 11.326 2.811 14.229 11.264 2.967
VANMET_231 2018-07-18 04:15:00 231 11739.0 12.170 12.100 12.280 12.260 12.380 80.100 79.530 8.850 8.830 19.390 18.460 12.970 9.440 0.125 0.176 0.275 0.573 0.00 0.00 0.00 0.6780 3.71 0.76 12.210 12.170 12.320 12.400 12.300 8.860 8.860 12.120 12.060 12.250 12.370 12.240 8.830 8.810 0.8230 14.182 11.364 2.822 14.267 11.349 2.920
VANMET_231 2018-07-18 04:10:00 231 11739.0 12.230 12.220 12.360 12.310 12.480 79.540 79.050 8.810 8.800 19.410 18.470 12.970 9.440 0.125 0.176 0.275 0.573 0.00 0.00 0.00 0.8220 6.13 1.00 12.250 12.240 12.370 12.510 12.330 8.860 8.820 12.210 12.180 12.330 12.410 12.290 8.760 8.760 0.9210 14.239 11.333 2.913 14.314 11.326 2.999
VANMET_231 2018-07-18 04:05:00 231 11739.0 12.290 12.280 12.390 12.330 12.510 79.100 78.940 8.780 8.800 19.440 18.480 12.970 9.440 0.125 0.176 0.275 0.573 0.00 0.00 0.00 0.8490 7.85 0.17 12.330 12.320 12.410 12.530 12.360 8.830 8.840 12.240 12.240 12.370 12.480 12.310 8.740 8.770 0.9540 14.295 11.310 2.988 14.333 11.326 3.018
VANMET_231 2018-07-18 04:00:00 231 11739.0 12.280 12.300 12.420 12.360 12.560 79.150 78.890 8.790 8.810 19.460 18.490 12.970 9.440 0.125 0.176 0.275 0.573 0.00 0.00 0.00 0.9080 7.53 0.38 12.310 12.320 12.420 12.580 12.380 8.810 8.850 12.250 12.270 12.410 12.540 12.350 8.750 8.790 0.9730 14.286 11.318 2.979 14.361 11.333 3.032
VANMET_231 2018-07-18 03:55:00 231 11739.0 12.230 12.220 12.390 12.340 12.550 79.140 78.790 8.740 8.770 19.490 18.490 12.970 9.440 0.125 0.176 0.275 0.573 0.00 0.00 0.00 0.8630 5.72 0.46 12.260 12.270 12.410 12.570 12.370 8.770 8.810 12.220 12.170 12.360 12.540 12.310 8.710 8.750 0.9410 14.239 11.280 2.970 14.342 11.303 3.042
VANMET_231 2018-07-18 03:50:00 231 11739.0 12.230 12.130 12.350 12.320 12.480 79.160 78.770 8.740 8.750 19.510 18.500 12.970 9.440 0.125 0.176 0.275 0.573 0.00 0.00 0.00 0.6790 3.91 0.55 12.260 12.160 12.360 12.540 12.340 8.770 8.760 12.200 12.120 12.340 12.460 12.300 8.700 8.730 0.8690 14.239 11.280 2.967 14.323 11.287 3.041
VANMET_231 2018-07-18 03:45:00 231 11739.0 12.280 12.170 12.390 12.350 12.500 79.000 78.480 8.760 8.730 19.540 18.510 12.970 9.440 0.125 0.176 0.275 0.573 0.00 0.00 0.00 0.6460 5.43 0.19 12.310 12.200 12.410 12.520 12.380 8.780 8.750 12.260 12.150 12.370 12.480 12.330 8.730 8.710 0.7640 14.286 11.295 3.000 14.351 11.272 3.088
VANMET_231 2018-07-18 03:40:00 231 11739.0 12.320 12.230 12.440 12.410 12.560 79.130 78.470 8.820 8.780 19.570 18.510 12.970 9.440 0.125 0.176 0.275 0.573 0.00 0.00 0.00 0.6960 6.24 0.55 12.340 12.270 12.480 12.610 12.450 8.870 8.870 12.290 12.200 12.410 12.510 12.370 8.720 8.710 0.8950 14.323 11.341 2.989 14.408 11.310 3.102
VANMET_231 2018-07-18 03:35:00 231 11739.0 12.340 12.290 12.500 12.450 12.630 79.370 78.860 8.890 8.900 19.590 18.520 12.970 9.440 0.125 0.176 0.275 0.573 0.00 0.00 0.00 0.8250 6.83 0.40 12.370 12.310 12.510 12.660 12.470 8.940 8.940 12.310 12.270 12.480 12.610 12.430 8.830 8.880 0.9020 14.342 11.395 2.959 14.446 11.402 3.054
VANMET_231 2018-07-18 03:30:00 231 11739.0 12.360 12.300 12.510 12.460 12.650 79.280 78.850 8.880 8.900 19.620 18.530 12.960 9.440 0.125 0.176 0.275 0.573 0.00 0.00 0.00 0.7700 5.78 0.47 12.380 12.310 12.520 12.680 12.480 8.900 8.940 12.340 12.290 12.500 12.630 12.440 8.860 8.870 0.8890 14.361 11.387 2.976 14.456 11.402 3.057
VANMET_231 2018-07-18 03:25:00 231 11739.0 12.340 12.280 12.500 12.460 12.640 79.380 78.790 8.880 8.890 19.650 18.530 12.960 9.440 0.125 0.176 0.275 0.573 0.00 0.00 0.00 0.6520 4.67 0.45 12.360 12.300 12.510 12.660 12.490 8.910 8.920 12.320 12.270 12.490 12.620 12.440 8.850 8.870 0.9080 14.342 11.387 2.957 14.456 11.395 3.066
VANMET_231 2018-07-18 03:20:00 231 11739.0 12.340 12.300 12.500 12.460 12.650 79.420 78.720 8.890 8.870 19.670 18.540 12.960 9.440 0.125 0.176 0.275 0.573 0.00 0.00 0.00 0.7580 4.62 0.34 12.350 12.320 12.510 12.670 12.470 8.900 8.890 12.320 12.290 12.490 12.630 12.440 8.860 8.850 0.8820 14.342 11.395 2.952 14.456 11.379 3.076
VANMET_231 2018-07-18 03:15:00 231 11739.0 12.340 12.330 12.480 12.450 12.640 79.400 78.850 8.890 8.890 19.700 18.550 12.960 9.440 0.125 0.176 0.275 0.573 0.00 0.00 0.00 0.7950 7.16 1.53 12.360 12.340 12.490 12.660 12.460 8.930 8.930 12.310 12.310 12.460 12.620 12.430 8.850 8.850 1.0130 14.342 11.395 2.954 14.446 11.395 3.055
VANMET_231 2018-07-18 03:10:00 231 11739.0 12.320 12.290 12.470 12.460 12.620 79.590 78.830 8.900 8.890 19.730 18.550 12.960 9.440 0.125 0.176 0.275 0.573 0.00 0.00 0.00 0.7930 7.64 0.62 12.330 12.320 12.480 12.640 12.470 8.930 8.920 12.290 12.280 12.460 12.610 12.440 8.850 8.870 0.9800 14.323 11.402 2.923 14.456 11.395 3.060
VANMET_231 2018-07-18 03:05:00 231 11739.0 12.320 12.300 12.470 12.460 12.650 79.370 78.630 8.860 8.860 19.750 18.560 12.960 9.440 0.125 0.176 0.275 0.573 0.00 0.00 0.00 0.7590 9.73 2.33 12.350 12.330 12.480 12.660 12.480 8.910 8.880 12.310 12.270 12.460 12.640 12.440 8.810 8.840 0.8890 14.323 11.372 2.955 14.456 11.372 3.089
VANMET_231 2018-07-18 03:00:00 231 11739.0 12.360 12.290 12.470 12.480 12.630 79.110 78.370 8.850 8.830 19.780 18.560 12.960 9.440 0.125 0.176 0.275 0.573 0.00 0.00 0.00 0.7440 7.78 4.66 12.410 12.300 12.480 12.640 12.510 8.890 8.860 12.320 12.280 12.470 12.620 12.450 8.820 8.800 1.0320 14.361 11.364 3.000 14.475 11.349 3.131
VANMET_231 2018-07-18 02:55:00 231 11739.0 12.450 12.340 12.520 12.530 12.650 78.310 77.930 8.790 8.800 19.800 18.570 12.960 9.440 0.125 0.176 0.275 0.573 0.00 0.00 0.00 0.7230 7.62 0.83 12.510 12.400 12.570 12.700 12.580 8.840 8.840 12.400 12.300 12.480 12.620 12.490 8.750 8.770 0.8170 14.446 11.318 3.133 14.522 11.326 3.205
VANMET_231 2018-07-18 02:50:00 231 11739.0 12.550 12.440 12.620 12.630 12.760 77.540 77.140 8.740 8.750 19.830 18.570 12.960 9.440 0.125 0.176 0.275 0.573 0.00 0.00 0.00 0.6130 10.15 2.57 12.600 12.470 12.660 12.850 12.690 8.800 8.810 12.510 12.400 12.570 12.700 12.580 8.680 8.700 0.8170 14.541 11.280 3.266 14.618 11.287 3.342
VANMET_231 2018-07-18 02:45:00 231 11739.0 12.600 12.520 12.690 12.710 12.920 77.180 76.990 8.720 8.790 19.860 18.580 12.960 9.440 0.125 0.176 0.275 0.573 0.00 0.00 0.00 0.4230 7.00 2.54 12.620 12.540 12.700 12.980 12.740 8.770 8.870 12.580 12.480 12.670 12.850 12.670 8.690 8.710 0.6600 14.589 11.264 3.329 14.695 11.318 3.381
VANMET_231 2018-07-18 02:40:00 231 11739.0 12.640 12.570 12.730 12.760 12.950 76.750 76.440 8.680 8.730 19.880 18.590 12.960 9.440 0.125 0.176 0.275 0.573 0.00 0.00 0.00 0.3430 337.40 7.53 12.670 12.620 12.760 13.010 12.790 8.700 8.780 12.620 12.530 12.700 12.910 12.730 8.660 8.690 0.4250 14.627 11.234 3.401 14.743 11.272 3.473
VANMET_231 2018-07-18 02:35:00 231 11739.0 12.670 12.640 12.800 12.790 12.990 76.710 76.360 8.700 8.750 19.910 18.590 12.960 9.440 0.125 0.176 0.275 0.573 0.00 0.00 0.00 0.3570 327.10 27.22 12.700 12.660 12.830 13.020 12.820 8.730 8.830 12.640 12.620 12.760 12.970 12.770 8.670 8.700 0.4830 14.656 11.249 3.413 14.772 11.287 3.492
VANMET_231 2018-07-18 02:30:00 231 11739.0 12.700 12.690 12.830 12.840 13.000 76.540 75.870 8.700 8.700 19.940 18.600 12.960 9.440 0.125 0.176 0.275 0.573 0.00 0.00 0.00 0.4560 3.59 5.01 12.730 12.700 12.840 13.010 12.870 8.780 8.740 12.680 12.670 12.830 12.980 12.820 8.630 8.660 0.6600 14.685 11.249 3.445 14.820 11.249 3.576
VANMET_231 2018-07-18 02:25:00 231 11739.0 12.730 12.700 12.870 12.900 13.020 76.230 75.350 8.660 8.660 19.960 18.600 12.960 9.440 0.125 0.176 0.275 0.573 0.00 0.00 0.00 0.5980 10.36 7.09 12.760 12.740 12.890 13.060 12.920 8.720 8.710 12.690 12.680 12.840 12.990 12.860 8.560 8.610 0.8300 14.714 11.219 3.498 14.879 11.219 3.668
VANMET_231 2018-07-18 02:20:00 231 11739.0 12.730 12.740 12.920 12.950 13.100 75.990 75.090 8.620 8.650 19.990 18.600 12.960 9.430 0.125 0.176 0.275 0.573 0.00 0.00 0.00 0.4950 15.42 11.36 12.770 12.760 12.950 13.170 12.970 8.720 8.760 12.700 12.730 12.890 13.040 12.920 8.540 8.590 0.7250 14.714 11.188 3.533 14.928 11.211 3.718
VANMET_231 2018-07-18 02:15:00 231 11739.0 12.710 12.710 12.890 12.890 13.120 76.340 75.500 8.670 8.680 20.020 18.610 12.960 9.430 0.125 0.176 0.275 0.573 0.00 0.00 0.00 0.5440 8.00 11.06 12.730 12.730 12.920 13.150 12.930 8.750 8.740 12.700 12.680 12.850 13.090 12.860 8.610 8.640 0.7710 14.695 11.226 3.477 14.869 11.234 3.643
VANMET_231 2018-07-18 02:10:00 231 11739.0 12.730 12.660 12.820 12.860 13.050 75.690 75.140 8.560 8.580 20.040 18.610 12.950 9.430 0.125 0.176 0.275 0.573 0.00 0.00 0.00 0.6730 3.75 6.37 12.760 12.680 12.840 13.080 12.900 8.650 8.640 12.700 12.640 12.810 13.020 12.830 8.480 8.500 0.8890 14.714 11.143 3.577 14.840 11.158 3.689
VANMET_231 2018-07-18 02:05:00 231 11739.0 12.830 12.760 12.920 12.950 13.050 75.450 74.580 8.610 8.550 20.070 18.620 12.950 9.430 0.125 0.176 0.275 0.573 0.00 0.00 0.00 0.6200 2.04 4.76 12.880 12.860 13.000 13.150 13.000 8.690 8.590 12.770 12.690 12.850 13.000 12.900 8.500 8.520 0.7840 14.811 11.181 3.636 14.928 11.135 3.795
VANMET_231 2018-07-18 02:00:00 231 11739.0 12.860 12.850 13.010 13.010 13.190 75.270 74.300 8.600 8.560 20.100 18.620 12.950 9.430 0.125 0.176 0.275 0.573 0.00 0.00 0.00 0.8500 10.63 0.87 12.880 12.880 13.020 13.220 13.030 8.700 8.590 12.840 12.830 13.010 13.170 13.000 8.530 8.540 1.0130 14.840 11.173 3.670 14.986 11.143 3.851
VANMET_231 2018-07-18 01:55:00 231 11739.0 12.880 12.830 13.030 13.030 13.210 75.320 74.130 8.630 8.550 20.120 18.630 12.950 9.430 0.125 0.176 0.275 0.573 0.00 0.00 0.00 0.7060 10.70 1.76 12.910 12.850 13.040 13.240 13.050 8.710 8.570 12.850 12.820 13.020 13.180 13.010 8.550 8.530 0.8490 14.859 11.196 3.667 15.006 11.135 3.882
VANMET_231 2018-07-18 01:50:00 231 11739.0 12.930 12.830 13.010 13.050 13.250 74.580 73.830 8.530 8.500 20.150 18.630 12.950 9.430 0.125 0.176 0.275 0.573 0.00 0.00 0.00 0.6650 9.48 6.60 12.960 12.850 13.040 13.300 13.070 8.730 8.550 12.890 12.820 13.000 13.220 13.030 8.440 8.460 0.9730 14.908 11.120 3.790 15.025 11.098 3.932
VANMET_231 2018-07-18 01:45:00 231 11739.0 12.990 12.910 13.090 13.110 13.290 73.960 73.240 8.470 8.440 20.180 18.630 12.950 9.430 0.125 0.176 0.275 0.573 0.00 0.00 0.00 0.5440 2.34 4.50 13.030 12.950 13.130 13.330 13.140 8.590 8.480 12.960 12.860 13.040 13.260 13.070 8.400 8.400 0.6790 14.967 11.075 3.897 15.085 11.053 4.037
VANMET_231 2018-07-18 01:40:00 231 11739.0 13.090 13.020 13.160 13.190 13.300 73.640 72.530 8.500 8.370 20.200 18.640 12.950 9.430 0.125 0.176 0.275 0.573 0.00 0.00 0.00 0.6630 9.55 2.46 13.160 13.070 13.210 13.350 13.240 8.600 8.430 13.020 12.960 13.130 13.270 13.150 8.360 8.330 0.8430 15.065 11.098 3.971 15.164 11.000 4.165
VANMET_231 2018-07-18 01:35:00 231 11739.0 13.160 13.100 13.240 13.260 13.390 72.740 71.990 8.380 8.330 20.230 18.640 12.950 9.430 0.125 0.176 0.275 0.573 0.00 0.00 0.00 0.8140 15.08 1.52 13.180 13.110 13.260 13.420 13.300 8.610 8.360 13.140 13.070 13.210 13.340 13.220 8.250 8.300 0.9670 15.134 11.008 4.126 15.233 10.970 4.267
VANMET_231 2018-07-18 01:30:00 231 11739.0 13.190 13.120 13.290 13.330 13.460 72.370 71.290 8.340 8.250 20.260 18.640 12.950 9.430 0.125 0.176 0.275 0.573 0.00 0.00 0.00 0.7480 9.49 5.67 13.210 13.130 13.310 13.510 13.370 8.630 8.310 13.150 13.100 13.260 13.410 13.290 8.220 8.200 0.9600 15.164 10.978 4.190 15.303 10.911 4.393
VANMET_231 2018-07-18 01:25:00 231 11739.0 13.240 13.170 13.350 13.390 13.510 72.310 71.040 8.380 8.260 20.280 18.650 12.950 9.430 0.125 0.176 0.275 0.573 0.00 0.00 0.00 0.4610 0.01 13.31 13.300 13.220 13.380 13.560 13.410 8.570 8.320 13.210 13.130 13.320 13.470 13.360 8.230 8.210 0.6530 15.213 11.008 4.213 15.363 10.918 4.449
VANMET_231 2018-07-18 01:20:00 231 11739.0 13.330 13.260 13.410 13.450 13.570 72.260 71.150 8.450 8.340 20.310 18.650 12.950 9.430 0.125 0.176 0.275 0.573 0.00 0.00 0.00 0.5280 5.79 8.36 13.370 13.290 13.450 13.610 13.490 8.660 8.500 13.290 13.210 13.380 13.520 13.390 8.300 8.250 0.7320 15.303 11.060 4.245 15.423 10.978 4.450
VANMET_231 2018-07-18 01:15:00 231 11739.0 13.400 13.350 13.510 13.550 13.680 72.900 71.960 8.650 8.610 20.340 18.650 12.950 9.430 0.125 0.176 0.275 0.573 0.00 0.00 0.00 0.5340 3.95 12.11 13.450 13.410 13.560 13.720 13.600 8.900 8.930 13.350 13.300 13.460 13.630 13.500 8.470 8.400 0.7450 15.373 11.211 4.166 15.524 11.181 4.353
VANMET_231 2018-07-18 01:10:00 231 11739.0 13.450 13.450 13.600 13.620 13.790 73.530 72.450 8.820 8.770 20.370 18.650 12.950 9.430 0.125 0.176 0.275 0.573 0.00 0.00 0.00 0.8080 8.66 1.60 13.470 13.490 13.630 13.860 13.650 8.970 8.840 13.430 13.420 13.570 13.730 13.600 8.730 8.730 0.9600 15.423 11.341 4.082 15.595 11.303 4.296
VANMET_231 2018-07-18 01:05:00 231 11739.0 13.450 13.440 13.610 13.640 13.890 73.680 72.650 8.850 8.830 20.390 18.660 12.950 9.430 0.125 0.176 0.275 0.573 0.00 0.00 0.00 0.6830 2.18 26.75 13.480 13.450 13.620 13.940 13.660 8.920 8.880 13.420 13.430 13.600 13.830 13.630 8.720 8.750 0.9210 15.423 11.364 4.059 15.615 11.349 4.271
VANMET_231 2018-07-18 01:00:00 231 11739.0 13.480 13.460 13.650 13.680 13.930 73.850 72.770 8.920 8.900 20.420 18.660 12.950 9.430 0.125 0.176 0.275 0.573 0.00 0.00 0.00 0.6440 3.03 6.08 13.520 13.480 13.670 14.000 13.720 9.030 8.960 13.460 13.450 13.620 13.870 13.660 8.810 8.800 0.7510 15.453 11.418 4.041 15.656 11.402 4.263
VANMET_231 2018-07-18 00:55:00 231 11739.0 13.520 13.510 13.700 13.740 13.910 74.090 72.740 9.010 8.950 20.450 18.660 12.950 9.430 0.125 0.176 0.275 0.573 0.00 0.00 0.00 0.6710 3.69 4.10 13.550 13.540 13.720 13.920 13.770 9.070 9.000 13.500 13.490 13.680 13.880 13.720 8.960 8.910 0.8560 15.494 11.488 4.014 15.717 11.441 4.284
VANMET_231 2018-07-18 00:50:00 231 11739.0 13.580 13.560 13.720 13.770 14.010 74.140 73.010 9.080 9.030 20.470 18.660 12.950 9.430 0.125 0.176 0.275 0.573 0.00 0.00 0.00 0.6980 2.19 10.79 13.610 13.580 13.730 14.100 13.780 9.110 9.070 13.550 13.540 13.720 13.930 13.750 9.020 8.990 0.8360 15.554 11.542 4.022 15.748 11.503 4.250
VANMET_231 2018-07-18 00:45:00 231 11739.0 13.590 13.590 13.760 13.810 14.050 73.920 72.910 9.040 9.050 20.500 18.660 12.950 9.430 0.125 0.176 0.275 0.572 0.00 0.00 0.00 0.7330 0.25 2.69 13.610 13.610 13.800 14.100 13.850 9.100 9.080 13.580 13.570 13.730 14.010 13.770 9.000 8.970 0.9020 15.564 11.511 4.059 15.789 11.519 4.277
VANMET_231 2018-07-18 00:40:00 231 11739.0 13.630 13.630 13.830 13.860 14.040 73.820 72.460 9.060 9.010 20.530 18.660 12.940 9.430 0.125 0.176 0.275 0.572 0.00 0.00 0.00 0.6810 1.95 1.65 13.660 13.660 13.860 14.110 13.900 9.110 9.040 13.600 13.610 13.800 14.000 13.830 9.020 8.960 0.9340 15.605 11.526 4.085 15.840 11.488 4.362
VANMET_231 2018-07-18 00:35:00 231 11739.0 13.670 13.700 13.910 13.940 14.140 73.180 71.830 8.970 8.960 20.560 18.660 12.940 9.430 0.125 0.176 0.275 0.572 0.00 0.00 0.00 0.6060 0.70 0.73 13.700 13.750 13.960 14.200 13.990 9.000 8.990 13.650 13.670 13.870 14.080 13.890 8.930 8.920 0.7060 15.646 11.457 4.196 15.923 11.449 4.485
VANMET_231 2018-07-18 00:30:00 231 11739.0 13.720 13.810 14.010 14.010 14.140 72.930 71.030 8.960 8.860 20.580 18.670 12.940 9.430 0.125 0.176 0.275 0.572 0.00 0.00 0.00 0.7000 3.62 3.79 13.740 13.840 14.040 14.200 14.040 9.070 8.940 13.680 13.760 13.970 14.080 13.990 8.880 8.810 0.9020 15.697 11.449 4.249 15.995 11.372 4.634
VANMET_231 2018-07-18 00:25:00 231 11739.0 13.770 13.860 14.050 14.050 14.230 72.110 70.410 8.850 8.760 20.610 18.670 12.940 9.430 0.125 0.176 0.275 0.572 0.00 0.00 0.00 0.8010 3.71 1.39 13.820 13.870 14.060 14.250 14.070 8.920 8.810 13.730 13.840 14.040 14.200 14.020 8.780 8.720 0.9150 15.748 11.364 4.392 16.037 11.295 4.745
VANMET_231 2018-07-18 00:20:00 231 11739.0 13.840 13.880 14.060 14.070 14.250 71.290 69.870 8.740 8.670 20.640 18.670 12.940 9.430 0.125 0.176 0.275 0.572 0.00 0.00 0.00 0.6650 2.20 7.14 13.880 13.900 14.070 14.330 14.090 8.850 8.740 13.800 13.860 14.050 14.220 14.050 8.680 8.620 0.7640 15.819 11.280 4.542 16.057 11.226 4.838
VANMET_231 2018-07-18 00:15:00 231 11739.0 13.890 13.920 14.090 14.100 14.280 70.640 69.500 8.660 8.620 20.660 18.670 12.940 9.430 0.125 0.176 0.275 0.572 0.00 0.00 0.00 0.6670 358.60 6.96 13.940 13.950 14.120 14.350 14.130 8.720 8.640 13.860 13.900 14.070 14.250 14.080 8.600 8.600 0.7640 15.871 11.219 4.660 16.089 11.188 4.907
VANMET_231 2018-07-18 00:10:00 231 11739.0 13.970 14.000 14.170 14.160 14.320 70.290 69.160 8.660 8.600 20.690 18.670 12.940 9.430 0.125 0.176 0.275 0.572 0.00 0.00 0.00 0.5880 1.56 6.92 14.000 14.040 14.210 14.380 14.200 8.730 8.630 13.930 13.950 14.120 14.270 14.130 8.560 8.580 0.8170 15.954 11.219 4.740 16.151 11.173 4.981
VANMET_231 2018-07-18 00:05:00 231 11739.0 14.010 14.050 14.230 14.220 14.380 69.900 68.830 8.610 8.590 20.720 18.670 12.940 9.430 0.125 0.176 0.275 0.572 0.00 0.00 0.00 0.6790 359.90 7.38 14.030 14.070 14.260 14.410 14.260 8.720 8.650 13.990 14.030 14.200 14.340 14.190 8.560 8.550 0.8490 15.995 11.181 4.814 16.214 11.166 5.054
VANMET_231 2018-07-18 00:00:00 231 11739.0 14.040 14.100 14.290 14.280 14.450 69.720 68.340 8.600 8.540 20.740 18.670 12.940 9.430 0.125 0.176 0.275 0.572 0.00 0.00 0.00 0.6560 1.94 5.91 14.060 14.130 14.300 14.470 14.300 8.730 8.560 14.010 14.080 14.270 14.400 14.240 8.540 8.500 0.9540 16.026 11.173 4.853 16.277 11.128 5.153
VANMET_231 2018-07-17 23:55:00 231 11739.0 14.070 14.140 14.320 14.330 14.490 70.010 68.220 8.700 8.560 20.770 18.660 12.940 9.430 0.125 0.176 0.275 0.572 0.00 0.00 0.00 0.6980 357.10 8.57 14.100 14.160 14.350 14.520 14.350 8.820 8.590 14.040 14.120 14.300 14.470 14.300 8.600 8.530 0.9340 16.057 11.249 4.816 16.330 11.143 5.190
VANMET_231 2018-07-17 23:50:00 231 11739.0 14.120 14.170 14.360 14.380 14.520 70.260 68.230 8.800 8.610 20.800 18.660 12.940 9.420 0.125 0.176 0.275 0.572 0.00 0.00 0.00 0.7440 5.12 2.02 14.160 14.190 14.380 14.540 14.420 8.910 8.690 14.090 14.140 14.340 14.490 14.350 8.700 8.560 0.9080 16.110 11.326 4.791 16.383 11.181 5.205
VANMET_231 2018-07-17 23:45:00 231 11739.0 14.190 14.240 14.420 14.450 14.580 70.640 68.820 8.940 8.810 20.820 18.660 12.940 9.420 0.125 0.176 0.275 0.572 0.00 0.00 0.00 0.7410 2.38 6.31 14.210 14.280 14.460 14.640 14.480 9.030 8.870 14.150 14.200 14.380 14.540 14.410 8.860 8.690 0.9930 16.183 11.433 4.751 16.457 11.333 5.131
VANMET_231 2018-07-17 23:40:00 231 11739.0 14.240 14.300 14.490 14.500 14.640 70.910 69.010 9.050 8.900 20.850 18.660 12.940 9.420 0.125 0.176 0.275 0.572 0.00 0.00 0.00 0.6110 358.00 9.55 14.260 14.330 14.530 14.680 14.530 9.170 8.940 14.210 14.270 14.460 14.600 14.480 8.990 8.860 0.7840 16.235 11.519 4.723 16.511 11.402 5.117
VANMET_231 2018-07-17 23:35:00 231 11739.0 14.280 14.340 14.550 14.520 14.730 70.740 69.130 9.050 8.940 20.880 18.660 12.940 9.420 0.125 0.176 0.275 0.572 0.00 0.00 0.00 0.4060 332.80 24.10 14.290 14.350 14.550 14.750 14.530 9.110 8.970 14.240 14.320 14.530 14.680 14.510 8.900 8.900 0.7250 16.277 11.519 4.763 16.532 11.433 5.103
VANMET_231 2018-07-17 23:30:00 231 11739.0 14.280 14.340 14.550 14.510 14.730 70.770 69.270 9.060 8.960 20.900 18.660 12.940 9.420 0.125 0.176 0.275 0.572 0.00 0.00 0.00 0.4770 356.40 10.69 14.310 14.350 14.560 14.750 14.530 9.160 9.000 14.260 14.310 14.530 14.700 14.490 8.950 8.930 0.6080 16.277 11.526 4.758 16.521 11.449 5.077
VANMET_231 2018-07-17 23:25:00 231 11739.0 14.300 14.340 14.540 14.500 14.730 70.920 69.510 9.110 9.010 20.930 18.650 12.940 9.420 0.125 0.176 0.275 0.572 0.00 0.00 0.00 0.4670 355.60 17.36 14.320 14.350 14.550 14.750 14.520 9.280 9.030 14.290 14.330 14.530 14.720 14.490 9.000 8.970 0.6400 16.298 11.565 4.740 16.511 11.488 5.034
VANMET_231 2018-07-17 23:20:00 231 11739.0 14.300 14.330 14.530 14.500 14.720 70.950 69.800 9.110 9.060 20.960 18.650 12.940 9.420 0.125 0.176 0.275 0.572 0.00 0.00 0.00 0.3630 341.10 14.03 14.320 14.340 14.540 14.740 14.520 9.210 9.120 14.280 14.300 14.510 14.670 14.480 9.050 9.020 0.4700 16.298 11.565 4.735 16.511 11.526 4.986
VANMET_231 2018-07-17 23:15:00 231 11739.0 14.330 14.330 14.530 14.510 14.690 71.530 70.300 9.270 9.190 20.980 18.650 12.940 9.420 0.125 0.176 0.275 0.572 0.00 0.00 0.00 0.7150 4.78 4.24 14.360 14.360 14.550 14.710 14.540 9.390 9.230 14.290 14.310 14.510 14.660 14.490 9.210 9.130 0.9280 16.330 11.691 4.649 16.521 11.628 4.907
VANMET_231 2018-07-17 23:10:00 231 11739.0 14.370 14.360 14.550 14.540 14.740 71.280 70.290 9.250 9.210 21.010 18.650 12.930 9.420 0.125 0.176 0.275 0.572 0.00 0.00 0.00 0.7340 5.59 2.29 14.390 14.370 14.560 14.750 14.560 9.330 9.230 14.350 14.350 14.540 14.710 14.510 9.210 9.180 0.8890 16.372 11.675 4.702 16.553 11.644 4.918
VANMET_231 2018-07-17 23:05:00 231 11739.0 14.390 14.360 14.550 14.570 14.760 71.610 70.420 9.340 9.260 21.040 18.640 12.930 9.420 0.125 0.176 0.275 0.572 0.00 0.00 0.00 0.6950 2.80 1.69 14.420 14.380 14.570 14.800 14.610 9.440 9.300 14.370 14.350 14.530 14.730 14.550 9.270 9.220 0.9800 16.394 11.746 4.654 16.586 11.683 4.906
VANMET_231 2018-07-17 23:00:00 231 11739.0 14.430 14.400 14.590 14.610 14.820 71.660 70.420 9.380 9.300 21.060 18.640 12.930 9.420 0.125 0.176 0.275 0.572 0.00 0.00 0.00 0.7020 4.63 1.59 14.450 14.410 14.610 14.880 14.620 9.470 9.360 14.410 14.380 14.570 14.790 14.590 9.330 9.270 0.8890 16.436 11.778 4.658 16.628 11.715 4.919
VANMET_231 2018-07-17 22:55:00 231 11739.0 14.450 14.430 14.620 14.630 14.910 71.690 70.720 9.420 9.390 21.090 18.640 12.930 9.420 0.125 0.176 0.275 0.572 0.00 0.00 0.00 0.6920 3.83 4.96 14.480 14.450 14.640 14.960 14.670 9.470 9.440 14.430 14.410 14.600 14.840 14.610 9.300 9.270 0.9470 16.457 11.810 4.659 16.650 11.786 4.875
VANMET_231 2018-07-17 22:50:00 231 11739.0 14.490 14.480 14.670 14.700 14.880 71.930 70.800 9.500 9.470 21.110 18.630 12.930 9.420 0.125 0.176 0.275 0.572 0.00 0.00 0.00 0.6350 3.16 1.12 14.520 14.510 14.700 14.940 14.730 9.560 9.530 14.450 14.450 14.640 14.840 14.670 9.390 9.430 0.8430 16.500 11.873 4.632 16.725 11.849 4.884
VANMET_231 2018-07-17 22:45:00 231 11739.0 14.530 14.550 14.730 14.750 14.900 72.170 70.680 9.590 9.490 21.140 18.630 12.930 9.420 0.125 0.176 0.275 0.572 0.00 0.00 0.00 0.6490 3.64 1.54 14.550 14.570 14.740 14.930 14.770 9.630 9.520 14.500 14.520 14.710 14.860 14.740 9.560 9.470 0.8040 16.543 11.945 4.604 16.779 11.865 4.920
VANMET_231 2018-07-17 22:40:00 231 11739.0 14.600 14.590 14.750 14.780 14.920 71.980 70.570 9.620 9.500 21.160 18.620 12.930 9.420 0.125 0.176 0.275 0.572 0.00 0.00 0.00 0.7130 2.24 2.42 14.620 14.630 14.790 14.940 14.810 9.660 9.530 14.560 14.560 14.730 14.900 14.750 9.530 9.470 0.9470 16.618 11.970 4.656 16.812 11.873 4.948
VANMET_231 2018-07-17 22:35:00 231 11739.0 14.650 14.660 14.820 14.830 15.010 71.460 70.190 9.560 9.460 21.190 18.620 12.930 9.420 0.125 0.176 0.275 0.572 0.00 0.00 0.00 0.7810 6.10 3.18 14.670 14.680 14.830 15.040 14.840 9.660 9.480 14.630 14.630 14.800 14.950 14.810 9.480 9.440 0.9870 16.671 11.921 4.758 16.866 11.841 5.028
VANMET_231 2018-07-17 22:30:00 231 11739.0 14.680 14.660 14.840 14.860 15.020 71.190 69.950 9.530 9.440 21.210 18.610 12.930 9.420 0.125 0.176 0.275 0.572 0.00 0.00 0.00 0.7510 4.45 1.40 14.700 14.670 14.860 15.040 14.880 9.620 9.470 14.650 14.630 14.820 14.990 14.840 9.470 9.420 0.9410 16.704 11.897 4.812 16.899 11.826 5.078
VANMET_231 2018-07-17 22:25:00 231 11739.0 14.710 14.680 14.870 14.880 15.050 70.970 69.730 9.520 9.410 21.240 18.610 12.930 9.420 0.125 0.176 0.275 0.572 0.00 0.00 0.00 0.6840 4.76 0.87 14.750 14.690 14.880 15.070 14.900 9.560 9.440 14.700 14.670 14.860 15.030 14.870 9.480 9.400 0.8040 16.736 11.889 4.859 16.921 11.802 5.122
VANMET_231 2018-07-17 22:20:00 231 11739.0 14.760 14.730 14.900 14.920 15.090 71.000 69.860 9.570 9.480 21.260 18.600 12.930 9.420 0.125 0.176 0.275 0.572 0.00 0.00 0.00 0.6540 6.67 7.54 14.780 14.760 14.930 15.150 14.940 9.640 9.530 14.730 14.680 14.860 15.010 14.900 9.460 9.450 0.7580 16.790 11.929 4.869 16.964 11.857 5.113
VANMET_231 2018-07-17 22:15:00 231 11739.0 14.810 14.780 14.950 14.970 15.130 71.040 69.880 9.620 9.530 21.290 18.590 12.930 9.420 0.125 0.176 0.275 0.572 0.00 0.00 0.00 0.6610 1.27 2.57 14.850 14.800 14.980 15.160 15.010 9.690 9.640 14.770 14.760 14.930 15.100 14.940 9.560 9.480 0.8620 16.844 11.970 4.878 17.019 11.897 5.126
VANMET_231 2018-07-17 22:10:00 231 11739.0 14.880 14.860 15.040 15.050 15.170 70.980 69.640 9.680 9.560 21.310 18.590 12.930 9.420 0.125 0.176 0.275 0.572 0.00 0.00 0.00 0.6870 2.91 2.38 14.930 14.890 15.080 15.220 15.080 9.720 9.610 14.810 14.810 14.980 15.130 15.010 9.610 9.480 0.8100 16.921 12.018 4.910 17.107 11.921 5.194
VANMET_231 2018-07-17 22:05:00 231 11739.0 14.930 14.940 15.100 15.100 15.260 70.860 69.310 9.700 9.530 21.330 18.580 12.930 9.420 0.125 0.176 0.275 0.572 0.00 0.00 0.00 0.8210 5.84 1.40 14.970 14.960 15.120 15.310 15.130 9.800 9.570 14.910 14.900 15.080 15.210 15.070 9.580 9.490 0.9670 16.975 12.034 4.947 17.162 11.897 5.267
VANMET_231 2018-07-17 22:00:00 231 11739.0 14.950 14.950 15.100 15.110 15.300 70.560 69.320 9.660 9.550 21.360 18.570 12.930 9.420 0.125 0.176 0.275 0.572 0.00 0.00 0.00 0.7960 5.97 3.12 14.980 14.960 15.110 15.320 15.140 9.770 9.600 14.930 14.940 15.100 15.280 15.090 9.510 9.510 0.9600 16.997 12.002 5.004 17.173 11.913 5.269
VANMET_231 2018-07-17 21:55:00 231 11739.0 14.960 14.980 15.150 15.170 15.350 70.290 68.870 9.610 9.510 21.380 18.570 12.930 9.420 0.125 0.176 0.275 0.572 0.00 0.00 0.00 0.8250 4.95 5.20 14.990 15.000 15.170 15.360 15.190 9.770 9.560 14.920 14.950 15.110 15.320 15.130 9.520 9.480 1.0190 17.008 11.962 5.053 17.239 11.881 5.367
VANMET_231 2018-07-17 21:50:00 231 11739.0 15.020 15.060 15.210 15.230 15.380 70.100 68.440 9.630 9.470 21.400 18.560 12.930 9.420 0.125 0.176 0.275 0.572 0.00 0.00 0.00 0.8030 6.03 1.98 15.070 15.090 15.240 15.410 15.270 9.760 9.500 14.990 15.010 15.170 15.350 15.180 9.490 9.450 0.9280 17.074 11.978 5.105 17.306 11.849 5.462
VANMET_231 2018-07-17 21:45:00 231 11739.0 15.100 15.110 15.260 15.280 15.420 69.520 68.070 9.580 9.440 21.430 18.550 12.930 9.420 0.125 0.176 0.275 0.572 0.00 0.00 0.00 0.7410 5.62 3.78 15.140 15.140 15.290 15.440 15.310 9.710 9.510 15.060 15.090 15.240 15.390 15.250 9.500 9.390 0.9150 17.162 11.937 5.231 17.362 11.826 5.544
VANMET_231 2018-07-17 21:40:00 231 11739.0 15.140 15.160 15.300 15.310 15.490 68.840 67.720 9.480 9.390 21.450 18.540 12.920 9.420 0.125 0.176 0.275 0.572 0.00 0.00 0.00 0.6760 358.20 8.31 15.180 15.180 15.320 15.520 15.320 9.580 9.410 15.120 15.130 15.270 15.440 15.290 9.400 9.370 0.9870 17.206 11.857 5.361 17.395 11.786 5.615
VANMET_231 2018-07-17 21:35:00 231 11739.0 15.200 15.130 15.270 15.320 15.570 68.360 67.610 9.420 9.370 21.470 18.530 12.920 9.420 0.125 0.176 0.275 0.572 0.00 0.00 0.00 0.6700 356.40 6.30 15.210 15.140 15.290 15.660 15.350 9.550 9.430 15.160 15.100 15.250 15.480 15.290 9.320 9.320 0.8690 17.273 11.810 5.465 17.406 11.770 5.638
VANMET_231 2018-07-17 21:30:00 231 11739.0 15.260 15.190 15.320 15.370 15.540 68.540 67.590 9.520 9.420 21.490 18.530 12.920 9.420 0.125 0.176 0.275 0.572 0.00 0.00 0.00 0.6970 2.49 6.42 15.300 15.230 15.370 15.670 15.400 9.600 9.460 15.210 15.140 15.280 15.480 15.330 9.400 9.370 0.8170 17.339 11.889 5.455 17.462 11.810 5.660
VANMET_231 2018-07-17 21:25:00 231 11739.0 15.350 15.260 15.400 15.430 15.600 68.320 67.540 9.560 9.460 21.510 18.520 12.920 9.420 0.125 0.176 0.275 0.572 0.00 0.00 0.00 0.7560 353.00 5.79 15.420 15.300 15.450 15.650 15.490 9.690 9.540 15.290 15.230 15.370 15.560 15.390 9.410 9.380 0.9730 17.440 11.921 5.525 17.530 11.841 5.690
VANMET_231 2018-07-17 21:20:00 231 11739.0 15.480 15.370 15.510 15.550 15.670 68.440 67.640 9.710 9.610 21.530 18.510 12.920 9.410 0.125 0.176 0.275 0.572 0.00 0.00 0.00 0.7070 354.90 7.02 15.560 15.450 15.580 15.730 15.640 9.800 9.690 15.410 15.310 15.450 15.600 15.480 9.630 9.520 0.8950 17.586 12.042 5.550 17.665 11.962 5.716
VANMET_231 2018-07-17 21:15:00 231 11739.0 15.600 15.530 15.660 15.710 15.800 67.940 67.200 9.720 9.660 21.550 18.500 12.920 9.410 0.125 0.176 0.275 0.572 0.00 0.00 0.00 0.6890 357.40 6.18 15.660 15.580 15.710 15.880 15.760 9.890 9.710 15.550 15.450 15.590 15.730 15.630 9.600 9.600 0.9210 17.722 12.050 5.682 17.847 12.002 5.854
VANMET_231 2018-07-17 21:10:00 231 11739.0 15.720 15.630 15.760 15.830 15.920 68.070 67.020 9.860 9.730 21.570 18.490 12.920 9.410 0.125 0.176 0.275 0.572 0.00 0.00 0.00 0.4650 333.60 29.98 15.790 15.670 15.810 15.980 15.900 10.000 9.870 15.660 15.580 15.710 15.860 15.760 9.690 9.660 0.7320 17.859 12.164 5.702 17.985 12.058 5.931
VANMET_231 2018-07-17 21:05:00 231 11739.0 15.840 15.750 15.890 15.970 16.070 68.050 66.980 9.970 9.860 21.590 18.480 12.920 9.410 0.125 0.176 0.275 0.572 0.00 0.00 0.00 0.4170 306.00 22.03 15.900 15.810 15.960 16.220 16.020 10.080 9.930 15.790 15.680 15.820 15.990 15.900 9.840 9.780 0.5420 17.996 12.254 5.750 18.146 12.164 5.992
VANMET_231 2018-07-17 21:00:00 231 11739.0 15.940 15.840 15.970 16.060 16.160 68.340 67.220 10.130 10.000 21.610 18.470 12.920 9.410 0.125 0.176 0.275 0.572 0.00 0.00 0.00 0.5100 302.00 33.81 16.000 15.890 16.040 16.230 16.110 10.250 10.100 15.880 15.810 15.920 16.120 16.000 9.940 9.700 0.7190 18.112 12.386 5.734 18.251 12.279 5.983
VANMET_231 2018-07-17 20:55:00 231 11739.0 16.070 15.920 16.020 16.190 16.230 68.110 67.090 10.210 10.090 21.630 18.460 12.920 9.410 0.125 0.176 0.275 0.572 0.00 0.00 0.00 0.5680 326.10 21.43 16.150 16.000 16.110 16.320 16.270 10.310 10.190 16.010 15.850 15.940 16.170 16.100 10.070 9.990 0.8360 18.263 12.453 5.824 18.403 12.353 6.056
VANMET_231 2018-07-17 20:50:00 231 11739.0 16.250 16.120 16.210 16.370 16.410 68.070 66.940 10.370 10.230 21.640 18.440 12.920 9.410 0.125 0.176 0.275 0.572 0.00 0.00 0.00 0.6130 328.40 25.15 16.350 16.200 16.290 16.520 16.440 10.430 10.330 16.160 16.020 16.120 16.310 16.280 10.190 10.020 0.8820 18.473 12.586 5.899 18.615 12.469 6.154
VANMET_231 2018-07-17 20:45:00 231 11739.0 16.410 16.290 16.380 16.520 16.570 67.760 66.310 10.450 10.230 21.660 18.430 12.920 9.410 0.125 0.176 0.275 0.572 0.00 0.00 0.00 0.4510 314.00 23.96 16.470 16.360 16.450 16.650 16.600 10.550 10.380 16.320 16.210 16.300 16.490 16.430 10.250 10.070 0.7580 18.663 12.654 6.017 18.794 12.469 6.332
VANMET_231 2018-07-17 20:40:00 231 11739.0 16.520 16.410 16.500 16.690 16.750 67.710 66.330 10.540 10.400 21.680 18.420 12.920 9.410 0.125 0.176 0.275 0.572 0.00 0.00 0.00 0.1350 301.30 7.98 16.560 16.430 16.520 16.830 16.780 10.730 10.700 16.470 16.370 16.460 16.660 16.620 10.320 10.230 0.3920 18.794 12.730 6.069 18.998 12.612 6.397
VANMET_231 2018-07-17 20:35:00 231 11739.0 16.620 16.470 16.600 16.860 16.840 67.140 65.620 10.520 10.400 21.690 18.410 12.920 9.410 0.125 0.176 0.275 0.572 0.00 0.00 0.00 0.2200 319.80 17.30 16.680 16.560 16.720 16.890 16.960 10.730 10.610 16.570 16.410 16.510 16.770 16.770 10.360 10.200 0.4770 18.914 12.713 6.215 19.204 12.612 6.602
VANMET_231 2018-07-17 20:30:00 231 11739.0 16.740 16.650 16.840 17.070 17.050 66.820 64.900 10.560 10.440 21.710 18.400 12.920 9.410 0.125 0.176 0.275 0.572 0.00 0.00 0.00 0.0250 9.61 0.03 16.800 16.720 16.930 17.160 17.150 10.690 10.610 16.690 16.570 16.730 16.890 16.980 10.370 10.270 0.2870 19.058 12.747 6.324 19.461 12.645 6.831
VANMET_231 2018-07-17 20:25:00 231 11739.0 16.870 16.840 17.050 17.270 17.240 66.630 64.080 10.640 10.430 21.720 18.380 12.910 9.410 0.125 0.176 0.275 0.572 0.00 0.00 0.00 0.0770 39.35 30.10 16.930 16.900 17.100 17.400 17.310 10.750 10.810 16.810 16.740 16.940 17.010 17.180 10.500 10.190 0.5100 19.216 12.815 6.412 19.709 12.637 7.080
VANMET_231 2018-07-17 20:20:00 231 11739.0 16.980 16.980 17.220 17.400 17.390 65.820 63.470 10.560 10.420 21.740 18.370 12.910 9.410 0.125 0.176 0.275 0.572 0.00 0.00 0.00 0.2530 10.41 50.59 17.060 17.040 17.280 17.600 17.460 10.690 10.720 16.910 16.910 17.120 17.220 17.320 10.410 10.260 0.5160 19.351 12.747 6.614 19.872 12.629 7.259
VANMET_231 2018-07-17 20:15:00 231 11739.0 17.170 17.090 17.310 17.520 17.540 65.610 63.320 10.690 10.490 21.750 18.360 12.910 9.410 0.125 0.176 0.275 0.572 0.00 0.00 0.00 0.0700 47.87 10.09 17.310 17.180 17.400 17.710 17.590 10.750 10.610 17.070 17.030 17.230 17.410 17.430 10.550 10.290 0.6140 19.585 12.858 6.735 20.023 12.688 7.344
VANMET_231 2018-07-17 20:10:00 231 11739.0 17.480 17.360 17.540 17.720 17.650 64.600 63.020 10.750 10.610 21.760 18.350 12.910 9.410 0.125 0.176 0.275 0.572 0.00 0.00 0.00 0.1880 27.05 45.53 17.650 17.500 17.660 17.800 17.840 10.870 10.820 17.310 17.200 17.420 17.540 17.590 10.610 10.510 0.5160 19.973 12.910 7.070 20.277 12.790 7.499
VANMET_231 2018-07-17 20:05:00 231 11739.0 17.730 17.600 17.740 17.890 17.950 63.650 62.560 10.760 10.660 21.770 18.330 12.910 9.410 0.125 0.176 0.275 0.572 0.00 0.00 0.00 0.4100 251.90 45.11 17.760 17.690 17.810 18.190 17.930 11.020 10.970 17.670 17.530 17.680 17.760 17.850 10.350 10.320 1.0780 20.290 12.918 7.375 20.495 12.832 7.674
VANMET_231 2018-07-17 20:00:00 231 11739.0 17.880 17.750 17.880 18.030 17.960 64.030 62.840 11.000 10.860 21.780 18.320 12.910 9.410 0.125 0.176 0.275 0.572 0.00 0.00 0.00 0.0000 0.00 0.00 17.970 17.880 18.010 18.210 18.140 11.090 11.030 17.760 17.580 17.710 17.740 17.930 10.810 10.760 0.0000 20.483 13.126 7.368 20.677 13.004 7.683
VANMET_231 2018-07-17 19:55:00 231 11739.0 17.890 17.840 17.980 18.120 18.300 63.060 62.010 10.780 10.750 21.790 18.300 12.910 9.410 0.125 0.176 0.275 0.572 0.00 0.00 0.00 0.4300 299.80 22.00 17.980 17.930 18.050 18.480 18.170 11.120 10.930 17.840 17.790 17.940 18.190 18.100 10.420 10.480 1.9470 20.495 12.935 7.571 20.794 12.910 7.900
VANMET_231 2018-07-17 19:50:00 231 11739.0 17.970 17.890 18.050 18.250 18.280 63.930 62.640 11.060 11.020 21.800 18.290 12.910 9.410 0.125 0.176 0.275 0.572 0.00 0.00 0.00 0.2900 276.40 49.50 18.060 18.000 18.180 18.550 18.340 11.230 11.260 17.900 17.800 17.960 18.150 18.160 10.750 10.730 0.7120 20.599 13.179 7.430 20.964 13.144 7.832
VANMET_231 2018-07-17 19:45:00 231 11739.0 18.140 18.120 18.280 18.420 18.480 63.200 61.990 11.050 11.030 21.810 18.270 12.910 9.410 0.125 0.176 0.275 0.572 0.80 0.00 0.00 0.4840 238.80 21.14 18.230 18.210 18.370 18.580 18.510 11.170 11.190 18.060 18.020 18.180 18.320 18.350 10.780 10.790 0.9080 20.820 13.170 7.662 21.189 13.152 8.054
VANMET_231 2018-07-17 19:40:00 231 11739.0 18.290 18.250 18.410 18.570 18.720 62.160 60.970 10.940 10.910 21.810 18.260 12.910 9.410 0.125 0.176 0.275 0.572 2.62 0.00 0.00 0.3720 240.50 38.97 18.330 18.280 18.460 18.850 18.600 11.090 11.120 18.230 18.210 18.350 18.610 18.520 10.690 10.710 1.5090 21.017 13.074 7.953 21.389 13.048 8.348
VANMET_231 2018-07-17 19:35:00 231 11739.0 18.430 18.300 18.430 18.680 18.620 62.540 61.270 11.170 11.090 21.820 18.240 12.910 9.410 0.125 0.176 0.275 0.572 4.41 0.00 0.00 0.3160 238.60 34.75 18.540 18.410 18.550 18.780 18.800 11.400 11.230 18.320 18.190 18.320 18.550 18.580 11.020 10.930 0.7380 21.202 13.275 7.942 21.537 13.205 8.341
VANMET_231 2018-07-17 19:30:00 231 11739.0 18.620 18.520 18.660 18.880 18.880 61.820 60.500 11.170 11.090 21.820 18.230 12.910 9.400 0.125 0.176 0.275 0.572 6.18 0.00 0.00 0.3930 252.00 16.59 18.700 18.620 18.760 18.950 18.960 11.350 11.210 18.530 18.420 18.560 18.830 18.790 11.010 10.950 1.0320 21.456 13.275 8.192 21.808 13.205 8.614
VANMET_231 2018-07-17 19:25:00 231 11739.0 18.740 18.650 18.770 18.980 19.080 61.020 59.900 11.090 11.030 21.830 18.220 12.900 9.400 0.125 0.176 0.275 0.572 7.84 0.00 0.00 0.4770 257.90 33.74 18.820 18.700 18.830 19.310 19.010 11.300 11.210 18.700 18.610 18.720 18.970 18.940 10.710 10.760 1.1370 21.618 13.205 8.427 21.944 13.152 8.800
VANMET_231 2018-07-17 19:20:00 231 11739.0 18.900 18.780 18.880 19.100 19.130 60.780 59.480 11.170 11.040 21.830 18.200 12.900 9.400 0.125 0.176 0.275 0.572 9.66 0.00 0.00 0.2160 275.80 27.76 18.960 18.870 18.990 19.220 19.180 11.520 11.160 18.810 18.680 18.780 19.040 19.010 11.000 10.910 0.5230 21.835 13.275 8.564 22.109 13.161 8.959
VANMET_231 2018-07-17 19:15:00 231 11739.0 19.040 18.970 19.090 19.260 19.310 59.520 58.730 11.000 11.000 21.830 18.180 12.900 9.400 0.125 0.176 0.275 0.572 11.74 0.00 0.00 0.3160 264.80 19.83 19.110 19.030 19.170 19.420 19.340 11.110 11.100 18.970 18.880 19.000 19.180 19.180 10.860 10.880 0.8430 22.026 13.126 8.916 22.330 13.126 9.216
VANMET_231 2018-07-17 19:10:00 231 11739.0 19.250 19.110 19.240 19.430 19.430 58.470 57.790 10.920 10.920 21.830 18.170 12.900 9.400 0.125 0.176 0.275 0.572 13.38 0.00 0.00 0.5830 248.70 19.80 19.390 19.190 19.320 19.520 19.540 11.040 11.020 19.110 19.040 19.180 19.340 19.340 10.810 10.750 1.2540 22.317 13.056 9.268 22.568 13.056 9.526
VANMET_231 2018-07-17 19:05:00 231 11739.0 19.520 19.330 19.450 19.660 19.630 57.420 56.780 10.900 10.870 21.830 18.150 12.900 9.400 0.125 0.176 0.275 0.572 15.26 0.00 0.00 0.3950 254.30 31.12 19.620 19.460 19.570 19.780 19.770 11.010 10.970 19.410 19.210 19.330 19.540 19.540 10.730 10.760 0.9280 22.695 13.039 9.663 22.893 13.013 9.894
VANMET_231 2018-07-17 19:00:00 231 11739.0 19.770 19.600 19.700 19.900 19.870 55.980 55.310 10.760 10.690 21.830 18.140 12.900 9.400 0.125 0.176 0.275 0.572 17.04 0.00 0.00 0.7510 244.30 36.19 19.900 19.750 19.830 20.060 20.020 11.010 10.880 19.640 19.470 19.580 19.690 19.780 10.460 10.420 2.0380 23.049 12.918 10.146 23.236 12.858 10.384
VANMET_231 2018-07-17 18:55:00 231 11739.0 19.990 19.870 19.950 20.120 20.110 54.670 54.280 10.610 10.620 21.820 18.120 12.900 9.400 0.125 0.176 0.275 0.572 18.79 0.00 0.00 0.5130 272.70 27.70 20.070 19.980 20.070 20.200 20.220 10.760 10.760 19.900 19.760 19.840 20.050 20.020 10.310 10.450 0.9280 23.366 12.790 10.592 23.554 12.798 10.769
VANMET_231 2018-07-17 18:50:00 231 11739.0 20.120 20.090 20.190 20.320 20.350 53.890 53.340 10.510 10.540 21.820 18.110 12.900 9.400 0.125 0.176 0.275 0.572 20.99 0.00 0.00 0.5140 281.20 49.38 20.150 20.150 20.260 20.540 20.400 10.680 10.770 20.080 20.000 20.080 20.180 20.220 10.250 10.220 1.4310 23.554 12.705 10.861 23.847 12.730 11.127
VANMET_231 2018-07-17 18:45:00 231 11739.0 20.220 20.210 20.340 20.500 20.500 54.020 52.980 10.640 10.600 21.810 18.090 12.900 9.400 0.125 0.176 0.275 0.572 22.92 0.00 0.00 0.5580 280.10 53.44 20.300 20.280 20.420 20.580 20.600 10.810 10.770 20.150 20.150 20.270 20.410 20.410 10.300 10.340 1.1300 23.701 12.815 10.897 24.114 12.781 11.338
VANMET_231 2018-07-17 18:40:00 231 11739.0 20.430 20.370 20.500 20.670 20.660 53.600 52.380 10.720 10.590 21.800 18.070 12.900 9.400 0.125 0.176 0.275 0.572 24.78 0.00 0.00 0.7070 256.70 40.35 20.560 20.450 20.580 20.800 20.750 11.020 10.790 20.320 20.310 20.440 20.590 20.580 10.310 10.290 1.9860 24.010 12.884 11.141 24.368 12.773 11.604
VANMET_231 2018-07-17 18:35:00 231 11739.0 20.670 20.530 20.660 20.860 20.790 52.570 51.790 10.650 10.600 21.790 18.060 12.900 9.400 0.125 0.176 0.275 0.572 26.19 0.00 0.00 0.8370 253.60 41.77 20.780 20.640 20.770 20.920 20.980 10.930 10.800 20.560 20.450 20.570 20.710 20.750 10.380 10.410 1.3980 24.368 12.824 11.558 24.654 12.781 11.886
VANMET_231 2018-07-17 18:30:00 231 11739.0 20.920 20.830 20.960 21.130 21.040 51.560 50.930 10.580 10.600 21.780 18.040 12.900 9.400 0.125 0.176 0.275 0.572 27.84 0.00 0.00 0.6330 267.00 37.46 21.020 20.960 21.100 21.230 21.240 10.880 10.810 20.810 20.660 20.770 20.790 20.990 10.390 10.380 1.1890 24.745 12.764 11.987 25.066 12.781 12.300
VANMET_231 2018-07-17 18:25:00 231 11739.0 21.130 21.060 21.190 21.320 21.300 50.900 49.870 10.580 10.460 21.760 18.030 12.890 9.400 0.125 0.176 0.275 0.572 28.85 0.00 0.00 0.9360 256.30 45.90 21.190 21.150 21.260 21.410 21.410 10.850 10.700 21.020 20.970 21.120 21.200 21.260 10.250 10.180 1.7710 25.066 12.764 12.308 25.360 12.662 12.713
VANMET_231 2018-07-17 18:20:00 231 11739.0 21.230 21.220 21.330 21.480 21.500 49.890 49.220 10.380 10.410 21.750 18.010 12.890 9.400 0.125 0.176 0.275 0.572 30.38 0.00 0.00 0.7600 263.30 33.40 21.280 21.270 21.400 21.620 21.570 10.600 10.560 21.190 21.160 21.270 21.430 21.410 9.960 9.960 1.6200 25.221 12.595 12.638 25.610 12.620 13.005
VANMET_231 2018-07-17 18:15:00 231 11739.0 21.350 21.350 21.490 21.660 21.640 50.160 48.690 10.570 10.410 21.730 17.990 12.890 9.400 0.125 0.176 0.275 0.572 31.84 0.00 0.00 1.0940 253.90 32.24 21.440 21.400 21.550 21.710 21.750 10.860 10.730 21.270 21.280 21.420 21.570 21.570 10.090 10.120 1.6790 25.407 12.756 12.663 25.893 12.620 13.286
VANMET_231 2018-07-17 18:10:00 231 11739.0 21.510 21.510 21.660 21.850 21.790 49.630 48.600 10.560 10.550 21.710 17.980 12.890 9.400 0.125 0.176 0.275 0.572 33.08 0.00 0.00 0.8590 253.20 29.22 21.590 21.590 21.750 21.880 21.910 10.820 10.800 21.440 21.430 21.570 21.670 21.750 10.350 10.380 1.4370 25.657 12.747 12.923 26.195 12.739 13.464
VANMET_231 2018-07-17 18:05:00 231 11739.0 21.680 21.670 21.800 21.950 21.950 48.890 47.710 10.490 10.370 21.690 17.960 12.890 9.400 0.125 0.176 0.275 0.572 61.14 0.00 0.00 1.2260 241.00 22.86 21.770 21.740 21.850 22.080 22.010 10.730 10.550 21.580 21.600 21.760 21.880 21.910 10.060 10.050 2.5610 25.925 12.688 13.250 26.356 12.586 13.781
VANMET_231 2018-07-17 18:00:00 231 11739.0 21.870 21.840 21.940 22.110 22.040 48.120 47.490 10.430 10.440 21.670 17.950 12.890 9.400 0.125 0.176 0.275 0.572 72.84 0.00 0.00 0.9270 253.50 21.94 21.970 21.960 22.050 22.180 22.210 10.610 10.670 21.780 21.740 21.850 21.980 22.020 10.170 10.210 1.7970 26.227 12.637 13.607 26.614 12.645 13.975
VANMET_231 2018-07-17 17:55:00 231 11739.0 22.060 22.040 22.130 22.310 22.240 47.800 46.580 10.500 10.330 21.640 17.930 12.890 9.400 0.125 0.176 0.275 0.572 77.38 0.00 0.00 1.1580 248.90 24.28 22.130 22.100 22.200 22.320 22.400 11.030 11.000 21.970 21.970 22.060 22.160 22.210 10.090 9.850 2.9530 26.533 12.696 13.850 26.940 12.553 14.391
VANMET_231 2018-07-17 17:50:00 231 11739.0 22.230 22.180 22.300 22.540 22.350 48.510 47.320 10.870 10.780 21.620 17.920 12.890 9.400 0.125 0.176 0.275 0.572 62.40 0.00 0.00 0.9400 270.60 41.65 22.390 22.290 22.430 22.460 22.670 11.350 11.230 22.130 22.110 22.200 22.270 22.390 10.060 10.290 1.7840 26.809 13.013 13.804 27.319 12.935 14.392
VANMET_231 2018-07-17 17:45:00 231 11739.0 22.500 22.440 22.580 22.790 22.590 48.610 47.780 11.150 11.160 21.590 17.900 12.890 9.390 0.125 0.176 0.275 0.572 163.10 0.00 0.00 0.7100 248.70 56.12 22.610 22.530 22.660 22.760 22.870 11.600 11.510 22.410 22.330 22.460 22.410 22.670 10.680 10.610 1.4440 27.253 13.258 14.005 27.736 13.266 14.484
VANMET_231 2018-07-17 17:40:00 231 11739.0 22.780 22.700 22.840 23.070 22.740 46.720 45.950 10.810 10.820 21.560 17.880 12.890 9.390 0.125 0.176 0.275 0.572 217.40 0.00 0.00 1.3140 249.00 22.28 22.960 22.900 23.010 22.870 23.260 11.120 11.150 22.620 22.530 22.670 22.630 22.890 10.470 10.550 3.9000 27.719 12.961 14.769 28.210 12.970 15.248
VANMET_231 2018-07-17 17:35:00 231 11739.0 23.300 23.220 23.280 23.410 22.980 45.090 45.090 10.750 10.850 21.530 17.870 12.890 9.390 0.125 0.176 0.275 0.572 350.10 0.00 0.00 1.2710 237.00 37.07 23.700 23.550 23.530 23.100 23.570 11.280 11.310 22.980 22.920 23.030 22.870 23.260 10.260 10.340 2.5870 28.605 12.910 15.707 28.795 12.996 15.811
VANMET_231 2018-07-17 17:30:00 231 11739.0 23.960 23.800 23.720 23.750 23.220 43.680 44.500 10.860 10.950 21.500 17.860 12.890 9.390 0.125 0.176 0.275 0.572 375.00 0.00 0.00 1.1920 230.30 22.08 24.120 23.960 23.870 23.330 23.910 11.470 11.620 23.730 23.570 23.520 23.140 23.570 9.670 9.880 2.7110 29.764 13.004 16.763 29.391 13.083 16.312
VANMET_231 2018-07-17 17:25:00 231 11739.0 24.210 24.130 24.070 24.000 23.440 44.320 44.770 11.320 11.270 21.470 17.840 12.880 9.390 0.125 0.176 0.275 0.572 390.10 0.00 0.00 1.0340 235.40 34.78 24.320 24.210 24.150 23.530 24.070 11.810 11.800 24.130 24.000 23.950 23.350 23.930 10.720 10.740 1.6140 30.214 13.408 16.823 29.835 13.364 16.478
VANMET_231 2018-07-17 17:20:00 231 11739.0 24.560 24.500 24.410 24.310 23.720 42.540 43.240 11.010 11.030 21.430 17.830 12.880 9.390 0.125 0.176 0.275 0.572 407.60 0.00 0.00 1.1460 253.60 35.74 24.670 24.770 24.690 23.900 24.450 11.510 11.320 24.360 24.180 24.080 23.500 24.080 10.740 10.640 2.3320 30.853 13.135 17.728 30.395 13.152 17.252
VANMET_231 2018-07-17 17:15:00 231 11739.0 24.640 24.650 24.570 24.440 23.980 42.090 42.890 10.930 11.030 21.400 17.810 12.880 9.390 0.125 0.176 0.275 0.572 423.80 0.00 0.00 0.7450 243.60 55.28 24.700 24.710 24.660 24.140 24.470 11.230 11.310 24.600 24.610 24.510 23.790 24.390 10.630 10.740 1.2480 31.001 13.065 17.953 30.632 13.152 17.494
VANMET_231 2018-07-17 17:10:00 231 11739.0 24.670 24.780 24.700 24.630 24.110 39.890 39.830 10.140 10.090 21.360 17.800 12.880 9.390 0.125 0.176 0.275 0.572 444.70 0.00 0.00 1.7110 227.20 25.18 24.800 25.090 25.070 24.280 24.900 11.050 10.720 24.600 24.640 24.520 23.920 24.460 9.190 8.930 3.3840 31.056 12.394 18.668 30.982 12.353 18.642
VANMET_231 2018-07-17 17:05:00 231 11739.0 24.800 24.970 24.960 24.860 24.300 39.330 38.730 10.050 9.880 21.320 17.780 12.880 9.390 0.125 0.176 0.275 0.572 460.10 0.00 0.00 1.0010 268.20 39.57 24.940 25.150 25.160 24.460 24.980 11.680 10.590 24.740 24.780 24.770 24.180 24.760 9.420 9.200 1.9470 31.298 12.320 18.989 31.411 12.180 19.245
VANMET_231 2018-07-17 17:00:00 231 11739.0 24.880 24.940 25.020 25.040 24.450 42.190 40.940 11.170 10.850 21.280 17.770 12.880 9.390 0.125 0.176 0.275 0.572 475.00 0.00 0.00 1.2060 249.20 34.41 24.950 25.080 25.200 24.590 25.200 11.950 11.900 24.810 24.830 24.850 24.330 24.860 9.670 9.080 2.5150 31.448 13.275 18.180 31.749 12.996 18.751
VANMET_231 2018-07-17 16:55:00 231 11739.0 24.860 24.890 25.160 25.280 24.690 41.930 40.500 11.060 10.920 21.240 17.760 12.880 9.390 0.125 0.176 0.275 0.572 490.10 0.00 0.00 1.2170 245.50 46.94 24.900 25.040 25.270 24.820 25.460 11.620 11.470 24.810 24.700 25.010 24.530 25.180 10.180 10.020 3.3910 31.411 13.179 18.240 32.206 13.056 19.162
VANMET_231 2018-07-17 16:50:00 231 11739.0 25.050 25.120 25.520 25.740 24.850 37.700 37.230 9.600 10.030 21.200 17.740 12.880 9.390 0.125 0.176 0.275 0.572 505.50 0.00 0.00 1.2820 262.40 35.88 25.200 25.390 25.900 25.030 25.980 11.030 11.090 24.900 24.840 25.200 24.690 25.460 7.161 7.324 2.3320 31.768 11.953 19.792 33.097 12.303 20.775
VANMET_231 2018-07-17 16:45:00 231 11739.0 25.280 25.360 25.750 25.830 25.030 35.960 33.900 9.110 8.730 21.160 17.730 12.880 9.390 0.125 0.176 0.275 0.572 520.50 0.00 0.00 0.9330 261.40 24.36 25.420 25.540 25.910 25.250 25.950 10.680 10.280 25.190 25.290 25.560 24.880 25.720 7.533 7.070 2.0780 32.206 11.565 20.625 33.274 11.272 21.994
VANMET_231 2018-07-17 16:40:00 231 11739.0 25.740 25.720 26.060 26.020 25.340 36.190 35.540 9.640 9.620 21.120 17.720 12.880 9.390 0.125 0.176 0.275 0.572 537.10 0.00 0.00 1.4420 230.30 48.65 26.050 25.990 26.260 25.520 26.170 10.750 10.740 25.440 25.560 25.900 25.160 25.950 8.920 8.910 3.7500 33.097 11.986 21.119 33.650 11.970 21.691
VANMET_231 2018-07-17 16:35:00 231 11739.0 26.340 26.260 26.280 26.150 25.460 31.850 32.340 8.270 8.330 21.080 17.710 12.880 9.390 0.125 0.176 0.275 0.572 549.80 0.00 0.00 1.3210 234.90 33.94 26.650 26.470 26.330 25.620 26.200 9.360 9.590 26.060 26.060 26.220 25.370 26.100 7.385 7.115 2.1820 34.291 10.926 23.370 33.909 10.970 22.943
VANMET_231 2018-07-17 16:30:00 231 11739.0 26.670 26.530 26.310 26.140 25.660 28.670 28.980 6.994 6.706 21.030 17.690 12.880 9.390 0.125 0.176 0.275 0.572 567.60 0.00 0.00 1.1810 229.80 48.50 26.740 26.650 26.410 25.950 26.210 8.450 8.080 26.610 26.420 26.190 25.500 26.040 5.120 5.210 2.4170 34.964 10.014 24.940 33.889 9.818 24.068
VANMET_231 2018-07-17 16:25:00 231 11739.0 26.810 26.670 26.470 26.320 25.770 27.400 27.740 6.466 6.232 20.990 17.680 12.880 9.390 0.125 0.176 0.275 0.572 584.10 0.00 0.00 1.5640 232.00 44.36 26.910 26.860 26.690 25.910 26.470 7.880 7.270 26.690 26.540 26.290 25.670 26.190 5.451 5.437 2.9790 35.253 9.657 25.594 34.251 9.502 24.750
VANMET_231 2018-07-17 16:20:00 231 11739.0 26.830 26.520 26.300 26.360 25.730 24.560 25.280 4.912 4.925 20.950 17.670 12.880 9.390 0.125 0.176 0.275 0.572 595.90 0.00 0.00 1.6100 232.20 29.35 27.180 26.870 26.680 25.880 26.790 6.136 5.736 26.690 26.300 26.050 25.580 26.150 4.185 4.114 3.4690 35.295 8.669 26.626 34.332 8.677 25.653
VANMET_231 2018-07-17 16:15:00 231 11739.0 27.470 27.280 27.070 26.980 26.300 26.160 26.210 6.351 5.952 20.900 17.660 12.880 9.390 0.125 0.176 0.275 0.572 611.50 0.00 0.00 1.5350 233.30 35.83 27.600 27.430 27.180 26.610 27.040 7.763 7.238 27.230 26.960 26.760 25.880 26.830 3.427 3.040 3.4820 36.643 9.580 27.057 35.607 9.320 26.274
VANMET_231 2018-07-17 16:10:00 231 11739.0 27.500 27.240 27.060 26.960 26.430 27.410 26.990 7.054 6.374 20.850 17.650 12.880 9.390 0.125 0.176 0.275 0.572 629.80 0.00 0.00 1.2500 231.80 39.38 27.570 27.310 27.130 26.590 27.020 8.900 8.380 27.410 27.180 26.990 26.190 26.930 5.373 4.860 2.2610 36.708 10.055 26.646 35.565 9.595 25.966
VANMET_231 2018-07-17 16:05:00 231 11739.0 27.360 27.110 26.920 26.920 26.410 24.890 24.420 5.539 4.899 20.810 17.640 12.880 9.390 0.125 0.176 0.275 0.572 645.40 0.00 0.00 1.1990 249.90 34.24 27.540 27.250 27.090 26.590 27.090 7.091 6.214 27.250 27.000 26.790 26.290 26.840 3.931 3.857 2.4040 36.408 9.056 27.346 35.482 8.661 26.817
VANMET_231 2018-07-17 16:00:00 231 11739.0 27.670 27.490 27.320 27.190 26.660 27.130 27.040 7.027 6.584 20.760 17.630 12.880 9.390 0.125 0.176 0.275 0.572 655.60 0.00 0.00 1.5040 221.20 39.04 27.830 27.680 27.470 26.780 27.240 9.290 8.610 27.550 27.320 27.200 26.550 27.130 5.245 5.015 2.8620 37.074 10.037 27.016 36.048 9.735 26.301
VANMET_231 2018-07-17 15:55:00 231 11739.0 27.600 27.270 27.100 27.030 26.660 25.740 25.580 6.235 5.664 20.710 17.620 12.880 9.390 0.125 0.176 0.275 0.572 669.10 0.00 0.00 1.4090 256.20 43.71 27.760 27.410 27.260 26.960 27.110 7.505 7.024 27.500 27.170 26.990 26.460 27.000 5.058 4.832 3.4890 36.923 9.504 27.419 35.711 9.135 26.576
VANMET_231 2018-07-17 15:50:00 231 11739.0 27.780 27.480 27.170 27.060 26.950 27.650 26.710 7.419 6.317 20.660 17.610 12.880 9.390 0.125 0.176 0.275 0.572 689.20 0.00 0.00 1.7220 243.90 28.22 27.890 27.680 27.330 27.170 27.130 9.020 7.337 27.710 27.360 27.050 26.780 26.990 5.418 4.455 3.1430 37.313 10.310 26.996 35.774 9.558 26.219
VANMET_231 2018-07-17 15:45:00 231 11739.0 27.810 27.500 27.220 27.130 26.890 28.060 27.890 7.667 7.000 20.610 17.600 12.880 9.380 0.125 0.176 0.275 0.572 695.70 0.00 0.00 1.8680 242.10 33.16 27.930 27.600 27.290 27.030 27.200 8.880 8.230 27.690 27.390 27.140 26.770 27.080 6.222 5.995 2.7900 37.378 10.486 26.890 35.921 10.018 25.903
VANMET_231 2018-07-17 15:40:00 231 11739.0 27.970 27.600 27.340 27.390 27.010 25.790 26.070 6.557 6.244 20.560 17.600 12.880 9.380 0.125 0.176 0.275 0.572 708.80 0.00 0.00 1.7290 257.20 28.37 28.310 28.030 27.740 27.440 27.610 9.640 7.376 27.780 27.340 27.060 26.740 27.180 5.197 4.977 3.3190 37.728 9.717 27.998 36.472 9.510 26.964
VANMET_231 2018-07-17 15:35:00 231 11739.0 28.330 28.000 27.650 27.490 27.270 26.740 26.460 7.401 6.526 20.510 17.590 12.880 9.380 0.125 0.176 0.275 0.572 722.80 0.00 0.00 1.4550 202.20 47.26 28.380 28.090 27.770 27.450 27.590 9.070 8.480 28.280 27.900 27.550 27.210 27.410 5.785 5.178 2.5280 38.526 10.297 28.224 36.686 9.697 26.979
VANMET_231 2018-07-17 15:30:00 231 11739.0 28.360 28.040 27.700 27.500 27.090 26.190 26.360 7.091 6.475 20.460 17.580 12.880 9.380 0.125 0.176 0.275 0.572 733.10 0.00 0.00 1.3090 218.40 47.25 28.450 28.210 27.870 27.320 27.630 10.170 8.270 28.240 27.690 27.430 26.650 27.310 4.977 4.731 4.8090 38.594 10.081 28.486 36.708 9.663 27.032
VANMET_231 2018-07-17 15:25:00 231 11739.0 28.370 27.850 27.530 27.550 27.050 23.420 23.460 5.487 4.852 20.410 17.570 12.880 9.380 0.125 0.176 0.275 0.572 741.60 0.00 0.00 1.7350 245.80 44.22 28.710 28.430 28.150 27.980 27.950 7.985 6.201 28.180 27.600 27.230 26.690 27.270 3.713 3.917 3.1820 38.616 9.024 29.572 36.815 8.633 28.178
VANMET_231 2018-07-17 15:20:00 231 11739.0 28.590 28.300 28.010 27.940 27.580 26.290 25.250 7.332 6.231 20.350 17.560 12.880 9.380 0.125 0.176 0.275 0.572 754.80 0.00 0.00 1.9220 223.60 30.70 28.660 28.440 28.140 28.000 28.040 9.590 8.480 28.490 28.140 27.890 27.310 27.870 5.127 4.670 2.9010 39.112 10.249 28.829 37.662 9.501 28.153
VANMET_231 2018-07-17 15:15:00 231 11739.0 28.900 28.500 28.330 28.280 27.610 24.030 23.720 6.311 5.619 20.300 17.560 12.880 9.380 0.125 0.176 0.276 0.572 762.50 0.00 0.00 1.6710 236.10 29.71 29.160 28.900 28.670 27.880 28.470 8.510 7.123 28.570 28.120 27.970 27.190 28.040 4.650 4.282 3.2210 39.820 9.554 30.251 38.415 9.107 29.303
VANMET_231 2018-07-17 15:10:00 231 11739.0 29.130 28.740 28.490 28.220 27.830 22.000 22.330 5.207 4.666 20.250 17.550 12.880 9.380 0.125 0.176 0.276 0.572 773.60 0.00 0.00 1.0550 233.60 56.58 29.210 28.850 28.590 28.030 28.320 9.230 8.380 29.090 28.560 28.310 27.570 28.130 3.383 2.643 2.2150 40.353 8.849 31.475 38.281 8.521 29.733
VANMET_231 2018-07-17 15:05:00 231 11739.0 29.160 28.620 28.320 28.260 27.650 20.600 20.670 4.293 3.617 20.200 17.550 12.880 9.380 0.125 0.176 0.276 0.573 786.70 0.00 0.00 1.3000 200.90 42.19 29.350 28.700 28.400 27.760 28.410 7.046 6.319 29.060 28.530 28.280 27.530 28.160 1.753 2.342 2.3130 40.423 8.301 32.096 38.370 7.916 30.439
VANMET_231 2018-07-17 15:00:00 231 11739.0 29.610 29.000 28.640 28.580 27.970 20.060 18.950 4.291 2.654 20.140 17.540 12.880 9.380 0.125 0.176 0.276 0.573 797.70 0.00 0.00 1.8280 215.50 45.48 29.830 29.320 28.970 28.270 28.830 7.391 4.806 29.390 28.760 28.370 27.610 28.450 1.445 1.156 3.8680 41.485 8.300 33.163 39.089 7.393 31.682
VANMET_231 2018-07-17 14:55:00 231 11739.0 29.740 29.270 28.930 28.700 28.100 20.590 20.340 4.712 3.717 20.090 17.540 12.880 9.380 0.125 0.177 0.276 0.573 805.00 0.00 0.00 1.3260 194.70 22.61 29.850 29.420 29.100 28.360 28.850 8.480 7.044 29.640 29.110 28.760 27.880 28.580 1.886 0.678 2.8030 41.796 8.549 33.190 39.362 7.972 31.356
VANMET_231 2018-07-17 14:50:00 231 11739.0 29.560 29.170 28.780 28.570 28.250 20.580 21.010 4.594 4.095 20.040 17.530 12.880 9.380 0.125 0.177 0.276 0.573 820.00 0.00 0.00 1.0210 199.60 41.06 29.680 29.250 28.890 28.560 28.640 6.892 6.357 29.340 29.050 28.710 28.010 28.500 1.481 1.099 2.8620 41.366 8.479 32.853 39.067 8.187 30.859
VANMET_231 2018-07-17 14:45:00 231 11739.0 29.280 28.850 28.640 28.510 28.220 22.440 22.030 5.610 4.732 19.980 17.530 12.880 9.380 0.125 0.177 0.276 0.573 832.00 0.00 0.00 1.5450 224.30 41.52 29.400 28.990 28.780 28.470 28.620 8.270 6.671 29.170 28.690 28.520 28.060 28.420 2.878 2.652 3.6520 40.704 9.101 31.570 38.931 8.561 30.354
VANMET_231 2018-07-17 14:40:00 231 11739.0 29.270 28.710 28.490 28.360 28.060 21.950 21.870 5.295 4.507 19.930 17.520 12.880 9.380 0.125 0.177 0.276 0.573 842.00 0.00 0.00 1.2430 191.70 52.03 29.360 28.870 28.620 28.280 28.440 7.740 6.273 29.160 28.550 28.380 27.900 28.300 3.132 2.807 3.1820 40.680 8.904 31.751 38.594 8.427 30.153
VANMET_231 2018-07-17 14:35:00 231 11739.0 29.560 28.990 28.680 28.600 28.230 20.540 20.450 4.596 3.737 19.870 17.520 12.880 9.380 0.125 0.177 0.276 0.573 853.00 0.00 0.00 1.4910 238.80 33.61 29.820 29.420 29.090 28.820 28.830 6.282 5.824 29.380 28.650 28.330 27.730 28.350 2.262 2.051 2.6330 41.366 8.480 32.869 39.135 7.983 31.132
VANMET_231 2018-07-17 14:30:00 231 11739.0 29.520 29.100 28.790 28.550 28.270 21.330 21.590 5.094 4.468 19.820 17.520 12.880 9.380 0.125 0.177 0.276 0.573 862.00 0.00 0.00 1.5300 214.80 52.14 29.710 29.320 28.980 28.610 28.710 7.301 6.852 29.420 28.920 28.640 28.100 28.410 2.494 1.880 3.2140 41.270 8.780 32.467 39.021 8.404 30.597
VANMET_231 2018-07-17 14:25:00 231 11739.0 29.550 28.930 28.630 28.450 28.080 19.770 19.970 4.035 3.296 19.770 17.510 12.880 9.380 0.125 0.177 0.276 0.573 871.00 0.00 0.00 1.1650 204.60 48.60 29.740 29.230 28.920 28.460 28.630 5.814 5.375 29.430 28.740 28.460 27.700 28.340 1.502 1.186 4.2990 41.342 8.152 33.168 38.796 7.738 31.048
VANMET_231 2018-07-17 14:20:00 231 11739.0 29.480 28.930 28.590 28.500 28.300 20.480 19.990 4.461 3.355 19.710 17.510 12.880 9.380 0.125 0.177 0.276 0.573 883.00 0.00 0.00 1.3530 233.70 38.42 29.570 29.060 28.750 28.520 28.630 6.951 4.916 29.370 28.740 28.410 28.080 28.370 1.563 1.407 2.8940 41.176 8.400 32.743 38.908 7.770 31.131
VANMET_231 2018-07-17 14:15:00 231 11739.0 29.380 28.920 28.640 28.480 28.460 22.080 21.610 5.463 4.394 19.660 17.510 12.880 9.380 0.125 0.177 0.276 0.573 892.00 0.00 0.00 1.5590 237.10 28.06 29.600 29.180 28.890 28.730 28.670 8.450 7.675 29.210 28.700 28.410 28.180 28.350 1.899 1.649 2.7570 40.939 9.009 31.900 38.863 8.360 30.465
VANMET_231 2018-07-17 14:10:00 231 11739.0 29.390 28.820 28.580 28.470 28.240 19.760 19.480 3.870 2.944 19.610 17.510 12.880 9.380 0.125 0.177 0.276 0.573 896.00 0.00 0.00 1.3400 227.20 56.09 29.420 28.930 28.770 28.470 28.670 6.761 5.714 29.360 28.750 28.440 28.060 28.370 1.048 1.320 2.5870 40.963 8.058 32.868 38.841 7.547 31.275
VANMET_231 2018-07-17 14:05:00 231 11739.0 29.500 28.820 28.630 28.630 28.170 19.650 19.790 3.859 3.291 19.550 17.510 12.880 9.380 0.125 0.177 0.276 0.573 902.00 0.00 0.00 1.1050 218.00 57.53 29.760 28.960 28.840 28.480 28.900 7.982 5.816 29.330 28.600 28.450 27.650 28.510 0.665 0.697 3.5480 41.223 8.052 33.123 39.203 7.735 31.444
VANMET_231 2018-07-17 14:00:00 231 11739.0 29.920 29.440 29.160 29.100 28.660 20.910 19.700 5.071 3.572 19.500 17.510 12.880 9.380 0.125 0.177 0.276 0.573 912.00 0.00 0.00 1.4490 233.80 44.57 30.000 29.560 29.280 28.910 29.180 8.330 7.415 29.810 29.180 28.880 28.260 28.990 1.224 0.288 2.4040 42.230 8.766 33.400 40.283 7.890 32.347
VANMET_231 2018-07-17 13:55:00 231 11739.0 29.770 29.380 29.110 28.970 28.770 19.690 19.000 4.109 3.014 19.450 17.510 12.880 9.380 0.126 0.177 0.276 0.573 918.00 0.00 0.00 1.0370 225.00 50.51 29.890 29.570 29.330 29.070 29.140 7.891 5.588 29.650 29.140 28.820 28.400 28.860 2.000 0.591 1.9270 41.868 8.195 33.624 39.982 7.585 32.385
VANMET_231 2018-07-17 13:50:00 231 11739.0 30.040 29.480 29.190 29.050 28.840 17.090 17.120 2.313 1.588 19.400 17.510 12.880 9.380 0.126 0.177 0.276 0.573 926.00 0.00 0.00 1.1750 232.50 39.79 30.180 29.620 29.380 29.080 29.150 7.326 5.034 29.790 29.220 28.860 28.430 28.920 -0.497 -0.298 2.2800 42.522 7.216 35.255 40.167 6.851 33.290
VANMET_231 2018-07-17 13:45:00 231 11739.0 29.780 29.150 28.780 28.590 28.510 18.470 17.340 3.121 1.379 19.350 17.510 12.880 9.380 0.126 0.177 0.276 0.573 934.00 0.00 0.00 1.2130 224.70 38.53 30.040 29.590 29.270 29.140 28.910 7.649 3.617 29.580 28.780 28.410 27.870 28.430 -1.630 -2.270 2.2280 41.892 7.643 34.155 39.112 6.749 32.330
VANMET_231 2018-07-17 13:40:00 231 11739.0 29.620 28.980 28.540 28.440 28.240 18.120 17.330 2.788 1.273 19.300 17.510 12.880 9.380 0.126 0.177 0.276 0.573 942.00 0.00 0.00 1.4040 251.50 25.13 29.690 29.060 28.640 28.400 28.540 7.091 3.146 29.560 28.840 28.420 27.980 28.350 -1.297 -1.502 2.3390 41.509 7.464 33.987 38.773 6.697 32.054
VANMET_231 2018-07-17 13:35:00 231 11739.0 29.730 29.120 28.690 28.590 28.280 17.460 15.790 2.352 0.129 19.250 17.510 12.880 9.380 0.126 0.177 0.276 0.573 947.00 0.00 0.00 1.3430 267.60 41.08 29.810 29.340 28.890 28.590 28.850 6.344 1.862 29.580 28.860 28.440 28.090 28.390 -0.502 -1.574 2.8030 41.772 7.236 34.479 39.112 6.165 32.936
VANMET_231 2018-07-17 13:30:00 231 11739.0 30.000 29.510 29.170 29.140 28.590 16.880 15.890 2.102 0.616 19.200 17.510 12.880 9.380 0.126 0.177 0.276 0.573 954.00 0.00 0.00 1.2990 253.00 34.94 30.120 29.720 29.400 29.050 29.260 6.309 4.024 29.800 29.220 28.800 28.070 28.880 -0.996 -1.405 1.8490 42.424 7.108 35.263 40.376 6.387 33.960
VANMET_231 2018-07-17 13:25:00 231 11739.0 30.200 29.880 29.570 29.370 29.040 17.830 17.310 3.056 1.974 19.150 17.510 12.880 9.380 0.126 0.177 0.276 0.573 954.00 0.00 0.00 1.3040 225.20 41.14 30.250 30.060 29.750 29.530 29.420 5.756 4.986 30.090 29.650 29.360 28.620 29.320 -0.071 -0.521 2.0450 42.914 7.607 35.262 40.915 7.043 33.833
VANMET_231 2018-07-17 13:20:00 231 11739.0 29.810 29.530 29.260 29.050 28.970 21.130 20.730 5.125 4.305 19.100 17.520 12.880 9.380 0.126 0.177 0.276 0.573 957.00 0.00 0.00 1.2530 238.80 33.29 30.060 29.900 29.610 29.390 29.300 8.910 6.698 29.640 29.330 29.040 28.710 28.880 1.858 1.892 2.3190 41.964 8.799 33.097 40.167 8.308 31.840
VANMET_231 2018-07-17 13:15:00 231 11739.0 29.670 29.460 29.170 28.900 28.890 20.510 19.520 4.642 3.299 19.060 17.520 12.880 9.380 0.126 0.177 0.276 0.573 959.00 0.00 0.00 1.1240 225.80 45.61 29.750 29.630 29.350 29.170 28.990 6.989 6.743 29.550 29.260 28.970 28.620 28.760 1.620 1.123 1.9670 41.628 8.507 33.090 39.820 7.740 32.047
VANMET_231 2018-07-17 13:10:00 231 11739.0 29.160 28.900 28.620 28.360 28.350 22.000 21.660 5.228 4.348 19.010 17.520 12.880 9.380 0.126 0.178 0.276 0.573 963.00 0.00 0.00 1.0470 219.30 45.19 29.540 29.460 29.140 29.100 28.710 8.640 7.093 28.890 28.400 28.190 27.750 28.050 2.119 1.352 1.9530 40.423 8.862 31.530 38.594 8.334 30.234
VANMET_231 2018-07-17 13:05:00 231 11739.0 29.090 28.510 28.250 28.100 27.750 18.500 19.480 2.712 2.623 18.970 17.520 12.880 9.380 0.126 0.178 0.276 0.574 967.00 0.00 0.00 1.0390 162.20 46.03 29.180 28.660 28.410 28.340 28.210 5.668 6.378 28.890 28.270 28.070 27.260 28.000 0.765 1.297 1.9400 40.260 7.424 32.812 38.015 7.377 30.609
VANMET_231 2018-07-17 13:00:00 231 11739.0 29.500 28.770 28.460 28.370 27.550 17.830 18.780 2.506 2.333 18.920 17.530 12.880 9.380 0.126 0.178 0.277 0.574 969.00 0.00 0.00 1.3300 196.60 56.97 29.830 29.170 28.810 28.070 28.670 4.953 4.777 29.110 28.350 28.060 27.080 28.100 0.106 0.985 3.2860 41.223 7.316 33.873 38.616 7.226 31.364
VANMET_231 2018-07-17 12:55:00 231 11739.0 29.820 29.340 28.940 28.830 28.530 21.140 21.090 5.168 4.310 18.880 17.530 12.880 9.380 0.126 0.178 0.277 0.574 972.00 0.00 0.00 1.0010 195.80 44.19 29.920 29.500 29.170 28.820 28.950 7.777 6.778 29.760 29.230 28.760 28.180 28.720 0.416 0.663 2.1560 41.988 8.825 33.112 39.659 8.311 31.295
VANMET_231 2018-07-17 12:50:00 231 11739.0 29.770 29.450 29.050 28.820 28.690 21.850 21.670 5.540 4.716 18.840 17.540 12.880 9.380 0.126 0.178 0.277 0.574 974.00 0.00 0.00 1.1250 198.60 30.42 29.930 29.620 29.200 29.230 28.920 9.470 7.432 29.430 29.150 28.790 28.230 28.610 2.254 1.988 2.2470 41.868 9.057 32.720 39.636 8.551 31.047
VANMET_231 2018-07-17 12:45:00 231 11739.0 29.220 29.010 28.660 28.420 28.600 25.490 25.730 7.376 6.826 18.800 17.540 12.880 9.380 0.126 0.178 0.277 0.574 974.00 0.00 0.00 1.3870 214.50 32.17 29.390 29.210 28.810 28.900 28.600 10.960 10.210 28.820 28.580 28.280 28.300 27.980 4.032 3.068 2.6720 40.563 10.280 30.224 38.728 9.899 28.763
VANMET_231 2018-07-17 12:40:00 231 11739.0 28.620 28.210 27.880 27.760 27.760 26.500 26.680 7.463 6.853 18.760 17.550 12.880 9.380 0.126 0.178 0.277 0.574 975.00 0.00 0.00 1.5570 223.60 22.59 28.770 28.520 28.210 28.270 27.930 9.920 10.020 28.480 27.900 27.590 27.310 27.580 4.787 5.100 2.7900 39.180 10.341 28.797 37.269 9.917 27.326
VANMET_231 2018-07-17 12:35:00 231 11739.0 28.770 28.290 27.930 27.790 27.510 25.500 26.490 7.062 6.798 18.720 17.550 12.880 9.380 0.126 0.178 0.277 0.574 976.00 0.00 0.00 1.2360 226.30 48.06 29.040 28.690 28.230 28.110 27.960 8.870 8.510 28.560 28.080 27.710 26.940 27.640 4.992 5.267 2.2280 39.522 10.061 29.444 37.334 9.880 27.445
VANMET_231 2018-07-17 12:30:00 231 11739.0 28.740 28.370 27.990 27.810 27.620 27.550 26.950 8.170 7.070 18.680 17.560 12.880 9.380 0.126 0.178 0.277 0.574 975.00 0.00 0.00 1.2150 217.40 49.40 28.990 28.640 28.220 28.090 27.950 11.760 8.420 28.640 28.220 27.850 27.070 27.710 5.879 5.360 2.4040 39.453 10.852 28.584 37.378 10.066 27.305
VANMET_231 2018-07-17 12:25:00 231 11739.0 28.840 28.520 28.170 28.000 27.820 26.700 27.220 7.772 7.375 18.650 17.570 12.880 9.380 0.126 0.178 0.277 0.574 974.00 0.00 0.00 0.9470 266.10 45.77 28.960 28.750 28.410 28.520 28.150 10.950 9.800 28.680 28.200 27.880 27.130 27.800 5.557 5.958 1.8620 39.682 10.562 29.087 37.794 10.279 27.507
VANMET_231 2018-07-17 12:20:00 231 11739.0 28.480 28.040 27.700 27.590 27.460 26.910 27.980 7.612 7.423 18.610 17.570 12.880 9.380 0.126 0.178 0.277 0.574 976.00 0.00 0.00 1.1970 218.20 25.68 28.640 28.440 28.170 28.140 27.930 9.240 9.880 28.340 27.720 27.390 26.850 27.440 5.758 5.489 2.3590 38.863 10.447 28.405 36.901 10.313 26.576
VANMET_231 2018-07-17 12:15:00 231 11739.0 28.670 28.250 27.880 27.710 27.580 25.990 26.240 7.252 6.587 18.580 17.580 12.880 9.380 0.126 0.178 0.277 0.574 976.00 0.00 0.00 1.3160 216.90 35.10 28.770 28.420 28.050 27.870 27.820 9.180 8.220 28.550 28.020 27.580 27.110 27.580 5.138 5.147 2.9200 39.294 10.193 29.081 37.161 9.737 27.410
VANMET_231 2018-07-17 12:10:00 231 11739.0 28.580 27.900 27.490 27.430 26.990 26.030 27.670 7.191 7.106 18.550 17.590 12.880 9.380 0.126 0.178 0.277 0.574 972.00 0.00 0.00 0.8800 219.90 37.10 28.830 28.100 27.750 27.690 27.620 9.410 9.200 28.460 27.680 27.230 26.450 27.300 5.180 5.231 1.7570 39.089 10.150 28.914 36.558 10.091 26.442
VANMET_231 2018-07-17 12:05:00 231 11739.0 28.870 28.580 28.150 27.910 27.840 24.330 24.610 6.447 5.823 18.520 17.590 12.880 9.380 0.126 0.178 0.277 0.574 974.00 0.00 0.00 1.5480 231.40 30.09 28.930 28.700 28.280 28.300 28.030 8.640 7.404 28.700 28.220 27.790 26.850 27.680 3.402 3.414 3.4170 39.751 9.644 30.080 37.596 9.237 28.344
VANMET_231 2018-07-17 12:00:00 231 11739.0 28.340 28.050 27.630 27.290 27.360 25.070 24.930 6.445 5.507 18.490 17.600 12.880 9.380 0.127 0.178 0.277 0.574 975.00 0.00 0.00 0.9820 201.80 38.29 28.650 28.400 28.000 27.800 27.630 9.080 6.765 28.000 27.770 27.290 27.120 26.980 4.022 4.339 1.8420 38.549 9.643 28.885 36.260 9.036 27.220
VANMET_231 2018-07-17 11:55:00 231 11739.0 27.940 27.530 27.100 27.020 26.810 22.620 23.090 4.630 4.160 18.460 17.610 12.880 9.380 0.127 0.178 0.277 0.574 978.00 0.00 0.00 1.1350 184.70 33.10 28.130 27.680 27.290 27.230 27.160 6.852 6.372 27.780 27.270 26.870 26.340 26.940 2.544 1.996 2.3590 37.662 8.500 29.143 35.690 8.224 27.450
VANMET_231 2018-07-17 11:50:00 231 11739.0 27.950 27.560 27.250 27.040 27.050 24.460 24.490 5.747 5.026 18.430 17.620 12.880 9.380 0.127 0.178 0.277 0.574 975.00 0.00 0.00 1.2470 207.00 39.89 28.210 27.930 27.600 27.520 27.280 8.410 7.481 27.730 27.130 26.810 26.400 26.790 3.044 3.594 2.3390 37.684 9.188 28.467 35.732 8.738 26.981
VANMET_231 2018-07-17 11:45:00 231 11739.0 28.060 27.560 27.140 27.070 26.850 23.240 22.570 5.101 3.899 18.410 17.630 12.880 9.380 0.127 0.178 0.277 0.574 971.00 0.00 0.00 1.3660 220.00 26.34 28.170 27.810 27.310 27.110 27.220 7.137 5.360 27.870 27.240 26.890 26.500 26.880 2.495 2.002 2.3590 37.926 8.784 29.112 35.795 8.075 27.716
VANMET_231 2018-07-17 11:40:00 231 11739.0 28.160 27.760 27.380 27.320 27.120 22.160 21.770 4.444 3.551 18.380 17.630 12.880 9.380 0.127 0.178 0.277 0.574 970.00 0.00 0.00 1.0090 262.30 48.78 28.280 27.910 27.540 27.520 27.510 8.480 5.407 28.030 27.660 27.280 26.900 27.200 0.326 0.454 1.6400 38.148 8.390 29.694 36.323 7.879 28.416
VANMET_231 2018-07-17 11:35:00 231 11739.0 28.310 27.970 27.630 27.470 27.150 13.800 13.220 -2.062 -3.268 18.360 17.640 12.880 9.380 0.127 0.179 0.277 0.574 972.00 0.00 0.00 1.1000 216.90 42.02 28.400 28.090 27.750 27.470 27.600 3.116 0.646 28.190 27.810 27.460 26.860 27.360 -6.333 -6.518 1.7250 38.482 5.250 33.171 36.643 4.799 31.799
VANMET_231 2018-07-17 11:30:00 231 11739.0 28.340 28.010 27.620 27.300 27.130 13.750 12.430 -2.098 -4.308 18.340 17.650 12.880 9.380 0.127 0.179 0.277 0.574 971.00 0.00 0.00 0.8910 204.10 42.54 28.470 28.190 27.810 27.450 27.470 1.885 -0.267 28.220 27.830 27.450 26.720 27.170 -6.044 -10.590 1.9210 38.549 5.236 33.248 36.281 4.438 31.771
VANMET_231 2018-07-17 11:25:00 231 11739.0 28.000 27.690 27.370 27.040 26.730 15.830 15.830 -0.366 -1.129 18.320 17.660 12.880 9.380 0.127 0.179 0.277 0.574 965.00 0.00 0.00 0.9350 189.00 28.35 28.260 27.890 27.510 27.110 27.130 3.165 1.088 27.710 27.560 27.190 26.280 26.940 -2.724 -3.618 2.6920 37.794 5.947 31.811 35.732 5.624 30.076
VANMET_231 2018-07-17 11:20:00 231 11739.0 27.350 27.020 26.690 26.550 26.610 15.890 15.220 -0.937 -2.165 18.300 17.670 12.880 9.370 0.127 0.179 0.277 0.574 964.00 0.00 0.00 0.9350 202.50 42.43 27.680 27.510 27.150 27.140 26.860 3.954 2.676 27.140 26.700 26.350 26.260 26.390 -6.486 -7.743 2.9140 36.387 5.704 30.605 34.718 5.210 29.434
VANMET_231 2018-07-17 11:15:00 231 11739.0 27.470 26.970 26.590 26.560 26.240 16.080 14.960 -0.597 -2.301 18.290 17.680 12.880 9.370 0.127 0.179 0.277 0.574 961.00 0.00 0.00 1.3740 226.10 35.77 27.680 27.340 26.940 26.650 26.840 1.777 1.593 27.240 26.710 26.330 25.840 26.360 -3.606 -5.149 2.6790 36.643 5.847 30.751 34.739 5.158 29.542
VANMET_231 2018-07-17 11:10:00 231 11739.0 27.700 27.340 26.980 26.740 26.660 18.210 18.190 1.321 0.535 18.270 17.690 12.880 9.370 0.127 0.179 0.277 0.574 954.00 0.00 0.00 1.1420 218.20 41.84 27.780 27.430 27.070 26.910 26.840 4.408 3.707 27.600 27.130 26.800 26.340 26.520 -1.162 -2.996 2.5550 37.139 6.721 30.376 35.108 6.350 28.722
VANMET_231 2018-07-17 11:05:00 231 11739.0 27.410 27.010 26.600 26.330 26.210 15.750 15.080 -0.964 -2.320 18.260 17.700 12.880 9.370 0.127 0.179 0.277 0.575 954.00 0.00 0.00 0.8800 207.90 42.75 27.570 27.120 26.800 26.430 26.460 3.478 0.226 27.310 26.850 26.430 25.900 26.260 -4.516 -3.987 1.5030 36.515 5.692 30.764 34.271 5.150 29.103
VANMET_231 2018-07-17 11:00:00 231 11739.0 27.020 26.790 26.490 26.250 26.390 17.990 15.440 0.475 -2.168 18.250 17.710 12.880 9.370 0.127 0.179 0.277 0.575 948.00 0.00 0.00 1.0190 264.60 27.08 27.290 27.060 26.640 26.570 26.370 6.355 2.573 26.830 26.480 26.220 25.990 26.040 -5.549 -5.446 1.5290 35.690 6.322 29.270 34.110 5.209 28.843
VANMET_231 2018-07-17 10:55:00 231 11739.0 26.950 26.640 26.330 26.130 25.990 14.780 13.810 -2.289 -3.858 18.240 17.720 12.880 9.370 0.127 0.179 0.278 0.575 942.00 0.00 0.00 1.3790 234.80 38.36 27.080 26.820 26.490 26.230 26.230 2.542 0.152 26.770 26.480 26.160 25.790 26.020 -6.877 -8.740 2.9470 35.544 5.162 30.291 33.869 4.591 29.192
VANMET_231 2018-07-17 10:50:00 231 11739.0 26.710 26.340 26.040 25.890 25.660 18.060 17.750 0.377 -0.500 18.230 17.730 12.880 9.370 0.127 0.179 0.278 0.575 927.00 0.00 0.00 0.9840 237.10 61.51 26.780 26.520 26.240 26.090 26.020 5.377 3.473 26.670 26.220 25.940 25.450 25.720 -3.010 -3.303 1.7510 35.047 6.277 28.717 33.392 5.889 27.465
VANMET_231 2018-07-17 10:45:00 231 11739.0 26.570 26.090 25.780 25.630 25.270 13.780 12.530 -3.633 -5.460 18.230 17.740 12.880 9.370 0.127 0.179 0.278 0.575 924.00 0.00 0.00 1.0890 221.50 28.02 26.720 26.350 25.950 25.560 25.710 1.318 -0.011 26.440 25.840 25.560 24.870 25.550 -9.230 -11.090 1.9670 34.759 4.670 29.969 32.882 4.067 28.762
VANMET_231 2018-07-17 10:40:00 231 11739.0 26.580 26.050 25.820 25.750 25.250 16.490 15.470 -1.104 -2.592 18.220 17.750 12.880 9.370 0.127 0.179 0.278 0.575 916.00 0.00 0.00 1.0780 196.90 32.15 26.610 26.150 25.900 25.380 25.820 3.492 1.919 26.550 25.970 25.720 25.020 25.660 -5.470 -6.659 1.6990 34.780 5.634 29.044 33.116 5.047 27.993
VANMET_231 2018-07-17 10:35:00 231 11739.0 26.420 26.110 25.860 25.550 25.110 16.170 15.340 -1.753 -3.082 18.220 17.760 12.880 9.370 0.127 0.179 0.278 0.575 913.00 0.00 0.00 0.8670 150.00 29.09 26.620 26.200 26.000 25.430 25.660 5.351 2.975 26.170 25.890 25.570 24.750 25.290 -7.319 -7.971 1.1960 34.453 5.371 28.882 32.726 4.866 27.706
VANMET_231 2018-07-17 10:30:00 231 11739.0 26.010 25.600 25.290 25.180 24.710 14.730 14.100 -3.086 -4.227 18.220 17.770 12.880 9.370 0.127 0.179 0.278 0.575 905.00 0.00 0.00 0.6410 203.80 53.40 26.110 25.850 25.510 24.930 25.300 3.276 0.164 25.930 25.390 25.100 24.450 25.110 -7.827 -7.305 1.3330 33.630 4.865 28.676 32.015 4.465 27.501
VANMET_231 2018-07-17 10:25:00 231 11739.0 26.200 25.650 25.390 25.270 24.620 19.160 18.630 0.650 -0.430 18.220 17.780 12.880 9.370 0.127 0.179 0.278 0.575 896.00 0.00 0.00 1.0420 211.20 54.99 26.310 25.850 25.610 24.970 25.360 4.553 3.583 26.010 25.360 25.090 24.200 25.120 -4.492 -4.202 1.9270 34.009 6.403 27.493 32.187 5.919 26.190
VANMET_231 2018-07-17 10:20:00 231 11739.0 26.240 25.690 25.490 25.260 24.550 24.970 23.600 4.591 2.991 18.220 17.800 12.880 9.370 0.127 0.179 0.278 0.575 882.00 0.00 0.00 0.7410 173.00 33.35 26.310 25.920 25.670 24.770 25.320 7.523 4.824 26.170 25.530 25.400 24.420 25.200 1.940 0.998 1.4500 34.090 8.477 25.578 32.168 7.572 24.576
VANMET_231 2018-07-17 10:15:00 231 11739.0 25.920 25.650 25.340 25.070 24.710 28.050 27.980 5.972 5.220 18.220 17.810 12.880 9.370 0.128 0.179 0.278 0.575 871.00 0.00 0.00 0.6250 207.30 45.96 26.140 25.770 25.520 25.030 25.190 7.973 7.522 25.710 25.470 25.170 24.440 24.890 2.291 1.347 1.2410 33.451 9.332 24.068 31.806 8.857 22.907
VANMET_231 2018-07-17 10:10:00 231 11739.0 25.620 25.220 24.900 24.550 24.230 30.040 31.360 6.763 6.459 18.230 17.820 12.880 9.370 0.128 0.179 0.278 0.575 863.00 0.00 0.00 0.7690 213.50 62.35 25.720 25.470 25.170 24.750 24.850 8.420 8.400 25.380 25.020 24.690 23.790 24.350 4.560 4.225 1.6790 32.862 9.856 22.991 30.835 9.652 21.165
VANMET_231 2018-07-17 10:05:00 231 11739.0 25.120 24.750 24.460 24.310 24.250 30.600 28.640 6.479 4.933 18.230 17.830 12.880 9.370 0.128 0.179 0.278 0.575 851.00 0.00 0.00 1.0380 244.30 33.76 25.330 24.970 24.650 24.370 24.350 9.820 7.016 24.940 24.620 24.370 24.030 24.250 3.501 3.382 1.7840 31.901 9.665 22.139 30.395 8.682 21.690
VANMET_231 2018-07-17 10:00:00 231 11739.0 24.880 24.570 24.300 24.220 24.150 32.730 32.140 7.304 6.506 18.240 17.840 12.880 9.370 0.128 0.179 0.278 0.575 840.00 0.00 0.00 0.9870 266.30 17.24 24.920 24.710 24.440 24.480 24.290 11.280 9.470 24.810 24.450 24.100 23.790 24.150 4.295 3.991 1.4310 31.448 10.229 21.155 30.232 9.683 20.515
VANMET_231 2018-07-17 09:55:00 231 11739.0 24.870 24.710 24.390 24.230 24.010 38.400 37.830 9.670 8.910 18.250 17.850 12.880 9.370 0.128 0.179 0.278 0.575 829.00 0.00 0.00 0.8370 233.30 34.01 24.980 24.810 24.460 24.290 24.310 12.060 11.470 24.680 24.490 24.220 23.760 24.070 4.073 5.382 1.3920 31.429 12.010 19.360 30.250 11.410 18.806
VANMET_231 2018-07-17 09:50:00 231 11739.0 24.570 24.320 24.020 23.910 23.770 38.680 39.300 9.540 9.210 18.260 17.860 12.880 9.370 0.128 0.180 0.278 0.575 819.00 0.00 0.00 1.0150 244.50 38.02 24.720 24.520 24.210 23.970 24.050 12.650 10.720 24.410 24.070 23.770 23.550 23.710 7.401 7.315 2.3590 30.872 11.905 18.930 29.675 11.644 18.013
VANMET_231 2018-07-17 09:45:00 231 11739.0 24.350 24.090 23.790 23.670 23.560 37.440 38.100 8.880 8.560 18.270 17.870 12.880 9.370 0.128 0.180 0.278 0.575 807.00 0.00 0.00 1.1400 238.50 25.89 24.450 24.190 23.900 23.880 23.750 10.990 10.020 24.290 23.950 23.650 23.270 23.600 7.405 7.211 2.1430 30.468 11.387 19.061 29.250 11.143 18.106
VANMET_231 2018-07-17 09:40:00 231 11739.0 24.310 24.050 23.800 23.700 23.520 37.360 37.760 8.810 8.440 18.280 17.880 12.880 9.370 0.128 0.180 0.278 0.575 796.70 0.00 0.00 1.1510 230.50 28.51 24.370 24.110 23.900 23.760 23.770 11.490 10.690 24.240 23.950 23.690 23.360 23.640 7.126 7.112 1.9080 30.395 11.333 19.039 29.302 11.053 18.238
VANMET_231 2018-07-17 09:35:00 231 11739.0 24.250 23.940 23.720 23.610 23.470 38.850 39.530 9.350 9.030 18.290 17.890 12.880 9.370 0.128 0.180 0.278 0.575 785.70 0.00 0.00 1.1940 250.60 19.42 24.310 24.100 23.820 23.620 23.680 11.270 11.420 24.180 23.830 23.620 23.370 23.540 7.457 7.392 2.4240 30.286 11.754 18.520 29.144 11.503 17.623
VANMET_231 2018-07-17 09:30:00 231 11739.0 24.120 23.840 23.600 23.540 23.160 40.450 40.330 9.860 9.300 18.300 17.900 12.880 9.370 0.128 0.180 0.278 0.575 771.90 0.00 0.00 0.7950 225.80 33.86 24.250 24.080 23.790 23.530 23.640 10.620 10.680 24.010 23.600 23.440 22.850 23.460 8.330 8.370 1.1430 30.051 12.164 17.895 29.022 11.715 17.317
VANMET_231 2018-07-17 09:25:00 231 11739.0 24.080 23.820 23.630 23.550 23.070 40.290 40.130 9.760 9.220 18.320 17.910 12.880 9.370 0.128 0.180 0.278 0.576 761.20 0.00 0.00 0.7410 244.70 24.79 24.210 23.990 23.770 23.230 23.650 10.770 11.540 23.920 23.590 23.410 22.930 23.430 8.360 8.280 1.6990 29.979 12.083 17.900 29.039 11.652 17.386
VANMET_231 2018-07-17 09:20:00 231 11739.0 24.120 23.830 23.540 23.430 22.770 40.860 40.000 9.990 9.060 18.330 17.920 12.880 9.370 0.128 0.180 0.278 0.576 749.10 0.00 0.00 0.8730 243.20 25.75 24.250 24.040 23.750 22.950 23.500 12.240 10.760 23.960 23.610 23.320 22.630 23.310 8.390 7.819 1.3000 30.051 12.271 17.772 28.830 11.526 17.298
VANMET_231 2018-07-17 09:15:00 231 11739.0 23.630 23.410 23.130 22.960 22.640 39.140 39.560 8.910 8.490 18.350 17.930 12.880 9.370 0.128 0.180 0.278 0.576 737.60 0.00 0.00 0.6760 179.60 54.64 24.070 23.890 23.620 23.000 23.290 11.040 10.280 23.380 23.070 22.770 22.320 22.780 7.478 7.733 1.3260 29.179 11.410 17.759 28.023 11.090 16.937
VANMET_231 2018-07-17 09:10:00 231 11739.0 23.420 23.080 22.820 22.790 22.300 39.460 39.650 8.840 8.370 18.360 17.950 12.880 9.370 0.128 0.180 0.278 0.576 727.60 0.00 0.00 1.1100 216.90 15.03 23.490 23.200 22.940 22.460 22.920 10.490 8.930 23.360 22.980 22.730 22.210 22.710 7.287 7.535 1.7770 28.812 11.356 17.443 27.736 11.000 16.739
VANMET_231 2018-07-17 09:05:00 231 11739.0 23.570 23.370 23.210 23.090 22.600 40.620 40.380 9.360 8.880 18.380 17.960 12.880 9.370 0.128 0.180 0.278 0.576 711.80 0.00 0.00 1.1420 232.40 25.12 23.650 23.530 23.350 22.890 23.150 12.680 10.680 23.480 23.200 22.980 22.310 22.960 6.967 7.358 1.9340 29.074 11.762 17.264 28.244 11.387 16.839
VANMET_231 2018-07-17 09:00:00 231 11739.0 23.630 23.250 23.070 22.990 22.400 39.150 41.050 8.900 9.040 18.390 17.970 12.880 9.370 0.128 0.180 0.278 0.576 698.40 0.00 0.00 0.7240 209.50 36.02 23.750 23.370 23.160 22.550 23.060 10.730 10.880 23.440 23.120 23.020 22.240 22.900 7.412 7.548 1.6010 29.179 11.402 17.756 28.074 11.511 16.550
VANMET_231 2018-07-17 08:55:00 231 11739.0 23.700 23.170 22.930 22.810 22.340 40.890 41.260 9.620 8.970 18.410 17.980 12.880 9.370 0.128 0.180 0.278 0.576 685.60 0.00 0.00 0.9060 212.60 27.81 23.780 23.300 23.080 22.570 22.920 11.770 10.370 23.610 23.030 22.740 22.130 22.710 7.903 8.020 1.6860 29.302 11.970 17.321 27.770 11.457 16.312
VANMET_231 2018-07-17 08:50:00 231 11739.0 23.990 23.360 23.080 22.880 22.110 39.750 41.720 9.470 9.180 18.430 17.990 12.880 9.370 0.128 0.180 0.278 0.576 670.70 0.00 0.00 0.9250 212.70 38.05 24.160 23.500 23.330 22.220 23.000 11.530 11.460 23.800 23.180 22.870 21.980 22.740 8.250 7.926 1.7570 29.818 11.849 17.965 27.888 11.620 16.253
VANMET_231 2018-07-17 08:45:00 231 11739.0 23.940 23.310 23.120 22.790 21.790 40.500 42.350 9.710 9.340 18.440 18.000 12.880 9.370 0.128 0.180 0.278 0.576 655.70 0.00 0.00 0.6010 198.20 32.54 24.040 23.460 23.270 21.900 22.910 11.720 10.910 23.850 23.140 22.950 21.660 22.700 8.510 8.140 1.2020 29.728 12.042 17.688 27.736 11.746 15.990
VANMET_231 2018-07-17 08:40:00 231 11739.0 23.860 23.190 22.910 22.630 21.800 43.500 45.830 10.700 10.370 18.460 18.010 12.880 9.370 0.128 0.180 0.278 0.576 641.30 0.00 0.00 0.5150 181.80 57.20 23.930 23.380 23.120 21.970 22.680 11.760 11.790 23.810 23.110 22.780 21.610 22.520 8.830 9.100 1.0320 29.586 12.867 16.716 27.468 12.586 14.880
VANMET_231 2018-07-17 08:35:00 231 11739.0 23.730 23.190 22.830 22.460 21.580 43.840 46.340 10.710 10.390 18.480 18.020 12.880 9.370 0.128 0.180 0.278 0.576 628.00 0.00 0.00 0.6730 209.00 22.95 23.920 23.380 23.030 21.790 22.600 12.280 11.690 23.570 23.030 22.640 21.450 22.350 9.330 9.100 1.5160 29.355 12.875 16.486 27.187 12.603 14.588
VANMET_231 2018-07-17 08:30:00 231 11739.0 23.240 22.980 22.640 22.210 21.200 44.190 47.710 10.390 10.600 18.500 18.030 12.870 9.370 0.128 0.180 0.278 0.576 615.00 0.00 0.00 0.7010 217.10 23.32 23.710 23.300 22.980 21.440 22.420 11.820 11.330 22.740 22.590 22.310 21.000 22.100 9.560 9.860 1.3200 28.501 12.603 15.907 26.776 12.781 14.001
VANMET_231 2018-07-17 08:25:00 231 11739.0 22.460 22.350 22.190 22.090 21.290 47.210 45.660 10.630 9.820 18.520 18.040 12.870 9.370 0.128 0.180 0.278 0.576 601.20 0.00 0.00 0.8990 224.20 19.85 22.680 22.540 22.290 21.390 22.120 12.720 11.020 22.330 22.270 22.130 21.100 22.060 8.880 8.600 1.3720 27.187 12.807 14.352 26.582 12.131 14.444
VANMET_231 2018-07-17 08:20:00 231 11739.0 21.960 22.040 21.980 22.050 21.050 46.720 43.620 10.020 9.110 18.540 18.050 12.870 9.370 0.128 0.180 0.278 0.576 586.30 0.00 0.00 0.5720 201.00 30.40 22.350 22.400 22.230 21.200 22.100 11.670 11.280 21.580 21.650 21.690 20.840 21.980 7.847 7.939 1.0130 26.372 12.295 14.051 26.517 11.565 14.950
VANMET_231 2018-07-17 08:15:00 231 11739.0 21.240 21.540 21.680 22.080 20.880 50.390 45.020 10.510 9.610 18.550 18.060 12.870 9.370 0.128 0.180 0.278 0.576 570.40 0.00 0.00 0.6760 211.60 13.24 21.550 21.680 21.750 21.020 22.120 12.090 11.120 20.860 21.310 21.600 20.630 21.990 9.040 8.670 0.9930 25.236 12.705 12.520 26.565 11.962 14.606
VANMET_231 2018-07-17 08:10:00 231 11739.0 20.580 20.930 21.240 21.520 20.520 51.000 47.090 10.100 9.770 18.570 18.070 12.870 9.370 0.128 0.180 0.278 0.576 554.70 0.00 0.00 0.0230 202.50 3.80 20.820 21.270 21.570 20.610 21.920 10.960 10.740 20.390 20.750 20.940 20.360 21.220 9.580 9.210 0.2350 24.233 12.361 11.874 25.673 12.091 13.583
VANMET_231 2018-07-17 08:05:00 231 11739.0 20.220 20.570 20.730 21.050 20.350 52.410 49.150 10.180 9.980 18.590 18.080 12.870 9.370 0.128 0.180 0.279 0.576 541.10 0.00 0.00 0.1510 189.30 14.66 20.380 20.740 20.920 20.520 21.200 11.130 10.730 20.070 20.400 20.570 20.250 20.910 9.630 9.320 0.6600 23.701 12.428 11.279 24.944 12.262 12.684
VANMET_231 2018-07-17 08:00:00 231 11739.0 20.000 20.380 20.590 20.980 20.310 52.200 47.020 9.910 9.260 18.610 18.090 12.870 9.370 0.128 0.180 0.279 0.576 490.20 0.00 0.00 0.5260 181.00 56.30 20.060 20.430 20.660 20.480 21.140 11.960 10.660 19.980 20.320 20.540 20.120 20.850 8.770 7.893 0.8170 23.380 12.205 11.176 24.837 11.683 13.158
VANMET_231 2018-07-17 07:55:00 231 11739.0 19.930 20.300 20.710 21.180 20.110 53.260 46.220 10.150 9.190 18.630 18.100 12.870 9.370 0.128 0.180 0.278 0.576 401.90 0.00 0.00 0.6220 212.40 13.10 19.970 20.400 20.760 20.200 21.230 11.320 9.770 19.900 20.250 20.670 20.040 21.140 9.280 8.820 0.8170 23.279 12.403 10.881 25.143 11.628 13.522
VANMET_231 2018-07-17 07:50:00 231 11739.0 19.970 20.360 21.000 21.550 20.130 51.500 44.370 9.680 8.930 18.650 18.110 12.870 9.370 0.128 0.180 0.278 0.576 312.10 0.00 0.00 0.3280 168.80 18.04 20.030 20.410 21.160 20.250 21.740 11.130 9.870 19.880 20.260 20.780 19.970 21.280 8.890 8.520 0.6140 23.337 12.018 11.318 25.720 11.426 14.308
VANMET_231 2018-07-17 07:45:00 231 11739.0 19.720 20.360 21.370 22.090 20.140 51.740 42.440 9.530 8.740 18.670 18.120 12.870 9.370 0.128 0.180 0.278 0.576 452.10 0.00 0.00 0.1150 180.10 20.84 19.880 20.420 21.560 20.260 22.250 10.310 9.760 19.570 20.280 21.170 20.000 21.780 8.520 8.220 0.4770 22.978 11.897 11.089 26.582 11.280 15.300
VANMET_231 2018-07-17 07:40:00 231 11739.0 19.340 20.180 21.550 21.990 20.070 53.980 43.090 9.800 8.890 18.690 18.130 12.870 9.370 0.128 0.180 0.278 0.576 436.30 0.00 0.00 0.0630 176.60 21.68 19.560 20.290 21.650 20.200 22.230 10.830 9.340 19.150 20.070 21.360 19.820 21.760 9.140 8.270 0.3850 22.442 12.115 10.328 26.420 11.395 15.036
VANMET_231 2018-07-17 07:35:00 231 11739.0 19.070 20.170 21.580 22.090 19.650 56.720 44.600 10.290 9.490 18.710 18.130 12.870 9.370 0.128 0.180 0.278 0.576 447.70 0.00 0.00 0.1980 100.50 8.60 19.160 20.430 22.120 19.850 22.590 11.110 9.970 19.020 20.080 21.330 19.450 21.810 9.520 9.070 0.5420 22.068 12.519 9.551 26.582 11.865 14.726
VANMET_231 2018-07-17 07:30:00 231 11739.0 18.950 20.540 22.140 22.330 19.450 59.260 45.660 10.840 10.050 18.730 18.140 12.870 9.370 0.128 0.180 0.279 0.576 431.00 0.00 0.00 0.0920 162.30 32.07 19.130 20.710 22.390 19.650 22.720 11.310 10.550 18.660 20.260 21.860 19.010 21.870 10.140 9.680 0.5360 21.903 12.987 8.923 26.973 12.320 14.657
VANMET_231 2018-07-17 07:25:00 231 11739.0 18.270 19.790 21.230 21.490 19.210 61.030 48.090 10.650 10.070 18.750 18.150 12.870 9.370 0.128 0.180 0.279 0.576 417.40 0.00 0.00 0.3210 205.20 4.94 18.670 20.190 21.760 19.390 21.840 11.270 10.500 17.840 19.330 20.810 19.050 21.320 10.070 9.700 1.0850 20.991 12.824 8.180 25.626 12.336 13.302
VANMET_231 2018-07-17 07:20:00 231 11739.0 17.580 19.010 20.450 20.840 19.110 62.430 48.570 10.330 9.620 18.770 18.170 12.870 9.370 0.128 0.180 0.279 0.576 403.40 0.00 0.00 0.2910 208.50 9.76 17.830 19.310 20.880 19.360 21.410 10.820 9.820 17.460 18.820 20.100 18.740 20.430 9.730 9.180 0.8040 20.099 12.553 7.551 24.624 11.970 12.664
VANMET_231 2018-07-17 07:15:00 231 11739.0 17.290 18.750 19.830 20.220 19.210 62.180 49.180 10.000 9.240 18.790 18.170 12.870 9.370 0.128 0.180 0.279 0.576 388.50 0.00 0.00 0.4970 212.90 7.74 17.510 18.860 20.090 19.440 20.410 10.880 9.660 16.990 18.550 19.600 19.030 20.150 9.030 8.860 0.6930 19.734 12.279 7.464 23.701 11.667 12.045
VANMET_231 2018-07-17 07:10:00 231 11739.0 16.820 18.270 19.240 19.980 19.150 65.040 49.630 10.220 9.150 18.810 18.180 12.870 9.370 0.128 0.180 0.279 0.576 370.50 0.00 0.00 0.5070 220.50 9.30 16.960 18.520 19.580 19.300 20.150 10.760 9.580 16.710 18.070 18.910 18.970 19.740 9.610 8.440 0.7840 19.155 12.461 6.697 23.351 11.597 11.762
VANMET_231 2018-07-17 07:05:00 231 11739.0 16.610 17.920 18.650 19.300 19.070 67.040 50.710 10.480 8.850 18.830 18.190 12.860 9.370 0.128 0.180 0.279 0.576 331.20 0.00 0.00 0.0000 0.00 0.00 16.700 18.060 18.880 19.140 19.720 10.700 9.090 16.480 17.740 18.430 18.910 18.920 10.320 8.610 0.0000 18.902 12.679 6.230 22.386 11.364 11.034
VANMET_231 2018-07-17 07:00:00 231 11739.0 16.390 17.460 18.180 18.660 18.700 67.340 54.110 10.340 9.210 18.850 18.200 12.860 9.370 0.128 0.180 0.279 0.576 235.30 0.00 0.00 0.0000 0.00 0.00 16.480 17.720 18.410 18.990 18.870 10.460 9.830 16.320 17.280 18.000 18.460 18.520 10.190 8.660 0.0000 18.639 12.561 6.087 21.510 11.644 9.871
VANMET_231 2018-07-17 06:55:00 231 11739.0 16.210 17.140 17.890 18.380 18.390 66.690 56.810 10.020 9.680 18.870 18.210 12.860 9.370 0.128 0.180 0.279 0.576 128.60 0.00 0.00 0.0000 0.00 0.00 16.300 17.270 17.990 18.500 18.490 10.180 9.790 16.140 17.050 17.790 18.310 18.300 9.900 9.500 0.0000 18.426 12.295 6.138 21.136 12.018 9.129
VANMET_231 2018-07-17 06:50:00 231 11739.0 16.100 16.970 17.700 18.220 18.220 66.320 56.280 9.830 9.380 18.900 18.220 12.860 9.370 0.128 0.180 0.279 0.576 106.00 0.00 0.00 0.0000 0.00 0.00 16.150 17.040 17.790 18.310 18.280 10.000 9.600 16.070 16.930 17.640 18.100 18.150 9.650 9.160 0.0000 18.298 12.140 6.163 20.925 11.778 9.148
VANMET_231 2018-07-17 06:45:00 231 11739.0 16.060 16.880 17.580 18.090 18.080 65.520 55.850 9.610 9.160 18.920 18.230 12.860 9.370 0.128 0.180 0.279 0.576 67.11 0.00 0.00 0.0000 0.00 0.00 16.090 16.930 17.630 18.240 18.170 9.740 9.390 16.010 16.850 17.550 17.970 18.020 9.480 8.960 0.0000 18.251 11.962 6.293 20.755 11.604 9.163
VANMET_231 2018-07-17 06:40:00 231 11739.0 15.990 16.770 17.350 17.840 18.090 65.490 55.590 9.540 8.850 18.940 18.240 12.860 9.370 0.128 0.180 0.279 0.576 46.70 0.00 0.00 0.0000 0.00 0.00 16.020 16.860 17.550 18.170 18.020 9.680 9.080 15.940 16.620 17.070 18.040 17.590 9.390 8.520 0.0000 18.170 11.905 6.270 20.431 11.364 9.073
VANMET_231 2018-07-17 06:35:00 231 11739.0 15.940 16.480 16.840 17.380 17.410 64.700 57.670 9.310 8.960 18.960 18.250 12.860 9.370 0.128 0.180 0.279 0.576 43.71 0.00 0.00 0.0000 0.00 0.00 15.970 16.590 17.030 18.000 17.580 9.460 9.140 15.920 16.440 16.770 17.150 17.260 9.210 8.690 0.0000 18.112 11.722 6.393 19.847 11.449 8.401
VANMET_231 2018-07-17 06:30:00 231 11739.0 15.910 16.420 16.730 17.080 17.140 64.480 59.500 9.230 9.150 18.980 18.250 12.860 9.370 0.128 0.180 0.279 0.576 43.75 0.00 0.00 0.0000 0.00 0.00 15.940 16.430 16.770 17.240 17.260 9.300 9.240 15.860 16.400 16.660 16.970 16.860 9.190 9.070 0.0000 18.077 11.659 6.421 19.474 11.597 7.887
VANMET_231 2018-07-17 06:25:00 231 11739.0 15.800 16.380 16.610 16.750 16.770 64.230 59.950 9.070 8.950 19.000 18.260 12.860 9.370 0.128 0.180 0.279 0.576 39.16 0.00 0.00 0.0250 17.80 0.11 15.840 16.410 16.650 16.930 16.840 9.160 9.140 15.760 16.350 16.600 16.690 16.670 8.950 8.790 0.1500 17.950 11.534 6.421 19.071 11.441 7.638
VANMET_231 2018-07-17 06:20:00 231 11739.0 15.720 16.330 16.550 16.600 16.630 63.840 59.500 8.910 8.700 19.020 18.270 12.860 9.370 0.128 0.180 0.279 0.576 35.67 0.00 0.00 0.0760 20.59 1.35 15.760 16.370 16.610 16.680 16.670 8.990 8.800 15.680 16.260 16.470 16.560 16.540 8.840 8.620 0.3010 17.859 11.410 6.458 18.890 11.249 7.650
VANMET_231 2018-07-17 06:15:00 231 11739.0 15.690 16.200 16.420 16.490 16.550 63.820 59.150 8.870 8.510 19.050 18.280 12.860 9.370 0.128 0.180 0.279 0.576 33.90 0.00 0.00 0.2510 1.92 2.31 15.700 16.250 16.460 16.570 16.540 9.110 8.600 15.660 16.130 16.360 16.520 16.440 8.750 8.420 0.3850 17.824 11.379 6.449 18.758 11.105 7.663
VANMET_231 2018-07-17 06:10:00 231 11739.0 15.610 16.020 16.310 16.390 16.530 63.580 58.610 8.740 8.280 19.070 18.290 12.860 9.370 0.128 0.180 0.279 0.576 32.44 0.00 0.00 0.3530 342.40 19.20 15.650 16.120 16.360 16.580 16.430 8.810 8.410 15.580 15.960 16.270 16.490 16.350 8.670 8.140 0.5880 17.733 11.280 6.458 18.639 10.933 7.715
VANMET_231 2018-07-17 06:05:00 231 11739.0 15.570 15.910 16.220 16.290 16.520 63.850 58.390 8.760 8.130 19.090 18.300 12.860 9.370 0.128 0.180 0.279 0.576 30.74 0.00 0.00 0.5770 355.00 2.97 15.600 15.960 16.260 16.600 16.340 8.850 8.170 15.540 15.860 16.170 16.450 16.240 8.650 8.090 0.6860 17.688 11.295 6.394 18.521 10.822 7.706
VANMET_231 2018-07-17 06:00:00 231 11739.0 15.550 15.850 16.140 16.220 16.380 64.330 58.920 8.860 8.190 19.110 18.310 12.850 9.370 0.128 0.180 0.279 0.576 28.79 0.00 0.00 0.6690 356.40 6.14 15.570 15.860 16.170 16.490 16.250 8.920 8.250 15.530 15.840 16.130 16.310 16.190 8.780 8.150 0.7910 17.665 11.372 6.301 18.438 10.867 7.574
VANMET_231 2018-07-17 05:55:00 231 11739.0 15.660 15.930 16.180 16.200 16.280 64.000 58.850 8.880 8.160 19.140 18.310 12.850 9.370 0.128 0.180 0.279 0.576 26.97 0.00 0.00 0.7540 2.21 6.93 15.730 15.980 16.200 16.350 16.220 9.150 8.220 15.570 15.860 16.140 16.230 16.180 8.450 8.090 0.8560 17.790 11.387 6.404 18.415 10.844 7.578
VANMET_231 2018-07-17 05:50:00 231 11739.0 15.610 15.970 16.190 16.220 16.350 61.140 58.080 8.160 7.979 19.160 18.320 12.850 9.370 0.128 0.180 0.279 0.576 25.09 0.00 0.00 0.8670 6.27 1.21 15.720 15.980 16.200 16.370 16.240 8.350 8.090 15.500 15.950 16.190 16.320 16.190 8.030 7.893 1.0130 17.733 10.844 6.891 18.438 10.712 7.729
VANMET_231 2018-07-17 05:45:00 231 11739.0 15.520 15.950 16.200 16.270 16.290 63.010 57.010 8.520 7.755 19.180 18.330 12.850 9.370 0.128 0.180 0.279 0.576 23.08 0.00 0.00 0.9320 7.12 1.22 15.600 16.000 16.250 16.340 16.300 8.810 7.877 15.470 15.930 16.190 16.250 16.240 8.030 7.675 1.0710 17.631 11.113 6.522 18.497 10.549 7.952
VANMET_231 2018-07-17 05:40:00 231 11739.0 15.630 15.990 16.240 16.290 16.410 61.070 56.500 8.160 7.648 19.200 18.340 12.850 9.370 0.128 0.180 0.279 0.576 20.97 0.00 0.00 0.7710 9.04 4.73 15.670 16.020 16.250 16.480 16.310 8.610 7.701 15.590 15.920 16.200 16.350 16.270 7.706 7.617 0.9340 17.756 10.844 6.912 18.521 10.473 8.056
VANMET_231 2018-07-17 05:35:00 231 11739.0 15.630 15.870 16.160 16.270 16.450 60.480 56.230 8.020 7.552 19.230 18.340 12.850 9.370 0.128 0.180 0.279 0.576 18.94 0.00 0.00 0.7220 1.46 4.53 15.650 15.920 16.200 16.520 16.290 8.130 7.612 15.610 15.830 16.140 16.400 16.250 7.862 7.481 0.8560 17.756 10.742 7.017 18.497 10.404 8.096
VANMET_231 2018-07-17 05:30:00 231 11739.0 15.680 15.860 16.150 16.270 16.450 60.330 56.080 8.040 7.516 19.250 18.350 12.850 9.370 0.128 0.180 0.279 0.576 17.30 0.00 0.00 0.7260 3.80 10.67 15.750 15.900 16.170 16.560 16.300 8.160 7.640 15.640 15.830 16.140 16.380 16.250 7.946 7.411 0.8040 17.813 10.756 7.066 18.497 10.378 8.124
VANMET_231 2018-07-17 05:25:00 231 11739.0 15.840 15.990 16.230 16.330 16.320 60.120 56.190 8.140 7.597 19.270 18.360 12.850 9.370 0.128 0.180 0.279 0.576 15.44 0.00 0.00 0.7760 2.05 1.66 15.960 16.070 16.270 16.370 16.340 8.170 7.641 15.750 15.900 16.180 16.280 16.290 8.070 7.543 1.0060 17.996 10.830 7.177 18.568 10.436 8.135
VANMET_231 2018-07-17 05:20:00 231 11739.0 15.960 16.100 16.260 16.330 16.390 58.060 55.970 7.737 7.544 19.290 18.370 12.850 9.370 0.128 0.180 0.279 0.576 13.48 0.00 0.00 0.9250 7.02 1.88 16.000 16.110 16.270 16.430 16.340 8.080 7.576 15.940 16.070 16.250 16.340 16.310 7.533 7.513 1.0390 18.135 10.536 7.606 18.568 10.398 8.175
VANMET_231 2018-07-17 05:15:00 231 11739.0 15.870 16.080 16.260 16.330 16.400 57.770 55.890 7.571 7.524 19.320 18.380 12.850 9.360 0.128 0.180 0.279 0.576 11.79 0.00 0.00 1.0240 8.27 0.43 15.930 16.100 16.280 16.440 16.360 7.657 7.551 15.790 16.060 16.250 16.380 16.310 7.484 7.493 1.1040 18.031 10.418 7.614 18.568 10.384 8.190
VANMET_231 2018-07-17 05:10:00 231 11739.0 15.730 16.090 16.320 16.390 16.440 59.400 56.040 7.849 7.616 19.340 18.380 12.850 9.360 0.128 0.180 0.279 0.576 10.06 0.00 0.00 0.8460 7.22 0.24 15.780 16.090 16.340 16.470 16.430 8.100 7.687 15.700 16.080 16.290 16.420 16.350 7.613 7.528 0.9470 17.870 10.617 7.255 18.639 10.450 8.194
VANMET_231 2018-07-17 05:05:00 231 11739.0 15.780 16.140 16.380 16.440 16.520 60.820 56.260 8.240 7.724 19.360 18.390 12.850 9.360 0.128 0.180 0.279 0.576 8.26 0.00 0.00 0.6760 6.16 2.05 15.840 16.170 16.400 16.560 16.470 8.380 7.759 15.720 16.100 16.350 16.470 16.420 8.060 7.680 0.8040 17.927 10.904 7.024 18.698 10.527 8.179
VANMET_231 2018-07-17 05:00:00 231 11739.0 15.850 16.150 16.370 16.430 16.570 60.390 56.460 8.210 7.764 19.380 18.400 12.840 9.360 0.128 0.180 0.279 0.576 6.26 0.00 0.00 0.5410 1.36 2.72 15.880 16.160 16.390 16.600 16.460 8.300 7.825 15.830 16.140 16.350 16.550 16.410 8.150 7.727 0.6930 18.008 10.881 7.133 18.686 10.556 8.136
VANMET_231 2018-07-17 04:55:00 231 11739.0 15.840 16.080 16.310 16.390 16.540 60.280 56.930 8.170 7.849 19.410 18.410 12.840 9.360 0.128 0.180 0.279 0.576 4.20 0.00 0.00 0.5440 356.80 7.35 15.870 16.150 16.350 16.580 16.440 8.290 7.883 15.820 16.010 16.260 16.500 16.350 7.918 7.822 0.6930 17.996 10.852 7.148 18.639 10.617 8.028
VANMET_231 2018-07-17 04:50:00 231 11739.0 15.870 16.050 16.290 16.390 16.490 60.300 56.730 8.210 7.799 19.430 18.410 12.840 9.360 0.128 0.180 0.279 0.576 2.37 0.00 0.00 0.5280 359.80 5.08 15.900 16.060 16.290 16.520 16.410 8.270 7.847 15.840 16.030 16.270 16.470 16.370 8.150 7.761 0.6210 18.031 10.881 7.158 18.639 10.581 8.065
VANMET_231 2018-07-17 04:45:00 231 11739.0 15.990 16.130 16.330 16.440 16.500 60.890 56.860 8.460 7.877 19.450 18.420 12.840 9.360 0.128 0.180 0.279 0.576 0.47 0.00 0.00 0.6230 357.00 7.00 16.100 16.230 16.390 16.540 16.480 8.690 7.924 15.900 16.060 16.290 16.460 16.400 8.240 7.819 0.7320 18.170 11.068 7.106 18.698 10.637 8.066
VANMET_231 2018-07-17 04:40:00 231 11739.0 16.070 16.260 16.420 16.500 16.550 59.760 57.270 8.260 8.040 19.480 18.430 12.840 9.360 0.128 0.180 0.279 0.576 0.00 0.00 0.00 0.8120 7.22 0.51 16.110 16.260 16.440 16.630 16.530 8.540 8.110 15.990 16.230 16.390 16.500 16.470 8.160 7.919 0.9340 18.263 10.918 7.349 18.770 10.756 8.020
VANMET_231 2018-07-17 04:35:00 231 11739.0 15.990 16.220 16.440 16.520 16.670 60.770 57.390 8.430 8.090 19.500 18.430 12.840 9.360 0.128 0.180 0.279 0.576 0.00 0.00 0.00 0.7640 7.36 1.98 16.030 16.250 16.450 16.720 16.540 8.740 8.130 15.940 16.200 16.410 16.630 16.500 8.150 8.060 0.8950 18.170 11.045 7.128 18.794 10.793 8.008
VANMET_231 2018-07-17 04:30:00 231 11739.0 16.060 16.210 16.420 16.530 16.700 60.430 57.470 8.420 8.120 19.520 18.440 12.840 9.360 0.128 0.180 0.279 0.576 0.00 0.00 0.00 0.5590 357.60 17.67 16.120 16.250 16.460 16.750 16.560 8.660 8.180 16.020 16.190 16.380 16.580 16.500 8.180 8.080 0.7450 18.251 11.038 7.222 18.806 10.815 7.998
VANMET_231 2018-07-17 04:25:00 231 11739.0 16.160 16.300 16.480 16.560 16.660 60.340 57.470 8.490 8.140 19.550 18.450 12.840 9.360 0.128 0.180 0.279 0.576 0.00 0.00 0.00 0.7310 6.07 0.72 16.180 16.320 16.490 16.670 16.580 8.700 8.170 16.110 16.260 16.470 16.610 16.540 8.220 8.110 0.9800 18.368 11.090 7.285 18.842 10.830 8.013
VANMET_231 2018-07-17 04:20:00 231 11739.0 16.090 16.250 16.460 16.540 16.620 59.930 57.690 8.320 8.190 19.570 18.460 12.840 9.360 0.128 0.180 0.279 0.576 0.00 0.00 0.00 0.8890 6.19 0.47 16.150 16.300 16.470 16.660 16.560 8.510 8.200 16.040 16.210 16.440 16.590 16.520 8.220 8.160 0.9470 18.286 10.963 7.327 18.818 10.867 7.962
VANMET_231 2018-07-17 04:15:00 231 11739.0 16.030 16.160 16.410 16.520 16.570 61.110 57.840 8.550 8.200 19.600 18.460 12.840 9.360 0.128 0.180 0.279 0.576 0.00 0.00 0.00 0.7450 4.67 0.20 16.050 16.210 16.440 16.610 16.540 8.750 8.280 16.000 16.120 16.380 16.510 16.500 8.420 8.150 0.8100 18.216 11.135 7.084 18.794 10.874 7.923
VANMET_231 2018-07-17 04:10:00 231 11739.0 16.160 16.220 16.460 16.570 16.540 61.650 57.920 8.810 8.270 19.620 18.470 12.840 9.360 0.128 0.180 0.279 0.576 0.00 0.00 0.00 0.7790 5.92 0.93 16.280 16.320 16.540 16.600 16.610 8.860 8.330 16.040 16.120 16.390 16.510 16.510 8.690 8.220 0.9210 18.368 11.333 7.044 18.854 10.926 7.934
VANMET_231 2018-07-17 04:05:00 231 11739.0 16.310 16.400 16.590 16.630 16.690 59.730 57.520 8.480 8.220 19.640 18.470 12.840 9.360 0.128 0.180 0.278 0.576 0.00 0.00 0.00 0.8520 7.00 0.18 16.330 16.430 16.610 16.760 16.640 8.700 8.250 16.270 16.330 16.550 16.600 16.610 8.330 8.180 0.9020 18.544 11.083 7.468 18.926 10.889 8.040
VANMET_231 2018-07-17 04:00:00 231 11739.0 16.300 16.420 16.600 16.620 16.760 59.150 57.540 8.320 8.220 19.670 18.480 12.840 9.360 0.128 0.180 0.278 0.576 0.00 0.00 0.00 0.8550 7.54 0.18 16.320 16.420 16.610 16.780 16.640 8.380 8.260 16.280 16.410 16.600 16.750 16.600 8.280 8.200 0.9410 18.532 10.963 7.570 18.914 10.889 8.031
VANMET_231 2018-07-17 03:55:00 231 11739.0 16.330 16.420 16.600 16.610 16.780 59.030 57.400 8.320 8.180 19.690 18.490 12.830 9.360 0.128 0.180 0.278 0.576 0.00 0.00 0.00 0.8820 7.84 0.35 16.360 16.430 16.610 16.790 16.640 8.520 8.220 16.300 16.420 16.580 16.750 16.600 8.140 8.140 0.9800 18.568 10.963 7.607 18.902 10.859 8.052
VANMET_231 2018-07-17 03:50:00 231 11739.0 16.290 16.410 16.580 16.600 16.790 58.400 57.230 8.130 8.120 19.710 18.490 12.830 9.360 0.128 0.180 0.278 0.576 0.00 0.00 0.00 0.8280 7.35 1.24 16.350 16.430 16.580 16.800 16.610 8.190 8.140 16.230 16.390 16.570 16.770 16.580 8.100 8.090 0.9280 18.521 10.822 7.705 18.890 10.815 8.079
VANMET_231 2018-07-17 03:45:00 231 11739.0 16.180 16.350 16.560 16.600 16.770 59.220 57.140 8.230 8.100 19.740 18.500 12.830 9.360 0.128 0.180 0.278 0.576 0.00 0.00 0.00 0.7090 6.24 0.27 16.230 16.390 16.570 16.790 16.620 8.470 8.120 16.120 16.320 16.540 16.750 16.580 8.120 8.070 0.9210 18.391 10.896 7.500 18.890 10.800 8.096
VANMET_231 2018-07-17 03:40:00 231 11739.0 16.120 16.260 16.510 16.610 16.740 60.400 57.360 8.460 8.160 19.760 18.510 12.830 9.360 0.128 0.180 0.278 0.576 0.00 0.00 0.00 0.5730 1.95 2.98 16.170 16.310 16.540 16.790 16.640 8.590 8.210 16.090 16.230 16.480 16.710 16.570 8.200 8.090 0.7320 18.321 11.068 7.255 18.902 10.844 8.060
VANMET_231 2018-07-17 03:35:00 231 11739.0 16.230 16.330 16.560 16.670 16.740 60.290 57.270 8.540 8.190 19.790 18.510 12.830 9.360 0.128 0.180 0.278 0.576 0.00 0.00 0.00 0.6590 1.07 1.06 16.310 16.390 16.610 16.760 16.710 8.590 8.280 16.160 16.280 16.530 16.720 16.630 8.430 8.130 0.7380 18.450 11.128 7.326 18.974 10.867 8.108
VANMET_231 2018-07-17 03:30:00 231 11739.0 16.430 16.490 16.680 16.750 16.800 59.340 56.700 8.500 8.120 19.810 18.520 12.830 9.360 0.128 0.180 0.278 0.576 0.00 0.00 0.00 0.7550 4.37 1.34 16.510 16.570 16.730 16.910 16.770 8.630 8.220 16.320 16.390 16.610 16.750 16.710 8.200 8.050 0.9280 18.686 11.098 7.598 19.071 10.815 8.258
VANMET_231 2018-07-17 03:25:00 231 11739.0 16.500 16.570 16.700 16.740 16.910 57.570 56.460 8.110 8.050 19.840 18.520 12.830 9.360 0.128 0.180 0.278 0.576 0.00 0.00 0.00 0.8790 7.30 0.67 16.540 16.570 16.730 16.920 16.770 8.160 8.080 16.470 16.540 16.680 16.900 16.720 8.070 8.040 1.0060 18.770 10.808 7.964 19.058 10.764 8.298
VANMET_231 2018-07-17 03:20:00 231 11739.0 16.450 16.540 16.670 16.720 16.860 57.530 56.440 8.060 8.030 19.860 18.530 12.830 9.360 0.128 0.180 0.278 0.576 0.00 0.00 0.00 0.9090 7.97 0.36 16.500 16.550 16.680 16.900 16.740 8.110 8.070 16.430 16.520 16.660 16.810 16.700 8.030 7.992 1.0390 18.710 10.771 7.946 19.034 10.749 8.291
VANMET_231 2018-07-17 03:15:00 231 11739.0 16.400 16.530 16.670 16.730 16.850 57.800 56.350 8.080 8.010 19.890 18.530 12.830 9.360 0.128 0.180 0.278 0.576 0.00 0.00 0.00 0.9020 7.34 0.23 16.450 16.550 16.690 16.880 16.740 8.250 8.040 16.340 16.510 16.660 16.820 16.710 8.020 7.994 0.9600 18.651 10.786 7.871 19.046 10.734 8.314
VANMET_231 2018-07-17 03:10:00 231 11739.0 16.240 16.470 16.680 16.740 16.900 58.420 56.270 8.090 8.010 19.910 18.540 12.830 9.360 0.128 0.180 0.278 0.576 0.00 0.00 0.00 0.7880 5.10 0.91 16.330 16.500 16.700 16.920 16.780 8.360 8.030 16.180 16.400 16.650 16.860 16.720 8.030 7.972 0.9470 18.462 10.793 7.676 19.058 10.734 8.334
VANMET_231 2018-07-17 03:05:00 231 11739.0 16.190 16.410 16.660 16.750 16.870 59.720 56.170 8.370 7.992 19.930 18.540 12.830 9.360 0.128 0.180 0.278 0.576 0.00 0.00 0.00 0.5510 358.60 2.77 16.220 16.430 16.680 16.880 16.770 8.430 8.020 16.170 16.390 16.650 16.860 16.730 8.310 7.970 0.6860 18.403 11.000 7.413 19.071 10.721 8.359
VANMET_231 2018-07-17 03:00:00 231 11739.0 16.210 16.420 16.670 16.770 16.880 59.860 56.200 8.420 8.010 19.960 18.550 12.830 9.360 0.128 0.180 0.278 0.576 0.00 0.00 0.00 0.5650 359.00 6.33 16.240 16.440 16.670 16.890 16.780 8.480 8.050 16.200 16.410 16.660 16.840 16.750 8.360 7.983 0.7190 18.426 11.038 7.396 19.095 10.734 8.364
VANMET_231 2018-07-17 02:55:00 231 11739.0 16.260 16.480 16.700 16.780 16.860 59.680 56.050 8.420 7.987 19.980 18.550 12.830 9.360 0.128 0.180 0.278 0.576 0.00 0.00 0.00 0.6410 3.27 1.21 16.300 16.510 16.720 16.890 16.800 8.550 8.020 16.240 16.440 16.670 16.830 16.760 8.230 7.961 0.7580 18.485 11.038 7.453 19.107 10.717 8.397
VANMET_231 2018-07-17 02:50:00 231 11739.0 16.280 16.490 16.720 16.790 16.870 59.200 55.980 8.320 7.980 20.010 18.560 12.830 9.360 0.128 0.180 0.278 0.576 0.00 0.00 0.00 0.8230 6.25 0.52 16.300 16.510 16.720 16.880 16.810 8.440 8.010 16.240 16.460 16.700 16.860 16.770 8.190 7.954 0.9410 18.509 10.963 7.552 19.119 10.712 8.416
VANMET_231 2018-07-17 02:45:00 231 11739.0 16.270 16.460 16.710 16.810 16.850 59.500 55.920 8.390 7.973 20.030 18.560 12.830 9.350 0.128 0.180 0.278 0.576 0.00 0.00 0.00 0.7660 4.10 2.13 16.290 16.490 16.740 16.890 16.840 8.520 7.999 16.250 16.430 16.690 16.830 16.780 8.210 7.958 0.9410 18.497 11.015 7.491 19.143 10.707 8.438
VANMET_231 2018-07-17 02:40:00 231 11739.0 16.270 16.500 16.740 16.810 16.920 59.190 55.920 8.310 7.976 20.060 18.570 12.820 9.350 0.128 0.180 0.278 0.576 0.00 0.00 0.00 0.5190 2.11 1.22 16.290 16.510 16.750 16.950 16.830 8.390 8.000 16.240 16.470 16.710 16.900 16.780 8.150 7.940 0.6660 18.497 10.956 7.549 19.143 10.709 8.438
VANMET_231 2018-07-17 02:35:00 231 11739.0 16.220 16.410 16.670 16.790 16.870 59.830 56.300 8.420 8.060 20.080 18.570 12.820 9.350 0.128 0.180 0.278 0.576 0.00 0.00 0.00 0.5420 2.30 0.73 16.250 16.450 16.700 16.930 16.820 8.530 8.150 16.200 16.390 16.650 16.850 16.760 8.150 7.970 0.5950 18.438 11.038 7.407 19.119 10.771 8.355
VANMET_231 2018-07-17 02:30:00 231 11739.0 16.250 16.520 16.770 16.870 16.910 60.000 55.810 8.490 8.000 20.110 18.580 12.820 9.350 0.128 0.180 0.278 0.576 0.00 0.00 0.00 0.5890 1.80 1.17 16.270 16.580 16.830 16.980 16.900 8.530 8.100 16.230 16.440 16.700 16.870 16.830 8.450 7.929 0.7060 18.473 11.090 7.389 19.216 10.727 8.492
VANMET_231 2018-07-17 02:25:00 231 11739.0 16.280 16.620 16.860 16.910 17.020 59.560 55.540 8.410 7.973 20.130 18.580 12.820 9.350 0.128 0.180 0.278 0.576 0.00 0.00 0.00 0.5610 1.79 4.30 16.320 16.650 16.870 17.050 16.940 8.600 8.030 16.250 16.590 16.840 16.990 16.890 8.110 7.936 0.6340 18.509 11.030 7.485 19.265 10.707 8.565
VANMET_231 2018-07-17 02:20:00 231 11739.0 16.290 16.600 16.860 16.940 17.030 59.950 55.580 8.510 8.010 20.160 18.590 12.820 9.350 0.128 0.180 0.278 0.576 0.00 0.00 0.00 0.5900 3.38 2.29 16.330 16.630 16.890 17.050 16.960 8.640 8.020 16.250 16.590 16.850 17.010 16.910 8.280 7.983 0.7710 18.521 11.105 7.418 19.302 10.734 8.574
VANMET_231 2018-07-17 02:15:00 231 11739.0 16.360 16.620 16.870 16.930 17.070 59.560 55.710 8.490 8.030 20.180 18.590 12.820 9.350 0.128 0.180 0.278 0.576 0.00 0.00 0.00 0.6590 6.28 3.90 16.400 16.640 16.900 17.080 16.960 8.560 8.070 16.330 16.600 16.850 17.040 16.910 8.360 8.010 0.8230 18.603 11.090 7.523 19.290 10.749 8.543
VANMET_231 2018-07-17 02:10:00 231 11739.0 16.400 16.600 16.850 16.910 17.070 59.420 55.990 8.490 8.090 20.210 18.590 12.820 9.350 0.128 0.180 0.278 0.576 0.00 0.00 0.00 0.4930 0.09 0.02 16.420 16.610 16.860 17.080 16.930 8.580 8.110 16.380 16.590 16.840 17.060 16.900 8.380 8.060 0.5620 18.651 11.090 7.569 19.265 10.793 8.479
VANMET_231 2018-07-17 02:05:00 231 11739.0 16.420 16.550 16.800 16.900 17.060 59.430 56.280 8.510 8.160 20.240 18.600 12.820 9.350 0.128 0.180 0.278 0.576 0.00 0.00 0.00 0.4820 0.09 0.00 16.440 16.580 16.830 17.080 16.930 8.590 8.220 16.400 16.540 16.780 17.030 16.880 8.430 8.090 0.5750 18.675 11.105 7.576 19.253 10.844 8.417
VANMET_231 2018-07-17 02:00:00 231 11739.0 16.440 16.580 16.830 16.960 17.040 59.680 56.130 8.590 8.180 20.260 18.600 12.820 9.350 0.128 0.180 0.278 0.576 0.00 0.00 0.00 0.5430 1.06 4.22 16.460 16.610 16.850 17.050 17.000 8.660 8.220 16.420 16.560 16.810 17.020 16.920 8.480 8.120 0.6340 18.698 11.166 7.539 19.326 10.859 8.478
VANMET_231 2018-07-17 01:55:00 231 11739.0 16.490 16.660 16.900 17.020 17.060 59.580 55.760 8.620 8.140 20.290 18.600 12.820 9.350 0.128 0.180 0.278 0.576 0.00 0.00 0.00 0.5960 2.19 0.66 16.540 16.700 16.940 17.100 17.060 8.670 8.160 16.440 16.610 16.850 17.030 16.980 8.550 8.110 0.7510 18.758 11.188 7.582 19.400 10.830 8.583
VANMET_231 2018-07-17 01:50:00 231 11739.0 16.540 16.690 16.940 17.060 17.110 59.160 55.640 8.560 8.130 20.310 18.610 12.820 9.350 0.128 0.180 0.278 0.576 0.00 0.00 0.00 0.5790 2.57 0.78 16.570 16.710 16.960 17.140 17.090 8.660 8.190 16.520 16.670 16.920 17.100 17.030 8.430 8.100 0.7190 18.818 11.143 7.685 19.449 10.822 8.628
VANMET_231 2018-07-17 01:45:00 231 11739.0 16.620 16.750 16.990 17.110 17.190 58.920 55.540 8.570 8.160 20.340 18.610 12.820 9.350 0.128 0.180 0.278 0.576 0.00 0.00 0.00 0.5650 1.61 0.97 16.680 16.810 17.030 17.240 17.140 8.650 8.190 16.580 16.710 16.960 17.150 17.080 8.520 8.120 0.7380 18.914 11.151 7.770 19.511 10.844 8.675
VANMET_231 2018-07-17 01:40:00 231 11739.0 16.700 16.880 17.090 17.180 17.290 58.240 55.280 8.470 8.160 20.360 18.610 12.820 9.350 0.128 0.180 0.278 0.576 0.00 0.00 0.00 0.5320 3.57 2.29 16.730 16.920 17.110 17.350 17.210 8.610 8.200 16.650 16.820 17.040 17.240 17.140 8.200 8.120 0.6470 19.010 11.075 7.939 19.597 10.844 8.764
VANMET_231 2018-07-17 01:35:00 231 11739.0 16.660 16.870 17.100 17.220 17.270 58.500 55.150 8.500 8.150 20.390 18.610 12.820 9.350 0.128 0.180 0.278 0.576 0.00 0.00 0.00 0.5230 2.73 4.52 16.690 16.940 17.160 17.330 17.260 8.650 8.220 16.630 16.820 17.060 17.230 17.180 8.180 8.100 0.6860 18.962 11.098 7.869 19.647 10.837 8.812
VANMET_231 2018-07-17 01:30:00 231 11739.0 16.660 16.910 17.120 17.210 17.350 58.150 55.020 8.410 8.110 20.420 18.620 12.820 9.350 0.128 0.180 0.278 0.576 0.00 0.00 0.00 0.5930 2.21 7.65 16.700 16.980 17.180 17.410 17.260 8.780 8.180 16.620 16.780 17.020 17.210 17.150 8.160 8.080 0.8230 18.962 11.030 7.936 19.635 10.808 8.832
VANMET_231 2018-07-17 01:25:00 231 11739.0 16.690 16.820 17.070 17.200 17.290 58.910 55.390 8.630 8.200 20.440 18.620 12.810 9.350 0.128 0.180 0.278 0.576 0.00 0.00 0.00 0.6550 2.21 4.10 16.740 16.850 17.100 17.330 17.240 8.950 8.260 16.640 16.780 17.030 17.210 17.160 8.580 8.150 0.7910 18.998 11.196 7.806 19.622 10.874 8.754
VANMET_231 2018-07-17 01:20:00 231 11739.0 16.820 16.910 17.150 17.270 17.270 58.600 55.200 8.670 8.220 20.470 18.620 12.810 9.350 0.128 0.180 0.278 0.576 0.00 0.00 0.00 0.6810 3.76 0.71 16.930 16.980 17.200 17.310 17.310 8.750 8.260 16.730 16.850 17.100 17.250 17.220 8.600 8.180 0.8820 19.155 11.226 7.930 19.709 10.889 8.830
VANMET_231 2018-07-17 01:15:00 231 11739.0 17.010 17.070 17.260 17.350 17.350 57.180 54.770 8.490 8.170 20.490 18.620 12.810 9.350 0.128 0.180 0.278 0.576 0.00 0.00 0.00 0.7990 4.73 0.38 17.070 17.120 17.290 17.440 17.380 8.720 8.250 16.930 16.990 17.210 17.280 17.310 8.320 8.120 0.9150 19.388 11.090 8.302 19.809 10.852 8.960
VANMET_231 2018-07-17 01:10:00 231 11739.0 17.080 17.130 17.290 17.360 17.480 55.930 54.650 8.230 8.160 20.520 18.620 12.810 9.350 0.128 0.180 0.278 0.576 0.00 0.00 0.00 0.8140 6.03 0.47 17.100 17.130 17.290 17.490 17.380 8.270 8.170 17.060 17.130 17.280 17.460 17.340 8.190 8.140 0.9080 19.474 10.896 8.582 19.822 10.844 8.989
VANMET_231 2018-07-17 01:05:00 231 11739.0 17.080 17.150 17.290 17.340 17.490 55.870 54.670 8.220 8.140 20.550 18.630 12.810 9.350 0.128 0.180 0.278 0.576 0.00 0.00 0.00 0.7860 5.63 0.14 17.110 17.160 17.290 17.500 17.360 8.250 8.160 17.050 17.130 17.280 17.480 17.330 8.180 8.120 0.8430 19.474 10.889 8.594 19.797 10.830 8.974
VANMET_231 2018-07-17 01:00:00 231 11739.0 17.010 17.160 17.310 17.370 17.510 56.160 54.610 8.230 8.150 20.570 18.630 12.810 9.350 0.128 0.180 0.278 0.576 0.00 0.00 0.00 0.7100 5.67 0.29 17.050 17.170 17.320 17.540 17.390 8.270 8.170 16.940 17.150 17.290 17.480 17.340 8.180 8.130 0.8490 19.388 10.896 8.500 19.834 10.837 9.003
VANMET_231 2018-07-17 00:55:00 231 11739.0 16.850 17.120 17.310 17.380 17.490 56.810 54.440 8.250 8.120 20.600 18.630 12.810 9.350 0.128 0.180 0.278 0.576 0.00 0.00 0.00 0.8260 5.84 0.28 16.930 17.150 17.320 17.530 17.400 8.470 8.170 16.790 17.100 17.300 17.450 17.360 8.150 8.080 0.9080 19.192 10.911 8.289 19.847 10.815 9.042
VANMET_231 2018-07-17 00:50:00 231 11739.0 16.790 17.100 17.300 17.380 17.460 58.290 54.440 8.570 8.120 20.620 18.630 12.810 9.350 0.128 0.180 0.278 0.576 0.00 0.00 0.00 0.8350 5.98 0.94 16.840 17.120 17.310 17.520 17.410 8.930 8.180 16.750 17.080 17.290 17.410 17.360 8.170 8.070 0.9600 19.119 11.151 7.975 19.847 10.815 9.042
VANMET_231 2018-07-17 00:45:00 231 11739.0 16.820 17.100 17.300 17.390 17.440 58.570 54.550 8.670 8.160 20.650 18.630 12.810 9.350 0.128 0.180 0.278 0.576 0.00 0.00 0.00 0.7390 4.88 0.53 16.870 17.110 17.310 17.460 17.420 8.990 8.200 16.790 17.090 17.300 17.410 17.370 8.370 8.100 0.9410 19.155 11.226 7.936 19.859 10.844 9.026
VANMET_231 2018-07-17 00:40:00 231 11739.0 16.950 17.130 17.330 17.420 17.460 58.170 54.510 8.690 8.170 20.680 18.630 12.810 9.350 0.128 0.180 0.278 0.576 0.00 0.00 0.00 0.7810 4.49 0.43 17.040 17.150 17.340 17.470 17.440 8.940 8.210 16.870 17.100 17.300 17.430 17.410 8.510 8.150 0.9020 19.314 11.242 8.079 19.897 10.852 9.051
VANMET_231 2018-07-17 00:35:00 231 11739.0 17.100 17.180 17.370 17.440 17.500 56.660 54.420 8.440 8.160 20.700 18.630 12.810 9.350 0.128 0.180 0.278 0.576 0.00 0.00 0.00 0.8510 5.80 1.21 17.120 17.200 17.380 17.530 17.470 8.720 8.190 17.040 17.150 17.340 17.440 17.420 8.210 8.130 0.9670 19.498 11.053 8.451 19.922 10.844 9.081
VANMET_231 2018-07-17 00:30:00 231 11739.0 17.100 17.200 17.370 17.440 17.500 56.080 54.400 8.290 8.160 20.730 18.630 12.810 9.350 0.128 0.180 0.278 0.576 0.00 0.00 0.00 0.8790 5.68 0.62 17.120 17.200 17.380 17.520 17.450 8.390 8.190 17.080 17.190 17.370 17.490 17.420 8.210 8.130 1.0000 19.498 10.941 8.564 19.922 10.844 9.085
VANMET_231 2018-07-17 00:25:00 231 11739.0 17.090 17.240 17.390 17.460 17.540 56.060 54.240 8.270 8.130 20.760 18.630 12.810 9.350 0.128 0.180 0.278 0.576 0.00 0.00 0.00 0.7840 6.06 1.55 17.120 17.260 17.390 17.590 17.480 8.600 8.260 17.040 17.190 17.370 17.440 17.430 8.100 8.090 0.9670 19.486 10.926 8.562 19.947 10.822 9.128
VANMET_231 2018-07-17 00:20:00 231 11739.0 16.970 17.190 17.390 17.480 17.560 56.200 53.910 8.200 8.060 20.780 18.630 12.810 9.350 0.128 0.180 0.278 0.576 0.00 0.00 0.00 0.9000 6.02 0.87 17.050 17.240 17.400 17.580 17.510 8.490 8.100 16.930 17.170 17.390 17.540 17.450 8.100 8.020 0.9930 19.339 10.874 8.470 19.973 10.771 9.205
VANMET_231 2018-07-17 00:15:00 231 11739.0 16.960 17.160 17.400 17.510 17.550 56.600 53.400 8.290 7.951 20.810 18.630 12.810 9.340 0.128 0.180 0.278 0.576 0.00 0.00 0.00 0.7930 5.27 0.26 16.970 17.180 17.410 17.570 17.530 8.430 8.020 16.940 17.150 17.400 17.540 17.490 8.190 7.882 0.8950 19.326 10.941 8.388 20.010 10.691 9.325
VANMET_231 2018-07-17 00:10:00 231 11739.0 16.970 17.220 17.460 17.540 17.580 56.250 52.760 8.220 7.802 20.830 18.630 12.810 9.340 0.128 0.180 0.278 0.576 0.00 0.00 0.00 0.7810 4.81 0.56 16.990 17.250 17.490 17.630 17.560 8.470 7.871 16.960 17.170 17.420 17.560 17.520 8.060 7.747 0.8750 19.339 10.889 8.461 20.048 10.583 9.471
VANMET_231 2018-07-17 00:05:00 231 11739.0 17.040 17.270 17.510 17.570 17.660 56.170 52.220 8.260 7.682 20.860 18.630 12.810 9.340 0.128 0.180 0.278 0.576 0.00 0.00 0.00 0.8560 6.51 0.69 17.090 17.310 17.540 17.720 17.600 8.490 7.748 16.970 17.240 17.490 17.620 17.540 8.060 7.620 1.0190 19.425 10.918 8.514 20.086 10.497 9.597
VANMET_231 2018-07-17 00:00:00 231 11739.0 17.050 17.300 17.550 17.600 17.710 55.550 51.930 8.110 7.629 20.890 18.630 12.800 9.340 0.128 0.180 0.278 0.576 0.00 0.00 0.00 0.7170 4.35 1.28 17.100 17.330 17.580 17.760 17.630 8.390 7.664 17.020 17.260 17.520 17.650 17.580 7.700 7.602 0.8620 19.437 10.808 8.640 20.124 10.459 9.674
VANMET_231 2018-07-16 23:55:00 231 11739.0 17.110 17.360 17.590 17.630 17.760 55.500 51.860 8.140 7.632 20.910 18.620 12.800 9.340 0.128 0.180 0.278 0.576 0.00 0.00 0.00 0.7860 5.87 0.98 17.140 17.390 17.600 17.810 17.650 8.300 7.665 17.070 17.330 17.580 17.740 17.610 7.731 7.600 1.0130 19.511 10.830 8.682 20.163 10.461 9.706
VANMET_231 2018-07-16 23:50:00 231 11739.0 17.150 17.410 17.610 17.650 17.810 55.000 51.650 8.050 7.588 20.940 18.620 12.800 9.340 0.128 0.180 0.278 0.576 0.00 0.00 0.00 0.8210 8.82 4.93 17.190 17.450 17.640 17.870 17.660 8.480 7.642 17.130 17.380 17.600 17.780 17.630 7.625 7.556 1.0910 19.560 10.764 8.802 20.188 10.430 9.761
VANMET_231 2018-07-16 23:45:00 231 11739.0 17.100 17.380 17.580 17.620 17.780 54.620 51.450 7.902 7.513 20.960 18.620 12.800 9.340 0.128 0.180 0.278 0.576 0.00 0.00 0.00 0.7520 354.50 20.61 17.130 17.440 17.640 17.860 17.650 8.480 7.543 17.080 17.340 17.550 17.730 17.610 7.602 7.484 1.0580 19.498 10.656 8.848 20.150 10.376 9.783
VANMET_231 2018-07-16 23:40:00 231 11739.0 17.210 17.390 17.590 17.660 17.750 55.180 51.260 8.150 7.487 20.990 18.620 12.800 9.340 0.128 0.180 0.278 0.576 0.00 0.00 0.00 0.8940 5.49 2.56 17.270 17.450 17.640 17.820 17.690 8.460 7.512 17.120 17.330 17.550 17.700 17.610 7.572 7.462 1.0650 19.635 10.837 8.800 20.201 10.358 9.846
VANMET_231 2018-07-16 23:35:00 231 11739.0 17.290 17.460 17.660 17.720 17.800 54.110 50.880 7.940 7.437 21.020 18.620 12.800 9.340 0.128 0.180 0.278 0.576 0.00 0.00 0.00 0.9790 9.10 1.28 17.360 17.510 17.690 17.860 17.770 8.350 7.497 17.220 17.430 17.630 17.750 17.690 7.532 7.398 1.0710 19.734 10.683 9.056 20.277 10.323 9.960
VANMET_231 2018-07-16 23:30:00 231 11739.0 17.390 17.550 17.730 17.790 17.890 53.560 50.580 7.877 7.411 21.040 18.610 12.800 9.340 0.128 0.180 0.278 0.576 0.00 0.00 0.00 0.9430 13.48 0.93 17.480 17.600 17.760 17.920 17.830 8.460 7.481 17.330 17.520 17.690 17.860 17.750 7.569 7.350 1.0450 19.859 10.637 9.223 20.367 10.304 10.065
VANMET_231 2018-07-16 23:25:00 231 11739.0 17.410 17.630 17.790 17.820 17.990 52.500 50.470 7.609 7.414 21.070 18.610 12.800 9.340 0.128 0.180 0.278 0.576 0.00 0.00 0.00 0.9690 11.45 0.88 17.470 17.640 17.800 18.020 17.840 8.510 7.475 17.330 17.620 17.770 17.940 17.810 7.418 7.363 1.0390 19.885 10.445 9.445 20.405 10.306 10.107
VANMET_231 2018-07-16 23:20:00 231 11739.0 17.300 17.560 17.770 17.830 17.980 53.870 50.720 7.887 7.487 21.090 18.610 12.800 9.340 0.128 0.180 0.278 0.576 0.00 0.00 0.00 0.8470 5.20 7.14 17.340 17.610 17.800 18.030 17.840 8.190 7.591 17.270 17.510 17.730 17.920 17.800 7.618 7.422 0.9800 19.747 10.645 9.109 20.418 10.358 10.062
VANMET_231 2018-07-16 23:15:00 231 11739.0 17.410 17.570 17.770 17.860 17.930 55.670 51.420 8.470 7.723 21.120 18.600 12.800 9.340 0.128 0.180 0.278 0.575 0.00 0.00 0.00 0.6930 1.84 1.52 17.510 17.660 17.840 17.990 17.900 8.610 7.820 17.320 17.520 17.740 17.910 17.820 8.260 7.580 0.8430 19.885 11.075 8.815 20.457 10.526 9.938
VANMET_231 2018-07-16 23:10:00 231 11739.0 17.550 17.700 17.870 17.940 18.040 54.430 51.980 8.270 7.949 21.150 18.600 12.800 9.340 0.128 0.180 0.278 0.575 0.00 0.00 0.00 0.8240 5.69 0.95 17.580 17.720 17.890 18.070 17.970 8.630 8.010 17.520 17.670 17.840 18.000 17.910 8.030 7.856 1.0320 20.061 10.926 9.142 20.560 10.690 9.873
VANMET_231 2018-07-16 23:05:00 231 11739.0 17.610 17.740 17.930 17.990 18.060 54.490 51.850 8.340 7.966 21.170 18.590 12.800 9.340 0.128 0.180 0.278 0.575 0.00 0.00 0.00 0.8530 5.57 0.75 17.680 17.780 17.960 18.100 18.030 8.700 7.993 17.530 17.700 17.890 17.990 17.950 8.110 7.935 0.9930 20.137 10.978 9.164 20.625 10.702 9.931
VANMET_231 2018-07-16 23:00:00 231 11739.0 17.680 17.810 17.970 18.020 18.150 53.800 51.910 8.220 8.010 21.200 18.590 12.800 9.340 0.128 0.180 0.278 0.575 0.00 0.00 0.00 0.8730 6.93 0.99 17.710 17.820 17.980 18.180 18.040 8.440 8.070 17.650 17.790 17.960 18.110 18.000 8.080 7.968 0.9930 20.226 10.889 9.344 20.664 10.734 9.937
VANMET_231 2018-07-16 22:55:00 231 11739.0 17.570 17.790 17.980 18.040 18.200 53.910 52.050 8.140 8.070 21.220 18.590 12.800 9.340 0.128 0.180 0.278 0.575 0.00 0.00 0.00 0.8420 6.40 1.01 17.650 17.810 17.980 18.210 18.060 8.260 8.120 17.490 17.740 17.960 18.170 18.020 8.070 8.040 0.9800 20.086 10.830 9.258 20.690 10.778 9.921
VANMET_231 2018-07-16 22:50:00 231 11739.0 17.510 17.750 17.970 18.070 18.220 55.490 52.010 8.520 8.080 21.250 18.580 12.800 9.340 0.128 0.180 0.278 0.575 0.00 0.00 0.00 0.7190 3.18 1.62 17.550 17.780 17.990 18.320 18.090 8.750 8.120 17.500 17.720 17.950 18.130 18.040 8.290 8.040 0.9210 20.010 11.113 8.907 20.729 10.786 9.948
VANMET_231 2018-07-16 22:45:00 231 11739.0 17.500 17.760 17.990 18.080 18.280 55.350 52.150 8.470 8.130 21.270 18.570 12.800 9.340 0.128 0.180 0.278 0.575 0.00 0.00 0.00 0.7930 6.30 7.16 17.520 17.770 18.000 18.350 18.100 8.540 8.220 17.480 17.740 17.980 18.240 18.060 8.350 8.070 0.8750 19.998 11.075 8.929 20.742 10.822 9.925
VANMET_231 2018-07-16 22:40:00 231 11739.0 17.500 17.720 17.970 18.040 18.330 55.350 52.420 8.470 8.170 21.300 18.570 12.800 9.340 0.128 0.180 0.278 0.575 0.00 0.00 0.00 0.7130 359.40 11.86 17.520 17.760 18.000 18.420 18.070 8.650 8.200 17.480 17.690 17.950 18.280 18.020 8.370 8.130 0.8560 19.998 11.075 8.929 20.690 10.852 9.844
VANMET_231 2018-07-16 22:35:00 231 11739.0 17.500 17.670 17.930 18.020 18.260 55.290 52.480 8.450 8.170 21.320 18.560 12.800 9.340 0.128 0.180 0.278 0.575 0.00 0.00 0.00 0.7360 0.05 6.88 17.520 17.700 17.950 18.340 18.050 8.550 8.250 17.480 17.650 17.910 18.180 17.990 8.340 8.100 0.9080 19.998 11.060 8.941 20.664 10.852 9.819
VANMET_231 2018-07-16 22:30:00 231 11739.0 17.540 17.690 17.940 18.060 18.230 56.010 52.990 8.680 8.340 21.350 18.560 12.800 9.340 0.128 0.180 0.278 0.575 0.00 0.00 0.00 0.6610 3.17 6.91 17.560 17.730 17.970 18.320 18.100 8.810 8.460 17.490 17.650 17.920 18.180 18.030 8.550 8.250 0.7970 20.048 11.234 8.819 20.716 10.978 9.738
VANMET_231 2018-07-16 22:25:00 231 11739.0 17.590 17.760 17.990 18.110 18.300 56.090 53.000 8.750 8.400 21.370 18.550 12.790 9.340 0.128 0.180 0.278 0.575 0.00 0.00 0.00 0.7080 2.23 6.13 17.620 17.770 18.000 18.330 18.150 8.820 8.460 17.570 17.730 17.970 18.260 18.080 8.610 8.350 0.9150 20.112 11.287 8.831 20.781 11.023 9.767
VANMET_231 2018-07-16 22:20:00 231 11739.0 17.640 17.810 18.040 18.170 18.310 56.240 52.990 8.840 8.450 21.390 18.540 12.790 9.340 0.128 0.180 0.278 0.575 0.00 0.00 0.00 0.6940 1.46 1.17 17.680 17.870 18.090 18.440 18.200 8.920 8.540 17.600 17.770 18.000 18.260 18.130 8.670 8.330 0.9210 20.175 11.356 8.829 20.859 11.060 9.806
VANMET_231 2018-07-16 22:15:00 231 11739.0 17.660 17.840 18.080 18.190 18.500 56.090 53.020 8.820 8.480 21.420 18.540 12.790 9.340 0.127 0.180 0.278 0.575 0.00 0.00 0.00 0.7750 3.90 9.05 17.680 17.880 18.100 18.660 18.210 9.070 8.670 17.650 17.820 18.060 18.340 18.170 8.630 8.340 1.0000 20.201 11.341 8.870 20.886 11.083 9.812
VANMET_231 2018-07-16 22:10:00 231 11739.0 17.670 17.850 18.090 18.230 18.370 56.600 53.100 8.960 8.530 21.440 18.530 12.790 9.340 0.128 0.180 0.278 0.575 0.00 0.00 0.00 0.7320 358.90 2.66 17.710 17.890 18.130 18.510 18.280 9.120 8.640 17.640 17.830 18.070 18.270 18.190 8.820 8.380 0.8430 20.213 11.449 8.773 20.938 11.120 9.820
VANMET_231 2018-07-16 22:05:00 231 11739.0 17.720 17.940 18.180 18.310 18.350 56.960 52.610 9.100 8.470 21.460 18.520 12.790 9.340 0.128 0.180 0.278 0.575 0.00 0.00 0.00 0.7560 3.68 1.95 17.760 17.990 18.230 18.430 18.350 9.190 8.590 17.680 17.890 18.140 18.280 18.270 8.930 8.420 0.8890 20.277 11.558 8.727 21.043 11.075 9.972
VANMET_231 2018-07-16 22:00:00 231 11739.0 17.750 17.990 18.230 18.360 18.410 56.640 52.490 9.050 8.480 21.490 18.510 12.790 9.340 0.128 0.180 0.278 0.575 0.00 0.00 0.00 0.7750 3.57 2.10 17.800 18.010 18.260 18.450 18.380 9.230 8.580 17.720 17.970 18.220 18.370 18.330 8.930 8.420 0.9410 20.316 11.519 8.809 21.110 11.083 10.029
VANMET_231 2018-07-16 21:55:00 231 11739.0 17.830 18.050 18.290 18.410 18.530 56.210 52.160 9.000 8.440 21.510 18.510 12.790 9.340 0.128 0.180 0.278 0.575 0.00 0.00 0.00 0.7840 5.60 5.45 17.850 18.080 18.310 18.580 18.430 9.210 8.530 17.780 18.010 18.260 18.430 18.380 8.840 8.360 0.9730 20.418 11.480 8.941 21.176 11.053 10.131
VANMET_231 2018-07-16 21:50:00 231 11739.0 17.890 18.140 18.340 18.450 18.630 55.230 51.800 8.800 8.370 21.530 18.500 12.790 9.340 0.128 0.180 0.278 0.575 0.00 0.00 0.00 0.7360 359.20 12.54 17.920 18.190 18.380 18.710 18.470 8.990 8.430 17.860 18.080 18.310 18.560 18.430 8.660 8.260 0.9410 20.495 11.326 9.176 21.229 11.000 10.232
VANMET_231 2018-07-16 21:45:00 231 11739.0 17.910 18.120 18.320 18.420 18.710 54.700 51.780 8.680 8.340 21.560 18.490 12.790 9.340 0.128 0.180 0.278 0.575 0.00 0.00 0.00 0.7610 356.60 7.43 17.930 18.180 18.360 18.830 18.450 8.910 8.370 17.880 18.070 18.290 18.610 18.390 8.500 8.270 0.9870 20.521 11.234 9.296 21.189 10.978 10.217
VANMET_231 2018-07-16 21:40:00 231 11739.0 17.910 18.060 18.320 18.420 18.670 55.010 52.070 8.760 8.420 21.580 18.480 12.790 9.330 0.128 0.180 0.278 0.575 0.00 0.00 0.00 0.7920 1.41 7.99 17.940 18.070 18.340 18.740 18.450 8.900 8.550 17.890 18.060 18.290 18.640 18.390 8.540 8.250 0.8560 20.521 11.295 9.233 21.189 11.038 10.156
VANMET_231 2018-07-16 21:35:00 231 11739.0 17.970 18.100 18.350 18.490 18.650 55.490 52.500 8.950 8.610 21.600 18.470 12.790 9.330 0.128 0.180 0.278 0.575 0.00 0.00 0.00 0.7550 2.38 6.74 18.030 18.140 18.370 18.710 18.540 9.110 8.730 17.920 18.080 18.340 18.550 18.440 8.870 8.490 0.8690 20.599 11.441 9.169 21.282 11.181 10.109
VANMET_231 2018-07-16 21:30:00 231 11739.0 18.110 18.200 18.420 18.570 18.550 55.860 52.610 9.170 8.720 21.620 18.460 12.790 9.330 0.127 0.180 0.278 0.575 0.00 0.00 0.00 0.6850 1.92 1.08 18.170 18.250 18.470 18.580 18.620 9.280 8.820 18.030 18.150 18.380 18.540 18.530 8.990 8.590 0.7580 20.781 11.612 9.173 21.389 11.264 10.136
VANMET_231 2018-07-16 21:25:00 231 11739.0 18.280 18.390 18.570 18.680 18.700 55.470 52.360 9.230 8.740 21.640 18.450 12.790 9.330 0.127 0.180 0.278 0.575 0.00 0.00 0.00 0.7290 1.71 6.52 18.400 18.500 18.640 18.800 18.720 9.540 8.890 18.170 18.260 18.470 18.570 18.620 8.850 8.560 0.9080 21.004 11.659 9.353 21.537 11.280 10.260
VANMET_231 2018-07-16 21:20:00 231 11739.0 18.340 18.540 18.700 18.770 18.850 53.710 51.750 8.800 8.650 21.660 18.440 12.790 9.330 0.127 0.180 0.278 0.575 0.00 0.00 0.00 0.9700 10.78 1.94 18.390 18.560 18.720 18.920 18.790 9.380 8.700 18.250 18.510 18.650 18.780 18.720 8.700 8.610 1.0780 21.083 11.326 9.759 21.658 11.211 10.450
VANMET_231 2018-07-16 21:15:00 231 11739.0 18.200 18.480 18.680 18.750 18.890 54.880 51.810 8.990 8.650 21.680 18.430 12.790 9.330 0.127 0.180 0.278 0.575 0.00 0.00 0.00 0.6880 0.33 14.09 18.260 18.530 18.720 18.970 18.800 9.380 8.780 18.120 18.350 18.570 18.780 18.680 8.710 8.550 0.9280 20.899 11.472 9.429 21.631 11.211 10.424
VANMET_231 2018-07-16 21:10:00 231 11739.0 18.180 18.370 18.570 18.700 18.740 55.990 52.460 9.280 8.790 21.700 18.420 12.790 9.330 0.127 0.180 0.278 0.575 0.00 0.00 0.00 0.7140 0.51 6.43 18.220 18.400 18.600 18.770 18.740 9.390 8.920 18.160 18.350 18.550 18.710 18.670 9.070 8.630 0.9080 20.872 11.699 9.186 21.564 11.318 10.251
VANMET_231 2018-07-16 21:05:00 231 11739.0 18.210 18.440 18.640 18.770 18.800 55.680 52.040 9.220 8.740 21.720 18.410 12.790 9.330 0.127 0.180 0.278 0.575 0.00 0.00 0.00 0.7340 4.26 4.40 18.230 18.460 18.650 18.840 18.790 9.590 8.840 18.170 18.410 18.600 18.720 18.720 8.890 8.650 0.8170 20.912 11.652 9.268 21.658 11.280 10.387
VANMET_231 2018-07-16 21:00:00 231 11739.0 18.260 18.530 18.720 18.820 18.900 56.420 52.240 9.470 8.840 21.740 18.400 12.790 9.330 0.127 0.180 0.278 0.575 0.00 0.00 0.00 0.8180 359.90 7.26 18.320 18.600 18.780 18.970 18.860 9.630 9.010 18.220 18.420 18.640 18.770 18.760 9.280 8.600 1.0390 20.978 11.849 9.142 21.726 11.356 10.376
VANMET_231 2018-07-16 20:55:00 231 11739.0 18.310 18.620 18.780 18.860 18.990 55.130 51.600 9.160 8.700 21.750 18.380 12.780 9.330 0.127 0.180 0.278 0.575 0.00 0.00 0.00 0.8340 5.96 1.55 18.360 18.640 18.800 19.020 18.890 9.810 8.780 18.240 18.600 18.770 18.940 18.830 8.800 8.610 0.9540 21.043 11.604 9.442 21.780 11.249 10.542
VANMET_231 2018-07-16 20:50:00 231 11739.0 18.300 18.610 18.810 18.910 19.020 56.780 51.760 9.600 8.790 21.770 18.370 12.780 9.330 0.127 0.180 0.278 0.575 0.00 0.00 0.00 0.8620 5.51 1.99 18.360 18.630 18.830 19.050 18.930 9.940 8.830 18.230 18.590 18.800 18.990 18.870 8.940 8.730 1.0190 21.030 11.953 9.089 21.849 11.318 10.540
VANMET_231 2018-07-16 20:45:00 231 11739.0 18.380 18.600 18.810 18.950 19.020 56.110 52.210 9.490 8.960 21.790 18.360 12.780 9.330 0.127 0.180 0.278 0.575 0.00 0.00 0.00 0.6560 1.31 7.59 18.410 18.660 18.870 19.060 19.010 9.670 9.030 18.350 18.560 18.770 18.990 18.900 9.190 8.770 0.8170 21.136 11.865 9.277 21.903 11.449 10.468
VANMET_231 2018-07-16 20:40:00 231 11739.0 18.460 18.680 18.900 19.020 19.100 55.770 51.890 9.480 8.930 21.800 18.350 12.780 9.330 0.127 0.180 0.278 0.575 0.00 0.00 0.00 0.7610 1.99 5.64 18.500 18.700 18.910 19.160 19.040 9.660 8.990 18.410 18.660 18.870 19.060 19.000 9.290 8.870 0.9280 21.242 11.857 9.395 21.999 11.426 10.584
VANMET_231 2018-07-16 20:35:00 231 11739.0 18.510 18.670 18.900 19.050 19.160 55.190 51.930 9.370 8.960 21.820 18.330 12.780 9.330 0.127 0.180 0.278 0.575 0.00 0.00 0.00 0.7240 2.80 1.71 18.540 18.690 18.920 19.310 19.080 9.600 9.000 18.470 18.640 18.880 19.080 19.020 9.140 8.870 0.8750 21.309 11.770 9.549 22.040 11.449 10.595
VANMET_231 2018-07-16 20:30:00 231 11739.0 18.580 18.710 18.950 19.120 19.190 54.970 51.630 9.370 8.950 21.830 18.320 12.780 9.330 0.127 0.180 0.278 0.575 0.00 0.00 0.00 0.7800 0.85 5.40 18.630 18.780 19.010 19.260 19.180 9.610 9.090 18.530 18.670 18.920 19.130 19.070 9.150 8.840 0.9470 21.402 11.770 9.638 22.137 11.441 10.707
VANMET_231 2018-07-16 20:25:00 231 11739.0 18.690 18.890 19.110 19.270 19.290 55.230 51.210 9.540 8.960 21.850 18.310 12.780 9.330 0.127 0.180 0.278 0.575 0.00 0.00 0.00 0.6460 358.80 6.40 18.750 18.970 19.190 19.360 19.330 9.720 9.040 18.630 18.790 19.020 19.230 19.200 9.290 8.840 0.7770 21.550 11.905 9.648 22.344 11.449 10.902
VANMET_231 2018-07-16 20:20:00 231 11739.0 18.830 19.020 19.240 19.380 19.430 55.350 50.280 9.700 8.800 21.860 18.290 12.780 9.330 0.127 0.180 0.278 0.575 0.00 0.00 0.00 0.7690 4.03 1.96 18.880 19.050 19.280 19.520 19.430 10.110 8.900 18.770 18.990 19.200 19.370 19.340 9.070 8.730 1.0130 21.740 12.034 9.707 22.498 11.326 11.186
VANMET_231 2018-07-16 20:15:00 231 11739.0 18.970 19.080 19.290 19.470 19.490 54.790 50.330 9.690 8.890 21.870 18.280 12.780 9.330 0.127 0.180 0.278 0.575 0.00 0.00 0.00 0.7620 5.91 5.97 19.090 19.150 19.360 19.550 19.540 10.060 9.190 18.880 19.050 19.270 19.430 19.430 9.200 8.770 0.9410 21.930 12.026 9.915 22.624 11.395 11.237
VANMET_231 2018-07-16 20:10:00 231 11739.0 19.090 19.210 19.420 19.590 19.720 54.180 50.430 9.630 9.030 21.880 18.260 12.780 9.330 0.127 0.180 0.278 0.575 0.00 0.00 0.00 0.8050 0.96 9.29 19.120 19.240 19.450 19.910 19.640 10.170 9.330 19.070 19.170 19.370 19.530 19.550 9.260 8.590 1.0780 22.095 11.978 10.124 22.793 11.503 11.299
VANMET_231 2018-07-16 20:05:00 231 11739.0 19.160 19.230 19.430 19.610 19.730 54.180 49.830 9.700 8.870 21.900 18.250 12.780 9.330 0.127 0.180 0.278 0.575 0.00 0.00 0.00 0.6980 9.04 11.89 19.250 19.280 19.470 19.820 19.660 10.080 9.220 19.120 19.200 19.410 19.670 19.560 9.100 8.550 0.9410 22.192 12.034 10.168 22.822 11.379 11.450
VANMET_231 2018-07-16 20:00:00 231 11739.0 19.280 19.340 19.540 19.750 19.810 54.080 50.180 9.780 9.100 21.910 18.230 12.780 9.330 0.127 0.180 0.278 0.575 0.00 0.00 0.00 0.6690 15.08 11.81 19.340 19.380 19.600 19.860 19.810 10.180 9.290 19.230 19.280 19.470 19.690 19.670 9.410 8.930 0.8560 22.358 12.099 10.267 23.021 11.558 11.469
VANMET_231 2018-07-16 19:55:00 231 11739.0 19.460 19.510 19.690 19.900 19.870 55.190 50.250 10.250 9.270 21.910 18.220 12.780 9.330 0.127 0.180 0.278 0.575 0.00 0.00 0.00 0.6570 15.23 13.19 19.580 19.630 19.800 19.920 20.020 10.660 9.620 19.360 19.390 19.610 19.830 19.810 9.640 9.080 0.9340 22.610 12.486 10.132 23.236 11.691 11.560
VANMET_231 2018-07-16 19:50:00 231 11739.0 19.700 19.790 19.960 20.160 20.080 53.850 49.570 10.110 9.300 21.920 18.200 12.770 9.330 0.127 0.180 0.278 0.575 0.00 0.00 0.00 0.7290 3.44 9.17 19.830 19.940 20.100 20.200 20.300 10.600 9.470 19.600 19.640 19.820 19.940 20.040 9.440 9.130 1.0320 22.950 12.370 10.591 23.613 11.715 11.908
VANMET_231 2018-07-16 19:45:00 231 11739.0 19.940 20.060 20.230 20.470 20.360 52.550 48.910 9.970 9.380 21.930 18.190 12.770 9.320 0.127 0.180 0.278 0.575 0.31 0.00 0.00 0.4420 7.04 3.79 20.020 20.150 20.360 20.500 20.630 10.650 9.670 19.830 19.960 20.110 20.220 20.310 9.530 9.190 0.8430 23.294 12.254 11.053 24.069 11.778 12.297
VANMET_231 2018-07-16 19:40:00 231 11739.0 20.050 20.180 20.410 20.710 20.620 51.470 47.490 9.760 9.160 21.930 18.170 12.770 9.320 0.127 0.180 0.278 0.575 1.61 0.00 0.00 0.0290 328.80 7.21 20.070 20.200 20.440 20.690 20.790 10.240 9.490 20.030 20.140 20.370 20.530 20.630 9.320 8.760 0.2680 23.453 12.083 11.382 24.428 11.604 12.827
VANMET_231 2018-07-16 19:35:00 231 11739.0 20.200 20.250 20.530 20.850 20.690 51.510 47.100 9.910 9.170 21.940 18.160 12.770 9.320 0.127 0.180 0.278 0.575 3.97 0.00 0.00 0.1510 292.40 25.72 20.330 20.380 20.650 20.800 21.000 10.390 9.490 20.070 20.130 20.440 20.610 20.780 9.570 8.600 0.7840 23.671 12.205 11.478 24.639 11.612 13.034
VANMET_231 2018-07-16 19:30:00 231 11739.0 20.420 20.570 20.810 21.180 21.040 50.180 46.380 9.720 9.240 21.940 18.140 12.770 9.320 0.127 0.180 0.278 0.575 5.81 0.00 0.00 0.1620 277.70 13.58 20.500 20.640 20.880 21.200 21.290 10.360 9.460 20.340 20.400 20.670 20.810 21.040 9.450 8.970 0.4510 23.995 12.050 11.954 25.143 11.667 13.482
VANMET_231 2018-07-16 19:25:00 231 11739.0 20.570 20.670 20.890 21.260 21.290 49.200 44.920 9.560 8.840 21.950 18.120 12.770 9.320 0.127 0.180 0.278 0.575 7.43 0.00 0.00 0.1870 288.30 32.50 20.670 20.710 20.930 21.610 21.290 9.870 9.230 20.500 20.630 20.860 21.090 21.230 9.240 8.400 0.7120 24.218 11.921 12.303 25.267 11.356 13.917
VANMET_231 2018-07-16 19:20:00 231 11739.0 20.720 20.810 21.010 21.370 21.280 48.530 45.100 9.490 9.000 21.950 18.110 12.770 9.320 0.127 0.180 0.278 0.575 9.27 0.00 0.00 0.2070 300.60 41.35 20.760 20.890 21.080 21.590 21.460 10.190 9.410 20.660 20.730 20.920 21.170 21.290 9.170 8.520 0.4510 24.443 11.865 12.581 25.438 11.480 13.965
VANMET_231 2018-07-16 19:15:00 231 11739.0 20.830 21.010 21.200 21.580 21.460 48.300 44.980 9.530 9.150 21.950 18.090 12.770 9.320 0.127 0.180 0.278 0.575 11.14 0.00 0.00 0.4210 328.00 45.51 20.890 21.080 21.270 21.660 21.660 10.010 9.360 20.780 20.900 21.090 21.260 21.470 9.270 8.810 0.7580 24.609 11.897 12.723 25.767 11.597 14.177
VANMET_231 2018-07-16 19:10:00 231 11739.0 20.990 21.150 21.340 21.770 21.580 47.680 44.200 9.480 9.070 21.950 18.080 12.770 9.320 0.127 0.180 0.278 0.575 12.78 0.00 0.00 0.5900 321.60 21.84 21.120 21.280 21.460 21.730 21.880 9.740 9.190 20.880 21.060 21.240 21.470 21.640 9.250 8.610 0.8690 24.852 11.857 13.003 26.068 11.534 14.546
VANMET_231 2018-07-16 19:05:00 231 11739.0 21.240 21.380 21.560 21.950 21.830 46.400 43.080 9.310 8.850 21.950 18.060 12.770 9.320 0.127 0.180 0.278 0.575 14.32 0.00 0.00 0.4060 304.70 22.39 21.350 21.470 21.650 21.910 22.010 9.860 9.110 21.120 21.290 21.470 21.720 21.870 8.950 8.650 0.6080 25.236 11.722 13.527 26.356 11.364 15.002
VANMET_231 2018-07-16 19:00:00 231 11739.0 21.410 21.550 21.720 22.070 21.900 45.700 42.700 9.240 8.830 21.940 18.040 12.770 9.320 0.127 0.180 0.278 0.575 15.79 0.00 0.00 0.4860 341.10 42.47 21.500 21.640 21.830 21.990 22.190 9.840 9.070 21.350 21.480 21.650 21.780 22.010 8.890 8.240 1.4240 25.500 11.667 13.847 26.549 11.349 15.213
VANMET_231 2018-07-16 18:55:00 231 11739.0 21.590 21.760 21.970 22.350 22.130 44.630 41.820 9.040 8.770 21.940 18.020 12.770 9.320 0.127 0.180 0.278 0.575 17.46 0.00 0.00 0.3220 317.40 14.82 21.690 21.870 22.100 22.250 22.480 9.380 8.930 21.490 21.660 21.850 22.040 22.200 8.840 8.650 0.5880 25.783 11.511 14.276 27.005 11.303 15.712
VANMET_231 2018-07-16 18:50:00 231 11739.0 21.730 21.960 22.240 22.660 22.380 43.880 40.700 8.920 8.650 21.930 18.010 12.770 9.320 0.127 0.180 0.278 0.575 19.61 0.00 0.00 0.4760 355.60 27.28 21.770 22.040 22.370 22.500 22.820 9.280 8.890 21.670 21.880 22.110 22.230 22.500 8.590 8.460 0.8170 26.004 11.418 14.594 27.518 11.211 16.318
VANMET_231 2018-07-16 18:45:00 231 11739.0 21.840 22.150 22.490 22.910 22.700 43.430 39.630 8.870 8.480 21.920 17.990 12.760 9.320 0.127 0.180 0.278 0.575 21.43 0.00 0.00 0.4070 325.80 23.32 21.870 22.210 22.560 22.970 22.960 9.300 8.650 21.780 22.050 22.390 22.420 22.840 8.620 8.060 0.6930 26.180 11.379 14.810 27.938 11.083 16.866
VANMET_231 2018-07-16 18:40:00 231 11739.0 21.900 22.230 22.560 22.950 22.890 43.220 39.630 8.850 8.510 21.910 17.970 12.760 9.320 0.127 0.180 0.278 0.575 22.87 0.00 0.00 0.2800 301.90 53.09 21.940 22.260 22.590 23.000 22.990 9.420 8.890 21.860 22.200 22.530 22.790 22.920 8.560 8.190 0.6080 26.276 11.364 14.919 28.006 11.105 16.907
VANMET_231 2018-07-16 18:35:00 231 11739.0 21.950 22.300 22.640 23.060 22.850 42.930 39.180 8.790 8.440 21.900 17.960 12.760 9.320 0.127 0.180 0.278 0.575 24.43 0.00 0.00 0.3280 308.30 66.40 22.020 22.400 22.740 23.000 23.170 9.700 8.750 21.870 22.210 22.560 22.590 22.970 8.430 8.040 0.6990 26.356 11.318 15.041 28.193 11.053 17.147
VANMET_231 2018-07-16 18:30:00 231 11739.0 22.130 22.490 22.850 23.300 22.970 43.280 38.750 9.080 8.490 21.890 17.940 12.760 9.320 0.127 0.180 0.278 0.575 26.32 0.00 0.00 0.6140 259.90 39.75 22.270 22.620 22.970 23.120 23.430 9.510 8.820 22.010 22.410 22.750 22.850 23.180 8.760 7.878 1.6460 26.646 11.542 15.114 28.605 11.090 17.520
VANMET_231 2018-07-16 18:25:00 231 11739.0 22.470 22.830 23.210 23.660 23.160 42.620 38.590 9.160 8.750 21.870 17.920 12.760 9.320 0.127 0.180 0.278 0.575 27.75 0.00 0.00 0.6070 264.50 33.33 22.630 23.010 23.400 23.560 23.820 9.670 9.350 22.290 22.630 22.980 22.750 23.440 8.680 8.190 1.2280 27.203 11.604 15.609 29.232 11.287 17.951
VANMET_231 2018-07-16 18:20:00 231 11739.0 22.790 23.110 23.550 23.960 23.500 41.900 36.270 9.190 8.100 21.850 17.900 12.760 9.320 0.127 0.180 0.278 0.575 28.80 0.00 0.00 0.8120 252.40 32.79 23.020 23.320 23.770 23.720 24.140 9.850 9.020 22.660 23.020 23.410 23.370 23.810 8.570 7.544 1.8420 27.736 11.628 16.115 29.764 10.800 18.969
VANMET_231 2018-07-16 18:15:00 231 11739.0 23.330 23.550 23.940 24.350 23.860 40.610 34.600 9.210 7.754 21.830 17.890 12.760 9.320 0.127 0.180 0.278 0.575 29.36 0.00 0.00 0.5210 259.10 31.62 23.610 23.760 24.110 24.130 24.480 9.620 8.570 23.020 23.330 23.770 23.510 24.170 8.470 6.852 1.0650 28.657 11.644 17.019 30.468 10.549 19.926
VANMET_231 2018-07-16 18:10:00 231 11739.0 23.890 23.970 24.260 24.620 24.160 40.760 34.100 9.770 7.773 21.810 17.870 12.760 9.320 0.127 0.180 0.278 0.575 30.69 0.00 0.00 0.5800 258.10 27.38 24.140 24.230 24.470 24.300 24.820 10.880 8.640 23.650 23.770 24.130 23.950 24.480 8.650 6.816 0.9150 29.639 12.091 17.558 30.964 10.562 20.405
VANMET_231 2018-07-16 18:05:00 231 11739.0 24.270 24.390 24.620 24.880 24.770 36.400 32.240 8.370 7.171 21.790 17.850 12.760 9.320 0.127 0.180 0.278 0.575 51.38 0.00 0.00 0.9270 255.60 45.21 24.320 24.460 24.680 25.100 24.910 10.760 9.230 24.150 24.250 24.500 24.310 24.830 6.334 6.208 1.8490 30.322 11.000 19.285 31.448 10.136 21.309
VANMET_231 2018-07-16 18:00:00 231 11739.0 24.360 24.480 24.680 24.950 24.830 33.990 31.520 7.482 6.910 21.770 17.840 12.760 9.320 0.127 0.180 0.278 0.575 72.54 0.00 0.00 1.0690 244.70 21.23 24.410 24.570 24.770 24.970 25.010 10.450 7.855 24.300 24.410 24.600 24.670 24.880 6.427 6.240 2.0970 30.486 10.354 20.124 31.580 9.956 21.626
VANMET_231 2018-07-16 17:55:00 231 11739.0 24.610 24.610 24.810 25.190 24.710 37.220 32.920 9.000 7.721 21.740 17.820 12.760 9.320 0.127 0.180 0.278 0.575 96.60 0.00 0.00 0.7510 263.10 34.17 24.830 24.850 25.030 25.050 25.360 11.080 10.290 24.360 24.360 24.580 24.410 24.960 6.488 6.160 2.3910 30.945 11.480 19.428 32.034 10.525 21.488
VANMET_231 2018-07-16 17:50:00 231 11739.0 24.750 24.830 25.050 25.420 25.240 30.900 28.840 6.444 6.037 21.720 17.800 12.760 9.310 0.127 0.180 0.278 0.575 61.02 0.00 0.00 0.5960 247.00 33.57 24.840 25.000 25.190 25.580 25.480 7.253 6.697 24.660 24.660 24.920 24.870 25.370 5.553 5.382 1.9730 31.205 9.642 21.563 32.475 9.375 23.109
VANMET_231 2018-07-16 17:45:00 231 11739.0 24.980 24.910 25.170 25.760 25.020 32.730 29.810 7.485 6.800 21.690 17.790 12.750 9.310 0.127 0.180 0.278 0.575 179.60 0.00 0.00 0.7940 278.50 39.67 25.240 25.100 25.370 25.140 26.030 8.160 7.560 24.750 24.700 24.960 24.820 25.490 6.813 5.897 1.5350 31.636 10.357 21.282 33.136 9.881 23.258
VANMET_231 2018-07-16 17:40:00 231 11739.0 25.550 25.420 25.740 26.370 25.200 32.460 28.850 7.861 6.851 21.660 17.770 12.750 9.310 0.127 0.180 0.278 0.575 201.50 0.00 0.00 0.8520 246.80 39.95 25.940 25.870 26.280 25.330 26.710 8.690 8.310 25.250 25.130 25.410 25.080 26.050 6.446 5.664 1.4900 32.726 10.626 22.103 34.352 9.916 24.442
VANMET_231 2018-07-16 17:35:00 231 11739.0 26.270 26.250 26.560 26.610 25.650 30.530 28.470 7.583 6.867 21.630 17.750 12.750 9.310 0.127 0.180 0.278 0.575 348.20 0.00 0.00 0.7310 253.40 52.88 26.560 26.500 26.710 25.970 26.720 9.070 7.766 25.960 25.930 26.340 25.440 26.530 6.615 5.736 1.6660 34.150 10.426 23.724 34.841 9.927 24.922
VANMET_231 2018-07-16 17:30:00 231 11739.0 26.690 26.840 26.960 26.790 26.000 30.150 28.750 7.752 7.146 21.590 17.740 12.750 9.310 0.127 0.180 0.278 0.575 372.20 0.00 0.00 1.4610 225.80 31.71 26.770 27.120 27.230 26.080 27.010 8.960 8.480 26.560 26.550 26.740 25.870 26.640 5.660 5.502 2.7570 35.005 10.547 24.451 35.212 10.119 25.088
VANMET_231 2018-07-16 17:25:00 231 11739.0 26.710 27.070 27.150 26.920 26.060 30.690 30.180 8.050 7.986 21.560 17.720 12.750 9.310 0.127 0.180 0.278 0.575 386.00 0.00 0.00 0.8060 240.30 37.79 26.790 27.240 27.310 26.160 27.030 9.060 8.340 26.610 26.880 26.940 25.880 26.780 7.562 7.572 2.0320 35.047 10.764 24.291 35.482 10.717 24.773
VANMET_231 2018-07-16 17:20:00 231 11739.0 26.720 26.960 26.990 26.860 26.100 32.230 30.720 8.780 8.190 21.520 17.710 12.750 9.310 0.127 0.180 0.278 0.575 402.60 0.00 0.00 1.3540 240.30 26.39 26.790 27.100 27.180 26.240 26.930 9.490 9.030 26.640 26.830 26.840 25.930 26.750 7.894 7.101 2.5940 35.067 11.310 23.765 35.357 10.867 24.495
VANMET_231 2018-07-16 17:15:00 231 11739.0 26.750 26.960 26.980 26.830 26.200 32.580 31.920 8.960 8.740 21.490 17.690 12.750 9.310 0.127 0.180 0.278 0.575 417.40 0.00 0.00 0.9570 243.60 44.05 26.800 27.100 27.160 26.350 26.910 10.010 9.680 26.710 26.860 26.870 26.090 26.780 8.210 8.290 2.2080 35.129 11.449 23.684 35.295 11.280 24.029
VANMET_231 2018-07-16 17:10:00 231 11739.0 26.660 26.900 26.920 26.920 26.350 32.210 31.520 8.720 8.630 21.450 17.680 12.750 9.310 0.127 0.180 0.278 0.575 433.70 0.00 0.00 1.1230 246.30 36.47 26.700 27.000 27.040 26.450 27.090 9.370 9.030 26.610 26.840 26.820 26.260 26.790 8.040 7.893 3.2340 34.944 11.264 23.688 35.482 11.196 24.298
VANMET_231 2018-07-16 17:05:00 231 11739.0 26.710 27.020 27.180 27.150 26.350 33.040 31.740 9.140 8.930 21.410 17.660 12.750 9.310 0.127 0.180 0.278 0.575 450.30 0.00 0.00 1.1380 250.50 30.89 26.760 27.110 27.300 26.410 27.200 9.910 9.460 26.660 26.860 27.040 26.270 27.080 7.987 8.400 2.3910 35.047 11.589 23.467 35.963 11.426 24.549
VANMET_231 2018-07-16 17:00:00 231 11739.0 26.790 26.990 27.190 27.230 26.380 33.030 31.690 9.210 8.970 21.370 17.650 12.750 9.310 0.127 0.180 0.278 0.575 465.00 0.00 0.00 1.0740 263.40 33.87 26.830 27.090 27.310 26.460 27.290 10.030 9.490 26.740 26.880 27.060 26.290 27.130 8.090 7.931 1.7770 35.212 11.644 23.581 36.132 11.457 24.682
VANMET_231 2018-07-16 16:55:00 231 11739.0 26.750 26.910 27.240 27.450 26.580 33.000 30.570 9.150 8.630 21.330 17.630 12.750 9.310 0.127 0.180 0.278 0.575 480.50 0.00 0.00 1.5580 222.70 31.77 26.780 27.010 27.450 26.690 27.660 10.380 9.690 26.710 26.840 27.160 26.350 27.300 7.907 7.906 2.1360 35.129 11.597 23.536 36.601 11.196 25.412
VANMET_231 2018-07-16 16:50:00 231 11739.0 26.840 27.150 27.630 27.750 26.740 33.150 31.080 9.300 9.140 21.290 17.620 12.750 9.310 0.127 0.180 0.278 0.575 494.00 0.00 0.00 1.0670 260.50 32.56 26.940 27.300 27.750 26.810 27.810 10.300 9.890 26.770 27.030 27.490 26.610 27.690 8.480 8.760 2.7310 35.315 11.715 23.608 37.247 11.589 25.671
VANMET_231 2018-07-16 16:45:00 231 11739.0 26.960 27.230 27.770 27.820 26.800 34.210 31.690 9.870 9.490 21.250 17.610 12.750 9.310 0.127 0.180 0.278 0.575 511.50 0.00 0.00 0.8880 249.50 49.38 27.080 27.360 27.880 26.930 27.940 10.850 9.910 26.800 27.080 27.600 26.660 27.750 8.920 8.830 3.0310 35.565 12.172 23.398 37.400 11.865 25.548
VANMET_231 2018-07-16 16:40:00 231 11739.0 27.260 27.340 27.800 27.750 26.960 33.330 31.870 9.750 9.520 21.210 17.590 12.750 9.310 0.127 0.180 0.278 0.575 526.30 0.00 0.00 1.1800 249.30 33.33 27.460 27.390 27.900 27.130 27.850 11.100 10.070 27.080 27.280 27.730 26.790 27.660 8.950 8.950 2.3260 36.196 12.075 24.132 37.247 11.889 25.377
VANMET_231 2018-07-16 16:35:00 231 11739.0 27.760 27.630 27.630 27.610 27.130 32.230 31.880 9.680 9.390 21.170 17.580 12.750 9.310 0.127 0.180 0.278 0.575 542.80 0.00 0.00 1.3930 255.20 41.22 28.080 27.930 27.740 27.350 27.660 10.660 10.310 27.470 27.400 27.450 26.940 27.530 8.730 8.820 3.4370 37.269 12.018 25.257 36.944 11.786 25.166
VANMET_231 2018-07-16 16:30:00 231 11739.0 28.330 28.110 27.900 27.810 27.280 31.640 31.760 9.900 9.510 21.120 17.570 12.750 9.310 0.127 0.180 0.278 0.575 554.80 0.00 0.00 1.3010 223.10 25.45 28.510 28.330 28.150 27.460 27.990 11.010 10.360 28.100 27.890 27.650 27.110 27.630 8.770 8.790 2.0970 38.526 12.197 26.337 37.378 11.881 25.507
VANMET_231 2018-07-16 16:25:00 231 11739.0 28.590 28.580 28.390 28.140 27.460 30.760 31.120 9.710 9.500 21.080 17.550 12.750 9.310 0.127 0.180 0.278 0.575 568.00 0.00 0.00 1.2820 253.70 29.09 28.640 28.710 28.520 27.570 28.230 10.720 10.140 28.500 28.350 28.160 27.350 27.980 9.070 9.170 3.0900 39.112 12.042 27.081 38.103 11.873 26.246
VANMET_231 2018-07-16 16:20:00 231 11739.0 28.490 28.370 28.230 28.140 27.520 32.020 32.490 10.210 10.130 21.030 17.540 12.750 9.310 0.127 0.180 0.278 0.575 582.70 0.00 0.00 1.0010 263.50 47.62 28.550 28.540 28.390 27.660 28.210 12.460 10.940 28.410 28.250 28.110 27.410 28.070 9.040 9.050 1.8950 38.886 12.453 26.435 38.103 12.386 25.723
VANMET_231 2018-07-16 16:15:00 231 11739.0 28.830 28.510 28.310 28.380 27.580 30.100 31.080 9.580 9.670 20.980 17.530 12.750 9.310 0.127 0.180 0.278 0.576 596.80 0.00 0.00 1.2750 254.50 36.45 29.200 28.790 28.560 27.850 28.600 10.560 10.930 28.490 28.280 28.070 27.440 28.070 8.430 8.700 2.0250 39.659 11.937 27.722 38.638 12.010 26.630
VANMET_231 2018-07-16 16:10:00 231 11739.0 29.390 29.080 28.870 28.800 28.110 30.570 31.060 10.280 10.010 20.940 17.520 12.750 9.310 0.127 0.180 0.279 0.576 609.90 0.00 0.00 1.4980 235.80 31.86 29.530 29.310 29.110 28.250 28.930 13.150 12.480 29.260 28.830 28.610 27.930 28.610 9.200 8.650 2.4170 40.963 12.511 28.440 39.591 12.287 27.294
VANMET_231 2018-07-16 16:05:00 231 11739.0 29.330 29.120 28.870 28.730 28.200 32.040 31.720 10.930 10.260 20.890 17.510 12.750 9.310 0.127 0.180 0.279 0.576 625.30 0.00 0.00 1.0120 208.90 36.78 29.500 29.270 29.040 28.390 28.800 13.760 11.890 29.150 29.030 28.790 28.010 28.650 9.000 8.930 2.6000 40.821 13.065 27.742 39.430 12.494 26.923
VANMET_231 2018-07-16 16:00:00 231 11739.0 29.340 29.320 29.090 28.940 28.250 29.670 30.110 9.810 9.690 20.840 17.500 12.750 9.310 0.127 0.180 0.279 0.576 640.20 0.00 0.00 1.7260 234.00 17.19 29.510 29.590 29.290 28.440 29.070 11.230 10.540 29.180 29.070 28.840 28.150 28.810 8.520 8.830 3.7960 40.845 12.123 28.726 39.912 12.026 27.895
VANMET_231 2018-07-16 15:55:00 231 11739.0 29.440 29.330 29.200 28.970 28.070 29.040 29.700 9.580 9.520 20.790 17.490 12.750 9.310 0.127 0.180 0.279 0.576 651.10 0.00 0.00 0.7660 266.00 32.38 29.470 29.560 29.320 28.260 29.030 10.820 10.110 29.370 29.220 29.110 27.920 28.930 8.480 8.640 1.3130 41.081 11.937 29.151 39.982 11.889 28.107
VANMET_231 2018-07-16 15:50:00 231 11739.0 29.330 29.100 28.960 28.860 28.270 31.300 30.540 10.590 9.830 20.740 17.480 12.750 9.300 0.127 0.180 0.279 0.576 667.20 0.00 0.00 1.3260 265.00 45.76 29.410 29.260 29.140 28.370 28.950 11.970 11.010 29.240 29.010 28.870 28.120 28.810 9.530 8.950 3.0380 40.821 12.773 28.044 39.728 12.140 27.595
VANMET_231 2018-07-16 15:45:00 231 11739.0 29.410 29.070 28.820 28.730 28.140 29.990 30.580 10.020 9.740 20.690 17.470 12.750 9.300 0.128 0.180 0.279 0.576 682.00 0.00 0.00 1.2400 230.00 76.03 29.460 29.160 28.900 28.330 28.820 11.570 10.840 29.350 28.930 28.610 27.890 28.600 8.500 8.750 2.9470 41.010 12.295 28.711 39.430 12.066 27.373
VANMET_231 2018-07-16 15:40:00 231 11739.0 29.490 29.180 28.890 28.820 28.350 30.290 30.720 10.230 9.880 20.640 17.460 12.740 9.300 0.128 0.181 0.279 0.576 695.90 0.00 0.00 1.5150 212.90 39.67 29.690 29.400 29.090 28.610 28.920 12.210 10.830 29.370 29.060 28.770 28.130 28.740 8.540 8.480 3.6060 41.199 12.469 28.720 39.636 12.180 27.460
VANMET_231 2018-07-16 15:35:00 231 11739.0 29.410 29.230 28.950 28.850 28.440 29.580 29.540 9.830 9.330 20.580 17.450 12.740 9.300 0.128 0.181 0.279 0.576 711.00 0.00 0.00 1.3970 237.70 42.00 29.450 29.390 29.160 28.630 28.970 11.250 10.150 29.360 29.120 28.820 28.200 28.790 8.230 8.520 2.4760 41.010 12.140 28.879 39.705 11.738 27.976
VANMET_231 2018-07-16 15:30:00 231 11739.0 29.390 29.170 28.930 28.870 28.490 28.950 29.100 9.480 9.120 20.530 17.440 12.750 9.300 0.128 0.181 0.279 0.576 727.10 0.00 0.00 1.7540 259.80 22.10 29.470 29.320 29.120 28.610 29.020 11.710 11.100 29.350 29.050 28.800 28.380 28.770 8.380 8.360 3.8810 40.963 11.857 29.104 39.751 11.573 28.184
VANMET_231 2018-07-16 15:25:00 231 11739.0 29.500 29.320 29.100 28.990 28.600 29.500 29.690 9.850 9.520 20.480 17.430 12.750 9.300 0.128 0.181 0.279 0.576 733.70 0.00 0.00 1.3460 227.10 31.41 29.550 29.410 29.200 28.730 29.070 12.030 10.650 29.400 29.210 28.920 28.320 28.870 8.650 8.570 3.2990 41.223 12.156 29.062 40.028 11.889 28.144
VANMET_231 2018-07-16 15:20:00 231 11739.0 29.520 29.130 28.870 28.910 28.380 29.010 29.320 9.600 9.260 20.420 17.420 12.750 9.300 0.128 0.181 0.279 0.576 743.70 0.00 0.00 1.6000 271.90 48.47 29.780 29.370 29.130 28.590 29.160 12.280 10.880 29.320 28.950 28.730 28.220 28.780 8.140 8.280 3.2600 41.270 11.953 29.298 39.843 11.683 28.161
VANMET_231 2018-07-16 15:15:00 231 11739.0 30.240 29.780 29.490 29.350 28.810 29.210 29.610 10.340 9.780 20.370 17.410 12.750 9.300 0.128 0.181 0.279 0.576 751.50 0.00 0.00 1.4340 249.50 42.75 30.440 30.120 29.800 29.150 29.570 12.220 11.050 29.770 29.290 29.070 28.370 29.100 8.190 8.380 2.7240 43.012 12.561 30.448 40.868 12.099 28.767
VANMET_231 2018-07-16 15:10:00 231 11739.0 30.130 29.680 29.290 29.050 28.790 28.970 29.390 10.110 9.420 20.320 17.410 12.750 9.300 0.128 0.181 0.279 0.576 764.70 0.00 0.00 1.1950 224.10 45.00 30.360 30.010 29.650 29.050 29.260 12.680 11.310 29.910 29.410 29.010 28.560 28.940 8.420 8.580 3.0770 42.742 12.370 30.360 40.167 11.810 28.362
VANMET_231 2018-07-16 15:05:00 231 11739.0 30.040 29.530 29.170 29.150 28.880 27.930 28.650 9.490 9.140 20.260 17.400 12.750 9.300 0.128 0.181 0.279 0.576 780.60 0.00 0.00 1.8170 240.20 23.95 30.200 29.760 29.420 29.090 29.320 11.470 10.180 29.940 29.260 28.810 28.560 28.910 7.914 8.130 2.8550 42.522 11.865 30.646 40.400 11.589 28.825
VANMET_231 2018-07-16 15:00:00 231 11739.0 30.210 29.690 29.390 29.340 28.780 28.440 28.770 9.920 9.350 20.210 17.390 12.740 9.300 0.128 0.181 0.279 0.576 783.50 0.00 0.00 1.4440 271.90 30.39 30.310 29.770 29.480 28.930 29.420 11.850 10.650 30.160 29.620 29.270 28.660 29.200 8.550 8.320 3.0250 42.938 12.213 30.727 40.845 11.754 29.094
VANMET_231 2018-07-16 14:55:00 231 11739.0 30.480 29.920 29.540 29.490 28.730 26.590 27.660 9.130 8.890 20.150 17.390 12.740 9.300 0.128 0.181 0.279 0.576 793.90 0.00 0.00 1.2870 208.60 54.80 30.800 30.480 30.030 29.280 29.840 11.680 10.300 30.260 29.640 29.300 28.480 29.290 7.493 7.760 3.8740 43.607 11.581 32.012 41.199 11.395 29.804
VANMET_231 2018-07-16 14:50:00 231 11739.0 30.570 30.140 29.790 29.740 29.330 28.370 27.860 10.170 9.220 20.090 17.380 12.740 9.300 0.128 0.181 0.279 0.576 808.00 0.00 0.00 0.9670 245.10 42.42 30.730 30.440 30.010 29.490 29.830 12.550 10.480 30.480 29.930 29.630 29.170 29.650 8.060 8.050 1.4240 43.831 12.419 31.396 41.796 11.652 30.152
VANMET_231 2018-07-16 14:45:00 231 11739.0 30.620 30.310 30.050 29.920 29.550 27.000 26.530 9.480 8.640 20.040 17.380 12.740 9.300 0.128 0.181 0.279 0.576 820.00 0.00 0.00 1.6990 224.10 32.26 30.700 30.570 30.320 30.060 30.080 11.510 11.210 30.560 30.040 29.750 29.260 29.740 7.370 7.217 2.7180 43.957 11.857 32.088 42.230 11.204 31.027
VANMET_231 2018-07-16 14:40:00 231 11739.0 30.310 30.070 29.730 29.500 29.170 26.590 26.980 8.990 8.530 19.980 17.370 12.750 9.300 0.128 0.181 0.279 0.576 829.00 0.00 0.00 0.7640 235.20 52.60 30.660 30.520 30.160 29.640 29.820 10.520 10.090 30.070 29.690 29.400 28.730 29.300 6.335 6.656 2.1690 43.185 11.472 31.702 41.223 11.120 30.101
VANMET_231 2018-07-16 14:35:00 231 11739.0 30.070 29.780 29.440 29.310 29.190 26.390 26.300 8.650 7.993 19.930 17.370 12.750 9.300 0.128 0.181 0.279 0.576 840.00 0.00 0.00 1.2410 262.70 48.07 30.280 30.020 29.650 29.370 29.410 11.040 9.700 29.850 29.440 29.110 28.820 29.130 6.510 6.609 2.8160 42.595 11.211 31.354 40.774 10.722 30.051
VANMET_231 2018-07-16 14:30:00 231 11739.0 30.030 29.660 29.370 29.410 29.150 25.970 26.310 8.400 8.080 19.870 17.360 12.740 9.300 0.128 0.181 0.279 0.576 846.00 0.00 0.00 1.4580 224.70 36.07 30.130 29.870 29.660 29.430 29.580 10.060 10.030 29.830 29.230 28.930 28.620 29.120 6.531 6.675 3.2990 42.498 11.023 31.461 41.010 10.786 30.220
VANMET_231 2018-07-16 14:25:00 231 11739.0 29.930 29.570 29.360 29.290 29.000 27.930 28.380 9.400 9.070 19.810 17.360 12.740 9.300 0.128 0.181 0.279 0.576 853.00 0.00 0.00 1.5410 227.60 35.55 30.040 29.770 29.560 29.370 29.400 11.230 11.320 29.810 29.390 29.170 28.470 29.150 7.539 7.634 2.6660 42.254 11.794 30.453 40.727 11.534 29.169
VANMET_231 2018-07-16 14:20:00 231 11739.0 29.890 29.460 29.220 29.150 28.660 27.050 27.890 8.900 8.730 19.760 17.360 12.750 9.300 0.128 0.181 0.279 0.576 857.00 0.00 0.00 1.0740 265.60 42.06 30.010 29.510 29.270 28.860 29.200 10.790 9.840 29.830 29.410 29.140 28.310 29.080 7.268 7.922 2.1230 42.158 11.402 30.754 40.400 11.272 29.132
VANMET_231 2018-07-16 14:15:00 231 11739.0 30.160 29.600 29.260 29.290 28.810 25.560 26.330 8.310 8.010 19.700 17.350 12.750 9.300 0.128 0.181 0.279 0.576 863.00 0.00 0.00 1.0500 264.10 72.19 30.330 29.810 29.480 29.140 29.500 9.340 8.600 30.030 29.400 29.100 28.480 29.070 7.355 7.516 2.2210 42.815 10.956 31.872 40.727 10.734 30.004
VANMET_231 2018-07-16 14:10:00 231 11739.0 30.350 30.010 29.610 29.470 29.450 27.720 27.900 9.600 8.990 19.650 17.350 12.740 9.300 0.128 0.181 0.279 0.577 871.00 0.00 0.00 1.4040 241.60 36.27 30.550 30.350 29.960 29.790 29.690 12.690 11.310 30.110 29.710 29.340 29.130 29.260 7.324 7.836 2.8550 43.284 11.953 31.285 41.152 11.472 29.670
VANMET_231 2018-07-16 14:05:00 231 11739.0 30.120 29.710 29.390 29.410 29.110 26.910 27.320